<?xml version='1.0' encoding='UTF-8'?><gpx version="1.1" creator="JPX - https://github.com/jenetics/jpx" xmlns="http://www.topografix.com/GPX/1/1"><trk><trkseg><trkpt lat="43.0511157" lon="12.3305751"><ele>297.8333333333333</ele><time>2026-04-19T06:10:05.822Z</time></trkpt><trkpt lat="43.051149" lon="12.3304796"><ele>297.66666666666663</ele><time>2026-04-19T06:10:14.835Z</time></trkpt><trkpt lat="43.0511078" lon="12.3303879"><ele>297.5</ele><time>2026-04-19T06:12:11.743Z</time></trkpt><trkpt lat="43.051058" lon="12.3304493"><ele>297.3333333333333</ele><time>2026-04-19T06:14:50.827Z</time></trkpt><trkpt lat="43.0509886" lon="12.3305086"><ele>297.1666666666667</ele><time>2026-04-19T06:14:52.82Z</time></trkpt><trkpt lat="43.0511106" lon="12.3305199"><ele>297.0</ele><time>2026-04-19T06:16:21.833Z</time></trkpt><trkpt lat="43.0510469" lon="12.3305237"><ele>297.5</ele><time>2026-04-19T06:17:27.831Z</time></trkpt><trkpt lat="43.050836" lon="12.3309282"><ele>298.0</ele><time>2026-04-19T06:18:14.832Z</time></trkpt><trkpt lat="43.0511993" lon="12.3307535"><ele>298.0</ele><time>2026-04-19T06:19:00.833Z</time></trkpt><trkpt lat="43.0511886" lon="12.3308545"><ele>298.0</ele><time>2026-04-19T06:19:14.833Z</time></trkpt><trkpt lat="43.0511503" lon="12.3310032"><ele>298.0</ele><time>2026-04-19T06:19:18.832Z</time></trkpt><trkpt lat="43.051086" lon="12.3309949"><ele>298.0</ele><time>2026-04-19T06:19:25.857Z</time></trkpt><trkpt lat="43.051033" lon="12.3309385"><ele>298.0</ele><time>2026-04-19T06:19:34.833Z</time></trkpt><trkpt lat="43.0510115" lon="12.3308569"><ele>298.0</ele><time>2026-04-19T06:19:54.84Z</time></trkpt><trkpt lat="43.0510338" lon="12.3307424"><ele>298.0</ele><time>2026-04-19T06:20:06.87Z</time></trkpt><trkpt lat="43.0510901" lon="12.3306284"><ele>298.0</ele><time>2026-04-19T06:20:23.832Z</time></trkpt><trkpt lat="43.0511331" lon="12.330519"><ele>298.0</ele><time>2026-04-19T06:20:24.831Z</time></trkpt><trkpt lat="43.0511815" lon="12.3304341"><ele>298.0</ele><time>2026-04-19T06:20:31.833Z</time></trkpt><trkpt lat="43.0511232" lon="12.3303832"><ele>298.0</ele><time>2026-04-19T06:20:55.837Z</time></trkpt><trkpt lat="43.0509925" lon="12.3303642"><ele>297.8333333333333</ele><time>2026-04-19T06:20:57.887Z</time></trkpt><trkpt lat="43.0509216" lon="12.330343"><ele>297.66666666666663</ele><time>2026-04-19T06:21:01.843Z</time></trkpt><trkpt lat="43.0509948" lon="12.3303869"><ele>297.5</ele><time>2026-04-19T06:21:06.833Z</time></trkpt><trkpt lat="43.0511204" lon="12.330442"><ele>297.3333333333333</ele><time>2026-04-19T06:21:18.82Z</time></trkpt><trkpt lat="43.0511848" lon="12.3304577"><ele>297.1666666666667</ele><time>2026-04-19T06:21:23.819Z</time></trkpt><trkpt lat="43.0511098" lon="12.3304271"><ele>297.0</ele><time>2026-04-19T06:22:17.867Z</time></trkpt><trkpt lat="43.0510333" lon="12.3304162"><ele>297.0</ele><time>2026-04-19T06:22:20.822Z</time></trkpt><trkpt lat="43.0510443" lon="12.3303199"><ele>297.0</ele><time>2026-04-19T06:22:37.818Z</time></trkpt><trkpt lat="43.0510774" lon="12.3303945"><ele>297.0</ele><time>2026-04-19T06:23:17.821Z</time></trkpt><trkpt lat="43.0510348" lon="12.3303154"><ele>297.0</ele><time>2026-04-19T06:23:59.836Z</time></trkpt><trkpt lat="43.0510702" lon="12.3303966"><ele>297.0</ele><time>2026-04-19T06:24:26.845Z</time></trkpt><trkpt lat="43.0511293" lon="12.3304296"><ele>297.0</ele><time>2026-04-19T06:24:31.838Z</time></trkpt><trkpt lat="43.0511929" lon="12.330445"><ele>297.0</ele><time>2026-04-19T06:24:54.832Z</time></trkpt><trkpt lat="43.0512546" lon="12.3303939"><ele>297.0</ele><time>2026-04-19T06:24:57.887Z</time></trkpt><trkpt lat="43.0513107" lon="12.3303009"><ele>297.0</ele><time>2026-04-19T06:24:59.832Z</time></trkpt><trkpt lat="43.0513612" lon="12.3302153"><ele>297.0</ele><time>2026-04-19T06:25:01.832Z</time></trkpt><trkpt lat="43.0514126" lon="12.3301469"><ele>297.0</ele><time>2026-04-19T06:25:03.832Z</time></trkpt><trkpt lat="43.0514975" lon="12.3301275"><ele>297.0</ele><time>2026-04-19T06:25:06.832Z</time></trkpt><trkpt lat="43.0515243" lon="12.3300257"><ele>297.0</ele><time>2026-04-19T06:25:10.841Z</time></trkpt><trkpt lat="43.0515084" lon="12.3299035"><ele>297.0</ele><time>2026-04-19T06:25:13.829Z</time></trkpt><trkpt lat="43.0515012" lon="12.3298175"><ele>297.0</ele><time>2026-04-19T06:25:15.828Z</time></trkpt><trkpt lat="43.0515075" lon="12.3296905"><ele>297.0</ele><time>2026-04-19T06:25:18.821Z</time></trkpt><trkpt lat="43.0515124" lon="12.3296008"><ele>297.0</ele><time>2026-04-19T06:25:20.886Z</time></trkpt><trkpt lat="43.0515286" lon="12.3294898"><ele>297.0</ele><time>2026-04-19T06:25:23.816Z</time></trkpt><trkpt lat="43.0515347" lon="12.329359"><ele>297.0</ele><time>2026-04-19T06:25:26.885Z</time></trkpt><trkpt lat="43.0515387" lon="12.3292269"><ele>297.0</ele><time>2026-04-19T06:25:29.832Z</time></trkpt><trkpt lat="43.0515372" lon="12.3291277"><ele>297.0</ele><time>2026-04-19T06:25:31.818Z</time></trkpt><trkpt lat="43.051536" lon="12.3290047"><ele>297.0</ele><time>2026-04-19T06:25:34.825Z</time></trkpt><trkpt lat="43.051545" lon="12.3289189"><ele>297.0</ele><time>2026-04-19T06:25:36.822Z</time></trkpt><trkpt lat="43.0515503" lon="12.3288328"><ele>297.0</ele><time>2026-04-19T06:25:38.88Z</time></trkpt><trkpt lat="43.051556" lon="12.3287141"><ele>297.0</ele><time>2026-04-19T06:25:41.827Z</time></trkpt><trkpt lat="43.0515683" lon="12.3286199"><ele>297.0</ele><time>2026-04-19T06:25:44.925Z</time></trkpt><trkpt lat="43.0516476" lon="12.3286104"><ele>297.0</ele><time>2026-04-19T06:25:47.834Z</time></trkpt><trkpt lat="43.0517208" lon="12.3286251"><ele>297.0</ele><time>2026-04-19T06:25:49.824Z</time></trkpt><trkpt lat="43.0518066" lon="12.3286525"><ele>297.0</ele><time>2026-04-19T06:25:52.817Z</time></trkpt><trkpt lat="43.0518705" lon="12.3286961"><ele>297.0</ele><time>2026-04-19T06:25:54.824Z</time></trkpt><trkpt lat="43.0519216" lon="12.3287591"><ele>297.0</ele><time>2026-04-19T06:25:56.869Z</time></trkpt><trkpt lat="43.051987" lon="12.3288052"><ele>297.0</ele><time>2026-04-19T06:25:58.819Z</time></trkpt><trkpt lat="43.0520497" lon="12.3288567"><ele>297.0</ele><time>2026-04-19T06:26:00.825Z</time></trkpt><trkpt lat="43.0521248" lon="12.3289091"><ele>297.0</ele><time>2026-04-19T06:26:03.823Z</time></trkpt><trkpt lat="43.0521931" lon="12.3289647"><ele>297.0</ele><time>2026-04-19T06:26:06.836Z</time></trkpt><trkpt lat="43.0522603" lon="12.3289897"><ele>297.0</ele><time>2026-04-19T06:26:08.786Z</time></trkpt><trkpt lat="43.0523408" lon="12.3290146"><ele>297.0</ele><time>2026-04-19T06:26:10.838Z</time></trkpt><trkpt lat="43.0524164" lon="12.3290332"><ele>297.0</ele><time>2026-04-19T06:26:12.833Z</time></trkpt><trkpt lat="43.052499" lon="12.3290415"><ele>297.0</ele><time>2026-04-19T06:26:15.84Z</time></trkpt><trkpt lat="43.0525585" lon="12.3289797"><ele>296.6666666666667</ele><time>2026-04-19T06:26:19.745Z</time></trkpt><trkpt lat="43.0525726" lon="12.3288572"><ele>296.3333333333333</ele><time>2026-04-19T06:26:22.838Z</time></trkpt><trkpt lat="43.0525744" lon="12.3287569"><ele>296.0</ele><time>2026-04-19T06:26:24.835Z</time></trkpt><trkpt lat="43.0525653" lon="12.3286666"><ele>295.66666666666663</ele><time>2026-04-19T06:26:26.83Z</time></trkpt><trkpt lat="43.0525756" lon="12.3285598"><ele>295.3333333333333</ele><time>2026-04-19T06:26:29.818Z</time></trkpt><trkpt lat="43.0526029" lon="12.3284599"><ele>295.0</ele><time>2026-04-19T06:26:32.835Z</time></trkpt><trkpt lat="43.0525559" lon="12.3283871"><ele>295.00000000000006</ele><time>2026-04-19T06:26:46.833Z</time></trkpt><trkpt lat="43.0525329" lon="12.328472"><ele>295.0</ele><time>2026-04-19T06:42:38.832Z</time></trkpt><trkpt lat="43.0525287" lon="12.3285704"><ele>295.0</ele><time>2026-04-19T06:42:43.825Z</time></trkpt><trkpt lat="43.052548" lon="12.3286706"><ele>295.0</ele><time>2026-04-19T06:42:47.827Z</time></trkpt><trkpt lat="43.0525714" lon="12.3287771"><ele>295.0</ele><time>2026-04-19T06:42:51.927Z</time></trkpt><trkpt lat="43.0525744" lon="12.328869"><ele>295.00000000000006</ele><time>2026-04-19T06:42:54.828Z</time></trkpt><trkpt lat="43.0525474" lon="12.3289537"><ele>295.0</ele><time>2026-04-19T06:42:57.83Z</time></trkpt><trkpt lat="43.0524761" lon="12.3289905"><ele>295.28571428571433</ele><time>2026-04-19T06:43:01.835Z</time></trkpt><trkpt lat="43.0523957" lon="12.3289799"><ele>295.57142857142856</ele><time>2026-04-19T06:43:05.827Z</time></trkpt><trkpt lat="43.0523192" lon="12.3289686"><ele>295.8571428571429</ele><time>2026-04-19T06:43:09.826Z</time></trkpt><trkpt lat="43.0522481" lon="12.3289583"><ele>296.14285714285717</ele><time>2026-04-19T06:43:12.827Z</time></trkpt><trkpt lat="43.0521734" lon="12.328946"><ele>296.42857142857144</ele><time>2026-04-19T06:43:15.824Z</time></trkpt><trkpt lat="43.0521027" lon="12.3289245"><ele>296.7142857142857</ele><time>2026-04-19T06:43:18.831Z</time></trkpt><trkpt lat="43.0520334" lon="12.3289036"><ele>297.0</ele><time>2026-04-19T06:43:21.83Z</time></trkpt><trkpt lat="43.0519402" lon="12.3288724"><ele>297.0</ele><time>2026-04-19T06:43:23.824Z</time></trkpt><trkpt lat="43.0518762" lon="12.3288451"><ele>297.0</ele><time>2026-04-19T06:43:25.822Z</time></trkpt><trkpt lat="43.0518018" lon="12.328803"><ele>297.0</ele><time>2026-04-19T06:43:28.83Z</time></trkpt><trkpt lat="43.0517303" lon="12.3287574"><ele>297.0</ele><time>2026-04-19T06:43:32.818Z</time></trkpt><trkpt lat="43.0516818" lon="12.3286866"><ele>297.0</ele><time>2026-04-19T06:43:36.821Z</time></trkpt><trkpt lat="43.0516027" lon="12.3286719"><ele>297.0</ele><time>2026-04-19T06:43:40.815Z</time></trkpt><trkpt lat="43.0515382" lon="12.3286554"><ele>297.0</ele><time>2026-04-19T06:43:43.814Z</time></trkpt><trkpt lat="43.0514608" lon="12.3286289"><ele>296.8333333333333</ele><time>2026-04-19T06:43:47.819Z</time></trkpt><trkpt lat="43.0513905" lon="12.328632"><ele>296.6666666666667</ele><time>2026-04-19T06:43:50.814Z</time></trkpt><trkpt lat="43.0513186" lon="12.328648"><ele>296.5</ele><time>2026-04-19T06:43:54.822Z</time></trkpt><trkpt lat="43.0512598" lon="12.3285949"><ele>296.33333333333337</ele><time>2026-04-19T06:43:57.813Z</time></trkpt><trkpt lat="43.0512186" lon="12.3285012"><ele>296.1666666666667</ele><time>2026-04-19T06:44:00.817Z</time></trkpt><trkpt lat="43.0512165" lon="12.3283915"><ele>296.0</ele><time>2026-04-19T06:44:03.88Z</time></trkpt><trkpt lat="43.0511717" lon="12.3282835"><ele>296.0</ele><time>2026-04-19T06:44:06.815Z</time></trkpt><trkpt lat="43.0511262" lon="12.3282144"><ele>296.0</ele><time>2026-04-19T06:44:08.815Z</time></trkpt><trkpt lat="43.0510701" lon="12.3281422"><ele>296.0</ele><time>2026-04-19T06:44:10.824Z</time></trkpt><trkpt lat="43.0510225" lon="12.3280835"><ele>296.0</ele><time>2026-04-19T06:44:12.814Z</time></trkpt><trkpt lat="43.0509616" lon="12.328021"><ele>296.0</ele><time>2026-04-19T06:44:14.817Z</time></trkpt><trkpt lat="43.0509087" lon="12.3279697"><ele>296.0</ele><time>2026-04-19T06:44:16.816Z</time></trkpt><trkpt lat="43.0508411" lon="12.3279175"><ele>296.0</ele><time>2026-04-19T06:44:18.817Z</time></trkpt><trkpt lat="43.0507717" lon="12.3278595"><ele>295.7142857142857</ele><time>2026-04-19T06:44:20.815Z</time></trkpt><trkpt lat="43.050705" lon="12.3277989"><ele>295.42857142857144</ele><time>2026-04-19T06:44:22.814Z</time></trkpt><trkpt lat="43.0506422" lon="12.3277405"><ele>295.1428571428571</ele><time>2026-04-19T06:44:24.814Z</time></trkpt><trkpt lat="43.0505819" lon="12.3276809"><ele>294.8571428571429</ele><time>2026-04-19T06:44:26.818Z</time></trkpt><trkpt lat="43.0505308" lon="12.3276123"><ele>294.57142857142856</ele><time>2026-04-19T06:44:28.821Z</time></trkpt><trkpt lat="43.0504842" lon="12.3275391"><ele>294.2857142857143</ele><time>2026-04-19T06:44:30.815Z</time></trkpt><trkpt lat="43.0504378" lon="12.3274801"><ele>294.0</ele><time>2026-04-19T06:44:32.818Z</time></trkpt><trkpt lat="43.050384" lon="12.3274076"><ele>294.0</ele><time>2026-04-19T06:44:34.821Z</time></trkpt><trkpt lat="43.0503055" lon="12.3273298"><ele>294.0</ele><time>2026-04-19T06:44:37.817Z</time></trkpt><trkpt lat="43.0502346" lon="12.3272828"><ele>294.0</ele><time>2026-04-19T06:44:39.819Z</time></trkpt><trkpt lat="43.0501702" lon="12.3272147"><ele>294.0</ele><time>2026-04-19T06:44:42.814Z</time></trkpt><trkpt lat="43.0501083" lon="12.3271499"><ele>294.0</ele><time>2026-04-19T06:44:44.815Z</time></trkpt><trkpt lat="43.0500459" lon="12.3270875"><ele>294.0</ele><time>2026-04-19T06:44:46.818Z</time></trkpt><trkpt lat="43.0499534" lon="12.3270222"><ele>293.8333333333333</ele><time>2026-04-19T06:44:48.817Z</time></trkpt><trkpt lat="43.0498734" lon="12.3269739"><ele>293.6666666666667</ele><time>2026-04-19T06:44:50.817Z</time></trkpt><trkpt lat="43.0498011" lon="12.3269204"><ele>293.5</ele><time>2026-04-19T06:44:52.814Z</time></trkpt><trkpt lat="43.0497367" lon="12.3268578"><ele>293.33333333333337</ele><time>2026-04-19T06:44:54.812Z</time></trkpt><trkpt lat="43.0496797" lon="12.3268022"><ele>293.1666666666667</ele><time>2026-04-19T06:44:56.818Z</time></trkpt><trkpt lat="43.049609" lon="12.3267418"><ele>293.0</ele><time>2026-04-19T06:44:58.816Z</time></trkpt><trkpt lat="43.0495294" lon="12.326687"><ele>293.0</ele><time>2026-04-19T06:45:00.815Z</time></trkpt><trkpt lat="43.049446" lon="12.3266204"><ele>293.0</ele><time>2026-04-19T06:45:02.82Z</time></trkpt><trkpt lat="43.0493991" lon="12.3265379"><ele>293.0</ele><time>2026-04-19T06:45:04.815Z</time></trkpt><trkpt lat="43.0493817" lon="12.3264424"><ele>293.0</ele><time>2026-04-19T06:45:06.818Z</time></trkpt><trkpt lat="43.0493973" lon="12.3263323"><ele>293.0</ele><time>2026-04-19T06:45:08.82Z</time></trkpt><trkpt lat="43.0494298" lon="12.3262274"><ele>293.0</ele><time>2026-04-19T06:45:10.818Z</time></trkpt><trkpt lat="43.0495442" lon="12.3261597"><ele>293.0</ele><time>2026-04-19T06:45:11.826Z</time></trkpt><trkpt lat="43.0495736" lon="12.3260698"><ele>293.0</ele><time>2026-04-19T06:45:13.828Z</time></trkpt><trkpt lat="43.0496416" lon="12.325949"><ele>293.0</ele><time>2026-04-19T06:45:15.824Z</time></trkpt><trkpt lat="43.0496865" lon="12.325874"><ele>293.0</ele><time>2026-04-19T06:45:16.831Z</time></trkpt><trkpt lat="43.049732" lon="12.3257919"><ele>293.0</ele><time>2026-04-19T06:45:17.828Z</time></trkpt><trkpt lat="43.0497929" lon="12.3256288"><ele>292.1428571428571</ele><time>2026-04-19T06:45:19.818Z</time></trkpt><trkpt lat="43.0498353" lon="12.3255398"><ele>291.2857142857143</ele><time>2026-04-19T06:45:20.836Z</time></trkpt><trkpt lat="43.0498641" lon="12.3254452"><ele>290.42857142857144</ele><time>2026-04-19T06:45:21.823Z</time></trkpt><trkpt lat="43.0499017" lon="12.3253633"><ele>289.57142857142856</ele><time>2026-04-19T06:45:22.84Z</time></trkpt><trkpt lat="43.0499417" lon="12.3252854"><ele>288.7142857142857</ele><time>2026-04-19T06:45:23.832Z</time></trkpt><trkpt lat="43.0499535" lon="12.3251958"><ele>287.85714285714283</ele><time>2026-04-19T06:45:24.826Z</time></trkpt><trkpt lat="43.0499539" lon="12.3251058"><ele>287.0</ele><time>2026-04-19T06:45:25.829Z</time></trkpt><trkpt lat="43.0499316" lon="12.3250087"><ele>287.0</ele><time>2026-04-19T06:45:26.826Z</time></trkpt><trkpt lat="43.049889" lon="12.324932"><ele>287.0</ele><time>2026-04-19T06:45:27.827Z</time></trkpt><trkpt lat="43.0498442" lon="12.3248656"><ele>287.0</ele><time>2026-04-19T06:45:28.827Z</time></trkpt><trkpt lat="43.0497998" lon="12.3247953"><ele>287.0</ele><time>2026-04-19T06:45:29.828Z</time></trkpt><trkpt lat="43.0497542" lon="12.3247352"><ele>287.0</ele><time>2026-04-19T06:45:30.829Z</time></trkpt><trkpt lat="43.04968" lon="12.3246122"><ele>287.0</ele><time>2026-04-19T06:45:32.827Z</time></trkpt><trkpt lat="43.0496057" lon="12.3244921"><ele>286.0</ele><time>2026-04-19T06:45:34.829Z</time></trkpt><trkpt lat="43.0495591" lon="12.3244214"><ele>285.0</ele><time>2026-04-19T06:45:35.825Z</time></trkpt><trkpt lat="43.049534" lon="12.3243422"><ele>284.0</ele><time>2026-04-19T06:45:36.822Z</time></trkpt><trkpt lat="43.0495061" lon="12.3242621"><ele>283.0</ele><time>2026-04-19T06:45:37.827Z</time></trkpt><trkpt lat="43.0494237" lon="12.3241372"><ele>282.0</ele><time>2026-04-19T06:45:39.925Z</time></trkpt><trkpt lat="43.0493505" lon="12.3240025"><ele>281.0</ele><time>2026-04-19T06:45:41.82Z</time></trkpt><trkpt lat="43.049284" lon="12.3238765"><ele>280.6</ele><time>2026-04-19T06:45:43.826Z</time></trkpt><trkpt lat="43.049243" lon="12.3238024"><ele>280.20000000000005</ele><time>2026-04-19T06:45:44.826Z</time></trkpt><trkpt lat="43.0491722" lon="12.3236755"><ele>279.79999999999995</ele><time>2026-04-19T06:45:46.832Z</time></trkpt><trkpt lat="43.0491091" lon="12.3235731"><ele>279.4</ele><time>2026-04-19T06:45:48.836Z</time></trkpt><trkpt lat="43.0490446" lon="12.3234716"><ele>279.0</ele><time>2026-04-19T06:45:50.83Z</time></trkpt><trkpt lat="43.0489888" lon="12.3233618"><ele>279.59999999999997</ele><time>2026-04-19T06:45:52.833Z</time></trkpt><trkpt lat="43.048938" lon="12.3232504"><ele>280.2</ele><time>2026-04-19T06:45:54.83Z</time></trkpt><trkpt lat="43.048894" lon="12.323137"><ele>280.79999999999995</ele><time>2026-04-19T06:45:56.829Z</time></trkpt><trkpt lat="43.0488596" lon="12.3230275"><ele>281.4</ele><time>2026-04-19T06:45:58.827Z</time></trkpt><trkpt lat="43.0488186" lon="12.32291"><ele>282.0</ele><time>2026-04-19T06:46:00.826Z</time></trkpt><trkpt lat="43.0487863" lon="12.322809"><ele>282.0</ele><time>2026-04-19T06:46:02.827Z</time></trkpt><trkpt lat="43.0487335" lon="12.3227018"><ele>282.0</ele><time>2026-04-19T06:46:04.812Z</time></trkpt><trkpt lat="43.0486814" lon="12.3225982"><ele>282.0</ele><time>2026-04-19T06:46:06.824Z</time></trkpt><trkpt lat="43.0486146" lon="12.3225016"><ele>282.0</ele><time>2026-04-19T06:46:08.834Z</time></trkpt><trkpt lat="43.0484989" lon="12.3223723"><ele>282.0</ele><time>2026-04-19T06:46:11.824Z</time></trkpt><trkpt lat="43.0484121" lon="12.3222928"><ele>281.6</ele><time>2026-04-19T06:46:13.824Z</time></trkpt><trkpt lat="43.0483306" lon="12.3222145"><ele>281.2</ele><time>2026-04-19T06:46:15.831Z</time></trkpt><trkpt lat="43.0482589" lon="12.3221321"><ele>280.8</ele><time>2026-04-19T06:46:17.831Z</time></trkpt><trkpt lat="43.0481743" lon="12.3220452"><ele>280.4</ele><time>2026-04-19T06:46:19.828Z</time></trkpt><trkpt lat="43.0480964" lon="12.3219472"><ele>280.0</ele><time>2026-04-19T06:46:21.826Z</time></trkpt><trkpt lat="43.048027" lon="12.321839"><ele>280.0</ele><time>2026-04-19T06:46:23.827Z</time></trkpt><trkpt lat="43.0479532" lon="12.3217173"><ele>280.0</ele><time>2026-04-19T06:46:25.832Z</time></trkpt><trkpt lat="43.0478852" lon="12.3215743"><ele>280.0</ele><time>2026-04-19T06:46:27.815Z</time></trkpt><trkpt lat="43.0478533" lon="12.3214911"><ele>280.0</ele><time>2026-04-19T06:46:28.823Z</time></trkpt><trkpt lat="43.0478224" lon="12.321415"><ele>280.0</ele><time>2026-04-19T06:46:29.826Z</time></trkpt><trkpt lat="43.0477976" lon="12.3213325"><ele>280.0</ele><time>2026-04-19T06:46:30.827Z</time></trkpt><trkpt lat="43.0477784" lon="12.3212461"><ele>279.16666666666663</ele><time>2026-04-19T06:46:31.827Z</time></trkpt><trkpt lat="43.0477526" lon="12.3211518"><ele>278.3333333333333</ele><time>2026-04-19T06:46:32.923Z</time></trkpt><trkpt lat="43.0477266" lon="12.3210551"><ele>277.5</ele><time>2026-04-19T06:46:33.825Z</time></trkpt><trkpt lat="43.0477005" lon="12.3209648"><ele>276.6666666666667</ele><time>2026-04-19T06:46:34.824Z</time></trkpt><trkpt lat="43.0476637" lon="12.3208627"><ele>275.83333333333337</ele><time>2026-04-19T06:46:35.821Z</time></trkpt><trkpt lat="43.0476319" lon="12.3207683"><ele>275.0</ele><time>2026-04-19T06:46:36.82Z</time></trkpt><trkpt lat="43.0476015" lon="12.3206658"><ele>274.0</ele><time>2026-04-19T06:46:37.829Z</time></trkpt><trkpt lat="43.0475688" lon="12.3205646"><ele>273.0</ele><time>2026-04-19T06:46:38.82Z</time></trkpt><trkpt lat="43.0475423" lon="12.3204585"><ele>272.0</ele><time>2026-04-19T06:46:39.828Z</time></trkpt><trkpt lat="43.047513" lon="12.320348"><ele>271.0</ele><time>2026-04-19T06:46:40.827Z</time></trkpt><trkpt lat="43.0474747" lon="12.3202439"><ele>270.0</ele><time>2026-04-19T06:46:41.827Z</time></trkpt><trkpt lat="43.0474455" lon="12.3201285"><ele>269.0</ele><time>2026-04-19T06:46:42.831Z</time></trkpt><trkpt lat="43.0474067" lon="12.3200177"><ele>269.0</ele><time>2026-04-19T06:46:43.826Z</time></trkpt><trkpt lat="43.0473776" lon="12.3199035"><ele>269.0</ele><time>2026-04-19T06:46:44.833Z</time></trkpt><trkpt lat="43.0473394" lon="12.3197973"><ele>269.0</ele><time>2026-04-19T06:46:45.827Z</time></trkpt><trkpt lat="43.0473076" lon="12.3196886"><ele>269.0</ele><time>2026-04-19T06:46:46.831Z</time></trkpt><trkpt lat="43.0472681" lon="12.3195807"><ele>269.0</ele><time>2026-04-19T06:46:47.825Z</time></trkpt><trkpt lat="43.04723" lon="12.3194777"><ele>269.0</ele><time>2026-04-19T06:46:48.823Z</time></trkpt><trkpt lat="43.0472021" lon="12.3193712"><ele>268.1666666666667</ele><time>2026-04-19T06:46:49.827Z</time></trkpt><trkpt lat="43.0471697" lon="12.3192664"><ele>267.33333333333337</ele><time>2026-04-19T06:46:50.833Z</time></trkpt><trkpt lat="43.047141" lon="12.3191597"><ele>266.5</ele><time>2026-04-19T06:46:51.831Z</time></trkpt><trkpt lat="43.0471131" lon="12.3190587"><ele>265.6666666666667</ele><time>2026-04-19T06:46:52.831Z</time></trkpt><trkpt lat="43.0470895" lon="12.3189657"><ele>264.8333333333333</ele><time>2026-04-19T06:46:53.826Z</time></trkpt><trkpt lat="43.047062" lon="12.3188794"><ele>264.0</ele><time>2026-04-19T06:46:54.828Z</time></trkpt><trkpt lat="43.0469948" lon="12.3187654"><ele>263.3333333333333</ele><time>2026-04-19T06:46:56.831Z</time></trkpt><trkpt lat="43.0469228" lon="12.3187203"><ele>262.6666666666667</ele><time>2026-04-19T06:46:58.832Z</time></trkpt><trkpt lat="43.0468785" lon="12.3186574"><ele>262.0</ele><time>2026-04-19T06:47:01.828Z</time></trkpt><trkpt lat="43.046845" lon="12.3185278"><ele>261.33333333333337</ele><time>2026-04-19T06:47:04.83Z</time></trkpt><trkpt lat="43.0468237" lon="12.3183847"><ele>260.6666666666667</ele><time>2026-04-19T06:47:06.824Z</time></trkpt><trkpt lat="43.0467948" lon="12.3182591"><ele>260.0</ele><time>2026-04-19T06:47:08.826Z</time></trkpt><trkpt lat="43.046767" lon="12.3181302"><ele>260.4</ele><time>2026-04-19T06:47:10.828Z</time></trkpt><trkpt lat="43.0467495" lon="12.3179916"><ele>260.8</ele><time>2026-04-19T06:47:12.825Z</time></trkpt><trkpt lat="43.0467255" lon="12.3178421"><ele>261.2</ele><time>2026-04-19T06:47:14.828Z</time></trkpt><trkpt lat="43.0466866" lon="12.3176969"><ele>261.6</ele><time>2026-04-19T06:47:16.826Z</time></trkpt><trkpt lat="43.046646" lon="12.3175583"><ele>262.0</ele><time>2026-04-19T06:47:18.825Z</time></trkpt><trkpt lat="43.046609" lon="12.3174193"><ele>262.0</ele><time>2026-04-19T06:47:20.829Z</time></trkpt><trkpt lat="43.0465686" lon="12.3172771"><ele>262.0</ele><time>2026-04-19T06:47:22.827Z</time></trkpt><trkpt lat="43.046531" lon="12.3171382"><ele>262.0</ele><time>2026-04-19T06:47:24.921Z</time></trkpt><trkpt lat="43.0464941" lon="12.3169915"><ele>262.0</ele><time>2026-04-19T06:47:26.831Z</time></trkpt><trkpt lat="43.0464528" lon="12.3168453"><ele>262.0</ele><time>2026-04-19T06:47:28.829Z</time></trkpt><trkpt lat="43.0464194" lon="12.316718"><ele>260.6</ele><time>2026-04-19T06:47:30.827Z</time></trkpt><trkpt lat="43.0463899" lon="12.3165789"><ele>259.2</ele><time>2026-04-19T06:47:32.832Z</time></trkpt><trkpt lat="43.0463602" lon="12.3164414"><ele>257.8</ele><time>2026-04-19T06:47:34.83Z</time></trkpt><trkpt lat="43.0463299" lon="12.3163135"><ele>256.4</ele><time>2026-04-19T06:47:36.826Z</time></trkpt><trkpt lat="43.0462986" lon="12.3161844"><ele>255.0</ele><time>2026-04-19T06:47:38.831Z</time></trkpt><trkpt lat="43.0462593" lon="12.3160571"><ele>254.6</ele><time>2026-04-19T06:47:40.826Z</time></trkpt><trkpt lat="43.0462193" lon="12.3159326"><ele>254.2</ele><time>2026-04-19T06:47:42.827Z</time></trkpt><trkpt lat="43.0461886" lon="12.3158042"><ele>253.8</ele><time>2026-04-19T06:47:44.829Z</time></trkpt><trkpt lat="43.046151" lon="12.3156698"><ele>253.4</ele><time>2026-04-19T06:47:46.827Z</time></trkpt><trkpt lat="43.0461214" lon="12.3155442"><ele>253.0</ele><time>2026-04-19T06:47:48.83Z</time></trkpt><trkpt lat="43.0460878" lon="12.3154129"><ele>254.4</ele><time>2026-04-19T06:47:50.837Z</time></trkpt><trkpt lat="43.0460526" lon="12.3152707"><ele>255.8</ele><time>2026-04-19T06:47:52.823Z</time></trkpt><trkpt lat="43.0460249" lon="12.31514"><ele>257.2</ele><time>2026-04-19T06:47:54.932Z</time></trkpt><trkpt lat="43.046009" lon="12.3150077"><ele>258.6</ele><time>2026-04-19T06:47:56.827Z</time></trkpt><trkpt lat="43.0459714" lon="12.3148828"><ele>260.0</ele><time>2026-04-19T06:47:58.829Z</time></trkpt><trkpt lat="43.0459414" lon="12.3147767"><ele>259.6666666666667</ele><time>2026-04-19T06:48:00.943Z</time></trkpt><trkpt lat="43.045912" lon="12.3146574"><ele>259.33333333333337</ele><time>2026-04-19T06:48:02.826Z</time></trkpt><trkpt lat="43.0458844" lon="12.3145551"><ele>259.0</ele><time>2026-04-19T06:48:04.83Z</time></trkpt><trkpt lat="43.0458616" lon="12.3144516"><ele>258.6666666666667</ele><time>2026-04-19T06:48:06.925Z</time></trkpt><trkpt lat="43.0458408" lon="12.3143526"><ele>258.3333333333333</ele><time>2026-04-19T06:48:08.83Z</time></trkpt><trkpt lat="43.0458175" lon="12.3142497"><ele>258.0</ele><time>2026-04-19T06:48:10.834Z</time></trkpt><trkpt lat="43.0457896" lon="12.3141496"><ele>258.0</ele><time>2026-04-19T06:48:12.827Z</time></trkpt><trkpt lat="43.0457591" lon="12.3140467"><ele>258.0</ele><time>2026-04-19T06:48:14.827Z</time></trkpt><trkpt lat="43.0457332" lon="12.3139483"><ele>258.0</ele><time>2026-04-19T06:48:16.83Z</time></trkpt><trkpt lat="43.0457031" lon="12.3138527"><ele>258.0</ele><time>2026-04-19T06:48:18.84Z</time></trkpt><trkpt lat="43.0456762" lon="12.3137579"><ele>258.0</ele><time>2026-04-19T06:48:20.83Z</time></trkpt><trkpt lat="43.0456536" lon="12.3136657"><ele>258.0</ele><time>2026-04-19T06:48:22.827Z</time></trkpt><trkpt lat="43.0456311" lon="12.3135666"><ele>258.0</ele><time>2026-04-19T06:48:24.825Z</time></trkpt><trkpt lat="43.0456051" lon="12.3134656"><ele>258.0</ele><time>2026-04-19T06:48:26.825Z</time></trkpt><trkpt lat="43.0455802" lon="12.3133627"><ele>258.0</ele><time>2026-04-19T06:48:28.826Z</time></trkpt><trkpt lat="43.0455465" lon="12.3132586"><ele>258.0</ele><time>2026-04-19T06:48:30.833Z</time></trkpt><trkpt lat="43.0455274" lon="12.3131578"><ele>258.0</ele><time>2026-04-19T06:48:32.832Z</time></trkpt><trkpt lat="43.0455055" lon="12.3130527"><ele>258.0</ele><time>2026-04-19T06:48:34.833Z</time></trkpt><trkpt lat="43.045485" lon="12.3129463"><ele>257.3333333333333</ele><time>2026-04-19T06:48:36.832Z</time></trkpt><trkpt lat="43.0454642" lon="12.3128444"><ele>256.6666666666667</ele><time>2026-04-19T06:48:38.829Z</time></trkpt><trkpt lat="43.0454397" lon="12.3127406"><ele>256.0</ele><time>2026-04-19T06:48:40.833Z</time></trkpt><trkpt lat="43.0454158" lon="12.3126347"><ele>255.33333333333334</ele><time>2026-04-19T06:48:42.83Z</time></trkpt><trkpt lat="43.0453929" lon="12.3125352"><ele>254.66666666666669</ele><time>2026-04-19T06:48:44.833Z</time></trkpt><trkpt lat="43.0453694" lon="12.3124402"><ele>254.0</ele><time>2026-04-19T06:48:46.832Z</time></trkpt><trkpt lat="43.0453467" lon="12.3123437"><ele>254.0</ele><time>2026-04-19T06:48:48.832Z</time></trkpt><trkpt lat="43.0453235" lon="12.3122448"><ele>254.0</ele><time>2026-04-19T06:48:50.827Z</time></trkpt><trkpt lat="43.0453036" lon="12.3121484"><ele>254.0</ele><time>2026-04-19T06:48:52.83Z</time></trkpt><trkpt lat="43.0452898" lon="12.3120589"><ele>254.0</ele><time>2026-04-19T06:48:54.829Z</time></trkpt><trkpt lat="43.0452696" lon="12.3119402"><ele>254.0</ele><time>2026-04-19T06:48:57.832Z</time></trkpt><trkpt lat="43.0452834" lon="12.3118481"><ele>254.0</ele><time>2026-04-19T06:49:00.826Z</time></trkpt><trkpt lat="43.0453306" lon="12.311767"><ele>254.0</ele><time>2026-04-19T06:49:03.825Z</time></trkpt><trkpt lat="43.045404" lon="12.3117053"><ele>253.71428571428572</ele><time>2026-04-19T06:49:06.827Z</time></trkpt><trkpt lat="43.0454636" lon="12.3116718"><ele>253.42857142857142</ele><time>2026-04-19T06:49:08.828Z</time></trkpt><trkpt lat="43.0455252" lon="12.3116385"><ele>253.14285714285714</ele><time>2026-04-19T06:49:10.831Z</time></trkpt><trkpt lat="43.0456018" lon="12.3116111"><ele>252.85714285714286</ele><time>2026-04-19T06:49:12.822Z</time></trkpt><trkpt lat="43.0456659" lon="12.3115804"><ele>252.57142857142856</ele><time>2026-04-19T06:49:14.815Z</time></trkpt><trkpt lat="43.0457389" lon="12.311549"><ele>252.28571428571428</ele><time>2026-04-19T06:49:16.825Z</time></trkpt><trkpt lat="43.0458134" lon="12.3115092"><ele>252.0</ele><time>2026-04-19T06:49:18.827Z</time></trkpt><trkpt lat="43.0458825" lon="12.3114569"><ele>251.5</ele><time>2026-04-19T06:49:20.834Z</time></trkpt><trkpt lat="43.0459514" lon="12.3114065"><ele>251.0</ele><time>2026-04-19T06:49:22.83Z</time></trkpt><trkpt lat="43.0460238" lon="12.3113488"><ele>250.5</ele><time>2026-04-19T06:49:24.824Z</time></trkpt><trkpt lat="43.0461024" lon="12.3112776"><ele>250.0</ele><time>2026-04-19T06:49:26.825Z</time></trkpt><trkpt lat="43.046182" lon="12.3112141"><ele>249.5</ele><time>2026-04-19T06:49:28.832Z</time></trkpt><trkpt lat="43.0462608" lon="12.3111635"><ele>249.0</ele><time>2026-04-19T06:49:30.831Z</time></trkpt><trkpt lat="43.0463455" lon="12.3111079"><ele>249.0</ele><time>2026-04-19T06:49:32.823Z</time></trkpt><trkpt lat="43.0464263" lon="12.3110652"><ele>249.0</ele><time>2026-04-19T06:49:34.833Z</time></trkpt><trkpt lat="43.0465032" lon="12.311017"><ele>249.0</ele><time>2026-04-19T06:49:36.814Z</time></trkpt><trkpt lat="43.0465792" lon="12.3109648"><ele>249.0</ele><time>2026-04-19T06:49:38.824Z</time></trkpt><trkpt lat="43.0466545" lon="12.3109117"><ele>249.0</ele><time>2026-04-19T06:49:40.831Z</time></trkpt><trkpt lat="43.0467263" lon="12.3108643"><ele>249.0</ele><time>2026-04-19T06:49:42.813Z</time></trkpt><trkpt lat="43.046795" lon="12.3108183"><ele>249.16666666666666</ele><time>2026-04-19T06:49:44.815Z</time></trkpt><trkpt lat="43.0468547" lon="12.3107704"><ele>249.33333333333331</ele><time>2026-04-19T06:49:46.832Z</time></trkpt><trkpt lat="43.0469195" lon="12.3107146"><ele>249.5</ele><time>2026-04-19T06:49:48.812Z</time></trkpt><trkpt lat="43.0469857" lon="12.3106551"><ele>249.66666666666666</ele><time>2026-04-19T06:49:50.819Z</time></trkpt><trkpt lat="43.0470546" lon="12.3105874"><ele>249.83333333333331</ele><time>2026-04-19T06:49:52.817Z</time></trkpt><trkpt lat="43.0471255" lon="12.3105113"><ele>250.0</ele><time>2026-04-19T06:49:54.827Z</time></trkpt><trkpt lat="43.0471906" lon="12.3104415"><ele>249.49999999999997</ele><time>2026-04-19T06:49:56.813Z</time></trkpt><trkpt lat="43.04725" lon="12.3103725"><ele>249.0</ele><time>2026-04-19T06:49:58.814Z</time></trkpt><trkpt lat="43.0473084" lon="12.3103124"><ele>248.5</ele><time>2026-04-19T06:50:00.815Z</time></trkpt><trkpt lat="43.0473613" lon="12.3102569"><ele>248.0</ele><time>2026-04-19T06:50:02.816Z</time></trkpt><trkpt lat="43.0474136" lon="12.3102001"><ele>247.49999999999997</ele><time>2026-04-19T06:50:04.815Z</time></trkpt><trkpt lat="43.0474565" lon="12.3100878"><ele>247.0</ele><time>2026-04-19T06:50:07.818Z</time></trkpt><trkpt lat="43.0474507" lon="12.3099798"><ele>247.0</ele><time>2026-04-19T06:50:10.821Z</time></trkpt><trkpt lat="43.0474299" lon="12.3098896"><ele>247.0</ele><time>2026-04-19T06:50:13.822Z</time></trkpt><trkpt lat="43.0474145" lon="12.3098029"><ele>247.0</ele><time>2026-04-19T06:50:15.821Z</time></trkpt><trkpt lat="43.0472949" lon="12.3096576"><ele>247.0</ele><time>2026-04-19T06:50:17.83Z</time></trkpt><trkpt lat="43.047241" lon="12.3095309"><ele>247.0</ele><time>2026-04-19T06:50:19.824Z</time></trkpt><trkpt lat="43.047191" lon="12.3093856"><ele>246.39999999999998</ele><time>2026-04-19T06:50:21.822Z</time></trkpt><trkpt lat="43.047138" lon="12.3092461"><ele>245.79999999999998</ele><time>2026-04-19T06:50:23.832Z</time></trkpt><trkpt lat="43.0470933" lon="12.3091103"><ele>245.2</ele><time>2026-04-19T06:50:25.831Z</time></trkpt><trkpt lat="43.0470518" lon="12.308976"><ele>244.6</ele><time>2026-04-19T06:50:27.821Z</time></trkpt><trkpt lat="43.0469931" lon="12.3088404"><ele>244.0</ele><time>2026-04-19T06:50:29.831Z</time></trkpt><trkpt lat="43.0469397" lon="12.3087345"><ele>243.83333333333331</ele><time>2026-04-19T06:50:31.823Z</time></trkpt><trkpt lat="43.0468907" lon="12.308626"><ele>243.66666666666666</ele><time>2026-04-19T06:50:33.902Z</time></trkpt><trkpt lat="43.0468434" lon="12.3085251"><ele>243.5</ele><time>2026-04-19T06:50:35.837Z</time></trkpt><trkpt lat="43.046796" lon="12.3084405"><ele>243.33333333333331</ele><time>2026-04-19T06:50:37.847Z</time></trkpt><trkpt lat="43.0467586" lon="12.3083577"><ele>243.16666666666666</ele><time>2026-04-19T06:50:39.828Z</time></trkpt><trkpt lat="43.0467257" lon="12.3082763"><ele>243.0</ele><time>2026-04-19T06:50:41.825Z</time></trkpt><trkpt lat="43.0466885" lon="12.3081929"><ele>243.0</ele><time>2026-04-19T06:50:43.831Z</time></trkpt><trkpt lat="43.0466577" lon="12.3081129"><ele>243.0</ele><time>2026-04-19T06:50:45.817Z</time></trkpt><trkpt lat="43.0466309" lon="12.3080236"><ele>243.0</ele><time>2026-04-19T06:50:47.824Z</time></trkpt><trkpt lat="43.046615" lon="12.3079243"><ele>243.0</ele><time>2026-04-19T06:50:49.828Z</time></trkpt><trkpt lat="43.0466045" lon="12.3078246"><ele>243.0</ele><time>2026-04-19T06:50:51.827Z</time></trkpt><trkpt lat="43.0466037" lon="12.3077233"><ele>243.0</ele><time>2026-04-19T06:50:53.833Z</time></trkpt><trkpt lat="43.0466049" lon="12.3076183"><ele>243.0</ele><time>2026-04-19T06:50:55.816Z</time></trkpt><trkpt lat="43.046612" lon="12.3075182"><ele>244.83333333333334</ele><time>2026-04-19T06:50:57.914Z</time></trkpt><trkpt lat="43.0466121" lon="12.307424"><ele>246.66666666666669</ele><time>2026-04-19T06:50:59.829Z</time></trkpt><trkpt lat="43.0466128" lon="12.3073243"><ele>248.5</ele><time>2026-04-19T06:51:01.828Z</time></trkpt><trkpt lat="43.0466094" lon="12.3072204"><ele>250.33333333333334</ele><time>2026-04-19T06:51:03.815Z</time></trkpt><trkpt lat="43.0466074" lon="12.3071134"><ele>252.16666666666669</ele><time>2026-04-19T06:51:05.831Z</time></trkpt><trkpt lat="43.0466107" lon="12.3070272"><ele>254.0</ele><time>2026-04-19T06:51:07.827Z</time></trkpt><trkpt lat="43.0466093" lon="12.3069023"><ele>254.71428571428572</ele><time>2026-04-19T06:51:10.826Z</time></trkpt><trkpt lat="43.0465999" lon="12.3068144"><ele>255.42857142857142</ele><time>2026-04-19T06:51:12.828Z</time></trkpt><trkpt lat="43.0465779" lon="12.3067139"><ele>256.1428571428571</ele><time>2026-04-19T06:51:14.827Z</time></trkpt><trkpt lat="43.046558" lon="12.3066207"><ele>256.8571428571429</ele><time>2026-04-19T06:51:16.828Z</time></trkpt><trkpt lat="43.0465412" lon="12.3065255"><ele>257.57142857142856</ele><time>2026-04-19T06:51:18.822Z</time></trkpt><trkpt lat="43.04653" lon="12.3064271"><ele>258.2857142857143</ele><time>2026-04-19T06:51:20.824Z</time></trkpt><trkpt lat="43.0465211" lon="12.3063299"><ele>259.0</ele><time>2026-04-19T06:51:22.831Z</time></trkpt><trkpt lat="43.0465153" lon="12.3062293"><ele>259.14285714285717</ele><time>2026-04-19T06:51:24.824Z</time></trkpt><trkpt lat="43.0465025" lon="12.3061244"><ele>259.2857142857143</ele><time>2026-04-19T06:51:26.935Z</time></trkpt><trkpt lat="43.0464886" lon="12.3060248"><ele>259.42857142857144</ele><time>2026-04-19T06:51:28.827Z</time></trkpt><trkpt lat="43.0464799" lon="12.305919"><ele>259.57142857142856</ele><time>2026-04-19T06:51:30.833Z</time></trkpt><trkpt lat="43.0464757" lon="12.3058149"><ele>259.7142857142857</ele><time>2026-04-19T06:51:32.932Z</time></trkpt><trkpt lat="43.046496" lon="12.3057189"><ele>259.8571428571429</ele><time>2026-04-19T06:51:34.838Z</time></trkpt><trkpt lat="43.046511" lon="12.3056278"><ele>260.0</ele><time>2026-04-19T06:51:36.829Z</time></trkpt><trkpt lat="43.0465311" lon="12.3055292"><ele>260.00000000000006</ele><time>2026-04-19T06:51:38.827Z</time></trkpt><trkpt lat="43.0465524" lon="12.3054353"><ele>260.0</ele><time>2026-04-19T06:51:40.826Z</time></trkpt><trkpt lat="43.0465855" lon="12.3053406"><ele>260.0</ele><time>2026-04-19T06:51:42.834Z</time></trkpt><trkpt lat="43.0465942" lon="12.3052467"><ele>260.0</ele><time>2026-04-19T06:51:44.833Z</time></trkpt><trkpt lat="43.0466228" lon="12.305152"><ele>260.0</ele><time>2026-04-19T06:51:46.835Z</time></trkpt><trkpt lat="43.0466511" lon="12.3050698"><ele>260.00000000000006</ele><time>2026-04-19T06:51:48.835Z</time></trkpt><trkpt lat="43.0466792" lon="12.3049796"><ele>260.0</ele><time>2026-04-19T06:51:50.928Z</time></trkpt><trkpt lat="43.0467012" lon="12.3048952"><ele>259.8571428571429</ele><time>2026-04-19T06:51:52.831Z</time></trkpt><trkpt lat="43.0467233" lon="12.3048078"><ele>259.7142857142857</ele><time>2026-04-19T06:51:54.831Z</time></trkpt><trkpt lat="43.0467458" lon="12.3047148"><ele>259.57142857142856</ele><time>2026-04-19T06:51:56.832Z</time></trkpt><trkpt lat="43.0467627" lon="12.3046224"><ele>259.42857142857144</ele><time>2026-04-19T06:51:58.832Z</time></trkpt><trkpt lat="43.0467847" lon="12.3045183"><ele>259.2857142857143</ele><time>2026-04-19T06:52:01.818Z</time></trkpt><trkpt lat="43.0467967" lon="12.3044224"><ele>259.14285714285717</ele><time>2026-04-19T06:52:03.832Z</time></trkpt><trkpt lat="43.0468097" lon="12.3043264"><ele>259.0</ele><time>2026-04-19T06:52:05.831Z</time></trkpt><trkpt lat="43.0468276" lon="12.3042296"><ele>259.57142857142856</ele><time>2026-04-19T06:52:07.831Z</time></trkpt><trkpt lat="43.0468502" lon="12.3041174"><ele>260.1428571428571</ele><time>2026-04-19T06:52:10.833Z</time></trkpt><trkpt lat="43.0468716" lon="12.304021"><ele>260.7142857142857</ele><time>2026-04-19T06:52:12.832Z</time></trkpt><trkpt lat="43.0468964" lon="12.303924"><ele>261.2857142857143</ele><time>2026-04-19T06:52:14.834Z</time></trkpt><trkpt lat="43.0469066" lon="12.3038352"><ele>261.85714285714283</ele><time>2026-04-19T06:52:16.834Z</time></trkpt><trkpt lat="43.0469124" lon="12.3037432"><ele>262.42857142857144</ele><time>2026-04-19T06:52:18.832Z</time></trkpt><trkpt lat="43.0469186" lon="12.3036433"><ele>263.0</ele><time>2026-04-19T06:52:20.835Z</time></trkpt><trkpt lat="43.0469247" lon="12.3035443"><ele>263.1666666666667</ele><time>2026-04-19T06:52:22.833Z</time></trkpt><trkpt lat="43.0469275" lon="12.3034526"><ele>263.33333333333337</ele><time>2026-04-19T06:52:24.835Z</time></trkpt><trkpt lat="43.0469302" lon="12.3033596"><ele>263.5</ele><time>2026-04-19T06:52:26.834Z</time></trkpt><trkpt lat="43.0469245" lon="12.3032567"><ele>263.6666666666667</ele><time>2026-04-19T06:52:28.824Z</time></trkpt><trkpt lat="43.046917" lon="12.303161"><ele>263.8333333333333</ele><time>2026-04-19T06:52:31.825Z</time></trkpt><trkpt lat="43.0468987" lon="12.3030418"><ele>264.0</ele><time>2026-04-19T06:52:35.824Z</time></trkpt><trkpt lat="43.046863" lon="12.302937"><ele>264.1666666666667</ele><time>2026-04-19T06:52:38.829Z</time></trkpt><trkpt lat="43.046786" lon="12.3028706"><ele>264.3333333333333</ele><time>2026-04-19T06:52:39.823Z</time></trkpt><trkpt lat="43.0467589" lon="12.3027612"><ele>264.5</ele><time>2026-04-19T06:52:42.82Z</time></trkpt><trkpt lat="43.0467297" lon="12.302677"><ele>264.66666666666663</ele><time>2026-04-19T06:52:44.832Z</time></trkpt><trkpt lat="43.0467006" lon="12.3025958"><ele>264.8333333333333</ele><time>2026-04-19T06:52:46.831Z</time></trkpt><trkpt lat="43.0466787" lon="12.3024818"><ele>265.0</ele><time>2026-04-19T06:52:49.828Z</time></trkpt><trkpt lat="43.0466446" lon="12.3024047"><ele>265.0</ele><time>2026-04-19T06:52:51.827Z</time></trkpt><trkpt lat="43.0466052" lon="12.3023178"><ele>265.0</ele><time>2026-04-19T06:52:53.818Z</time></trkpt><trkpt lat="43.0465758" lon="12.3021984"><ele>265.0</ele><time>2026-04-19T06:52:57.822Z</time></trkpt><trkpt lat="43.0465295" lon="12.3021028"><ele>265.0</ele><time>2026-04-19T06:52:59.832Z</time></trkpt><trkpt lat="43.046482" lon="12.3020109"><ele>265.0</ele><time>2026-04-19T06:53:01.838Z</time></trkpt><trkpt lat="43.0464042" lon="12.3019161"><ele>265.0</ele><time>2026-04-19T06:53:03.835Z</time></trkpt><trkpt lat="43.0462718" lon="12.3017941"><ele>265.1428571428571</ele><time>2026-04-19T06:53:05.815Z</time></trkpt><trkpt lat="43.0462313" lon="12.3017022"><ele>265.2857142857143</ele><time>2026-04-19T06:53:07.836Z</time></trkpt><trkpt lat="43.0461929" lon="12.301614"><ele>265.42857142857144</ele><time>2026-04-19T06:53:09.84Z</time></trkpt><trkpt lat="43.0461522" lon="12.3015316"><ele>265.57142857142856</ele><time>2026-04-19T06:53:11.842Z</time></trkpt><trkpt lat="43.046134" lon="12.3014413"><ele>265.7142857142857</ele><time>2026-04-19T06:53:14.832Z</time></trkpt><trkpt lat="43.046086" lon="12.3013643"><ele>265.85714285714283</ele><time>2026-04-19T06:53:15.828Z</time></trkpt><trkpt lat="43.0460426" lon="12.3013004"><ele>266.0</ele><time>2026-04-19T06:53:16.835Z</time></trkpt><trkpt lat="43.0459751" lon="12.3011755"><ele>266.0</ele><time>2026-04-19T06:53:18.929Z</time></trkpt><trkpt lat="43.0459476" lon="12.3010656"><ele>266.0</ele><time>2026-04-19T06:53:21.835Z</time></trkpt><trkpt lat="43.0459325" lon="12.3009756"><ele>266.0</ele><time>2026-04-19T06:53:23.823Z</time></trkpt><trkpt lat="43.0459152" lon="12.3008917"><ele>266.0</ele><time>2026-04-19T06:53:25.838Z</time></trkpt><trkpt lat="43.0458565" lon="12.3007968"><ele>266.0</ele><time>2026-04-19T06:53:27.824Z</time></trkpt><trkpt lat="43.0458174" lon="12.3006969"><ele>266.0</ele><time>2026-04-19T06:53:29.825Z</time></trkpt><trkpt lat="43.0458142" lon="12.3006079"><ele>265.83333333333337</ele><time>2026-04-19T06:53:31.835Z</time></trkpt><trkpt lat="43.0457377" lon="12.3004994"><ele>265.6666666666667</ele><time>2026-04-19T06:53:33.83Z</time></trkpt><trkpt lat="43.0456906" lon="12.3003997"><ele>265.5</ele><time>2026-04-19T06:53:35.831Z</time></trkpt><trkpt lat="43.0456581" lon="12.3003054"><ele>265.3333333333333</ele><time>2026-04-19T06:53:37.83Z</time></trkpt><trkpt lat="43.0456196" lon="12.3002152"><ele>265.16666666666663</ele><time>2026-04-19T06:53:39.827Z</time></trkpt><trkpt lat="43.0455913" lon="12.3001162"><ele>265.0</ele><time>2026-04-19T06:53:41.833Z</time></trkpt><trkpt lat="43.0455362" lon="12.3000203"><ele>265.0</ele><time>2026-04-19T06:53:43.83Z</time></trkpt><trkpt lat="43.0454742" lon="12.2999324"><ele>265.0</ele><time>2026-04-19T06:53:45.831Z</time></trkpt><trkpt lat="43.0454045" lon="12.2998384"><ele>265.0</ele><time>2026-04-19T06:53:47.836Z</time></trkpt><trkpt lat="43.0453523" lon="12.2997526"><ele>265.0</ele><time>2026-04-19T06:53:49.832Z</time></trkpt><trkpt lat="43.0452977" lon="12.2996358"><ele>265.0</ele><time>2026-04-19T06:53:52.832Z</time></trkpt><trkpt lat="43.0452604" lon="12.299549"><ele>265.0</ele><time>2026-04-19T06:53:54.831Z</time></trkpt><trkpt lat="43.0451839" lon="12.299498"><ele>265.0</ele><time>2026-04-19T06:53:56.83Z</time></trkpt><trkpt lat="43.0451168" lon="12.2994651"><ele>265.0</ele><time>2026-04-19T06:53:57.932Z</time></trkpt><trkpt lat="43.0450494" lon="12.2994675"><ele>265.0</ele><time>2026-04-19T06:53:58.832Z</time></trkpt><trkpt lat="43.0449787" lon="12.299468"><ele>265.0</ele><time>2026-04-19T06:53:59.829Z</time></trkpt><trkpt lat="43.0448782" lon="12.2994793"><ele>265.0</ele><time>2026-04-19T06:54:01.836Z</time></trkpt><trkpt lat="43.0447933" lon="12.2995136"><ele>265.0</ele><time>2026-04-19T06:54:03.831Z</time></trkpt><trkpt lat="43.0447283" lon="12.2995389"><ele>264.8333333333333</ele><time>2026-04-19T06:54:05.828Z</time></trkpt><trkpt lat="43.0446684" lon="12.29957"><ele>264.66666666666663</ele><time>2026-04-19T06:54:07.828Z</time></trkpt><trkpt lat="43.0445684" lon="12.2996228"><ele>264.5</ele><time>2026-04-19T06:54:09.825Z</time></trkpt><trkpt lat="43.0444938" lon="12.2996793"><ele>264.3333333333333</ele><time>2026-04-19T06:54:11.821Z</time></trkpt><trkpt lat="43.0444187" lon="12.2997372"><ele>264.1666666666667</ele><time>2026-04-19T06:54:13.835Z</time></trkpt><trkpt lat="43.0443521" lon="12.2998014"><ele>264.0</ele><time>2026-04-19T06:54:15.823Z</time></trkpt><trkpt lat="43.0442956" lon="12.2998835"><ele>264.0</ele><time>2026-04-19T06:54:17.845Z</time></trkpt><trkpt lat="43.0442363" lon="12.2999622"><ele>264.0</ele><time>2026-04-19T06:54:19.834Z</time></trkpt><trkpt lat="43.0441628" lon="12.3000349"><ele>264.0</ele><time>2026-04-19T06:54:21.831Z</time></trkpt><trkpt lat="43.0440794" lon="12.300097"><ele>264.0</ele><time>2026-04-19T06:54:23.834Z</time></trkpt><trkpt lat="43.0440018" lon="12.3001454"><ele>264.0</ele><time>2026-04-19T06:54:25.839Z</time></trkpt><trkpt lat="43.0439165" lon="12.3001822"><ele>264.0</ele><time>2026-04-19T06:54:27.828Z</time></trkpt><trkpt lat="43.0438327" lon="12.300213"><ele>263.8333333333333</ele><time>2026-04-19T06:54:29.832Z</time></trkpt><trkpt lat="43.0437362" lon="12.3002467"><ele>263.6666666666667</ele><time>2026-04-19T06:54:31.831Z</time></trkpt><trkpt lat="43.043664" lon="12.3002629"><ele>263.5</ele><time>2026-04-19T06:54:33.833Z</time></trkpt><trkpt lat="43.0435745" lon="12.3002752"><ele>263.33333333333337</ele><time>2026-04-19T06:54:35.833Z</time></trkpt><trkpt lat="43.0434858" lon="12.3002607"><ele>263.1666666666667</ele><time>2026-04-19T06:54:37.833Z</time></trkpt><trkpt lat="43.0434083" lon="12.3002443"><ele>263.0</ele><time>2026-04-19T06:54:39.833Z</time></trkpt><trkpt lat="43.0433206" lon="12.3002157"><ele>262.6666666666667</ele><time>2026-04-19T06:54:41.834Z</time></trkpt><trkpt lat="43.0432376" lon="12.3002286"><ele>262.33333333333337</ele><time>2026-04-19T06:54:43.831Z</time></trkpt><trkpt lat="43.0431612" lon="12.3001989"><ele>262.0</ele><time>2026-04-19T06:54:46.814Z</time></trkpt><trkpt lat="43.0430838" lon="12.3001883"><ele>261.6666666666667</ele><time>2026-04-19T06:54:48.826Z</time></trkpt><trkpt lat="43.0429872" lon="12.3001807"><ele>261.3333333333333</ele><time>2026-04-19T06:54:51.83Z</time></trkpt><trkpt lat="43.042879" lon="12.300154"><ele>261.0</ele><time>2026-04-19T06:54:53.831Z</time></trkpt><trkpt lat="43.0428156" lon="12.3001519"><ele>261.0</ele><time>2026-04-19T06:54:54.833Z</time></trkpt><trkpt lat="43.0426667" lon="12.3001814"><ele>261.0</ele><time>2026-04-19T06:54:57.832Z</time></trkpt><trkpt lat="43.0425936" lon="12.3002605"><ele>261.0</ele><time>2026-04-19T06:54:59.831Z</time></trkpt><trkpt lat="43.0425409" lon="12.3003523"><ele>261.0</ele><time>2026-04-19T06:55:01.815Z</time></trkpt><trkpt lat="43.0424966" lon="12.3004295"><ele>261.0</ele><time>2026-04-19T06:55:03.818Z</time></trkpt><trkpt lat="43.0424468" lon="12.3005079"><ele>260.8571428571429</ele><time>2026-04-19T06:55:05.821Z</time></trkpt><trkpt lat="43.0424012" lon="12.3006066"><ele>260.7142857142857</ele><time>2026-04-19T06:55:07.818Z</time></trkpt><trkpt lat="43.042362" lon="12.3006976"><ele>260.57142857142856</ele><time>2026-04-19T06:55:09.836Z</time></trkpt><trkpt lat="43.0423239" lon="12.3007689"><ele>260.42857142857144</ele><time>2026-04-19T06:55:11.829Z</time></trkpt><trkpt lat="43.0422828" lon="12.3008509"><ele>260.2857142857143</ele><time>2026-04-19T06:55:13.819Z</time></trkpt><trkpt lat="43.0422437" lon="12.3009231"><ele>260.14285714285717</ele><time>2026-04-19T06:55:15.815Z</time></trkpt><trkpt lat="43.0422047" lon="12.3010054"><ele>260.0</ele><time>2026-04-19T06:55:17.816Z</time></trkpt><trkpt lat="43.0421718" lon="12.3010959"><ele>260.0</ele><time>2026-04-19T06:55:19.823Z</time></trkpt><trkpt lat="43.0421189" lon="12.3011839"><ele>260.0</ele><time>2026-04-19T06:55:22.813Z</time></trkpt><trkpt lat="43.0420504" lon="12.3012825"><ele>260.0</ele><time>2026-04-19T06:55:25.817Z</time></trkpt><trkpt lat="43.0419934" lon="12.3013673"><ele>260.0</ele><time>2026-04-19T06:55:27.826Z</time></trkpt><trkpt lat="43.0419345" lon="12.301426"><ele>260.0</ele><time>2026-04-19T06:55:29.894Z</time></trkpt><trkpt lat="43.0418718" lon="12.3014906"><ele>260.0</ele><time>2026-04-19T06:55:31.819Z</time></trkpt><trkpt lat="43.0418033" lon="12.3015488"><ele>260.1666666666667</ele><time>2026-04-19T06:55:33.823Z</time></trkpt><trkpt lat="43.0417365" lon="12.3016042"><ele>260.33333333333337</ele><time>2026-04-19T06:55:35.819Z</time></trkpt><trkpt lat="43.0416652" lon="12.3016685"><ele>260.5</ele><time>2026-04-19T06:55:37.823Z</time></trkpt><trkpt lat="43.0415986" lon="12.3017438"><ele>260.6666666666667</ele><time>2026-04-19T06:55:39.813Z</time></trkpt><trkpt lat="43.0415312" lon="12.3018166"><ele>260.8333333333333</ele><time>2026-04-19T06:55:41.815Z</time></trkpt><trkpt lat="43.0414637" lon="12.3018793"><ele>261.0</ele><time>2026-04-19T06:55:43.818Z</time></trkpt><trkpt lat="43.0414022" lon="12.3019457"><ele>261.0</ele><time>2026-04-19T06:55:45.818Z</time></trkpt><trkpt lat="43.0413398" lon="12.3020299"><ele>261.0</ele><time>2026-04-19T06:55:47.818Z</time></trkpt><trkpt lat="43.0412605" lon="12.3021391"><ele>261.0</ele><time>2026-04-19T06:55:49.811Z</time></trkpt><trkpt lat="43.0411843" lon="12.3022606"><ele>261.0</ele><time>2026-04-19T06:55:51.813Z</time></trkpt><trkpt lat="43.0410991" lon="12.3023373"><ele>261.0</ele><time>2026-04-19T06:55:53.817Z</time></trkpt><trkpt lat="43.041042" lon="12.3023752"><ele>260.6</ele><time>2026-04-19T06:55:54.829Z</time></trkpt><trkpt lat="43.0409377" lon="12.3024611"><ele>260.20000000000005</ele><time>2026-04-19T06:55:56.812Z</time></trkpt><trkpt lat="43.0408677" lon="12.3024745"><ele>259.79999999999995</ele><time>2026-04-19T06:55:57.815Z</time></trkpt><trkpt lat="43.0408021" lon="12.3024837"><ele>259.4</ele><time>2026-04-19T06:55:58.822Z</time></trkpt><trkpt lat="43.0407028" lon="12.3024695"><ele>259.0</ele><time>2026-04-19T06:56:00.813Z</time></trkpt><trkpt lat="43.0405884" lon="12.3025321"><ele>258.0</ele><time>2026-04-19T06:56:02.817Z</time></trkpt><trkpt lat="43.0404709" lon="12.3025711"><ele>257.0</ele><time>2026-04-19T06:56:03.823Z</time></trkpt><trkpt lat="43.040388" lon="12.3025713"><ele>256.0</ele><time>2026-04-19T06:56:04.816Z</time></trkpt><trkpt lat="43.0403158" lon="12.3025995"><ele>255.0</ele><time>2026-04-19T06:56:05.812Z</time></trkpt><trkpt lat="43.0402496" lon="12.3026197"><ele>253.99999999999997</ele><time>2026-04-19T06:56:06.805Z</time></trkpt><trkpt lat="43.0401746" lon="12.3026797"><ele>253.0</ele><time>2026-04-19T06:56:08.81Z</time></trkpt><trkpt lat="43.0401116" lon="12.3026926"><ele>252.99999999999997</ele><time>2026-04-19T06:56:09.939Z</time></trkpt><trkpt lat="43.0399739" lon="12.3027537"><ele>253.0</ele><time>2026-04-19T06:56:11.818Z</time></trkpt><trkpt lat="43.0399059" lon="12.3027946"><ele>253.0</ele><time>2026-04-19T06:56:12.816Z</time></trkpt><trkpt lat="43.0398359" lon="12.3028229"><ele>253.0</ele><time>2026-04-19T06:56:13.815Z</time></trkpt><trkpt lat="43.0397589" lon="12.3028714"><ele>252.99999999999997</ele><time>2026-04-19T06:56:14.831Z</time></trkpt><trkpt lat="43.0396958" lon="12.3028955"><ele>253.0</ele><time>2026-04-19T06:56:15.818Z</time></trkpt><trkpt lat="43.0396244" lon="12.3029253"><ele>250.60000000000002</ele><time>2026-04-19T06:56:16.816Z</time></trkpt><trkpt lat="43.0395092" lon="12.3029562"><ele>248.20000000000002</ele><time>2026-04-19T06:56:17.818Z</time></trkpt><trkpt lat="43.0394266" lon="12.3030023"><ele>245.8</ele><time>2026-04-19T06:56:18.819Z</time></trkpt><trkpt lat="43.0393481" lon="12.3030448"><ele>243.4</ele><time>2026-04-19T06:56:19.821Z</time></trkpt><trkpt lat="43.0392545" lon="12.3030602"><ele>241.0</ele><time>2026-04-19T06:56:20.823Z</time></trkpt><trkpt lat="43.0391688" lon="12.3031041"><ele>240.16666666666666</ele><time>2026-04-19T06:56:21.816Z</time></trkpt><trkpt lat="43.0390965" lon="12.3031218"><ele>239.33333333333331</ele><time>2026-04-19T06:56:22.818Z</time></trkpt><trkpt lat="43.0390015" lon="12.3031665"><ele>238.5</ele><time>2026-04-19T06:56:24.815Z</time></trkpt><trkpt lat="43.0389301" lon="12.3032195"><ele>237.66666666666669</ele><time>2026-04-19T06:56:26.815Z</time></trkpt><trkpt lat="43.0388743" lon="12.3032616"><ele>236.83333333333334</ele><time>2026-04-19T06:56:28.818Z</time></trkpt><trkpt lat="43.0388321" lon="12.303374"><ele>236.0</ele><time>2026-04-19T06:57:44.824Z</time></trkpt><trkpt lat="43.0387702" lon="12.3034148"><ele>236.0</ele><time>2026-04-19T06:57:53.828Z</time></trkpt><trkpt lat="43.0387145" lon="12.3034624"><ele>236.0</ele><time>2026-04-19T06:58:09.823Z</time></trkpt><trkpt lat="43.0386577" lon="12.3035189"><ele>236.0</ele><time>2026-04-19T06:58:16.827Z</time></trkpt><trkpt lat="43.0385963" lon="12.3035698"><ele>236.0</ele><time>2026-04-19T06:58:19.827Z</time></trkpt><trkpt lat="43.0385245" lon="12.3036085"><ele>236.0</ele><time>2026-04-19T06:58:23.833Z</time></trkpt><trkpt lat="43.0384563" lon="12.3035915"><ele>236.0</ele><time>2026-04-19T06:58:26.822Z</time></trkpt><trkpt lat="43.0383831" lon="12.3035784"><ele>236.0</ele><time>2026-04-19T06:58:30.832Z</time></trkpt><trkpt lat="43.0382987" lon="12.303599"><ele>236.33333333333334</ele><time>2026-04-19T06:58:34.823Z</time></trkpt><trkpt lat="43.0382104" lon="12.303608"><ele>236.66666666666669</ele><time>2026-04-19T06:58:37.817Z</time></trkpt><trkpt lat="43.0381353" lon="12.3036158"><ele>237.0</ele><time>2026-04-19T06:58:40.83Z</time></trkpt><trkpt lat="43.0380637" lon="12.3036148"><ele>237.33333333333331</ele><time>2026-04-19T06:58:44.826Z</time></trkpt><trkpt lat="43.0379853" lon="12.3036148"><ele>237.66666666666666</ele><time>2026-04-19T06:58:47.822Z</time></trkpt><trkpt lat="43.0378954" lon="12.3036118"><ele>238.0</ele><time>2026-04-19T06:58:51.825Z</time></trkpt><trkpt lat="43.0378253" lon="12.3036039"><ele>237.99999999999997</ele><time>2026-04-19T06:58:54.831Z</time></trkpt><trkpt lat="43.0377565" lon="12.3036057"><ele>238.0</ele><time>2026-04-19T06:58:57.833Z</time></trkpt><trkpt lat="43.0376734" lon="12.3035934"><ele>238.0</ele><time>2026-04-19T06:59:00.833Z</time></trkpt><trkpt lat="43.0375806" lon="12.3035914"><ele>238.0</ele><time>2026-04-19T06:59:03.832Z</time></trkpt><trkpt lat="43.0375113" lon="12.3035885"><ele>237.99999999999997</ele><time>2026-04-19T06:59:05.833Z</time></trkpt><trkpt lat="43.0374408" lon="12.3035788"><ele>238.0</ele><time>2026-04-19T06:59:07.833Z</time></trkpt><trkpt lat="43.0373743" lon="12.3035847"><ele>239.16666666666666</ele><time>2026-04-19T06:59:09.831Z</time></trkpt><trkpt lat="43.0372891" lon="12.3035809"><ele>240.33333333333331</ele><time>2026-04-19T06:59:12.822Z</time></trkpt><trkpt lat="43.037223" lon="12.303574"><ele>241.5</ele><time>2026-04-19T06:59:14.935Z</time></trkpt><trkpt lat="43.0371535" lon="12.3035787"><ele>242.66666666666669</ele><time>2026-04-19T06:59:16.827Z</time></trkpt><trkpt lat="43.0370665" lon="12.3035809"><ele>243.83333333333334</ele><time>2026-04-19T06:59:19.834Z</time></trkpt><trkpt lat="43.0369761" lon="12.3035818"><ele>245.0</ele><time>2026-04-19T06:59:22.831Z</time></trkpt><trkpt lat="43.0368972" lon="12.3035965"><ele>245.0</ele><time>2026-04-19T06:59:25.833Z</time></trkpt><trkpt lat="43.0368194" lon="12.3036074"><ele>245.0</ele><time>2026-04-19T06:59:28.83Z</time></trkpt><trkpt lat="43.0367308" lon="12.3036417"><ele>245.0</ele><time>2026-04-19T06:59:31.831Z</time></trkpt><trkpt lat="43.0366627" lon="12.3036625"><ele>245.0</ele><time>2026-04-19T06:59:33.822Z</time></trkpt><trkpt lat="43.0365985" lon="12.3036895"><ele>245.0</ele><time>2026-04-19T06:59:35.833Z</time></trkpt><trkpt lat="43.0365275" lon="12.3037217"><ele>245.0</ele><time>2026-04-19T06:59:37.833Z</time></trkpt><trkpt lat="43.036466" lon="12.303757"><ele>245.0</ele><time>2026-04-19T06:59:39.832Z</time></trkpt><trkpt lat="43.036391" lon="12.3038401"><ele>245.85714285714286</ele><time>2026-04-19T06:59:42.835Z</time></trkpt><trkpt lat="43.0363344" lon="12.3038834"><ele>246.71428571428572</ele><time>2026-04-19T06:59:44.839Z</time></trkpt><trkpt lat="43.036268" lon="12.3039101"><ele>247.57142857142856</ele><time>2026-04-19T06:59:46.818Z</time></trkpt><trkpt lat="43.0362071" lon="12.3039488"><ele>248.42857142857142</ele><time>2026-04-19T06:59:48.821Z</time></trkpt><trkpt lat="43.0361416" lon="12.303991"><ele>249.28571428571428</ele><time>2026-04-19T06:59:50.833Z</time></trkpt><trkpt lat="43.03607" lon="12.3040612"><ele>250.1428571428571</ele><time>2026-04-19T06:59:53.823Z</time></trkpt><trkpt lat="43.036007" lon="12.3041364"><ele>250.99999999999997</ele><time>2026-04-19T06:59:56.825Z</time></trkpt><trkpt lat="43.0359525" lon="12.3041815"><ele>251.66666666666669</ele><time>2026-04-19T06:59:58.831Z</time></trkpt><trkpt lat="43.0359016" lon="12.3042349"><ele>252.33333333333334</ele><time>2026-04-19T07:00:00.929Z</time></trkpt><trkpt lat="43.0358212" lon="12.3043052"><ele>253.0</ele><time>2026-04-19T07:00:03.834Z</time></trkpt><trkpt lat="43.0357478" lon="12.3043824"><ele>253.66666666666669</ele><time>2026-04-19T07:00:06.936Z</time></trkpt><trkpt lat="43.035684" lon="12.3044508"><ele>254.33333333333334</ele><time>2026-04-19T07:00:09.828Z</time></trkpt><trkpt lat="43.0356162" lon="12.3044748"><ele>255.0</ele><time>2026-04-19T07:00:12.829Z</time></trkpt><trkpt lat="43.0355434" lon="12.3044066"><ele>255.0</ele><time>2026-04-19T07:00:16.812Z</time></trkpt><trkpt lat="43.0354965" lon="12.3043471"><ele>255.00000000000003</ele><time>2026-04-19T07:00:18.822Z</time></trkpt><trkpt lat="43.0354537" lon="12.3042796"><ele>255.0</ele><time>2026-04-19T07:00:20.814Z</time></trkpt><trkpt lat="43.0354089" lon="12.3042147"><ele>255.0</ele><time>2026-04-19T07:00:22.819Z</time></trkpt><trkpt lat="43.0353646" lon="12.3041135"><ele>255.00000000000003</ele><time>2026-04-19T07:00:25.823Z</time></trkpt><trkpt lat="43.0353117" lon="12.3040334"><ele>255.0</ele><time>2026-04-19T07:00:27.831Z</time></trkpt><trkpt lat="43.035268" lon="12.3039639"><ele>255.0</ele><time>2026-04-19T07:00:29.828Z</time></trkpt><trkpt lat="43.0352431" lon="12.3038453"><ele>255.0</ele><time>2026-04-19T07:00:32.828Z</time></trkpt><trkpt lat="43.0351946" lon="12.3037571"><ele>255.0</ele><time>2026-04-19T07:00:34.823Z</time></trkpt><trkpt lat="43.0351326" lon="12.3036699"><ele>255.0</ele><time>2026-04-19T07:00:36.816Z</time></trkpt><trkpt lat="43.0350784" lon="12.3035756"><ele>255.0</ele><time>2026-04-19T07:00:39.82Z</time></trkpt><trkpt lat="43.0350234" lon="12.3034692"><ele>255.0</ele><time>2026-04-19T07:00:42.815Z</time></trkpt><trkpt lat="43.0349862" lon="12.3033611"><ele>255.0</ele><time>2026-04-19T07:00:46.821Z</time></trkpt><trkpt lat="43.0349607" lon="12.3032727"><ele>255.0</ele><time>2026-04-19T07:00:49.814Z</time></trkpt><trkpt lat="43.0349159" lon="12.3031877"><ele>255.0</ele><time>2026-04-19T07:00:54.814Z</time></trkpt><trkpt lat="43.0348574" lon="12.3031061"><ele>255.0</ele><time>2026-04-19T07:00:59.811Z</time></trkpt><trkpt lat="43.0348114" lon="12.3030089"><ele>255.0</ele><time>2026-04-19T07:01:02.818Z</time></trkpt><trkpt lat="43.0347757" lon="12.3029287"><ele>255.0</ele><time>2026-04-19T07:01:04.82Z</time></trkpt><trkpt lat="43.0347327" lon="12.302851"><ele>255.0</ele><time>2026-04-19T07:01:06.821Z</time></trkpt><trkpt lat="43.0346962" lon="12.3027695"><ele>254.16666666666666</ele><time>2026-04-19T07:01:08.916Z</time></trkpt><trkpt lat="43.0347472" lon="12.3026885"><ele>253.33333333333331</ele><time>2026-04-19T07:01:11.829Z</time></trkpt><trkpt lat="43.0347753" lon="12.3026081"><ele>252.5</ele><time>2026-04-19T07:01:13.832Z</time></trkpt><trkpt lat="43.0347384" lon="12.3025108"><ele>251.66666666666666</ele><time>2026-04-19T07:01:15.836Z</time></trkpt><trkpt lat="43.0346771" lon="12.3024132"><ele>250.83333333333331</ele><time>2026-04-19T07:01:17.834Z</time></trkpt><trkpt lat="43.0346104" lon="12.3023287"><ele>250.0</ele><time>2026-04-19T07:01:19.827Z</time></trkpt><trkpt lat="43.0345652" lon="12.3022424"><ele>249.33333333333331</ele><time>2026-04-19T07:01:21.817Z</time></trkpt><trkpt lat="43.0345118" lon="12.3021506"><ele>248.66666666666666</ele><time>2026-04-19T07:01:23.825Z</time></trkpt><trkpt lat="43.0344607" lon="12.3020636"><ele>248.0</ele><time>2026-04-19T07:01:25.83Z</time></trkpt><trkpt lat="43.0344085" lon="12.3019704"><ele>247.33333333333331</ele><time>2026-04-19T07:01:27.835Z</time></trkpt><trkpt lat="43.0343526" lon="12.3018793"><ele>246.66666666666666</ele><time>2026-04-19T07:01:29.827Z</time></trkpt><trkpt lat="43.0342899" lon="12.3017879"><ele>246.0</ele><time>2026-04-19T07:01:31.917Z</time></trkpt><trkpt lat="43.0342216" lon="12.3016927"><ele>246.0</ele><time>2026-04-19T07:01:33.825Z</time></trkpt><trkpt lat="43.0341614" lon="12.3015987"><ele>246.00000000000003</ele><time>2026-04-19T07:01:35.83Z</time></trkpt><trkpt lat="43.0340966" lon="12.3014986"><ele>246.00000000000003</ele><time>2026-04-19T07:01:37.927Z</time></trkpt><trkpt lat="43.0340311" lon="12.3013911"><ele>246.0</ele><time>2026-04-19T07:01:39.832Z</time></trkpt><trkpt lat="43.0339748" lon="12.3012739"><ele>246.0</ele><time>2026-04-19T07:01:41.829Z</time></trkpt><trkpt lat="43.0339158" lon="12.3011523"><ele>246.0</ele><time>2026-04-19T07:01:43.825Z</time></trkpt><trkpt lat="43.0338526" lon="12.3010138"><ele>246.00000000000003</ele><time>2026-04-19T07:01:45.828Z</time></trkpt><trkpt lat="43.0338061" lon="12.300876"><ele>246.00000000000003</ele><time>2026-04-19T07:01:47.824Z</time></trkpt><trkpt lat="43.0337594" lon="12.3007627"><ele>246.0</ele><time>2026-04-19T07:01:49.824Z</time></trkpt><trkpt lat="43.0337127" lon="12.3006528"><ele>246.0</ele><time>2026-04-19T07:01:51.822Z</time></trkpt><trkpt lat="43.0336757" lon="12.3005454"><ele>245.60000000000002</ele><time>2026-04-19T07:01:53.829Z</time></trkpt><trkpt lat="43.0336387" lon="12.3004337"><ele>245.20000000000002</ele><time>2026-04-19T07:01:55.825Z</time></trkpt><trkpt lat="43.0336042" lon="12.3003115"><ele>244.79999999999998</ele><time>2026-04-19T07:01:57.822Z</time></trkpt><trkpt lat="43.0335674" lon="12.3001929"><ele>244.39999999999998</ele><time>2026-04-19T07:01:59.827Z</time></trkpt><trkpt lat="43.0335366" lon="12.3000728"><ele>244.0</ele><time>2026-04-19T07:02:01.83Z</time></trkpt><trkpt lat="43.0334934" lon="12.2999776"><ele>243.99999999999997</ele><time>2026-04-19T07:02:03.819Z</time></trkpt><trkpt lat="43.0334248" lon="12.2999332"><ele>244.0</ele><time>2026-04-19T07:02:06.829Z</time></trkpt><trkpt lat="43.0333602" lon="12.2998721"><ele>244.0</ele><time>2026-04-19T07:02:14.829Z</time></trkpt><trkpt lat="43.0333297" lon="12.2997923"><ele>244.0</ele><time>2026-04-19T07:02:17.825Z</time></trkpt><trkpt lat="43.0332963" lon="12.2996952"><ele>243.99999999999997</ele><time>2026-04-19T07:02:19.827Z</time></trkpt><trkpt lat="43.033256" lon="12.2995887"><ele>244.0</ele><time>2026-04-19T07:02:21.815Z</time></trkpt><trkpt lat="43.0332237" lon="12.2994862"><ele>244.28571428571425</ele><time>2026-04-19T07:02:23.824Z</time></trkpt><trkpt lat="43.0331902" lon="12.2993926"><ele>244.57142857142856</ele><time>2026-04-19T07:02:25.832Z</time></trkpt><trkpt lat="43.0331674" lon="12.2992986"><ele>244.85714285714286</ele><time>2026-04-19T07:02:27.811Z</time></trkpt><trkpt lat="43.0331429" lon="12.2992044"><ele>245.14285714285714</ele><time>2026-04-19T07:02:29.825Z</time></trkpt><trkpt lat="43.0331233" lon="12.299113"><ele>245.42857142857144</ele><time>2026-04-19T07:02:31.827Z</time></trkpt><trkpt lat="43.0330924" lon="12.2990269"><ele>245.71428571428575</ele><time>2026-04-19T07:02:33.811Z</time></trkpt><trkpt lat="43.0330595" lon="12.2989461"><ele>246.00000000000003</ele><time>2026-04-19T07:02:35.813Z</time></trkpt><trkpt lat="43.0330194" lon="12.2988562"><ele>246.5</ele><time>2026-04-19T07:02:37.82Z</time></trkpt><trkpt lat="43.0329921" lon="12.2987687"><ele>247.0</ele><time>2026-04-19T07:02:39.831Z</time></trkpt><trkpt lat="43.0329571" lon="12.2986751"><ele>247.5</ele><time>2026-04-19T07:02:41.819Z</time></trkpt><trkpt lat="43.0329182" lon="12.298589"><ele>248.0</ele><time>2026-04-19T07:02:43.815Z</time></trkpt><trkpt lat="43.0328857" lon="12.2985044"><ele>248.5</ele><time>2026-04-19T07:02:45.813Z</time></trkpt><trkpt lat="43.0328371" lon="12.2984036"><ele>249.0</ele><time>2026-04-19T07:02:48.828Z</time></trkpt><trkpt lat="43.0327959" lon="12.2983043"><ele>249.0</ele><time>2026-04-19T07:02:50.812Z</time></trkpt><trkpt lat="43.0327506" lon="12.2982074"><ele>249.0</ele><time>2026-04-19T07:02:52.81Z</time></trkpt><trkpt lat="43.0327067" lon="12.2981305"><ele>249.0</ele><time>2026-04-19T07:02:54.823Z</time></trkpt><trkpt lat="43.0326511" lon="12.298055"><ele>249.0</ele><time>2026-04-19T07:02:56.813Z</time></trkpt><trkpt lat="43.0326144" lon="12.2979834"><ele>249.0</ele><time>2026-04-19T07:02:58.82Z</time></trkpt><trkpt lat="43.0325693" lon="12.2978894"><ele>249.0</ele><time>2026-04-19T07:03:01.813Z</time></trkpt><trkpt lat="43.0325011" lon="12.2977933"><ele>249.33333333333334</ele><time>2026-04-19T07:03:04.813Z</time></trkpt><trkpt lat="43.0324475" lon="12.2977083"><ele>249.66666666666669</ele><time>2026-04-19T07:03:06.812Z</time></trkpt><trkpt lat="43.0323805" lon="12.2976262"><ele>250.0</ele><time>2026-04-19T07:03:08.816Z</time></trkpt><trkpt lat="43.0323162" lon="12.2975617"><ele>250.33333333333334</ele><time>2026-04-19T07:03:10.812Z</time></trkpt><trkpt lat="43.0322525" lon="12.2974915"><ele>250.66666666666669</ele><time>2026-04-19T07:03:12.815Z</time></trkpt><trkpt lat="43.0321835" lon="12.2974354"><ele>251.0</ele><time>2026-04-19T07:03:14.817Z</time></trkpt><trkpt lat="43.0321223" lon="12.2973885"><ele>251.00000000000003</ele><time>2026-04-19T07:03:16.82Z</time></trkpt><trkpt lat="43.0320728" lon="12.2973342"><ele>251.0</ele><time>2026-04-19T07:03:18.82Z</time></trkpt><trkpt lat="43.032018" lon="12.2972915"><ele>251.0</ele><time>2026-04-19T07:03:20.819Z</time></trkpt><trkpt lat="43.0319721" lon="12.2971856"><ele>251.0</ele><time>2026-04-19T07:03:23.82Z</time></trkpt><trkpt lat="43.0319494" lon="12.2970633"><ele>251.00000000000003</ele><time>2026-04-19T07:03:26.818Z</time></trkpt><trkpt lat="43.0319197" lon="12.2969462"><ele>251.0</ele><time>2026-04-19T07:03:29.831Z</time></trkpt><trkpt lat="43.0318594" lon="12.2968399"><ele>250.99999999999997</ele><time>2026-04-19T07:03:32.831Z</time></trkpt><trkpt lat="43.0318023" lon="12.2967732"><ele>251.0</ele><time>2026-04-19T07:03:34.831Z</time></trkpt><trkpt lat="43.0317493" lon="12.2967139"><ele>250.99999999999997</ele><time>2026-04-19T07:03:36.839Z</time></trkpt><trkpt lat="43.0316942" lon="12.2966527"><ele>250.99999999999997</ele><time>2026-04-19T07:03:38.841Z</time></trkpt><trkpt lat="43.0316537" lon="12.2965859"><ele>251.0</ele><time>2026-04-19T07:03:40.832Z</time></trkpt><trkpt lat="43.0316148" lon="12.2965166"><ele>250.99999999999997</ele><time>2026-04-19T07:03:42.831Z</time></trkpt><trkpt lat="43.0315574" lon="12.2964286"><ele>250.99999999999997</ele><time>2026-04-19T07:03:45.833Z</time></trkpt><trkpt lat="43.0314894" lon="12.2963375"><ele>251.28571428571425</ele><time>2026-04-19T07:03:48.82Z</time></trkpt><trkpt lat="43.0314443" lon="12.296266"><ele>251.57142857142856</ele><time>2026-04-19T07:03:50.816Z</time></trkpt><trkpt lat="43.0313868" lon="12.2962073"><ele>251.85714285714286</ele><time>2026-04-19T07:03:52.81Z</time></trkpt><trkpt lat="43.0313248" lon="12.2961501"><ele>252.14285714285714</ele><time>2026-04-19T07:03:54.82Z</time></trkpt><trkpt lat="43.0312825" lon="12.2960841"><ele>252.42857142857144</ele><time>2026-04-19T07:03:56.815Z</time></trkpt><trkpt lat="43.0312428" lon="12.296016"><ele>252.71428571428575</ele><time>2026-04-19T07:03:58.832Z</time></trkpt><trkpt lat="43.0312068" lon="12.2959419"><ele>253.00000000000003</ele><time>2026-04-19T07:04:00.831Z</time></trkpt><trkpt lat="43.0311692" lon="12.2958691"><ele>253.00000000000003</ele><time>2026-04-19T07:04:02.832Z</time></trkpt><trkpt lat="43.0311327" lon="12.2957905"><ele>253.0</ele><time>2026-04-19T07:04:04.836Z</time></trkpt><trkpt lat="43.0310863" lon="12.2957109"><ele>253.00000000000003</ele><time>2026-04-19T07:04:06.83Z</time></trkpt><trkpt lat="43.0310256" lon="12.2956603"><ele>253.00000000000003</ele><time>2026-04-19T07:04:07.832Z</time></trkpt><trkpt lat="43.0309695" lon="12.2955827"><ele>253.0</ele><time>2026-04-19T07:04:09.831Z</time></trkpt><trkpt lat="43.0309228" lon="12.2955083"><ele>253.00000000000003</ele><time>2026-04-19T07:04:11.833Z</time></trkpt><trkpt lat="43.0309207" lon="12.2954076"><ele>253.00000000000003</ele><time>2026-04-19T07:04:15.919Z</time></trkpt><trkpt lat="43.0308968" lon="12.295311"><ele>252.83333333333331</ele><time>2026-04-19T07:04:18.844Z</time></trkpt><trkpt lat="43.0308329" lon="12.2951854"><ele>252.66666666666666</ele><time>2026-04-19T07:04:20.834Z</time></trkpt><trkpt lat="43.0307937" lon="12.2950928"><ele>252.5</ele><time>2026-04-19T07:04:22.831Z</time></trkpt><trkpt lat="43.0307496" lon="12.2950054"><ele>252.33333333333331</ele><time>2026-04-19T07:04:24.829Z</time></trkpt><trkpt lat="43.0307108" lon="12.2949054"><ele>252.16666666666666</ele><time>2026-04-19T07:04:27.91Z</time></trkpt><trkpt lat="43.0306581" lon="12.2948277"><ele>252.0</ele><time>2026-04-19T07:04:29.832Z</time></trkpt><trkpt lat="43.0306016" lon="12.2947554"><ele>252.16666666666666</ele><time>2026-04-19T07:04:31.833Z</time></trkpt><trkpt lat="43.030552" lon="12.2946799"><ele>252.33333333333331</ele><time>2026-04-19T07:04:33.93Z</time></trkpt><trkpt lat="43.0305203" lon="12.2945971"><ele>252.5</ele><time>2026-04-19T07:04:35.83Z</time></trkpt><trkpt lat="43.0305056" lon="12.2944757"><ele>252.66666666666666</ele><time>2026-04-19T07:04:38.828Z</time></trkpt><trkpt lat="43.0304939" lon="12.2943503"><ele>252.83333333333331</ele><time>2026-04-19T07:04:41.833Z</time></trkpt><trkpt lat="43.0304767" lon="12.294249"><ele>253.0</ele><time>2026-04-19T07:04:43.839Z</time></trkpt><trkpt lat="43.030469" lon="12.2941515"><ele>253.00000000000003</ele><time>2026-04-19T07:04:45.831Z</time></trkpt><trkpt lat="43.0304701" lon="12.2940602"><ele>253.0</ele><time>2026-04-19T07:04:47.832Z</time></trkpt><trkpt lat="43.030459" lon="12.2939673"><ele>253.00000000000003</ele><time>2026-04-19T07:04:49.823Z</time></trkpt><trkpt lat="43.0304434" lon="12.2938743"><ele>253.00000000000003</ele><time>2026-04-19T07:04:51.933Z</time></trkpt><trkpt lat="43.0304214" lon="12.2937745"><ele>253.0</ele><time>2026-04-19T07:04:53.83Z</time></trkpt><trkpt lat="43.0303909" lon="12.293676"><ele>253.00000000000003</ele><time>2026-04-19T07:04:55.833Z</time></trkpt><trkpt lat="43.0303582" lon="12.293593"><ele>253.00000000000003</ele><time>2026-04-19T07:04:57.926Z</time></trkpt><trkpt lat="43.030317" lon="12.2934977"><ele>253.16666666666666</ele><time>2026-04-19T07:04:59.83Z</time></trkpt><trkpt lat="43.0302907" lon="12.2933862"><ele>253.33333333333331</ele><time>2026-04-19T07:05:01.824Z</time></trkpt><trkpt lat="43.0302713" lon="12.293268"><ele>253.5</ele><time>2026-04-19T07:05:03.825Z</time></trkpt><trkpt lat="43.0302675" lon="12.2931662"><ele>253.66666666666669</ele><time>2026-04-19T07:05:05.832Z</time></trkpt><trkpt lat="43.0302639" lon="12.2930759"><ele>253.83333333333334</ele><time>2026-04-19T07:05:07.831Z</time></trkpt><trkpt lat="43.0302668" lon="12.2929824"><ele>254.0</ele><time>2026-04-19T07:05:09.825Z</time></trkpt><trkpt lat="43.0302592" lon="12.2928804"><ele>254.50000000000003</ele><time>2026-04-19T07:05:11.83Z</time></trkpt><trkpt lat="43.0302429" lon="12.2927703"><ele>255.0</ele><time>2026-04-19T07:05:13.827Z</time></trkpt><trkpt lat="43.0302069" lon="12.2926634"><ele>255.5</ele><time>2026-04-19T07:05:15.828Z</time></trkpt><trkpt lat="43.0301657" lon="12.2925562"><ele>256.0</ele><time>2026-04-19T07:05:17.834Z</time></trkpt><trkpt lat="43.0301461" lon="12.2924636"><ele>256.5</ele><time>2026-04-19T07:05:19.831Z</time></trkpt><trkpt lat="43.0301367" lon="12.2923629"><ele>257.0</ele><time>2026-04-19T07:05:21.935Z</time></trkpt><trkpt lat="43.0301219" lon="12.2922696"><ele>257.0</ele><time>2026-04-19T07:05:23.833Z</time></trkpt><trkpt lat="43.030086" lon="12.2921825"><ele>257.0</ele><time>2026-04-19T07:05:25.836Z</time></trkpt><trkpt lat="43.0300443" lon="12.2920961"><ele>257.0</ele><time>2026-04-19T07:05:27.937Z</time></trkpt><trkpt lat="43.0299979" lon="12.292021"><ele>257.0</ele><time>2026-04-19T07:05:29.829Z</time></trkpt><trkpt lat="43.0299666" lon="12.2919417"><ele>257.0</ele><time>2026-04-19T07:05:31.832Z</time></trkpt><trkpt lat="43.0299246" lon="12.2918632"><ele>257.0</ele><time>2026-04-19T07:05:33.83Z</time></trkpt><trkpt lat="43.0298767" lon="12.2918015"><ele>257.0</ele><time>2026-04-19T07:05:35.833Z</time></trkpt><trkpt lat="43.0298284" lon="12.2917302"><ele>257.5</ele><time>2026-04-19T07:05:37.83Z</time></trkpt><trkpt lat="43.0297698" lon="12.2916237"><ele>258.0</ele><time>2026-04-19T07:05:40.83Z</time></trkpt><trkpt lat="43.0297196" lon="12.2915365"><ele>258.5</ele><time>2026-04-19T07:05:43.828Z</time></trkpt><trkpt lat="43.0296789" lon="12.2914329"><ele>259.0</ele><time>2026-04-19T07:05:46.825Z</time></trkpt><trkpt lat="43.0296378" lon="12.2913586"><ele>259.5</ele><time>2026-04-19T07:05:48.828Z</time></trkpt><trkpt lat="43.0295984" lon="12.2912472"><ele>260.0</ele><time>2026-04-19T07:05:51.821Z</time></trkpt><trkpt lat="43.0295549" lon="12.2911365"><ele>260.1666666666667</ele><time>2026-04-19T07:05:54.829Z</time></trkpt><trkpt lat="43.0295093" lon="12.2910672"><ele>260.33333333333337</ele><time>2026-04-19T07:05:56.818Z</time></trkpt><trkpt lat="43.0294582" lon="12.2909845"><ele>260.5</ele><time>2026-04-19T07:05:58.817Z</time></trkpt><trkpt lat="43.0294033" lon="12.2909156"><ele>260.6666666666667</ele><time>2026-04-19T07:06:00.813Z</time></trkpt><trkpt lat="43.0293533" lon="12.2908364"><ele>260.8333333333333</ele><time>2026-04-19T07:06:02.823Z</time></trkpt><trkpt lat="43.0292442" lon="12.2907073"><ele>261.0</ele><time>2026-04-19T07:06:05.82Z</time></trkpt><trkpt lat="43.0291739" lon="12.2906334"><ele>260.8571428571429</ele><time>2026-04-19T07:06:07.82Z</time></trkpt><trkpt lat="43.0291527" lon="12.2905513"><ele>260.7142857142857</ele><time>2026-04-19T07:06:10.819Z</time></trkpt><trkpt lat="43.0291337" lon="12.2904604"><ele>260.57142857142856</ele><time>2026-04-19T07:06:13.816Z</time></trkpt><trkpt lat="43.0290895" lon="12.2903883"><ele>260.42857142857144</ele><time>2026-04-19T07:06:15.838Z</time></trkpt><trkpt lat="43.0290431" lon="12.290303"><ele>260.2857142857143</ele><time>2026-04-19T07:06:17.832Z</time></trkpt><trkpt lat="43.0289945" lon="12.2902213"><ele>260.14285714285717</ele><time>2026-04-19T07:06:19.907Z</time></trkpt><trkpt lat="43.0289417" lon="12.2901736"><ele>260.0</ele><time>2026-04-19T07:06:20.822Z</time></trkpt><trkpt lat="43.0289051" lon="12.2900957"><ele>260.0</ele><time>2026-04-19T07:06:22.829Z</time></trkpt><trkpt lat="43.0288668" lon="12.2900172"><ele>260.0</ele><time>2026-04-19T07:06:24.818Z</time></trkpt><trkpt lat="43.0288288" lon="12.2899333"><ele>260.0</ele><time>2026-04-19T07:06:26.826Z</time></trkpt><trkpt lat="43.0287738" lon="12.2898428"><ele>260.0</ele><time>2026-04-19T07:06:28.825Z</time></trkpt><trkpt lat="43.0287128" lon="12.2897796"><ele>260.0</ele><time>2026-04-19T07:06:30.829Z</time></trkpt><trkpt lat="43.0286456" lon="12.2897191"><ele>260.0</ele><time>2026-04-19T07:06:32.819Z</time></trkpt><trkpt lat="43.0285674" lon="12.2896685"><ele>259.83333333333337</ele><time>2026-04-19T07:06:35.83Z</time></trkpt><trkpt lat="43.0285026" lon="12.2897143"><ele>259.6666666666667</ele><time>2026-04-19T07:06:38.828Z</time></trkpt><trkpt lat="43.0284295" lon="12.289725"><ele>259.5</ele><time>2026-04-19T07:07:03.825Z</time></trkpt><trkpt lat="43.0283312" lon="12.2896488"><ele>259.3333333333333</ele><time>2026-04-19T07:07:08.821Z</time></trkpt><trkpt lat="43.0282766" lon="12.2896041"><ele>259.16666666666663</ele><time>2026-04-19T07:07:10.824Z</time></trkpt><trkpt lat="43.0282221" lon="12.2895564"><ele>259.0</ele><time>2026-04-19T07:07:12.827Z</time></trkpt><trkpt lat="43.0281565" lon="12.2895192"><ele>259.0</ele><time>2026-04-19T07:07:14.817Z</time></trkpt><trkpt lat="43.0280753" lon="12.2894859"><ele>259.0</ele><time>2026-04-19T07:07:17.813Z</time></trkpt><trkpt lat="43.0280075" lon="12.2894417"><ele>259.0</ele><time>2026-04-19T07:07:21.823Z</time></trkpt><trkpt lat="43.0279235" lon="12.2894006"><ele>259.0</ele><time>2026-04-19T07:07:25.805Z</time></trkpt><trkpt lat="43.0278376" lon="12.2893463"><ele>259.0</ele><time>2026-04-19T07:07:28.821Z</time></trkpt><trkpt lat="43.0277724" lon="12.2893207"><ele>259.0</ele><time>2026-04-19T07:07:30.922Z</time></trkpt><trkpt lat="43.0277095" lon="12.2892945"><ele>259.0</ele><time>2026-04-19T07:07:32.827Z</time></trkpt><trkpt lat="43.0276455" lon="12.2892736"><ele>259.0</ele><time>2026-04-19T07:07:34.831Z</time></trkpt><trkpt lat="43.0275511" lon="12.2892431"><ele>259.0</ele><time>2026-04-19T07:07:37.828Z</time></trkpt><trkpt lat="43.0274853" lon="12.2892199"><ele>259.0</ele><time>2026-04-19T07:07:39.828Z</time></trkpt><trkpt lat="43.0274196" lon="12.2891942"><ele>259.0</ele><time>2026-04-19T07:07:41.813Z</time></trkpt><trkpt lat="43.027345" lon="12.2891765"><ele>259.0</ele><time>2026-04-19T07:07:43.821Z</time></trkpt><trkpt lat="43.0272589" lon="12.2891594"><ele>258.5</ele><time>2026-04-19T07:07:46.82Z</time></trkpt><trkpt lat="43.0271747" lon="12.2891237"><ele>258.0</ele><time>2026-04-19T07:07:49.815Z</time></trkpt><trkpt lat="43.0271009" lon="12.2891121"><ele>257.5</ele><time>2026-04-19T07:07:51.828Z</time></trkpt><trkpt lat="43.0270264" lon="12.289094"><ele>257.0</ele><time>2026-04-19T07:07:53.821Z</time></trkpt><trkpt lat="43.0269067" lon="12.2890692"><ele>256.5</ele><time>2026-04-19T07:07:56.828Z</time></trkpt><trkpt lat="43.026837" lon="12.2890513"><ele>256.0</ele><time>2026-04-19T07:07:58.82Z</time></trkpt><trkpt lat="43.0267678" lon="12.2890353"><ele>256.0</ele><time>2026-04-19T07:08:00.822Z</time></trkpt><trkpt lat="43.026693" lon="12.2890186"><ele>255.99999999999997</ele><time>2026-04-19T07:08:02.831Z</time></trkpt><trkpt lat="43.0266218" lon="12.2890053"><ele>256.0</ele><time>2026-04-19T07:08:04.824Z</time></trkpt><trkpt lat="43.0265535" lon="12.2889832"><ele>256.0</ele><time>2026-04-19T07:08:06.924Z</time></trkpt><trkpt lat="43.0264756" lon="12.2889709"><ele>255.99999999999997</ele><time>2026-04-19T07:08:08.829Z</time></trkpt><trkpt lat="43.0264011" lon="12.288957"><ele>256.0</ele><time>2026-04-19T07:08:10.835Z</time></trkpt><trkpt lat="43.0263361" lon="12.2889469"><ele>256.0</ele><time>2026-04-19T07:08:12.832Z</time></trkpt><trkpt lat="43.0262596" lon="12.2889315"><ele>255.99999999999997</ele><time>2026-04-19T07:08:15.828Z</time></trkpt><trkpt lat="43.0261707" lon="12.2889067"><ele>256.0</ele><time>2026-04-19T07:08:18.825Z</time></trkpt><trkpt lat="43.0261186" lon="12.2888078"><ele>256.0</ele><time>2026-04-19T07:08:21.824Z</time></trkpt><trkpt lat="43.0261191" lon="12.2887138"><ele>256.0</ele><time>2026-04-19T07:08:23.827Z</time></trkpt><trkpt lat="43.0261242" lon="12.2886167"><ele>255.99999999999997</ele><time>2026-04-19T07:08:25.815Z</time></trkpt><trkpt lat="43.0261331" lon="12.2885202"><ele>256.0</ele><time>2026-04-19T07:08:27.814Z</time></trkpt><trkpt lat="43.0261424" lon="12.2884224"><ele>255.99999999999997</ele><time>2026-04-19T07:08:29.815Z</time></trkpt><trkpt lat="43.0261443" lon="12.2883128"><ele>256.0</ele><time>2026-04-19T07:08:31.824Z</time></trkpt><trkpt lat="43.026146" lon="12.2882009"><ele>256.0</ele><time>2026-04-19T07:08:33.818Z</time></trkpt><trkpt lat="43.0262051" lon="12.2881687"><ele>256.0</ele><time>2026-04-19T07:08:34.809Z</time></trkpt><trkpt lat="43.026233" lon="12.2880446"><ele>255.99999999999997</ele><time>2026-04-19T07:08:37.812Z</time></trkpt><trkpt lat="43.0262644" lon="12.2879549"><ele>256.0</ele><time>2026-04-19T07:08:39.812Z</time></trkpt><trkpt lat="43.0262922" lon="12.2878555"><ele>256.16666666666663</ele><time>2026-04-19T07:08:41.822Z</time></trkpt><trkpt lat="43.0263175" lon="12.2877559"><ele>256.3333333333333</ele><time>2026-04-19T07:08:43.809Z</time></trkpt><trkpt lat="43.0263223" lon="12.2876689"><ele>256.5</ele><time>2026-04-19T07:08:45.811Z</time></trkpt><trkpt lat="43.0263207" lon="12.2875716"><ele>256.6666666666667</ele><time>2026-04-19T07:08:47.817Z</time></trkpt><trkpt lat="43.0263341" lon="12.287463"><ele>256.83333333333337</ele><time>2026-04-19T07:08:49.814Z</time></trkpt><trkpt lat="43.0263704" lon="12.2873312"><ele>257.0</ele><time>2026-04-19T07:08:51.812Z</time></trkpt><trkpt lat="43.0264175" lon="12.2871889"><ele>256.2</ele><time>2026-04-19T07:08:53.811Z</time></trkpt><trkpt lat="43.0264332" lon="12.2870983"><ele>255.39999999999998</ele><time>2026-04-19T07:08:54.811Z</time></trkpt><trkpt lat="43.0264533" lon="12.2870108"><ele>254.60000000000002</ele><time>2026-04-19T07:08:55.816Z</time></trkpt><trkpt lat="43.026474" lon="12.286927"><ele>253.8</ele><time>2026-04-19T07:08:56.817Z</time></trkpt><trkpt lat="43.0265112" lon="12.2867542"><ele>253.0</ele><time>2026-04-19T07:08:58.81Z</time></trkpt><trkpt lat="43.0265469" lon="12.286575"><ele>252.99999999999997</ele><time>2026-04-19T07:09:00.818Z</time></trkpt><trkpt lat="43.0265626" lon="12.2864809"><ele>253.0</ele><time>2026-04-19T07:09:01.812Z</time></trkpt><trkpt lat="43.0265852" lon="12.2863779"><ele>253.0</ele><time>2026-04-19T07:09:02.832Z</time></trkpt><trkpt lat="43.0266002" lon="12.2862796"><ele>253.0</ele><time>2026-04-19T07:09:03.831Z</time></trkpt><trkpt lat="43.026613" lon="12.2861791"><ele>252.99999999999997</ele><time>2026-04-19T07:09:04.82Z</time></trkpt><trkpt lat="43.0266249" lon="12.2860627"><ele>253.0</ele><time>2026-04-19T07:09:05.837Z</time></trkpt><trkpt lat="43.026638" lon="12.2859458"><ele>251.99999999999997</ele><time>2026-04-19T07:09:06.829Z</time></trkpt><trkpt lat="43.026653" lon="12.2858346"><ele>251.0</ele><time>2026-04-19T07:09:07.865Z</time></trkpt><trkpt lat="43.0266708" lon="12.2857226"><ele>250.0</ele><time>2026-04-19T07:09:08.832Z</time></trkpt><trkpt lat="43.0267136" lon="12.2856403"><ele>249.0</ele><time>2026-04-19T07:09:09.823Z</time></trkpt><trkpt lat="43.0267474" lon="12.2855374"><ele>247.99999999999997</ele><time>2026-04-19T07:09:10.812Z</time></trkpt><trkpt lat="43.0267738" lon="12.2854453"><ele>247.0</ele><time>2026-04-19T07:09:11.81Z</time></trkpt><trkpt lat="43.0267946" lon="12.2853473"><ele>246.16666666666666</ele><time>2026-04-19T07:09:12.824Z</time></trkpt><trkpt lat="43.0268427" lon="12.2851801"><ele>245.33333333333331</ele><time>2026-04-19T07:09:14.824Z</time></trkpt><trkpt lat="43.0268883" lon="12.2851077"><ele>244.5</ele><time>2026-04-19T07:09:15.819Z</time></trkpt><trkpt lat="43.0269387" lon="12.2850398"><ele>243.66666666666669</ele><time>2026-04-19T07:09:16.828Z</time></trkpt><trkpt lat="43.026986" lon="12.2849634"><ele>242.83333333333334</ele><time>2026-04-19T07:09:17.825Z</time></trkpt><trkpt lat="43.027025" lon="12.2848851"><ele>242.0</ele><time>2026-04-19T07:09:18.828Z</time></trkpt><trkpt lat="43.0270562" lon="12.2847863"><ele>241.42857142857142</ele><time>2026-04-19T07:09:19.817Z</time></trkpt><trkpt lat="43.0270742" lon="12.2847001"><ele>240.85714285714283</ele><time>2026-04-19T07:09:20.828Z</time></trkpt><trkpt lat="43.0271017" lon="12.2846032"><ele>240.28571428571428</ele><time>2026-04-19T07:09:21.814Z</time></trkpt><trkpt lat="43.0270923" lon="12.2845056"><ele>239.71428571428572</ele><time>2026-04-19T07:09:22.811Z</time></trkpt><trkpt lat="43.0270851" lon="12.2844022"><ele>239.14285714285714</ele><time>2026-04-19T07:09:23.814Z</time></trkpt><trkpt lat="43.0270809" lon="12.2843073"><ele>238.57142857142856</ele><time>2026-04-19T07:09:24.814Z</time></trkpt><trkpt lat="43.0270858" lon="12.2842041"><ele>238.0</ele><time>2026-04-19T07:09:25.819Z</time></trkpt><trkpt lat="43.0270821" lon="12.2841073"><ele>237.99999999999997</ele><time>2026-04-19T07:09:26.823Z</time></trkpt><trkpt lat="43.0270862" lon="12.2840124"><ele>238.0</ele><time>2026-04-19T07:09:27.811Z</time></trkpt><trkpt lat="43.0270882" lon="12.2839177"><ele>238.0</ele><time>2026-04-19T07:09:28.811Z</time></trkpt><trkpt lat="43.0270886" lon="12.2838163"><ele>238.0</ele><time>2026-04-19T07:09:29.821Z</time></trkpt><trkpt lat="43.0270966" lon="12.2837221"><ele>237.99999999999997</ele><time>2026-04-19T07:09:30.82Z</time></trkpt><trkpt lat="43.027123" lon="12.2835545"><ele>238.0</ele><time>2026-04-19T07:09:32.826Z</time></trkpt><trkpt lat="43.0271431" lon="12.2833966"><ele>237.60000000000002</ele><time>2026-04-19T07:09:34.811Z</time></trkpt><trkpt lat="43.0271653" lon="12.2832429"><ele>237.20000000000002</ele><time>2026-04-19T07:09:36.921Z</time></trkpt><trkpt lat="43.0272031" lon="12.2831185"><ele>236.8</ele><time>2026-04-19T07:09:38.821Z</time></trkpt><trkpt lat="43.0272362" lon="12.2829726"><ele>236.4</ele><time>2026-04-19T07:09:40.819Z</time></trkpt><trkpt lat="43.0272741" lon="12.2828236"><ele>236.0</ele><time>2026-04-19T07:09:42.813Z</time></trkpt><trkpt lat="43.0272923" lon="12.2826596"><ele>235.57142857142856</ele><time>2026-04-19T07:09:44.823Z</time></trkpt><trkpt lat="43.0273054" lon="12.2825731"><ele>235.14285714285717</ele><time>2026-04-19T07:09:45.817Z</time></trkpt><trkpt lat="43.0273192" lon="12.2824859"><ele>234.71428571428572</ele><time>2026-04-19T07:09:46.819Z</time></trkpt><trkpt lat="43.0273254" lon="12.2823998"><ele>234.28571428571428</ele><time>2026-04-19T07:09:47.821Z</time></trkpt><trkpt lat="43.0273378" lon="12.2823099"><ele>233.85714285714283</ele><time>2026-04-19T07:09:48.816Z</time></trkpt><trkpt lat="43.027366" lon="12.2821461"><ele>233.42857142857144</ele><time>2026-04-19T07:09:50.823Z</time></trkpt><trkpt lat="43.027378" lon="12.2820577"><ele>233.0</ele><time>2026-04-19T07:09:51.815Z</time></trkpt><trkpt lat="43.0273959" lon="12.2819741"><ele>233.4</ele><time>2026-04-19T07:09:52.822Z</time></trkpt><trkpt lat="43.0274061" lon="12.2818881"><ele>233.8</ele><time>2026-04-19T07:09:53.815Z</time></trkpt><trkpt lat="43.027421" lon="12.2818033"><ele>234.2</ele><time>2026-04-19T07:09:54.9Z</time></trkpt><trkpt lat="43.0274419" lon="12.2816393"><ele>234.6</ele><time>2026-04-19T07:09:56.814Z</time></trkpt><trkpt lat="43.0274644" lon="12.2814788"><ele>235.0</ele><time>2026-04-19T07:09:58.811Z</time></trkpt><trkpt lat="43.0274879" lon="12.2813294"><ele>235.0</ele><time>2026-04-19T07:10:00.812Z</time></trkpt><trkpt lat="43.0275173" lon="12.2811877"><ele>235.0</ele><time>2026-04-19T07:10:02.814Z</time></trkpt><trkpt lat="43.027521" lon="12.2810418"><ele>235.0</ele><time>2026-04-19T07:10:04.82Z</time></trkpt><trkpt lat="43.0275163" lon="12.2808973"><ele>235.0</ele><time>2026-04-19T07:10:06.812Z</time></trkpt><trkpt lat="43.0275023" lon="12.2807429"><ele>235.0</ele><time>2026-04-19T07:10:08.816Z</time></trkpt><trkpt lat="43.0275008" lon="12.2805905"><ele>234.8</ele><time>2026-04-19T07:10:10.811Z</time></trkpt><trkpt lat="43.0274916" lon="12.2804459"><ele>234.6</ele><time>2026-04-19T07:10:12.809Z</time></trkpt><trkpt lat="43.0274875" lon="12.2803108"><ele>234.39999999999998</ele><time>2026-04-19T07:10:14.814Z</time></trkpt><trkpt lat="43.0274928" lon="12.2801749"><ele>234.2</ele><time>2026-04-19T07:10:16.812Z</time></trkpt><trkpt lat="43.0275086" lon="12.2800502"><ele>234.0</ele><time>2026-04-19T07:10:18.823Z</time></trkpt><trkpt lat="43.0275159" lon="12.2799215"><ele>234.0</ele><time>2026-04-19T07:10:20.818Z</time></trkpt><trkpt lat="43.0275364" lon="12.2797974"><ele>233.99999999999997</ele><time>2026-04-19T07:10:22.815Z</time></trkpt><trkpt lat="43.0275544" lon="12.2796535"><ele>233.99999999999997</ele><time>2026-04-19T07:10:24.816Z</time></trkpt><trkpt lat="43.0275305" lon="12.2794957"><ele>234.0</ele><time>2026-04-19T07:10:26.826Z</time></trkpt><trkpt lat="43.0275243" lon="12.2793361"><ele>234.0</ele><time>2026-04-19T07:10:28.913Z</time></trkpt><trkpt lat="43.0274817" lon="12.2791848"><ele>232.85714285714286</ele><time>2026-04-19T07:10:30.824Z</time></trkpt><trkpt lat="43.0274605" lon="12.2791016"><ele>231.71428571428572</ele><time>2026-04-19T07:10:31.814Z</time></trkpt><trkpt lat="43.0274386" lon="12.2790105"><ele>230.57142857142858</ele><time>2026-04-19T07:10:32.831Z</time></trkpt><trkpt lat="43.0274179" lon="12.2789201"><ele>229.42857142857144</ele><time>2026-04-19T07:10:33.821Z</time></trkpt><trkpt lat="43.0273921" lon="12.2788295"><ele>228.28571428571428</ele><time>2026-04-19T07:10:34.82Z</time></trkpt><trkpt lat="43.0273682" lon="12.2787348"><ele>227.14285714285717</ele><time>2026-04-19T07:10:35.833Z</time></trkpt><trkpt lat="43.0273389" lon="12.2786422"><ele>226.0</ele><time>2026-04-19T07:10:36.821Z</time></trkpt><trkpt lat="43.0273063" lon="12.2785502"><ele>225.16666666666666</ele><time>2026-04-19T07:10:37.831Z</time></trkpt><trkpt lat="43.0272735" lon="12.2784546"><ele>224.33333333333331</ele><time>2026-04-19T07:10:38.831Z</time></trkpt><trkpt lat="43.0272464" lon="12.2783584"><ele>223.5</ele><time>2026-04-19T07:10:39.821Z</time></trkpt><trkpt lat="43.0272163" lon="12.2782571"><ele>222.66666666666669</ele><time>2026-04-19T07:10:40.832Z</time></trkpt><trkpt lat="43.0271882" lon="12.2781413"><ele>221.83333333333334</ele><time>2026-04-19T07:10:41.814Z</time></trkpt><trkpt lat="43.0271546" lon="12.2780275"><ele>221.0</ele><time>2026-04-19T07:10:42.824Z</time></trkpt><trkpt lat="43.0271231" lon="12.2779103"><ele>219.60000000000002</ele><time>2026-04-19T07:10:43.822Z</time></trkpt><trkpt lat="43.0270954" lon="12.2778042"><ele>218.20000000000002</ele><time>2026-04-19T07:10:44.822Z</time></trkpt><trkpt lat="43.0270543" lon="12.277681"><ele>216.79999999999998</ele><time>2026-04-19T07:10:45.815Z</time></trkpt><trkpt lat="43.0270147" lon="12.2775591"><ele>215.39999999999998</ele><time>2026-04-19T07:10:46.814Z</time></trkpt><trkpt lat="43.0269751" lon="12.2774391"><ele>214.0</ele><time>2026-04-19T07:10:47.815Z</time></trkpt><trkpt lat="43.0269386" lon="12.2773186"><ele>213.66666666666666</ele><time>2026-04-19T07:10:48.828Z</time></trkpt><trkpt lat="43.0269058" lon="12.2771974"><ele>213.33333333333331</ele><time>2026-04-19T07:10:49.813Z</time></trkpt><trkpt lat="43.026878" lon="12.2770865"><ele>213.0</ele><time>2026-04-19T07:10:50.818Z</time></trkpt><trkpt lat="43.0268562" lon="12.2769815"><ele>212.66666666666669</ele><time>2026-04-19T07:10:51.821Z</time></trkpt><trkpt lat="43.0268474" lon="12.276878"><ele>212.33333333333334</ele><time>2026-04-19T07:10:52.906Z</time></trkpt><trkpt lat="43.0268469" lon="12.2767763"><ele>212.0</ele><time>2026-04-19T07:10:53.809Z</time></trkpt><trkpt lat="43.0268865" lon="12.276698"><ele>212.00000000000003</ele><time>2026-04-19T07:10:54.814Z</time></trkpt><trkpt lat="43.0269415" lon="12.2766245"><ele>212.0</ele><time>2026-04-19T07:10:55.812Z</time></trkpt><trkpt lat="43.0269969" lon="12.2765649"><ele>212.0</ele><time>2026-04-19T07:10:56.81Z</time></trkpt><trkpt lat="43.0270527" lon="12.2765074"><ele>212.0</ele><time>2026-04-19T07:10:57.813Z</time></trkpt><trkpt lat="43.0271096" lon="12.2764472"><ele>212.00000000000003</ele><time>2026-04-19T07:10:58.915Z</time></trkpt><trkpt lat="43.0272271" lon="12.2763137"><ele>212.0</ele><time>2026-04-19T07:11:00.814Z</time></trkpt><trkpt lat="43.0272889" lon="12.2762456"><ele>211.66666666666669</ele><time>2026-04-19T07:11:01.817Z</time></trkpt><trkpt lat="43.0273465" lon="12.2761841"><ele>211.33333333333334</ele><time>2026-04-19T07:11:02.818Z</time></trkpt><trkpt lat="43.0274069" lon="12.2761101"><ele>211.0</ele><time>2026-04-19T07:11:03.811Z</time></trkpt><trkpt lat="43.0274658" lon="12.2760471"><ele>210.66666666666669</ele><time>2026-04-19T07:11:04.812Z</time></trkpt><trkpt lat="43.0275204" lon="12.275978"><ele>210.33333333333334</ele><time>2026-04-19T07:11:05.813Z</time></trkpt><trkpt lat="43.0275722" lon="12.275918"><ele>210.0</ele><time>2026-04-19T07:11:06.815Z</time></trkpt><trkpt lat="43.0276633" lon="12.2757954"><ele>210.0</ele><time>2026-04-19T07:11:08.817Z</time></trkpt><trkpt lat="43.0277184" lon="12.2757348"><ele>210.0</ele><time>2026-04-19T07:11:09.816Z</time></trkpt><trkpt lat="43.0278082" lon="12.2756178"><ele>210.0</ele><time>2026-04-19T07:11:11.827Z</time></trkpt><trkpt lat="43.0278805" lon="12.2754877"><ele>210.0</ele><time>2026-04-19T07:11:13.818Z</time></trkpt><trkpt lat="43.0279243" lon="12.2753631"><ele>210.0</ele><time>2026-04-19T07:11:15.821Z</time></trkpt><trkpt lat="43.027969" lon="12.2752338"><ele>209.8</ele><time>2026-04-19T07:11:17.825Z</time></trkpt><trkpt lat="43.0279989" lon="12.2751019"><ele>209.6</ele><time>2026-04-19T07:11:19.837Z</time></trkpt><trkpt lat="43.0280373" lon="12.2749815"><ele>209.39999999999998</ele><time>2026-04-19T07:11:21.828Z</time></trkpt><trkpt lat="43.0280716" lon="12.2748745"><ele>209.2</ele><time>2026-04-19T07:11:23.824Z</time></trkpt><trkpt lat="43.0280446" lon="12.274777"><ele>209.0</ele><time>2026-04-19T07:11:25.826Z</time></trkpt><trkpt lat="43.027984" lon="12.2746645"><ele>208.83333333333334</ele><time>2026-04-19T07:11:28.812Z</time></trkpt><trkpt lat="43.027938" lon="12.2745888"><ele>208.66666666666669</ele><time>2026-04-19T07:11:30.824Z</time></trkpt><trkpt lat="43.0278923" lon="12.2745085"><ele>208.5</ele><time>2026-04-19T07:11:32.825Z</time></trkpt><trkpt lat="43.0278433" lon="12.274422"><ele>208.33333333333331</ele><time>2026-04-19T07:11:34.823Z</time></trkpt><trkpt lat="43.0277907" lon="12.2743324"><ele>208.16666666666666</ele><time>2026-04-19T07:11:36.826Z</time></trkpt><trkpt lat="43.0277379" lon="12.2742398"><ele>208.0</ele><time>2026-04-19T07:11:38.825Z</time></trkpt><trkpt lat="43.0276883" lon="12.2741553"><ele>208.0</ele><time>2026-04-19T07:11:40.821Z</time></trkpt><trkpt lat="43.0276049" lon="12.2740867"><ele>208.0</ele><time>2026-04-19T07:11:42.822Z</time></trkpt><trkpt lat="43.0275525" lon="12.2739804"><ele>208.0</ele><time>2026-04-19T07:11:44.828Z</time></trkpt><trkpt lat="43.0274997" lon="12.2738763"><ele>208.0</ele><time>2026-04-19T07:11:46.825Z</time></trkpt><trkpt lat="43.0274254" lon="12.2737808"><ele>208.0</ele><time>2026-04-19T07:11:48.823Z</time></trkpt><trkpt lat="43.0273648" lon="12.2736784"><ele>208.0</ele><time>2026-04-19T07:11:50.831Z</time></trkpt><trkpt lat="43.0273122" lon="12.273583"><ele>208.0</ele><time>2026-04-19T07:11:52.923Z</time></trkpt><trkpt lat="43.0272513" lon="12.2734918"><ele>208.0</ele><time>2026-04-19T07:11:54.819Z</time></trkpt><trkpt lat="43.0271966" lon="12.2733938"><ele>208.0</ele><time>2026-04-19T07:11:56.825Z</time></trkpt><trkpt lat="43.0271282" lon="12.2732957"><ele>208.0</ele><time>2026-04-19T07:11:58.827Z</time></trkpt><trkpt lat="43.0270722" lon="12.2732073"><ele>208.0</ele><time>2026-04-19T07:12:00.825Z</time></trkpt><trkpt lat="43.0270172" lon="12.2731187"><ele>208.0</ele><time>2026-04-19T07:12:02.83Z</time></trkpt><trkpt lat="43.0269337" lon="12.2730303"><ele>208.0</ele><time>2026-04-19T07:12:04.832Z</time></trkpt><trkpt lat="43.0268731" lon="12.2729334"><ele>208.0</ele><time>2026-04-19T07:12:06.829Z</time></trkpt><trkpt lat="43.0268104" lon="12.2728393"><ele>208.0</ele><time>2026-04-19T07:12:08.824Z</time></trkpt><trkpt lat="43.0267685" lon="12.2727494"><ele>207.99999999999997</ele><time>2026-04-19T07:12:10.826Z</time></trkpt><trkpt lat="43.0267099" lon="12.272662"><ele>208.0</ele><time>2026-04-19T07:12:12.825Z</time></trkpt><trkpt lat="43.0266463" lon="12.2725726"><ele>208.0</ele><time>2026-04-19T07:12:14.834Z</time></trkpt><trkpt lat="43.0265947" lon="12.2724826"><ele>208.0</ele><time>2026-04-19T07:12:16.831Z</time></trkpt><trkpt lat="43.0265401" lon="12.2723921"><ele>207.99999999999997</ele><time>2026-04-19T07:12:18.831Z</time></trkpt><trkpt lat="43.0264697" lon="12.2723171"><ele>208.0</ele><time>2026-04-19T07:12:20.827Z</time></trkpt><trkpt lat="43.0264426" lon="12.2722288"><ele>207.83333333333331</ele><time>2026-04-19T07:12:22.832Z</time></trkpt><trkpt lat="43.0263727" lon="12.2721485"><ele>207.66666666666666</ele><time>2026-04-19T07:12:24.822Z</time></trkpt><trkpt lat="43.0263124" lon="12.2720545"><ele>207.5</ele><time>2026-04-19T07:12:26.823Z</time></trkpt><trkpt lat="43.0262521" lon="12.2719468"><ele>207.33333333333331</ele><time>2026-04-19T07:12:28.824Z</time></trkpt><trkpt lat="43.0261949" lon="12.2718634"><ele>207.16666666666666</ele><time>2026-04-19T07:12:30.824Z</time></trkpt><trkpt lat="43.0261498" lon="12.2717729"><ele>207.0</ele><time>2026-04-19T07:12:32.823Z</time></trkpt><trkpt lat="43.0261016" lon="12.2716861"><ele>207.0</ele><time>2026-04-19T07:12:34.809Z</time></trkpt><trkpt lat="43.0260471" lon="12.2715896"><ele>207.0</ele><time>2026-04-19T07:12:36.815Z</time></trkpt><trkpt lat="43.0259959" lon="12.2714812"><ele>207.0</ele><time>2026-04-19T07:12:38.813Z</time></trkpt><trkpt lat="43.0259433" lon="12.2713884"><ele>207.0</ele><time>2026-04-19T07:12:40.831Z</time></trkpt><trkpt lat="43.0258861" lon="12.2712836"><ele>207.0</ele><time>2026-04-19T07:12:42.825Z</time></trkpt><trkpt lat="43.0258362" lon="12.2711874"><ele>207.2</ele><time>2026-04-19T07:12:44.919Z</time></trkpt><trkpt lat="43.0257831" lon="12.2710812"><ele>207.39999999999998</ele><time>2026-04-19T07:12:46.824Z</time></trkpt><trkpt lat="43.0257323" lon="12.270987"><ele>207.60000000000002</ele><time>2026-04-19T07:12:48.82Z</time></trkpt><trkpt lat="43.0256726" lon="12.2708853"><ele>207.8</ele><time>2026-04-19T07:12:50.825Z</time></trkpt><trkpt lat="43.0256172" lon="12.2707838"><ele>208.0</ele><time>2026-04-19T07:12:52.823Z</time></trkpt><trkpt lat="43.0255505" lon="12.2706734"><ele>208.0</ele><time>2026-04-19T07:12:54.831Z</time></trkpt><trkpt lat="43.0254891" lon="12.2705794"><ele>208.0</ele><time>2026-04-19T07:12:56.823Z</time></trkpt><trkpt lat="43.0254332" lon="12.2704731"><ele>208.0</ele><time>2026-04-19T07:12:58.823Z</time></trkpt><trkpt lat="43.0253713" lon="12.270377"><ele>208.0</ele><time>2026-04-19T07:13:00.827Z</time></trkpt><trkpt lat="43.025304" lon="12.2702893"><ele>208.0</ele><time>2026-04-19T07:13:02.913Z</time></trkpt><trkpt lat="43.0252445" lon="12.2701974"><ele>207.99999999999997</ele><time>2026-04-19T07:13:04.831Z</time></trkpt><trkpt lat="43.0251871" lon="12.2701012"><ele>208.0</ele><time>2026-04-19T07:13:06.828Z</time></trkpt><trkpt lat="43.0251285" lon="12.2700117"><ele>208.0</ele><time>2026-04-19T07:13:08.832Z</time></trkpt><trkpt lat="43.0250759" lon="12.2699316"><ele>208.0</ele><time>2026-04-19T07:13:10.825Z</time></trkpt><trkpt lat="43.0250217" lon="12.2698444"><ele>207.99999999999997</ele><time>2026-04-19T07:13:12.825Z</time></trkpt><trkpt lat="43.0249709" lon="12.2697569"><ele>208.0</ele><time>2026-04-19T07:13:14.835Z</time></trkpt><trkpt lat="43.024929" lon="12.2696815"><ele>207.99999999999997</ele><time>2026-04-19T07:13:16.829Z</time></trkpt><trkpt lat="43.0248803" lon="12.2696056"><ele>208.0</ele><time>2026-04-19T07:13:19.811Z</time></trkpt><trkpt lat="43.0248127" lon="12.2695089"><ele>208.0</ele><time>2026-04-19T07:13:22.823Z</time></trkpt><trkpt lat="43.0247601" lon="12.269431"><ele>208.0</ele><time>2026-04-19T07:13:24.815Z</time></trkpt><trkpt lat="43.0247069" lon="12.2693495"><ele>207.99999999999997</ele><time>2026-04-19T07:13:26.825Z</time></trkpt><trkpt lat="43.0246497" lon="12.2692642"><ele>208.0</ele><time>2026-04-19T07:13:28.822Z</time></trkpt><trkpt lat="43.0245915" lon="12.2691761"><ele>207.99999999999997</ele><time>2026-04-19T07:13:30.834Z</time></trkpt><trkpt lat="43.0245368" lon="12.2690912"><ele>208.0</ele><time>2026-04-19T07:13:32.838Z</time></trkpt><trkpt lat="43.0244799" lon="12.2690082"><ele>208.0</ele><time>2026-04-19T07:13:34.827Z</time></trkpt><trkpt lat="43.0244245" lon="12.2689203"><ele>208.0</ele><time>2026-04-19T07:13:36.831Z</time></trkpt><trkpt lat="43.02437" lon="12.2688381"><ele>207.99999999999997</ele><time>2026-04-19T07:13:38.832Z</time></trkpt><trkpt lat="43.0243197" lon="12.2687532"><ele>208.0</ele><time>2026-04-19T07:13:40.816Z</time></trkpt><trkpt lat="43.0242711" lon="12.2686697"><ele>207.83333333333331</ele><time>2026-04-19T07:13:42.929Z</time></trkpt><trkpt lat="43.0242178" lon="12.268582"><ele>207.66666666666666</ele><time>2026-04-19T07:13:44.833Z</time></trkpt><trkpt lat="43.0241633" lon="12.2685001"><ele>207.5</ele><time>2026-04-19T07:13:46.834Z</time></trkpt><trkpt lat="43.0241069" lon="12.2684158"><ele>207.33333333333331</ele><time>2026-04-19T07:13:48.831Z</time></trkpt><trkpt lat="43.0240537" lon="12.2683414"><ele>207.16666666666666</ele><time>2026-04-19T07:13:50.823Z</time></trkpt><trkpt lat="43.024015" lon="12.2682567"><ele>207.0</ele><time>2026-04-19T07:13:52.83Z</time></trkpt><trkpt lat="43.0239599" lon="12.268176"><ele>207.0</ele><time>2026-04-19T07:13:54.84Z</time></trkpt><trkpt lat="43.0239086" lon="12.2680993"><ele>207.0</ele><time>2026-04-19T07:13:56.827Z</time></trkpt><trkpt lat="43.0238522" lon="12.2680163"><ele>207.0</ele><time>2026-04-19T07:13:58.833Z</time></trkpt><trkpt lat="43.0237615" lon="12.2678831"><ele>207.0</ele><time>2026-04-19T07:14:01.822Z</time></trkpt><trkpt lat="43.0237083" lon="12.2677935"><ele>207.0</ele><time>2026-04-19T07:14:03.826Z</time></trkpt><trkpt lat="43.0236527" lon="12.2677134"><ele>207.0</ele><time>2026-04-19T07:14:05.827Z</time></trkpt><trkpt lat="43.0235878" lon="12.2676209"><ele>207.0</ele><time>2026-04-19T07:14:07.834Z</time></trkpt><trkpt lat="43.0235325" lon="12.2675408"><ele>207.0</ele><time>2026-04-19T07:14:09.825Z</time></trkpt><trkpt lat="43.0234811" lon="12.2674591"><ele>207.0</ele><time>2026-04-19T07:14:11.822Z</time></trkpt><trkpt lat="43.0234241" lon="12.2673794"><ele>207.0</ele><time>2026-04-19T07:14:13.828Z</time></trkpt><trkpt lat="43.0233783" lon="12.2672981"><ele>207.0</ele><time>2026-04-19T07:14:15.825Z</time></trkpt><trkpt lat="43.0233363" lon="12.2672213"><ele>207.33333333333334</ele><time>2026-04-19T07:14:17.927Z</time></trkpt><trkpt lat="43.0232847" lon="12.2671382"><ele>207.66666666666669</ele><time>2026-04-19T07:14:19.831Z</time></trkpt><trkpt lat="43.0232448" lon="12.2670588"><ele>208.0</ele><time>2026-04-19T07:14:21.825Z</time></trkpt><trkpt lat="43.0232022" lon="12.2669818"><ele>208.33333333333334</ele><time>2026-04-19T07:14:23.933Z</time></trkpt><trkpt lat="43.0231507" lon="12.2669028"><ele>208.66666666666669</ele><time>2026-04-19T07:14:25.83Z</time></trkpt><trkpt lat="43.0230921" lon="12.2668203"><ele>209.0</ele><time>2026-04-19T07:14:27.822Z</time></trkpt><trkpt lat="43.023047" lon="12.2667435"><ele>209.0</ele><time>2026-04-19T07:14:29.824Z</time></trkpt><trkpt lat="43.0230082" lon="12.2666616"><ele>209.0</ele><time>2026-04-19T07:14:31.818Z</time></trkpt><trkpt lat="43.0229623" lon="12.2665953"><ele>209.0</ele><time>2026-04-19T07:14:33.824Z</time></trkpt><trkpt lat="43.022911" lon="12.2665401"><ele>209.0</ele><time>2026-04-19T07:14:35.93Z</time></trkpt><trkpt lat="43.0228527" lon="12.2664943"><ele>209.0</ele><time>2026-04-19T07:14:37.825Z</time></trkpt><trkpt lat="43.0227887" lon="12.266448"><ele>209.0</ele><time>2026-04-19T07:14:39.821Z</time></trkpt><trkpt lat="43.0227194" lon="12.2664067"><ele>209.0</ele><time>2026-04-19T07:14:41.921Z</time></trkpt><trkpt lat="43.0226495" lon="12.2663661"><ele>208.83333333333334</ele><time>2026-04-19T07:14:43.82Z</time></trkpt><trkpt lat="43.0225736" lon="12.2663323"><ele>208.66666666666669</ele><time>2026-04-19T07:14:45.825Z</time></trkpt><trkpt lat="43.0224956" lon="12.2662887"><ele>208.5</ele><time>2026-04-19T07:14:47.811Z</time></trkpt><trkpt lat="43.0224169" lon="12.2662437"><ele>208.33333333333331</ele><time>2026-04-19T07:14:49.825Z</time></trkpt><trkpt lat="43.0223394" lon="12.2662023"><ele>208.16666666666666</ele><time>2026-04-19T07:14:51.833Z</time></trkpt><trkpt lat="43.0222617" lon="12.2661681"><ele>208.0</ele><time>2026-04-19T07:14:53.822Z</time></trkpt><trkpt lat="43.0221872" lon="12.2661382"><ele>207.83333333333331</ele><time>2026-04-19T07:14:55.831Z</time></trkpt><trkpt lat="43.0221161" lon="12.2660998"><ele>207.66666666666666</ele><time>2026-04-19T07:14:57.824Z</time></trkpt><trkpt lat="43.0220471" lon="12.2660614"><ele>207.5</ele><time>2026-04-19T07:14:59.94Z</time></trkpt><trkpt lat="43.021981" lon="12.2660288"><ele>207.33333333333331</ele><time>2026-04-19T07:15:01.825Z</time></trkpt><trkpt lat="43.0219071" lon="12.2659958"><ele>207.16666666666666</ele><time>2026-04-19T07:15:03.812Z</time></trkpt><trkpt lat="43.0218378" lon="12.2659558"><ele>207.0</ele><time>2026-04-19T07:15:05.925Z</time></trkpt><trkpt lat="43.0217579" lon="12.2659157"><ele>207.0</ele><time>2026-04-19T07:15:07.83Z</time></trkpt><trkpt lat="43.0216834" lon="12.2658726"><ele>207.0</ele><time>2026-04-19T07:15:09.83Z</time></trkpt><trkpt lat="43.0216105" lon="12.2658311"><ele>207.0</ele><time>2026-04-19T07:15:11.819Z</time></trkpt><trkpt lat="43.0215373" lon="12.2657929"><ele>207.0</ele><time>2026-04-19T07:15:13.816Z</time></trkpt><trkpt lat="43.0214596" lon="12.2657518"><ele>207.0</ele><time>2026-04-19T07:15:15.822Z</time></trkpt><trkpt lat="43.0213839" lon="12.2657156"><ele>207.0</ele><time>2026-04-19T07:15:17.815Z</time></trkpt><trkpt lat="43.0213142" lon="12.2656788"><ele>207.14285714285717</ele><time>2026-04-19T07:15:19.811Z</time></trkpt><trkpt lat="43.0212494" lon="12.2656468"><ele>207.28571428571428</ele><time>2026-04-19T07:15:21.813Z</time></trkpt><trkpt lat="43.0211575" lon="12.2656063"><ele>207.42857142857144</ele><time>2026-04-19T07:15:24.813Z</time></trkpt><trkpt lat="43.0210897" lon="12.2655746"><ele>207.57142857142858</ele><time>2026-04-19T07:15:26.811Z</time></trkpt><trkpt lat="43.0210231" lon="12.2655501"><ele>207.71428571428572</ele><time>2026-04-19T07:15:28.811Z</time></trkpt><trkpt lat="43.020958" lon="12.2655299"><ele>207.85714285714286</ele><time>2026-04-19T07:15:30.813Z</time></trkpt><trkpt lat="43.020895" lon="12.2655059"><ele>208.0</ele><time>2026-04-19T07:15:32.814Z</time></trkpt><trkpt lat="43.0208123" lon="12.2654536"><ele>207.99999999999997</ele><time>2026-04-19T07:15:35.815Z</time></trkpt><trkpt lat="43.0207414" lon="12.2654203"><ele>208.0</ele><time>2026-04-19T07:15:37.815Z</time></trkpt><trkpt lat="43.0206777" lon="12.26539"><ele>208.0</ele><time>2026-04-19T07:15:39.82Z</time></trkpt><trkpt lat="43.0205902" lon="12.2653489"><ele>208.0</ele><time>2026-04-19T07:15:42.811Z</time></trkpt><trkpt lat="43.0205131" lon="12.2653363"><ele>207.99999999999997</ele><time>2026-04-19T07:15:44.809Z</time></trkpt><trkpt lat="43.020443" lon="12.2653132"><ele>208.0</ele><time>2026-04-19T07:15:46.817Z</time></trkpt><trkpt lat="43.0203753" lon="12.2652799"><ele>207.99999999999997</ele><time>2026-04-19T07:15:48.812Z</time></trkpt><trkpt lat="43.0203125" lon="12.2652274"><ele>208.0</ele><time>2026-04-19T07:15:50.816Z</time></trkpt><trkpt lat="43.0202512" lon="12.2651689"><ele>208.0</ele><time>2026-04-19T07:15:52.812Z</time></trkpt><trkpt lat="43.020191" lon="12.2651185"><ele>208.0</ele><time>2026-04-19T07:15:54.811Z</time></trkpt><trkpt lat="43.0201235" lon="12.2650768"><ele>207.99999999999997</ele><time>2026-04-19T07:15:56.816Z</time></trkpt><trkpt lat="43.0200564" lon="12.265033"><ele>208.0</ele><time>2026-04-19T07:15:58.812Z</time></trkpt><trkpt lat="43.0199801" lon="12.2649837"><ele>207.99999999999997</ele><time>2026-04-19T07:16:00.813Z</time></trkpt><trkpt lat="43.0199071" lon="12.2649464"><ele>208.0</ele><time>2026-04-19T07:16:02.816Z</time></trkpt><trkpt lat="43.0198363" lon="12.2649099"><ele>208.0</ele><time>2026-04-19T07:16:04.813Z</time></trkpt><trkpt lat="43.019764" lon="12.2648777"><ele>208.0</ele><time>2026-04-19T07:16:06.813Z</time></trkpt><trkpt lat="43.0196892" lon="12.2648404"><ele>207.99999999999997</ele><time>2026-04-19T07:16:08.81Z</time></trkpt><trkpt lat="43.0195992" lon="12.2647935"><ele>208.0</ele><time>2026-04-19T07:16:10.894Z</time></trkpt><trkpt lat="43.0195098" lon="12.2647575"><ele>207.99999999999997</ele><time>2026-04-19T07:16:12.809Z</time></trkpt><trkpt lat="43.0194431" lon="12.2647125"><ele>208.0</ele><time>2026-04-19T07:16:14.814Z</time></trkpt><trkpt lat="43.0193778" lon="12.2646831"><ele>208.0</ele><time>2026-04-19T07:16:16.814Z</time></trkpt><trkpt lat="43.0192965" lon="12.2646506"><ele>208.0</ele><time>2026-04-19T07:16:18.813Z</time></trkpt><trkpt lat="43.0192237" lon="12.2646094"><ele>207.99999999999997</ele><time>2026-04-19T07:16:20.813Z</time></trkpt><trkpt lat="43.0191584" lon="12.2645689"><ele>208.0</ele><time>2026-04-19T07:16:22.809Z</time></trkpt><trkpt lat="43.019086" lon="12.2645378"><ele>207.99999999999997</ele><time>2026-04-19T07:16:24.81Z</time></trkpt><trkpt lat="43.019022" lon="12.2644903"><ele>208.0</ele><time>2026-04-19T07:16:26.82Z</time></trkpt><trkpt lat="43.0189088" lon="12.2644485"><ele>208.0</ele><time>2026-04-19T07:16:29.813Z</time></trkpt><trkpt lat="43.0188397" lon="12.2644113"><ele>208.0</ele><time>2026-04-19T07:16:31.816Z</time></trkpt><trkpt lat="43.018775" lon="12.2643805"><ele>207.99999999999997</ele><time>2026-04-19T07:16:33.912Z</time></trkpt><trkpt lat="43.0187035" lon="12.2643401"><ele>208.0</ele><time>2026-04-19T07:16:35.813Z</time></trkpt><trkpt lat="43.0186318" lon="12.2643052"><ele>207.99999999999997</ele><time>2026-04-19T07:16:37.83Z</time></trkpt><trkpt lat="43.0185546" lon="12.2642636"><ele>208.0</ele><time>2026-04-19T07:16:39.913Z</time></trkpt><trkpt lat="43.0184911" lon="12.2642484"><ele>208.0</ele><time>2026-04-19T07:16:41.804Z</time></trkpt><trkpt lat="43.0184209" lon="12.2642073"><ele>208.0</ele><time>2026-04-19T07:16:43.821Z</time></trkpt><trkpt lat="43.0183476" lon="12.2641684"><ele>207.99999999999997</ele><time>2026-04-19T07:16:45.839Z</time></trkpt><trkpt lat="43.0182748" lon="12.2641234"><ele>208.0</ele><time>2026-04-19T07:16:47.814Z</time></trkpt><trkpt lat="43.0182044" lon="12.2640787"><ele>208.0</ele><time>2026-04-19T07:16:49.813Z</time></trkpt><trkpt lat="43.018139" lon="12.2640406"><ele>208.0</ele><time>2026-04-19T07:16:51.928Z</time></trkpt><trkpt lat="43.0180712" lon="12.2640011"><ele>208.0</ele><time>2026-04-19T07:16:53.841Z</time></trkpt><trkpt lat="43.0179996" lon="12.2639579"><ele>208.0</ele><time>2026-04-19T07:16:55.838Z</time></trkpt><trkpt lat="43.0179336" lon="12.263906"><ele>208.0</ele><time>2026-04-19T07:16:57.84Z</time></trkpt><trkpt lat="43.0178674" lon="12.263863"><ele>208.0</ele><time>2026-04-19T07:16:59.831Z</time></trkpt><trkpt lat="43.0177987" lon="12.2638232"><ele>208.0</ele><time>2026-04-19T07:17:01.831Z</time></trkpt><trkpt lat="43.0177257" lon="12.2637797"><ele>207.99999999999997</ele><time>2026-04-19T07:17:03.832Z</time></trkpt><trkpt lat="43.017651" lon="12.2637329"><ele>208.0</ele><time>2026-04-19T07:17:05.839Z</time></trkpt><trkpt lat="43.0175749" lon="12.263694"><ele>208.0</ele><time>2026-04-19T07:17:07.835Z</time></trkpt><trkpt lat="43.0175001" lon="12.2636589"><ele>208.0</ele><time>2026-04-19T07:17:09.836Z</time></trkpt><trkpt lat="43.017424" lon="12.2636243"><ele>207.99999999999997</ele><time>2026-04-19T07:17:11.848Z</time></trkpt><trkpt lat="43.0173546" lon="12.2635898"><ele>208.0</ele><time>2026-04-19T07:17:13.84Z</time></trkpt><trkpt lat="43.0172883" lon="12.2635495"><ele>209.99999999999997</ele><time>2026-04-19T07:17:15.833Z</time></trkpt><trkpt lat="43.0172252" lon="12.2635195"><ele>212.0</ele><time>2026-04-19T07:17:17.826Z</time></trkpt><trkpt lat="43.017142" lon="12.2635229"><ele>214.0</ele><time>2026-04-19T07:17:20.825Z</time></trkpt><trkpt lat="43.0170555" lon="12.263483"><ele>216.0</ele><time>2026-04-19T07:17:23.831Z</time></trkpt><trkpt lat="43.0170089" lon="12.2633963"><ele>217.99999999999997</ele><time>2026-04-19T07:17:25.83Z</time></trkpt><trkpt lat="43.0169742" lon="12.2633068"><ele>220.0</ele><time>2026-04-19T07:17:27.826Z</time></trkpt><trkpt lat="43.0169346" lon="12.263209"><ele>218.66666666666666</ele><time>2026-04-19T07:17:29.814Z</time></trkpt><trkpt lat="43.0169097" lon="12.2631126"><ele>217.33333333333331</ele><time>2026-04-19T07:17:31.825Z</time></trkpt><trkpt lat="43.0168811" lon="12.2630118"><ele>216.0</ele><time>2026-04-19T07:17:33.824Z</time></trkpt><trkpt lat="43.0168402" lon="12.2629113"><ele>214.66666666666669</ele><time>2026-04-19T07:17:35.833Z</time></trkpt><trkpt lat="43.0168003" lon="12.2628105"><ele>213.33333333333334</ele><time>2026-04-19T07:17:37.828Z</time></trkpt><trkpt lat="43.0167524" lon="12.262714"><ele>212.0</ele><time>2026-04-19T07:17:39.833Z</time></trkpt><trkpt lat="43.0166963" lon="12.2626231"><ele>211.83333333333334</ele><time>2026-04-19T07:17:41.832Z</time></trkpt><trkpt lat="43.0166293" lon="12.2625391"><ele>211.66666666666669</ele><time>2026-04-19T07:17:43.823Z</time></trkpt><trkpt lat="43.0165658" lon="12.2624673"><ele>211.5</ele><time>2026-04-19T07:17:45.828Z</time></trkpt><trkpt lat="43.0165043" lon="12.2623984"><ele>211.33333333333331</ele><time>2026-04-19T07:17:47.829Z</time></trkpt><trkpt lat="43.0164363" lon="12.2623505"><ele>211.16666666666666</ele><time>2026-04-19T07:17:49.822Z</time></trkpt><trkpt lat="43.0163505" lon="12.2623466"><ele>211.0</ele><time>2026-04-19T07:17:51.822Z</time></trkpt><trkpt lat="43.0162757" lon="12.2623407"><ele>210.99999999999997</ele><time>2026-04-19T07:17:53.828Z</time></trkpt><trkpt lat="43.0162079" lon="12.2623891"><ele>211.0</ele><time>2026-04-19T07:17:55.915Z</time></trkpt><trkpt lat="43.016141" lon="12.2624211"><ele>211.0</ele><time>2026-04-19T07:17:57.821Z</time></trkpt><trkpt lat="43.0160733" lon="12.262466"><ele>211.0</ele><time>2026-04-19T07:18:00.823Z</time></trkpt><trkpt lat="43.0160047" lon="12.2624804"><ele>210.99999999999997</ele><time>2026-04-19T07:18:03.824Z</time></trkpt><trkpt lat="43.0159297" lon="12.2624617"><ele>211.0</ele><time>2026-04-19T07:18:05.831Z</time></trkpt><trkpt lat="43.0158468" lon="12.2624306"><ele>210.42857142857144</ele><time>2026-04-19T07:18:07.822Z</time></trkpt><trkpt lat="43.0157732" lon="12.2623915"><ele>209.85714285714286</ele><time>2026-04-19T07:18:09.829Z</time></trkpt><trkpt lat="43.0157091" lon="12.2623134"><ele>209.28571428571428</ele><time>2026-04-19T07:18:12.924Z</time></trkpt><trkpt lat="43.0157015" lon="12.2622254"><ele>208.71428571428572</ele><time>2026-04-19T07:18:14.824Z</time></trkpt><trkpt lat="43.0157119" lon="12.2621348"><ele>208.14285714285714</ele><time>2026-04-19T07:18:16.819Z</time></trkpt><trkpt lat="43.015728" lon="12.2620471"><ele>207.57142857142858</ele><time>2026-04-19T07:18:18.928Z</time></trkpt><trkpt lat="43.0157641" lon="12.2619497"><ele>207.0</ele><time>2026-04-19T07:18:20.824Z</time></trkpt><trkpt lat="43.0158229" lon="12.2618778"><ele>206.83333333333334</ele><time>2026-04-19T07:18:22.821Z</time></trkpt><trkpt lat="43.0158877" lon="12.2618052"><ele>206.66666666666669</ele><time>2026-04-19T07:18:24.821Z</time></trkpt><trkpt lat="43.0159384" lon="12.2617412"><ele>206.5</ele><time>2026-04-19T07:18:26.823Z</time></trkpt><trkpt lat="43.0160091" lon="12.26164"><ele>206.33333333333334</ele><time>2026-04-19T07:18:29.825Z</time></trkpt><trkpt lat="43.0160705" lon="12.2615485"><ele>206.16666666666669</ele><time>2026-04-19T07:18:31.824Z</time></trkpt><trkpt lat="43.0161358" lon="12.2614592"><ele>206.0</ele><time>2026-04-19T07:18:33.827Z</time></trkpt><trkpt lat="43.0162069" lon="12.2614337"><ele>206.33333333333334</ele><time>2026-04-19T07:18:34.817Z</time></trkpt><trkpt lat="43.0162667" lon="12.2613375"><ele>206.66666666666669</ele><time>2026-04-19T07:18:38.827Z</time></trkpt><trkpt lat="43.0163216" lon="12.2612541"><ele>207.0</ele><time>2026-04-19T07:18:40.837Z</time></trkpt><trkpt lat="43.0163826" lon="12.2611646"><ele>207.33333333333331</ele><time>2026-04-19T07:18:42.823Z</time></trkpt><trkpt lat="43.016434" lon="12.2610758"><ele>207.66666666666666</ele><time>2026-04-19T07:18:44.827Z</time></trkpt><trkpt lat="43.0164785" lon="12.2609752"><ele>208.0</ele><time>2026-04-19T07:18:46.829Z</time></trkpt><trkpt lat="43.0165075" lon="12.2608587"><ele>207.99999999999997</ele><time>2026-04-19T07:18:48.821Z</time></trkpt><trkpt lat="43.0165581" lon="12.2607442"><ele>208.0</ele><time>2026-04-19T07:18:50.823Z</time></trkpt><trkpt lat="43.016581" lon="12.2606339"><ele>208.0</ele><time>2026-04-19T07:18:52.824Z</time></trkpt><trkpt lat="43.0166102" lon="12.2605349"><ele>208.0</ele><time>2026-04-19T07:18:54.822Z</time></trkpt><trkpt lat="43.0166459" lon="12.260424"><ele>207.99999999999997</ele><time>2026-04-19T07:18:56.827Z</time></trkpt><trkpt lat="43.0166674" lon="12.2603327"><ele>208.0</ele><time>2026-04-19T07:18:58.827Z</time></trkpt><trkpt lat="43.0166807" lon="12.2602331"><ele>208.16666666666666</ele><time>2026-04-19T07:19:00.811Z</time></trkpt><trkpt lat="43.0166594" lon="12.2601133"><ele>208.33333333333331</ele><time>2026-04-19T07:19:02.835Z</time></trkpt><trkpt lat="43.0166809" lon="12.2600158"><ele>208.5</ele><time>2026-04-19T07:19:05.831Z</time></trkpt><trkpt lat="43.0166155" lon="12.259983"><ele>208.66666666666669</ele><time>2026-04-19T07:19:38.823Z</time></trkpt><trkpt lat="43.0165317" lon="12.2600006"><ele>208.83333333333334</ele><time>2026-04-19T07:19:40.82Z</time></trkpt><trkpt lat="43.0164408" lon="12.2600035"><ele>209.0</ele><time>2026-04-19T07:19:42.827Z</time></trkpt><trkpt lat="43.0163344" lon="12.2600399"><ele>208.66666666666669</ele><time>2026-04-19T07:19:44.823Z</time></trkpt><trkpt lat="43.0162471" lon="12.2600596"><ele>208.33333333333334</ele><time>2026-04-19T07:19:46.827Z</time></trkpt><trkpt lat="43.0161653" lon="12.2600849"><ele>208.0</ele><time>2026-04-19T07:19:48.824Z</time></trkpt><trkpt lat="43.0160912" lon="12.2600789"><ele>207.66666666666669</ele><time>2026-04-19T07:19:50.827Z</time></trkpt><trkpt lat="43.0160151" lon="12.2600877"><ele>207.33333333333334</ele><time>2026-04-19T07:19:52.822Z</time></trkpt><trkpt lat="43.0159392" lon="12.2600941"><ele>207.0</ele><time>2026-04-19T07:19:54.825Z</time></trkpt><trkpt lat="43.0158731" lon="12.2601129"><ele>207.00000000000003</ele><time>2026-04-19T07:19:56.835Z</time></trkpt><trkpt lat="43.0158009" lon="12.2601345"><ele>207.0</ele><time>2026-04-19T07:19:58.822Z</time></trkpt><trkpt lat="43.0157299" lon="12.2601575"><ele>207.0</ele><time>2026-04-19T07:20:00.827Z</time></trkpt><trkpt lat="43.015656" lon="12.2601763"><ele>207.0</ele><time>2026-04-19T07:20:02.814Z</time></trkpt><trkpt lat="43.015587" lon="12.2601843"><ele>207.0</ele><time>2026-04-19T07:20:04.824Z</time></trkpt><trkpt lat="43.0155143" lon="12.2601983"><ele>207.00000000000003</ele><time>2026-04-19T07:20:06.824Z</time></trkpt><trkpt lat="43.0154443" lon="12.2602107"><ele>207.0</ele><time>2026-04-19T07:20:08.817Z</time></trkpt><trkpt lat="43.0153652" lon="12.2602191"><ele>207.0</ele><time>2026-04-19T07:20:10.822Z</time></trkpt><trkpt lat="43.0152854" lon="12.260235"><ele>207.0</ele><time>2026-04-19T07:20:12.821Z</time></trkpt><trkpt lat="43.0152041" lon="12.2602651"><ele>207.0</ele><time>2026-04-19T07:20:14.825Z</time></trkpt><trkpt lat="43.0151208" lon="12.2603008"><ele>207.0</ele><time>2026-04-19T07:20:16.824Z</time></trkpt><trkpt lat="43.0150376" lon="12.2603123"><ele>207.0</ele><time>2026-04-19T07:20:18.818Z</time></trkpt><trkpt lat="43.0149548" lon="12.2603133"><ele>207.0</ele><time>2026-04-19T07:20:20.824Z</time></trkpt><trkpt lat="43.0148684" lon="12.2603239"><ele>207.0</ele><time>2026-04-19T07:20:22.828Z</time></trkpt><trkpt lat="43.0147873" lon="12.2603434"><ele>207.0</ele><time>2026-04-19T07:20:24.825Z</time></trkpt><trkpt lat="43.0147069" lon="12.2603681"><ele>207.0</ele><time>2026-04-19T07:20:26.823Z</time></trkpt><trkpt lat="43.014636" lon="12.2603921"><ele>207.0</ele><time>2026-04-19T07:20:28.813Z</time></trkpt><trkpt lat="43.0145535" lon="12.2604177"><ele>207.0</ele><time>2026-04-19T07:20:30.82Z</time></trkpt><trkpt lat="43.0144744" lon="12.2604412"><ele>207.0</ele><time>2026-04-19T07:20:32.827Z</time></trkpt><trkpt lat="43.0143893" lon="12.2604631"><ele>207.0</ele><time>2026-04-19T07:20:34.816Z</time></trkpt><trkpt lat="43.0143065" lon="12.2604824"><ele>207.0</ele><time>2026-04-19T07:20:36.823Z</time></trkpt><trkpt lat="43.0142258" lon="12.2604945"><ele>207.0</ele><time>2026-04-19T07:20:38.822Z</time></trkpt><trkpt lat="43.0141045" lon="12.260528"><ele>207.0</ele><time>2026-04-19T07:20:41.824Z</time></trkpt><trkpt lat="43.0140344" lon="12.2605506"><ele>207.0</ele><time>2026-04-19T07:20:43.821Z</time></trkpt><trkpt lat="43.0139614" lon="12.2605644"><ele>207.0</ele><time>2026-04-19T07:20:45.808Z</time></trkpt><trkpt lat="43.0138922" lon="12.260585"><ele>206.83333333333334</ele><time>2026-04-19T07:20:47.817Z</time></trkpt><trkpt lat="43.0138106" lon="12.2605901"><ele>206.66666666666669</ele><time>2026-04-19T07:20:50.821Z</time></trkpt><trkpt lat="43.0137327" lon="12.2605953"><ele>206.5</ele><time>2026-04-19T07:20:53.819Z</time></trkpt><trkpt lat="43.0136596" lon="12.2606202"><ele>206.33333333333334</ele><time>2026-04-19T07:20:55.809Z</time></trkpt><trkpt lat="43.0135752" lon="12.2606368"><ele>206.16666666666669</ele><time>2026-04-19T07:20:57.811Z</time></trkpt><trkpt lat="43.0135029" lon="12.2606417"><ele>206.0</ele><time>2026-04-19T07:20:59.81Z</time></trkpt><trkpt lat="43.0134275" lon="12.260669"><ele>206.00000000000003</ele><time>2026-04-19T07:21:01.821Z</time></trkpt><trkpt lat="43.0133428" lon="12.2606913"><ele>206.0</ele><time>2026-04-19T07:21:03.811Z</time></trkpt><trkpt lat="43.0132531" lon="12.2607191"><ele>206.0</ele><time>2026-04-19T07:21:05.817Z</time></trkpt><trkpt lat="43.0131598" lon="12.2607467"><ele>206.0</ele><time>2026-04-19T07:21:07.811Z</time></trkpt><trkpt lat="43.0130722" lon="12.260777"><ele>206.00000000000003</ele><time>2026-04-19T07:21:09.813Z</time></trkpt><trkpt lat="43.0129925" lon="12.2607845"><ele>206.0</ele><time>2026-04-19T07:21:11.816Z</time></trkpt><trkpt lat="43.0129134" lon="12.260801"><ele>206.00000000000003</ele><time>2026-04-19T07:21:13.812Z</time></trkpt><trkpt lat="43.0128367" lon="12.2608118"><ele>206.0</ele><time>2026-04-19T07:21:15.812Z</time></trkpt><trkpt lat="43.0127623" lon="12.2608252"><ele>206.0</ele><time>2026-04-19T07:21:17.819Z</time></trkpt><trkpt lat="43.0126737" lon="12.2608437"><ele>206.0</ele><time>2026-04-19T07:21:19.91Z</time></trkpt><trkpt lat="43.0125822" lon="12.2608678"><ele>206.00000000000003</ele><time>2026-04-19T07:21:21.816Z</time></trkpt><trkpt lat="43.0124958" lon="12.2608657"><ele>206.0</ele><time>2026-04-19T07:21:23.823Z</time></trkpt><trkpt lat="43.0124215" lon="12.2608737"><ele>206.16666666666669</ele><time>2026-04-19T07:21:25.913Z</time></trkpt><trkpt lat="43.0123481" lon="12.2608939"><ele>206.33333333333334</ele><time>2026-04-19T07:21:27.839Z</time></trkpt><trkpt lat="43.0122702" lon="12.2609235"><ele>206.5</ele><time>2026-04-19T07:21:29.825Z</time></trkpt><trkpt lat="43.0121936" lon="12.2609399"><ele>206.66666666666669</ele><time>2026-04-19T07:21:31.822Z</time></trkpt><trkpt lat="43.0121119" lon="12.2609582"><ele>206.83333333333334</ele><time>2026-04-19T07:21:33.829Z</time></trkpt><trkpt lat="43.0120306" lon="12.260981"><ele>207.0</ele><time>2026-04-19T07:21:35.817Z</time></trkpt><trkpt lat="43.0119502" lon="12.2610088"><ele>207.0</ele><time>2026-04-19T07:21:37.821Z</time></trkpt><trkpt lat="43.0118698" lon="12.261025"><ele>207.0</ele><time>2026-04-19T07:21:39.818Z</time></trkpt><trkpt lat="43.011787" lon="12.2610475"><ele>207.0</ele><time>2026-04-19T07:21:41.829Z</time></trkpt><trkpt lat="43.0116928" lon="12.2610891"><ele>207.0</ele><time>2026-04-19T07:21:43.92Z</time></trkpt><trkpt lat="43.0116058" lon="12.2611129"><ele>207.0</ele><time>2026-04-19T07:21:45.822Z</time></trkpt><trkpt lat="43.0115213" lon="12.2611291"><ele>207.0</ele><time>2026-04-19T07:21:47.822Z</time></trkpt><trkpt lat="43.0114379" lon="12.2611471"><ele>206.83333333333334</ele><time>2026-04-19T07:21:49.824Z</time></trkpt><trkpt lat="43.0113545" lon="12.2611621"><ele>206.66666666666669</ele><time>2026-04-19T07:21:51.82Z</time></trkpt><trkpt lat="43.0112727" lon="12.2611876"><ele>206.5</ele><time>2026-04-19T07:21:53.825Z</time></trkpt><trkpt lat="43.0111967" lon="12.2612081"><ele>206.33333333333334</ele><time>2026-04-19T07:21:55.923Z</time></trkpt><trkpt lat="43.0111124" lon="12.261231"><ele>206.16666666666669</ele><time>2026-04-19T07:21:57.828Z</time></trkpt><trkpt lat="43.0110284" lon="12.2612594"><ele>206.0</ele><time>2026-04-19T07:21:59.827Z</time></trkpt><trkpt lat="43.0109463" lon="12.2612745"><ele>206.00000000000003</ele><time>2026-04-19T07:22:01.92Z</time></trkpt><trkpt lat="43.0108684" lon="12.2612836"><ele>206.0</ele><time>2026-04-19T07:22:03.828Z</time></trkpt><trkpt lat="43.0107826" lon="12.2613133"><ele>206.0</ele><time>2026-04-19T07:22:05.827Z</time></trkpt><trkpt lat="43.0106901" lon="12.261317"><ele>206.0</ele><time>2026-04-19T07:22:07.822Z</time></trkpt><trkpt lat="43.0106132" lon="12.2613347"><ele>206.00000000000003</ele><time>2026-04-19T07:22:09.819Z</time></trkpt><trkpt lat="43.0105347" lon="12.2613616"><ele>206.0</ele><time>2026-04-19T07:22:11.84Z</time></trkpt><trkpt lat="43.0104646" lon="12.2613845"><ele>206.00000000000003</ele><time>2026-04-19T07:22:13.821Z</time></trkpt><trkpt lat="43.0103851" lon="12.2614231"><ele>206.0</ele><time>2026-04-19T07:22:15.82Z</time></trkpt><trkpt lat="43.0102997" lon="12.2614436"><ele>206.0</ele><time>2026-04-19T07:22:17.828Z</time></trkpt><trkpt lat="43.0102172" lon="12.2614536"><ele>206.0</ele><time>2026-04-19T07:22:19.828Z</time></trkpt><trkpt lat="43.0101343" lon="12.2614761"><ele>206.00000000000003</ele><time>2026-04-19T07:22:21.823Z</time></trkpt><trkpt lat="43.0100454" lon="12.2614846"><ele>206.0</ele><time>2026-04-19T07:22:23.828Z</time></trkpt><trkpt lat="43.00994" lon="12.2615102"><ele>206.00000000000003</ele><time>2026-04-19T07:22:25.813Z</time></trkpt><trkpt lat="43.009847" lon="12.2615365"><ele>206.0</ele><time>2026-04-19T07:22:27.821Z</time></trkpt><trkpt lat="43.0097707" lon="12.26156"><ele>206.0</ele><time>2026-04-19T07:22:29.812Z</time></trkpt><trkpt lat="43.0096762" lon="12.2616063"><ele>206.0</ele><time>2026-04-19T07:22:31.819Z</time></trkpt><trkpt lat="43.0096118" lon="12.2615958"><ele>206.00000000000003</ele><time>2026-04-19T07:22:33.808Z</time></trkpt><trkpt lat="43.0095482" lon="12.2615997"><ele>206.0</ele><time>2026-04-19T07:22:35.912Z</time></trkpt><trkpt lat="43.0094653" lon="12.2616244"><ele>206.0</ele><time>2026-04-19T07:22:37.813Z</time></trkpt><trkpt lat="43.0093791" lon="12.2616573"><ele>206.0</ele><time>2026-04-19T07:22:39.81Z</time></trkpt><trkpt lat="43.0092769" lon="12.261685"><ele>206.0</ele><time>2026-04-19T07:22:41.815Z</time></trkpt><trkpt lat="43.0091749" lon="12.2617161"><ele>206.0</ele><time>2026-04-19T07:22:43.811Z</time></trkpt><trkpt lat="43.0090834" lon="12.2617505"><ele>206.0</ele><time>2026-04-19T07:22:45.812Z</time></trkpt><trkpt lat="43.0089905" lon="12.2617762"><ele>206.0</ele><time>2026-04-19T07:22:47.916Z</time></trkpt><trkpt lat="43.0089079" lon="12.2617933"><ele>206.0</ele><time>2026-04-19T07:22:49.812Z</time></trkpt><trkpt lat="43.0088195" lon="12.2618101"><ele>206.0</ele><time>2026-04-19T07:22:51.811Z</time></trkpt><trkpt lat="43.008723" lon="12.2618362"><ele>206.0</ele><time>2026-04-19T07:22:53.809Z</time></trkpt><trkpt lat="43.0086217" lon="12.2618699"><ele>206.0</ele><time>2026-04-19T07:22:55.811Z</time></trkpt><trkpt lat="43.0085344" lon="12.2618899"><ele>206.00000000000003</ele><time>2026-04-19T07:22:57.815Z</time></trkpt><trkpt lat="43.0084477" lon="12.2619143"><ele>206.0</ele><time>2026-04-19T07:22:59.81Z</time></trkpt><trkpt lat="43.0083541" lon="12.2619301"><ele>206.0</ele><time>2026-04-19T07:23:01.821Z</time></trkpt><trkpt lat="43.0082779" lon="12.2619634"><ele>206.0</ele><time>2026-04-19T07:23:03.814Z</time></trkpt><trkpt lat="43.0081853" lon="12.2619887"><ele>206.00000000000003</ele><time>2026-04-19T07:23:05.906Z</time></trkpt><trkpt lat="43.0081073" lon="12.261997"><ele>206.0</ele><time>2026-04-19T07:23:07.82Z</time></trkpt><trkpt lat="43.0080197" lon="12.2620145"><ele>206.00000000000003</ele><time>2026-04-19T07:23:09.824Z</time></trkpt><trkpt lat="43.0079359" lon="12.2620344"><ele>206.0</ele><time>2026-04-19T07:23:11.921Z</time></trkpt><trkpt lat="43.0078534" lon="12.2620538"><ele>206.0</ele><time>2026-04-19T07:23:13.82Z</time></trkpt><trkpt lat="43.0077722" lon="12.2620732"><ele>206.0</ele><time>2026-04-19T07:23:15.817Z</time></trkpt><trkpt lat="43.0076925" lon="12.2620785"><ele>206.00000000000003</ele><time>2026-04-19T07:23:17.815Z</time></trkpt><trkpt lat="43.0076128" lon="12.2620955"><ele>206.0</ele><time>2026-04-19T07:23:19.819Z</time></trkpt><trkpt lat="43.0075246" lon="12.2621187"><ele>206.0</ele><time>2026-04-19T07:23:21.838Z</time></trkpt><trkpt lat="43.0074354" lon="12.26214"><ele>206.0</ele><time>2026-04-19T07:23:23.82Z</time></trkpt><trkpt lat="43.0073485" lon="12.2621571"><ele>206.0</ele><time>2026-04-19T07:23:25.828Z</time></trkpt><trkpt lat="43.0072476" lon="12.2621835"><ele>206.0</ele><time>2026-04-19T07:23:27.831Z</time></trkpt><trkpt lat="43.0071554" lon="12.2621965"><ele>206.0</ele><time>2026-04-19T07:23:29.821Z</time></trkpt><trkpt lat="43.007079" lon="12.2621887"><ele>206.0</ele><time>2026-04-19T07:23:31.821Z</time></trkpt><trkpt lat="43.0069928" lon="12.2622308"><ele>206.0</ele><time>2026-04-19T07:23:33.815Z</time></trkpt><trkpt lat="43.0069012" lon="12.2622787"><ele>206.0</ele><time>2026-04-19T07:23:35.822Z</time></trkpt><trkpt lat="43.0068223" lon="12.262301"><ele>206.0</ele><time>2026-04-19T07:23:37.828Z</time></trkpt><trkpt lat="43.0067356" lon="12.2623329"><ele>206.0</ele><time>2026-04-19T07:23:39.812Z</time></trkpt><trkpt lat="43.0066463" lon="12.262362"><ele>206.0</ele><time>2026-04-19T07:23:41.823Z</time></trkpt><trkpt lat="43.0065577" lon="12.2624123"><ele>206.0</ele><time>2026-04-19T07:23:43.82Z</time></trkpt><trkpt lat="43.006476" lon="12.2624558"><ele>206.0</ele><time>2026-04-19T07:23:45.81Z</time></trkpt><trkpt lat="43.0063903" lon="12.2624545"><ele>206.0</ele><time>2026-04-19T07:23:47.828Z</time></trkpt><trkpt lat="43.0063076" lon="12.2624721"><ele>206.0</ele><time>2026-04-19T07:23:49.823Z</time></trkpt><trkpt lat="43.0062095" lon="12.2624761"><ele>206.0</ele><time>2026-04-19T07:23:51.823Z</time></trkpt><trkpt lat="43.0061242" lon="12.262504"><ele>206.0</ele><time>2026-04-19T07:23:53.822Z</time></trkpt><trkpt lat="43.006037" lon="12.2625196"><ele>206.0</ele><time>2026-04-19T07:23:55.818Z</time></trkpt><trkpt lat="43.0059467" lon="12.2625559"><ele>206.0</ele><time>2026-04-19T07:23:57.822Z</time></trkpt><trkpt lat="43.0058653" lon="12.2625959"><ele>206.0</ele><time>2026-04-19T07:23:59.828Z</time></trkpt><trkpt lat="43.0057723" lon="12.262642"><ele>206.00000000000003</ele><time>2026-04-19T07:24:01.826Z</time></trkpt><trkpt lat="43.0056944" lon="12.2626841"><ele>206.0</ele><time>2026-04-19T07:24:03.831Z</time></trkpt><trkpt lat="43.0056066" lon="12.2627053"><ele>206.0</ele><time>2026-04-19T07:24:05.828Z</time></trkpt><trkpt lat="43.0055438" lon="12.2626988"><ele>206.0</ele><time>2026-04-19T07:24:06.81Z</time></trkpt><trkpt lat="43.0054584" lon="12.262706"><ele>206.00000000000003</ele><time>2026-04-19T07:24:08.812Z</time></trkpt><trkpt lat="43.0053688" lon="12.2627195"><ele>206.0</ele><time>2026-04-19T07:24:10.834Z</time></trkpt><trkpt lat="43.0052658" lon="12.2627294"><ele>206.0</ele><time>2026-04-19T07:24:12.83Z</time></trkpt><trkpt lat="43.0051677" lon="12.2627582"><ele>206.0</ele><time>2026-04-19T07:24:14.823Z</time></trkpt><trkpt lat="43.0050787" lon="12.2627719"><ele>206.0</ele><time>2026-04-19T07:24:16.824Z</time></trkpt><trkpt lat="43.0049921" lon="12.2627909"><ele>206.0</ele><time>2026-04-19T07:24:18.824Z</time></trkpt><trkpt lat="43.0049069" lon="12.2628094"><ele>206.0</ele><time>2026-04-19T07:24:20.816Z</time></trkpt><trkpt lat="43.0047823" lon="12.2628686"><ele>206.00000000000003</ele><time>2026-04-19T07:24:22.82Z</time></trkpt><trkpt lat="43.004691" lon="12.262887"><ele>206.0</ele><time>2026-04-19T07:24:24.803Z</time></trkpt><trkpt lat="43.0045891" lon="12.2628897"><ele>206.0</ele><time>2026-04-19T07:24:26.828Z</time></trkpt><trkpt lat="43.0045262" lon="12.262903"><ele>206.0</ele><time>2026-04-19T07:24:28.82Z</time></trkpt><trkpt lat="43.0044382" lon="12.2629279"><ele>206.00000000000003</ele><time>2026-04-19T07:24:30.813Z</time></trkpt><trkpt lat="43.0043458" lon="12.2629449"><ele>206.0</ele><time>2026-04-19T07:24:32.83Z</time></trkpt><trkpt lat="43.0042621" lon="12.2629516"><ele>206.00000000000003</ele><time>2026-04-19T07:24:34.921Z</time></trkpt><trkpt lat="43.0041773" lon="12.2629701"><ele>206.0</ele><time>2026-04-19T07:24:36.821Z</time></trkpt><trkpt lat="43.0040934" lon="12.2629884"><ele>206.0</ele><time>2026-04-19T07:24:38.825Z</time></trkpt><trkpt lat="43.0040103" lon="12.2630061"><ele>206.0</ele><time>2026-04-19T07:24:40.826Z</time></trkpt><trkpt lat="43.0039289" lon="12.2630298"><ele>206.00000000000003</ele><time>2026-04-19T07:24:42.825Z</time></trkpt><trkpt lat="43.003849" lon="12.2630945"><ele>206.0</ele><time>2026-04-19T07:24:44.827Z</time></trkpt><trkpt lat="43.0037646" lon="12.2631088"><ele>206.16666666666669</ele><time>2026-04-19T07:24:46.83Z</time></trkpt><trkpt lat="43.003681" lon="12.263109"><ele>206.33333333333334</ele><time>2026-04-19T07:24:48.81Z</time></trkpt><trkpt lat="43.0035928" lon="12.2630926"><ele>206.5</ele><time>2026-04-19T07:24:50.821Z</time></trkpt><trkpt lat="43.0034977" lon="12.2630755"><ele>206.66666666666669</ele><time>2026-04-19T07:24:52.823Z</time></trkpt><trkpt lat="43.0034119" lon="12.2630344"><ele>206.83333333333334</ele><time>2026-04-19T07:24:54.814Z</time></trkpt><trkpt lat="43.003326" lon="12.2629982"><ele>207.0</ele><time>2026-04-19T07:24:56.825Z</time></trkpt><trkpt lat="43.0032591" lon="12.262946"><ele>207.16666666666666</ele><time>2026-04-19T07:24:58.827Z</time></trkpt><trkpt lat="43.0031925" lon="12.2628872"><ele>207.33333333333331</ele><time>2026-04-19T07:25:00.829Z</time></trkpt><trkpt lat="43.0031181" lon="12.262839"><ele>207.5</ele><time>2026-04-19T07:25:02.822Z</time></trkpt><trkpt lat="43.0030475" lon="12.2627826"><ele>207.66666666666666</ele><time>2026-04-19T07:25:04.82Z</time></trkpt><trkpt lat="43.0029809" lon="12.2627239"><ele>207.83333333333331</ele><time>2026-04-19T07:25:06.817Z</time></trkpt><trkpt lat="43.0029208" lon="12.2626663"><ele>208.0</ele><time>2026-04-19T07:25:08.813Z</time></trkpt><trkpt lat="43.0028604" lon="12.2626188"><ele>207.99999999999997</ele><time>2026-04-19T07:25:10.832Z</time></trkpt><trkpt lat="43.0027776" lon="12.2625917"><ele>208.0</ele><time>2026-04-19T07:25:13.826Z</time></trkpt><trkpt lat="43.0027076" lon="12.2626496"><ele>208.0</ele><time>2026-04-19T07:25:16.826Z</time></trkpt><trkpt lat="43.0026467" lon="12.2627099"><ele>208.0</ele><time>2026-04-19T07:25:19.809Z</time></trkpt><trkpt lat="43.0025834" lon="12.262772"><ele>207.99999999999997</ele><time>2026-04-19T07:25:22.823Z</time></trkpt><trkpt lat="43.0025353" lon="12.26283"><ele>208.0</ele><time>2026-04-19T07:25:24.816Z</time></trkpt><trkpt lat="43.0024839" lon="12.2628907"><ele>208.42857142857142</ele><time>2026-04-19T07:25:26.819Z</time></trkpt><trkpt lat="43.0024316" lon="12.2629396"><ele>208.85714285714286</ele><time>2026-04-19T07:25:28.814Z</time></trkpt><trkpt lat="43.0023745" lon="12.2629769"><ele>209.28571428571428</ele><time>2026-04-19T07:25:30.817Z</time></trkpt><trkpt lat="43.002279" lon="12.2629703"><ele>209.71428571428572</ele><time>2026-04-19T07:25:33.828Z</time></trkpt><trkpt lat="43.0022147" lon="12.2629423"><ele>210.14285714285717</ele><time>2026-04-19T07:25:35.825Z</time></trkpt><trkpt lat="43.0021536" lon="12.2629093"><ele>210.57142857142858</ele><time>2026-04-19T07:25:37.831Z</time></trkpt><trkpt lat="43.0020879" lon="12.2628508"><ele>211.0</ele><time>2026-04-19T07:25:40.822Z</time></trkpt><trkpt lat="43.0020279" lon="12.2628042"><ele>211.0</ele><time>2026-04-19T07:25:45.834Z</time></trkpt><trkpt lat="43.0019855" lon="12.2627311"><ele>211.0</ele><time>2026-04-19T07:29:14.818Z</time></trkpt><trkpt lat="43.0019075" lon="12.2627026"><ele>211.0</ele><time>2026-04-19T07:29:17.835Z</time></trkpt><trkpt lat="43.0018472" lon="12.2626682"><ele>211.0</ele><time>2026-04-19T07:29:19.818Z</time></trkpt><trkpt lat="43.0017913" lon="12.2626255"><ele>211.0</ele><time>2026-04-19T07:29:21.929Z</time></trkpt><trkpt lat="43.0017116" lon="12.2625709"><ele>211.0</ele><time>2026-04-19T07:29:24.833Z</time></trkpt><trkpt lat="43.0016535" lon="12.2625364"><ele>211.0</ele><time>2026-04-19T07:29:26.812Z</time></trkpt><trkpt lat="43.0015674" lon="12.2624892"><ele>210.71428571428572</ele><time>2026-04-19T07:29:29.814Z</time></trkpt><trkpt lat="43.0014806" lon="12.2624512"><ele>210.42857142857144</ele><time>2026-04-19T07:29:32.825Z</time></trkpt><trkpt lat="43.0013972" lon="12.2624095"><ele>210.14285714285714</ele><time>2026-04-19T07:29:35.824Z</time></trkpt><trkpt lat="43.0013318" lon="12.2623832"><ele>209.85714285714286</ele><time>2026-04-19T07:29:37.824Z</time></trkpt><trkpt lat="43.001268" lon="12.2623501"><ele>209.57142857142856</ele><time>2026-04-19T07:29:39.93Z</time></trkpt><trkpt lat="43.0012114" lon="12.2623054"><ele>209.28571428571428</ele><time>2026-04-19T07:29:41.838Z</time></trkpt><trkpt lat="43.0011549" lon="12.2622614"><ele>209.0</ele><time>2026-04-19T07:29:43.824Z</time></trkpt><trkpt lat="43.0010993" lon="12.2622209"><ele>209.00000000000003</ele><time>2026-04-19T07:29:45.808Z</time></trkpt><trkpt lat="43.0010136" lon="12.2621687"><ele>209.0</ele><time>2026-04-19T07:29:48.831Z</time></trkpt><trkpt lat="43.0009504" lon="12.2621224"><ele>209.0</ele><time>2026-04-19T07:29:50.831Z</time></trkpt><trkpt lat="43.0008467" lon="12.2620504"><ele>209.0</ele><time>2026-04-19T07:29:53.827Z</time></trkpt><trkpt lat="43.0007857" lon="12.2619989"><ele>209.00000000000003</ele><time>2026-04-19T07:29:55.831Z</time></trkpt><trkpt lat="43.000713" lon="12.2619297"><ele>209.0</ele><time>2026-04-19T07:29:58.837Z</time></trkpt><trkpt lat="43.00064" lon="12.2618691"><ele>211.33333333333334</ele><time>2026-04-19T07:30:01.834Z</time></trkpt><trkpt lat="43.0005884" lon="12.2618137"><ele>213.66666666666669</ele><time>2026-04-19T07:30:03.831Z</time></trkpt><trkpt lat="43.0005359" lon="12.2617397"><ele>216.0</ele><time>2026-04-19T07:30:05.824Z</time></trkpt><trkpt lat="43.0004838" lon="12.2616631"><ele>218.33333333333331</ele><time>2026-04-19T07:30:07.828Z</time></trkpt><trkpt lat="43.0004358" lon="12.2615447"><ele>220.66666666666666</ele><time>2026-04-19T07:30:10.834Z</time></trkpt><trkpt lat="43.0004028" lon="12.2614582"><ele>223.0</ele><time>2026-04-19T07:30:12.837Z</time></trkpt><trkpt lat="43.000362" lon="12.2613789"><ele>222.99999999999997</ele><time>2026-04-19T07:30:14.836Z</time></trkpt><trkpt lat="43.0003007" lon="12.2612913"><ele>223.0</ele><time>2026-04-19T07:30:17.827Z</time></trkpt><trkpt lat="43.0002332" lon="12.2612291"><ele>223.0</ele><time>2026-04-19T07:30:20.831Z</time></trkpt><trkpt lat="43.0001628" lon="12.2611641"><ele>223.0</ele><time>2026-04-19T07:30:23.831Z</time></trkpt><trkpt lat="43.0001016" lon="12.2611331"><ele>222.99999999999997</ele><time>2026-04-19T07:30:25.823Z</time></trkpt><trkpt lat="43.0000429" lon="12.2610908"><ele>223.0</ele><time>2026-04-19T07:30:27.832Z</time></trkpt><trkpt lat="42.9999731" lon="12.2610502"><ele>223.0</ele><time>2026-04-19T07:30:29.832Z</time></trkpt><trkpt lat="42.9999128" lon="12.2610168"><ele>223.0</ele><time>2026-04-19T07:30:31.838Z</time></trkpt><trkpt lat="42.9998558" lon="12.2609716"><ele>223.0</ele><time>2026-04-19T07:30:34.828Z</time></trkpt><trkpt lat="42.9998212" lon="12.2608859"><ele>223.0</ele><time>2026-04-19T07:30:37.827Z</time></trkpt><trkpt lat="42.9998016" lon="12.2607932"><ele>223.0</ele><time>2026-04-19T07:30:41.832Z</time></trkpt><trkpt lat="42.9997791" lon="12.2606991"><ele>223.0</ele><time>2026-04-19T07:30:44.831Z</time></trkpt><trkpt lat="42.9998216" lon="12.2606256"><ele>223.0</ele><time>2026-04-19T07:30:46.832Z</time></trkpt><trkpt lat="42.9997937" lon="12.2605303"><ele>221.2</ele><time>2026-04-19T07:30:49.835Z</time></trkpt><trkpt lat="42.9997659" lon="12.26042"><ele>219.4</ele><time>2026-04-19T07:30:52.821Z</time></trkpt><trkpt lat="42.9997516" lon="12.260305"><ele>217.59999999999997</ele><time>2026-04-19T07:30:55.832Z</time></trkpt><trkpt lat="42.9997503" lon="12.2601948"><ele>215.79999999999998</ele><time>2026-04-19T07:30:58.83Z</time></trkpt><trkpt lat="42.9997193" lon="12.2600531"><ele>214.0</ele><time>2026-04-19T07:31:02.816Z</time></trkpt><trkpt lat="42.9996872" lon="12.2599282"><ele>214.0</ele><time>2026-04-19T07:31:05.828Z</time></trkpt><trkpt lat="42.9995527" lon="12.2597846"><ele>214.0</ele><time>2026-04-19T07:31:08.825Z</time></trkpt><trkpt lat="42.9994544" lon="12.2597173"><ele>214.0</ele><time>2026-04-19T07:31:10.826Z</time></trkpt><trkpt lat="42.9993455" lon="12.2596874"><ele>214.0</ele><time>2026-04-19T07:31:12.809Z</time></trkpt><trkpt lat="42.9992823" lon="12.2596733"><ele>214.2</ele><time>2026-04-19T07:31:13.822Z</time></trkpt><trkpt lat="42.9992131" lon="12.259661"><ele>214.39999999999998</ele><time>2026-04-19T07:31:14.81Z</time></trkpt><trkpt lat="42.9990899" lon="12.2596317"><ele>214.6</ele><time>2026-04-19T07:31:16.808Z</time></trkpt><trkpt lat="42.9990275" lon="12.2596125"><ele>214.8</ele><time>2026-04-19T07:31:17.812Z</time></trkpt><trkpt lat="42.9989045" lon="12.2595776"><ele>215.0</ele><time>2026-04-19T07:31:19.809Z</time></trkpt><trkpt lat="42.9987996" lon="12.2595603"><ele>215.0</ele><time>2026-04-19T07:31:21.814Z</time></trkpt><trkpt lat="42.9986965" lon="12.259528"><ele>215.0</ele><time>2026-04-19T07:31:23.809Z</time></trkpt><trkpt lat="42.9985847" lon="12.259485"><ele>215.0</ele><time>2026-04-19T07:31:25.819Z</time></trkpt><trkpt lat="42.9984784" lon="12.2594623"><ele>215.0</ele><time>2026-04-19T07:31:27.809Z</time></trkpt><trkpt lat="42.9983705" lon="12.2594717"><ele>215.0</ele><time>2026-04-19T07:31:29.811Z</time></trkpt><trkpt lat="42.9982722" lon="12.2595062"><ele>214.6</ele><time>2026-04-19T07:31:31.812Z</time></trkpt><trkpt lat="42.9981918" lon="12.2595474"><ele>214.2</ele><time>2026-04-19T07:31:33.813Z</time></trkpt><trkpt lat="42.9981015" lon="12.2595792"><ele>213.8</ele><time>2026-04-19T07:31:35.814Z</time></trkpt><trkpt lat="42.9980165" lon="12.2596375"><ele>213.4</ele><time>2026-04-19T07:31:37.816Z</time></trkpt><trkpt lat="42.9979248" lon="12.2597189"><ele>213.0</ele><time>2026-04-19T07:31:39.814Z</time></trkpt><trkpt lat="42.9978367" lon="12.2598074"><ele>214.66666666666666</ele><time>2026-04-19T07:31:41.825Z</time></trkpt><trkpt lat="42.9977521" lon="12.2598627"><ele>216.33333333333331</ele><time>2026-04-19T07:31:43.832Z</time></trkpt><trkpt lat="42.9976569" lon="12.2598606"><ele>218.0</ele><time>2026-04-19T07:31:45.812Z</time></trkpt><trkpt lat="42.9975901" lon="12.259876"><ele>219.66666666666666</ele><time>2026-04-19T07:31:47.814Z</time></trkpt><trkpt lat="42.9975162" lon="12.2598798"><ele>221.33333333333331</ele><time>2026-04-19T07:31:50.819Z</time></trkpt><trkpt lat="42.9974338" lon="12.259868"><ele>223.0</ele><time>2026-04-19T07:31:53.899Z</time></trkpt><trkpt lat="42.9973638" lon="12.2598679"><ele>223.0</ele><time>2026-04-19T07:31:55.803Z</time></trkpt><trkpt lat="42.9972459" lon="12.2598581"><ele>223.0</ele><time>2026-04-19T07:31:57.835Z</time></trkpt><trkpt lat="42.99714" lon="12.259876"><ele>223.0</ele><time>2026-04-19T07:31:59.815Z</time></trkpt><trkpt lat="42.9970193" lon="12.2598992"><ele>223.0</ele><time>2026-04-19T07:32:01.835Z</time></trkpt><trkpt lat="42.9969087" lon="12.2598942"><ele>223.0</ele><time>2026-04-19T07:32:03.821Z</time></trkpt><trkpt lat="42.9967946" lon="12.259891"><ele>223.0</ele><time>2026-04-19T07:32:05.83Z</time></trkpt><trkpt lat="42.9966866" lon="12.2598664"><ele>223.0</ele><time>2026-04-19T07:32:07.819Z</time></trkpt><trkpt lat="42.9965703" lon="12.2598479"><ele>223.0</ele><time>2026-04-19T07:32:09.825Z</time></trkpt><trkpt lat="42.9964516" lon="12.2598155"><ele>223.33333333333331</ele><time>2026-04-19T07:32:11.801Z</time></trkpt><trkpt lat="42.9963863" lon="12.2598192"><ele>223.66666666666666</ele><time>2026-04-19T07:32:12.832Z</time></trkpt><trkpt lat="42.9963238" lon="12.259802"><ele>224.0</ele><time>2026-04-19T07:32:13.815Z</time></trkpt><trkpt lat="42.9962102" lon="12.259764"><ele>224.33333333333331</ele><time>2026-04-19T07:32:15.819Z</time></trkpt><trkpt lat="42.9961443" lon="12.2597222"><ele>224.66666666666666</ele><time>2026-04-19T07:32:16.811Z</time></trkpt><trkpt lat="42.9960493" lon="12.259676"><ele>225.0</ele><time>2026-04-19T07:32:18.807Z</time></trkpt><trkpt lat="42.9959614" lon="12.2596359"><ele>222.0</ele><time>2026-04-19T07:32:19.814Z</time></trkpt><trkpt lat="42.9959003" lon="12.2595994"><ele>219.0</ele><time>2026-04-19T07:32:20.809Z</time></trkpt><trkpt lat="42.9957887" lon="12.2595188"><ele>216.0</ele><time>2026-04-19T07:32:22.812Z</time></trkpt><trkpt lat="42.9957382" lon="12.2594642"><ele>213.0</ele><time>2026-04-19T07:32:23.833Z</time></trkpt><trkpt lat="42.9956728" lon="12.2594221"><ele>210.0</ele><time>2026-04-19T07:32:24.831Z</time></trkpt><trkpt lat="42.9955481" lon="12.2593223"><ele>210.0</ele><time>2026-04-19T07:32:26.826Z</time></trkpt><trkpt lat="42.995488" lon="12.2592815"><ele>210.0</ele><time>2026-04-19T07:32:27.835Z</time></trkpt><trkpt lat="42.9954241" lon="12.2592358"><ele>210.0</ele><time>2026-04-19T07:32:28.82Z</time></trkpt><trkpt lat="42.9953686" lon="12.2591929"><ele>210.0</ele><time>2026-04-19T07:32:29.82Z</time></trkpt><trkpt lat="42.9953192" lon="12.2591389"><ele>210.0</ele><time>2026-04-19T07:32:30.821Z</time></trkpt><trkpt lat="42.9952628" lon="12.2590928"><ele>210.0</ele><time>2026-04-19T07:32:31.823Z</time></trkpt><trkpt lat="42.9951633" lon="12.2590032"><ele>209.6</ele><time>2026-04-19T07:32:33.824Z</time></trkpt><trkpt lat="42.995049" lon="12.2589163"><ele>209.2</ele><time>2026-04-19T07:32:35.828Z</time></trkpt><trkpt lat="42.9949517" lon="12.258808"><ele>208.8</ele><time>2026-04-19T07:32:37.825Z</time></trkpt><trkpt lat="42.9948917" lon="12.2587523"><ele>208.4</ele><time>2026-04-19T07:32:39.814Z</time></trkpt><trkpt lat="42.9948342" lon="12.2586881"><ele>208.0</ele><time>2026-04-19T07:32:41.824Z</time></trkpt><trkpt lat="42.9947675" lon="12.2586048"><ele>208.0</ele><time>2026-04-19T07:32:43.817Z</time></trkpt><trkpt lat="42.9946795" lon="12.2585119"><ele>208.0</ele><time>2026-04-19T07:32:45.81Z</time></trkpt><trkpt lat="42.9945864" lon="12.2584263"><ele>208.0</ele><time>2026-04-19T07:32:47.823Z</time></trkpt><trkpt lat="42.9945049" lon="12.2583507"><ele>208.0</ele><time>2026-04-19T07:32:49.819Z</time></trkpt><trkpt lat="42.9944063" lon="12.2582802"><ele>208.0</ele><time>2026-04-19T07:32:51.823Z</time></trkpt><trkpt lat="42.9943464" lon="12.2582194"><ele>207.60000000000002</ele><time>2026-04-19T07:32:53.822Z</time></trkpt><trkpt lat="42.9942923" lon="12.2581056"><ele>207.20000000000002</ele><time>2026-04-19T07:32:55.827Z</time></trkpt><trkpt lat="42.9942253" lon="12.2580029"><ele>206.8</ele><time>2026-04-19T07:32:57.823Z</time></trkpt><trkpt lat="42.9941751" lon="12.2579005"><ele>206.4</ele><time>2026-04-19T07:32:59.826Z</time></trkpt><trkpt lat="42.9941433" lon="12.25778"><ele>206.0</ele><time>2026-04-19T07:33:01.82Z</time></trkpt><trkpt lat="42.9941023" lon="12.2576343"><ele>206.0</ele><time>2026-04-19T07:33:03.822Z</time></trkpt><trkpt lat="42.9940447" lon="12.2575028"><ele>206.0</ele><time>2026-04-19T07:33:05.823Z</time></trkpt><trkpt lat="42.9940207" lon="12.2573743"><ele>206.0</ele><time>2026-04-19T07:33:07.822Z</time></trkpt><trkpt lat="42.9939827" lon="12.2572402"><ele>206.0</ele><time>2026-04-19T07:33:09.821Z</time></trkpt><trkpt lat="42.9939349" lon="12.2571101"><ele>206.0</ele><time>2026-04-19T07:33:11.824Z</time></trkpt><trkpt lat="42.9938952" lon="12.2569634"><ele>206.0</ele><time>2026-04-19T07:33:13.832Z</time></trkpt><trkpt lat="42.9938461" lon="12.2567915"><ele>206.0</ele><time>2026-04-19T07:33:16.819Z</time></trkpt><trkpt lat="42.9938248" lon="12.2566757"><ele>206.0</ele><time>2026-04-19T07:33:18.816Z</time></trkpt><trkpt lat="42.993813" lon="12.2565793"><ele>206.0</ele><time>2026-04-19T07:33:20.819Z</time></trkpt><trkpt lat="42.9937983" lon="12.2564751"><ele>206.0</ele><time>2026-04-19T07:33:22.825Z</time></trkpt><trkpt lat="42.9938086" lon="12.2563487"><ele>206.0</ele><time>2026-04-19T07:33:24.821Z</time></trkpt><trkpt lat="42.9937848" lon="12.256213"><ele>206.0</ele><time>2026-04-19T07:33:26.826Z</time></trkpt><trkpt lat="42.9938069" lon="12.2560847"><ele>206.0</ele><time>2026-04-19T07:33:28.824Z</time></trkpt><trkpt lat="42.9938308" lon="12.2559694"><ele>206.0</ele><time>2026-04-19T07:33:30.824Z</time></trkpt><trkpt lat="42.9938041" lon="12.2558473"><ele>206.0</ele><time>2026-04-19T07:33:32.821Z</time></trkpt><trkpt lat="42.9937862" lon="12.2557205"><ele>206.00000000000003</ele><time>2026-04-19T07:33:34.818Z</time></trkpt><trkpt lat="42.9937438" lon="12.2556244"><ele>206.0</ele><time>2026-04-19T07:33:36.821Z</time></trkpt><trkpt lat="42.9937201" lon="12.255517"><ele>206.0</ele><time>2026-04-19T07:33:38.828Z</time></trkpt><trkpt lat="42.9937121" lon="12.2554012"><ele>206.0</ele><time>2026-04-19T07:33:40.824Z</time></trkpt><trkpt lat="42.9936829" lon="12.2552896"><ele>206.00000000000003</ele><time>2026-04-19T07:33:42.83Z</time></trkpt><trkpt lat="42.9936638" lon="12.2551925"><ele>206.0</ele><time>2026-04-19T07:33:44.825Z</time></trkpt><trkpt lat="42.9936514" lon="12.2551067"><ele>205.8</ele><time>2026-04-19T07:33:46.823Z</time></trkpt><trkpt lat="42.9936202" lon="12.2550135"><ele>205.60000000000002</ele><time>2026-04-19T07:33:48.83Z</time></trkpt><trkpt lat="42.9935799" lon="12.2549135"><ele>205.4</ele><time>2026-04-19T07:33:50.831Z</time></trkpt><trkpt lat="42.9935165" lon="12.2547904"><ele>205.2</ele><time>2026-04-19T07:33:52.827Z</time></trkpt><trkpt lat="42.9934825" lon="12.254652"><ele>205.0</ele><time>2026-04-19T07:33:54.819Z</time></trkpt><trkpt lat="42.9934275" lon="12.2544966"><ele>204.6</ele><time>2026-04-19T07:33:56.814Z</time></trkpt><trkpt lat="42.9933975" lon="12.254351"><ele>204.2</ele><time>2026-04-19T07:33:58.823Z</time></trkpt><trkpt lat="42.9933473" lon="12.2542066"><ele>203.8</ele><time>2026-04-19T07:34:00.831Z</time></trkpt><trkpt lat="42.9933059" lon="12.2541256"><ele>203.4</ele><time>2026-04-19T07:34:01.931Z</time></trkpt><trkpt lat="42.9932559" lon="12.2540139"><ele>203.0</ele><time>2026-04-19T07:34:03.828Z</time></trkpt><trkpt lat="42.9932091" lon="12.2538634"><ele>204.16666666666669</ele><time>2026-04-19T07:34:05.819Z</time></trkpt><trkpt lat="42.9931521" lon="12.2537397"><ele>205.33333333333334</ele><time>2026-04-19T07:34:07.923Z</time></trkpt><trkpt lat="42.9931025" lon="12.2536227"><ele>206.5</ele><time>2026-04-19T07:34:09.823Z</time></trkpt><trkpt lat="42.9930629" lon="12.2535229"><ele>207.66666666666669</ele><time>2026-04-19T07:34:11.831Z</time></trkpt><trkpt lat="42.9930176" lon="12.2534342"><ele>208.83333333333334</ele><time>2026-04-19T07:34:13.82Z</time></trkpt><trkpt lat="42.992984" lon="12.2533446"><ele>210.0</ele><time>2026-04-19T07:34:15.815Z</time></trkpt><trkpt lat="42.9929458" lon="12.2532529"><ele>210.0</ele><time>2026-04-19T07:34:17.82Z</time></trkpt><trkpt lat="42.9929014" lon="12.2531707"><ele>210.0</ele><time>2026-04-19T07:34:19.82Z</time></trkpt><trkpt lat="42.9928496" lon="12.2530884"><ele>210.0</ele><time>2026-04-19T07:34:21.821Z</time></trkpt><trkpt lat="42.9927951" lon="12.2529991"><ele>210.0</ele><time>2026-04-19T07:34:23.825Z</time></trkpt><trkpt lat="42.9927349" lon="12.2529044"><ele>210.0</ele><time>2026-04-19T07:34:25.818Z</time></trkpt><trkpt lat="42.9926631" lon="12.2528124"><ele>210.0</ele><time>2026-04-19T07:34:27.814Z</time></trkpt><trkpt lat="42.9926072" lon="12.2527232"><ele>209.66666666666666</ele><time>2026-04-19T07:34:29.822Z</time></trkpt><trkpt lat="42.9925649" lon="12.2526438"><ele>209.33333333333331</ele><time>2026-04-19T07:34:31.925Z</time></trkpt><trkpt lat="42.9925074" lon="12.2525622"><ele>209.0</ele><time>2026-04-19T07:34:33.806Z</time></trkpt><trkpt lat="42.9924403" lon="12.2524809"><ele>208.66666666666666</ele><time>2026-04-19T07:34:35.834Z</time></trkpt><trkpt lat="42.9923893" lon="12.2523963"><ele>208.33333333333331</ele><time>2026-04-19T07:34:37.836Z</time></trkpt><trkpt lat="42.9923354" lon="12.2523051"><ele>208.0</ele><time>2026-04-19T07:34:39.819Z</time></trkpt><trkpt lat="42.9922668" lon="12.2522206"><ele>207.99999999999997</ele><time>2026-04-19T07:34:41.831Z</time></trkpt><trkpt lat="42.9921998" lon="12.2521359"><ele>208.0</ele><time>2026-04-19T07:34:43.825Z</time></trkpt><trkpt lat="42.9921301" lon="12.2520553"><ele>208.0</ele><time>2026-04-19T07:34:45.831Z</time></trkpt><trkpt lat="42.9920656" lon="12.25197"><ele>208.0</ele><time>2026-04-19T07:34:47.822Z</time></trkpt><trkpt lat="42.9920068" lon="12.2518864"><ele>207.99999999999997</ele><time>2026-04-19T07:34:49.815Z</time></trkpt><trkpt lat="42.9919444" lon="12.2518086"><ele>208.0</ele><time>2026-04-19T07:34:51.814Z</time></trkpt><trkpt lat="42.9918773" lon="12.2517374"><ele>207.99999999999997</ele><time>2026-04-19T07:34:53.81Z</time></trkpt><trkpt lat="42.9918055" lon="12.2516659"><ele>208.0</ele><time>2026-04-19T07:34:55.814Z</time></trkpt><trkpt lat="42.9917357" lon="12.2515935"><ele>208.0</ele><time>2026-04-19T07:34:57.828Z</time></trkpt><trkpt lat="42.9916713" lon="12.2515236"><ele>208.0</ele><time>2026-04-19T07:34:59.812Z</time></trkpt><trkpt lat="42.991602" lon="12.2514666"><ele>207.99999999999997</ele><time>2026-04-19T07:35:01.826Z</time></trkpt><trkpt lat="42.9915333" lon="12.2514457"><ele>208.0</ele><time>2026-04-19T07:35:03.811Z</time></trkpt><trkpt lat="42.9914622" lon="12.251447"><ele>209.42857142857142</ele><time>2026-04-19T07:35:05.808Z</time></trkpt><trkpt lat="42.9913947" lon="12.2514413"><ele>210.85714285714286</ele><time>2026-04-19T07:35:07.913Z</time></trkpt><trkpt lat="42.9913308" lon="12.2514322"><ele>212.28571428571428</ele><time>2026-04-19T07:35:09.812Z</time></trkpt><trkpt lat="42.9912483" lon="12.2514175"><ele>213.71428571428572</ele><time>2026-04-19T07:35:12.821Z</time></trkpt><trkpt lat="42.9911645" lon="12.2514055"><ele>215.14285714285717</ele><time>2026-04-19T07:35:16.808Z</time></trkpt><trkpt lat="42.9911049" lon="12.2513775"><ele>216.57142857142858</ele><time>2026-04-19T07:35:19.913Z</time></trkpt><trkpt lat="42.9910424" lon="12.251394"><ele>218.0</ele><time>2026-04-19T07:35:21.812Z</time></trkpt><trkpt lat="42.9909707" lon="12.2513963"><ele>218.0</ele><time>2026-04-19T07:35:24.815Z</time></trkpt><trkpt lat="42.9908856" lon="12.2514072"><ele>218.0</ele><time>2026-04-19T07:35:26.816Z</time></trkpt><trkpt lat="42.9907692" lon="12.251436"><ele>218.0</ele><time>2026-04-19T07:35:28.819Z</time></trkpt><trkpt lat="42.9907089" lon="12.2514827"><ele>218.0</ele><time>2026-04-19T07:35:29.818Z</time></trkpt><trkpt lat="42.9906477" lon="12.2515115"><ele>218.0</ele><time>2026-04-19T07:35:30.825Z</time></trkpt><trkpt lat="42.9905375" lon="12.251585"><ele>218.83333333333334</ele><time>2026-04-19T07:35:32.818Z</time></trkpt><trkpt lat="42.9904746" lon="12.2516672"><ele>219.66666666666669</ele><time>2026-04-19T07:35:33.822Z</time></trkpt><trkpt lat="42.9904269" lon="12.2517446"><ele>220.5</ele><time>2026-04-19T07:35:34.82Z</time></trkpt><trkpt lat="42.9903793" lon="12.2518431"><ele>221.33333333333331</ele><time>2026-04-19T07:35:35.835Z</time></trkpt><trkpt lat="42.9903372" lon="12.2519407"><ele>222.16666666666666</ele><time>2026-04-19T07:35:36.822Z</time></trkpt><trkpt lat="42.9902965" lon="12.252031"><ele>223.0</ele><time>2026-04-19T07:35:37.813Z</time></trkpt><trkpt lat="42.9902549" lon="12.2521118"><ele>222.99999999999997</ele><time>2026-04-19T07:35:38.839Z</time></trkpt><trkpt lat="42.990213" lon="12.2522205"><ele>223.0</ele><time>2026-04-19T07:35:39.82Z</time></trkpt><trkpt lat="42.9901782" lon="12.2523166"><ele>223.0</ele><time>2026-04-19T07:35:40.825Z</time></trkpt><trkpt lat="42.9901508" lon="12.2524267"><ele>223.0</ele><time>2026-04-19T07:35:41.815Z</time></trkpt><trkpt lat="42.9901201" lon="12.2525369"><ele>222.99999999999997</ele><time>2026-04-19T07:35:42.819Z</time></trkpt><trkpt lat="42.9900964" lon="12.2526323"><ele>223.0</ele><time>2026-04-19T07:35:43.917Z</time></trkpt><trkpt lat="42.9900734" lon="12.2527398"><ele>224.0</ele><time>2026-04-19T07:35:44.825Z</time></trkpt><trkpt lat="42.9900524" lon="12.2528361"><ele>225.0</ele><time>2026-04-19T07:35:45.816Z</time></trkpt><trkpt lat="42.9900359" lon="12.2529263"><ele>226.0</ele><time>2026-04-19T07:35:46.814Z</time></trkpt><trkpt lat="42.9900101" lon="12.2530271"><ele>227.0</ele><time>2026-04-19T07:35:47.812Z</time></trkpt><trkpt lat="42.9899859" lon="12.2531217"><ele>228.0</ele><time>2026-04-19T07:35:48.811Z</time></trkpt><trkpt lat="42.9899574" lon="12.2532011"><ele>228.99999999999997</ele><time>2026-04-19T07:35:49.814Z</time></trkpt><trkpt lat="42.9899248" lon="12.2532873"><ele>229.99999999999997</ele><time>2026-04-19T07:35:50.824Z</time></trkpt><trkpt lat="42.989888" lon="12.2533598"><ele>228.2</ele><time>2026-04-19T07:35:51.827Z</time></trkpt><trkpt lat="42.9898585" lon="12.2534415"><ele>226.4</ele><time>2026-04-19T07:35:52.817Z</time></trkpt><trkpt lat="42.9898202" lon="12.2535199"><ele>224.60000000000002</ele><time>2026-04-19T07:35:53.81Z</time></trkpt><trkpt lat="42.9897638" lon="12.2536687"><ele>222.8</ele><time>2026-04-19T07:35:55.806Z</time></trkpt><trkpt lat="42.9897139" lon="12.2538242"><ele>221.0</ele><time>2026-04-19T07:35:57.807Z</time></trkpt><trkpt lat="42.9896637" lon="12.2539576"><ele>221.0</ele><time>2026-04-19T07:35:59.809Z</time></trkpt><trkpt lat="42.9896163" lon="12.2540981"><ele>221.00000000000003</ele><time>2026-04-19T07:36:01.81Z</time></trkpt><trkpt lat="42.9895837" lon="12.2542287"><ele>221.00000000000003</ele><time>2026-04-19T07:36:03.81Z</time></trkpt><trkpt lat="42.9895529" lon="12.254382"><ele>221.0</ele><time>2026-04-19T07:36:05.811Z</time></trkpt><trkpt lat="42.9895208" lon="12.2545196"><ele>221.0</ele><time>2026-04-19T07:36:07.81Z</time></trkpt><trkpt lat="42.9894824" lon="12.2546664"><ele>221.60000000000002</ele><time>2026-04-19T07:36:09.811Z</time></trkpt><trkpt lat="42.9894562" lon="12.254805"><ele>222.20000000000002</ele><time>2026-04-19T07:36:11.811Z</time></trkpt><trkpt lat="42.9894216" lon="12.2549461"><ele>222.79999999999998</ele><time>2026-04-19T07:36:13.897Z</time></trkpt><trkpt lat="42.9893954" lon="12.2551017"><ele>223.39999999999998</ele><time>2026-04-19T07:36:15.827Z</time></trkpt><trkpt lat="42.989358" lon="12.2552544"><ele>224.0</ele><time>2026-04-19T07:36:17.809Z</time></trkpt><trkpt lat="42.9893299" lon="12.255334"><ele>224.0</ele><time>2026-04-19T07:36:18.82Z</time></trkpt><trkpt lat="42.9893073" lon="12.2554326"><ele>223.99999999999997</ele><time>2026-04-19T07:36:19.91Z</time></trkpt><trkpt lat="42.9892596" lon="12.2555692"><ele>223.99999999999997</ele><time>2026-04-19T07:36:21.822Z</time></trkpt><trkpt lat="42.9892005" lon="12.255717"><ele>224.0</ele><time>2026-04-19T07:36:23.829Z</time></trkpt><trkpt lat="42.9891572" lon="12.2558628"><ele>224.0</ele><time>2026-04-19T07:36:25.901Z</time></trkpt><trkpt lat="42.9891097" lon="12.2560086"><ele>223.2</ele><time>2026-04-19T07:36:27.82Z</time></trkpt><trkpt lat="42.9890978" lon="12.2560947"><ele>222.39999999999998</ele><time>2026-04-19T07:36:28.817Z</time></trkpt><trkpt lat="42.9890454" lon="12.2562282"><ele>221.6</ele><time>2026-04-19T07:36:30.823Z</time></trkpt><trkpt lat="42.9889929" lon="12.2563354"><ele>220.8</ele><time>2026-04-19T07:36:32.827Z</time></trkpt><trkpt lat="42.9889303" lon="12.2564647"><ele>220.0</ele><time>2026-04-19T07:36:34.824Z</time></trkpt><trkpt lat="42.9888561" lon="12.2565851"><ele>220.0</ele><time>2026-04-19T07:36:36.826Z</time></trkpt><trkpt lat="42.9887833" lon="12.2566993"><ele>220.0</ele><time>2026-04-19T07:36:38.821Z</time></trkpt><trkpt lat="42.9887098" lon="12.2568233"><ele>220.0</ele><time>2026-04-19T07:36:40.828Z</time></trkpt><trkpt lat="42.9886761" lon="12.2568986"><ele>220.0</ele><time>2026-04-19T07:36:41.825Z</time></trkpt><trkpt lat="42.9886043" lon="12.2570364"><ele>220.0</ele><time>2026-04-19T07:36:43.81Z</time></trkpt><trkpt lat="42.9885412" lon="12.2571542"><ele>220.0</ele><time>2026-04-19T07:36:45.824Z</time></trkpt><trkpt lat="42.9885156" lon="12.2572476"><ele>220.0</ele><time>2026-04-19T07:36:46.82Z</time></trkpt><trkpt lat="42.9884911" lon="12.257336"><ele>220.0</ele><time>2026-04-19T07:36:47.823Z</time></trkpt><trkpt lat="42.9884327" lon="12.2574647"><ele>220.0</ele><time>2026-04-19T07:36:49.908Z</time></trkpt><trkpt lat="42.9883818" lon="12.2575583"><ele>220.0</ele><time>2026-04-19T07:36:51.821Z</time></trkpt><trkpt lat="42.9883174" lon="12.2576886"><ele>220.2</ele><time>2026-04-19T07:36:53.819Z</time></trkpt><trkpt lat="42.9882627" lon="12.2578172"><ele>220.4</ele><time>2026-04-19T07:36:55.819Z</time></trkpt><trkpt lat="42.9882202" lon="12.2579731"><ele>220.60000000000002</ele><time>2026-04-19T07:36:57.828Z</time></trkpt><trkpt lat="42.9881643" lon="12.2580951"><ele>220.8</ele><time>2026-04-19T07:36:59.824Z</time></trkpt><trkpt lat="42.9881356" lon="12.2581795"><ele>221.0</ele><time>2026-04-19T07:37:00.834Z</time></trkpt><trkpt lat="42.9880989" lon="12.2582585"><ele>221.0</ele><time>2026-04-19T07:37:01.917Z</time></trkpt><trkpt lat="42.9880582" lon="12.2584293"><ele>221.0</ele><time>2026-04-19T07:37:03.826Z</time></trkpt><trkpt lat="42.9880136" lon="12.2585816"><ele>221.0</ele><time>2026-04-19T07:37:05.821Z</time></trkpt><trkpt lat="42.9879648" lon="12.2587088"><ele>221.0</ele><time>2026-04-19T07:37:07.917Z</time></trkpt><trkpt lat="42.987917" lon="12.2588237"><ele>221.0</ele><time>2026-04-19T07:37:09.82Z</time></trkpt><trkpt lat="42.9878621" lon="12.2589381"><ele>221.00000000000003</ele><time>2026-04-19T07:37:11.819Z</time></trkpt><trkpt lat="42.9878165" lon="12.2590843"><ele>221.00000000000003</ele><time>2026-04-19T07:37:13.819Z</time></trkpt><trkpt lat="42.9877675" lon="12.259211"><ele>221.0</ele><time>2026-04-19T07:37:15.828Z</time></trkpt><trkpt lat="42.9877163" lon="12.2593494"><ele>221.0</ele><time>2026-04-19T07:37:17.803Z</time></trkpt><trkpt lat="42.9876609" lon="12.2594686"><ele>221.8</ele><time>2026-04-19T07:37:19.818Z</time></trkpt><trkpt lat="42.987606" lon="12.259597"><ele>222.60000000000002</ele><time>2026-04-19T07:37:21.823Z</time></trkpt><trkpt lat="42.9875683" lon="12.259735"><ele>223.4</ele><time>2026-04-19T07:37:23.819Z</time></trkpt><trkpt lat="42.9875175" lon="12.2598501"><ele>224.2</ele><time>2026-04-19T07:37:25.813Z</time></trkpt><trkpt lat="42.9874767" lon="12.2599759"><ele>225.0</ele><time>2026-04-19T07:37:27.821Z</time></trkpt><trkpt lat="42.9874405" lon="12.2601046"><ele>222.66666666666666</ele><time>2026-04-19T07:37:29.804Z</time></trkpt><trkpt lat="42.9873894" lon="12.2602006"><ele>220.33333333333331</ele><time>2026-04-19T07:37:31.815Z</time></trkpt><trkpt lat="42.9873428" lon="12.26031"><ele>218.0</ele><time>2026-04-19T07:37:33.818Z</time></trkpt><trkpt lat="42.9872985" lon="12.2604047"><ele>215.66666666666666</ele><time>2026-04-19T07:37:35.822Z</time></trkpt><trkpt lat="42.987233" lon="12.2604435"><ele>213.33333333333331</ele><time>2026-04-19T07:37:37.828Z</time></trkpt><trkpt lat="42.9871445" lon="12.2603891"><ele>211.0</ele><time>2026-04-19T07:37:39.832Z</time></trkpt><trkpt lat="42.9870484" lon="12.2602967"><ele>210.99999999999997</ele><time>2026-04-19T07:37:41.835Z</time></trkpt><trkpt lat="42.9869897" lon="12.2602597"><ele>211.0</ele><time>2026-04-19T07:37:42.828Z</time></trkpt><trkpt lat="42.9869316" lon="12.2602243"><ele>211.0</ele><time>2026-04-19T07:37:43.836Z</time></trkpt><trkpt lat="42.9868226" lon="12.2601459"><ele>211.0</ele><time>2026-04-19T07:37:45.82Z</time></trkpt><trkpt lat="42.986765" lon="12.2600944"><ele>210.99999999999997</ele><time>2026-04-19T07:37:46.83Z</time></trkpt><trkpt lat="42.98667" lon="12.2599925"><ele>211.0</ele><time>2026-04-19T07:37:48.817Z</time></trkpt><trkpt lat="42.9865902" lon="12.2598736"><ele>208.5</ele><time>2026-04-19T07:37:50.832Z</time></trkpt><trkpt lat="42.9865298" lon="12.2597448"><ele>206.0</ele><time>2026-04-19T07:37:52.819Z</time></trkpt><trkpt lat="42.9864827" lon="12.259597"><ele>203.5</ele><time>2026-04-19T07:37:54.826Z</time></trkpt><trkpt lat="42.9864329" lon="12.2594459"><ele>201.0</ele><time>2026-04-19T07:37:56.827Z</time></trkpt><trkpt lat="42.9864049" lon="12.2592864"><ele>201.0</ele><time>2026-04-19T07:37:58.831Z</time></trkpt><trkpt lat="42.9863592" lon="12.2591422"><ele>201.0</ele><time>2026-04-19T07:38:00.82Z</time></trkpt><trkpt lat="42.9863387" lon="12.2589929"><ele>201.0</ele><time>2026-04-19T07:38:02.822Z</time></trkpt><trkpt lat="42.9863218" lon="12.2588364"><ele>201.0</ele><time>2026-04-19T07:38:04.828Z</time></trkpt><trkpt lat="42.9863154" lon="12.2586819"><ele>201.20000000000002</ele><time>2026-04-19T07:38:06.819Z</time></trkpt><trkpt lat="42.9862927" lon="12.258541"><ele>201.4</ele><time>2026-04-19T07:38:08.825Z</time></trkpt><trkpt lat="42.9862487" lon="12.2584198"><ele>201.6</ele><time>2026-04-19T07:38:10.827Z</time></trkpt><trkpt lat="42.9861758" lon="12.258307"><ele>201.8</ele><time>2026-04-19T07:38:12.921Z</time></trkpt><trkpt lat="42.9861266" lon="12.2582284"><ele>202.0</ele><time>2026-04-19T07:38:14.82Z</time></trkpt><trkpt lat="42.9860814" lon="12.2581343"><ele>202.0</ele><time>2026-04-19T07:38:16.819Z</time></trkpt><trkpt lat="42.9860386" lon="12.2580466"><ele>202.0</ele><time>2026-04-19T07:38:18.926Z</time></trkpt><trkpt lat="42.9859654" lon="12.2579288"><ele>202.0</ele><time>2026-04-19T07:38:20.828Z</time></trkpt><trkpt lat="42.9859011" lon="12.257797"><ele>202.0</ele><time>2026-04-19T07:38:22.82Z</time></trkpt><trkpt lat="42.9858388" lon="12.25766"><ele>202.0</ele><time>2026-04-19T07:38:24.819Z</time></trkpt><trkpt lat="42.9857745" lon="12.257554"><ele>202.2</ele><time>2026-04-19T07:38:26.821Z</time></trkpt><trkpt lat="42.9857248" lon="12.2574371"><ele>202.39999999999998</ele><time>2026-04-19T07:38:28.825Z</time></trkpt><trkpt lat="42.985671" lon="12.2573294"><ele>202.60000000000002</ele><time>2026-04-19T07:38:30.83Z</time></trkpt><trkpt lat="42.9856116" lon="12.2572142"><ele>202.8</ele><time>2026-04-19T07:38:32.832Z</time></trkpt><trkpt lat="42.9855696" lon="12.2570989"><ele>203.0</ele><time>2026-04-19T07:38:34.831Z</time></trkpt><trkpt lat="42.9855242" lon="12.2569666"><ele>203.2</ele><time>2026-04-19T07:38:36.824Z</time></trkpt><trkpt lat="42.9854873" lon="12.2568325"><ele>203.4</ele><time>2026-04-19T07:38:38.828Z</time></trkpt><trkpt lat="42.9854528" lon="12.2567029"><ele>203.6</ele><time>2026-04-19T07:38:40.821Z</time></trkpt><trkpt lat="42.9854221" lon="12.2565753"><ele>203.79999999999998</ele><time>2026-04-19T07:38:42.825Z</time></trkpt><trkpt lat="42.9854003" lon="12.2564494"><ele>204.0</ele><time>2026-04-19T07:38:44.814Z</time></trkpt><trkpt lat="42.9853721" lon="12.2563185"><ele>204.0</ele><time>2026-04-19T07:38:46.83Z</time></trkpt><trkpt lat="42.9853484" lon="12.2561916"><ele>204.0</ele><time>2026-04-19T07:38:48.826Z</time></trkpt><trkpt lat="42.9853299" lon="12.256076"><ele>204.0</ele><time>2026-04-19T07:38:50.819Z</time></trkpt><trkpt lat="42.9852885" lon="12.2559784"><ele>204.0</ele><time>2026-04-19T07:38:52.82Z</time></trkpt><trkpt lat="42.9852253" lon="12.2559181"><ele>204.0</ele><time>2026-04-19T07:38:54.931Z</time></trkpt><trkpt lat="42.9851465" lon="12.2558866"><ele>204.0</ele><time>2026-04-19T07:38:56.82Z</time></trkpt><trkpt lat="42.9850657" lon="12.2559283"><ele>204.39999999999998</ele><time>2026-04-19T07:38:58.819Z</time></trkpt><trkpt lat="42.9849681" lon="12.2559892"><ele>204.8</ele><time>2026-04-19T07:39:00.822Z</time></trkpt><trkpt lat="42.9848776" lon="12.2560371"><ele>205.2</ele><time>2026-04-19T07:39:02.82Z</time></trkpt><trkpt lat="42.984796" lon="12.2561045"><ele>205.60000000000002</ele><time>2026-04-19T07:39:04.826Z</time></trkpt><trkpt lat="42.9847055" lon="12.256147"><ele>206.0</ele><time>2026-04-19T07:39:06.822Z</time></trkpt><trkpt lat="42.9846071" lon="12.2561932"><ele>206.0</ele><time>2026-04-19T07:39:08.825Z</time></trkpt><trkpt lat="42.9845139" lon="12.256232"><ele>206.0</ele><time>2026-04-19T07:39:10.831Z</time></trkpt><trkpt lat="42.9843671" lon="12.2563153"><ele>206.0</ele><time>2026-04-19T07:39:13.82Z</time></trkpt><trkpt lat="42.9842773" lon="12.2563533"><ele>206.0</ele><time>2026-04-19T07:39:15.822Z</time></trkpt><trkpt lat="42.9841799" lon="12.2564015"><ele>205.60000000000002</ele><time>2026-04-19T07:39:17.823Z</time></trkpt><trkpt lat="42.9840886" lon="12.2564461"><ele>205.2</ele><time>2026-04-19T07:39:19.827Z</time></trkpt><trkpt lat="42.9839938" lon="12.2565198"><ele>204.8</ele><time>2026-04-19T07:39:21.822Z</time></trkpt><trkpt lat="42.9838914" lon="12.2565668"><ele>204.39999999999998</ele><time>2026-04-19T07:39:23.821Z</time></trkpt><trkpt lat="42.983792" lon="12.2565988"><ele>204.0</ele><time>2026-04-19T07:39:25.821Z</time></trkpt><trkpt lat="42.9836897" lon="12.2566301"><ele>204.0</ele><time>2026-04-19T07:39:27.808Z</time></trkpt><trkpt lat="42.9835864" lon="12.2566364"><ele>204.0</ele><time>2026-04-19T07:39:29.809Z</time></trkpt><trkpt lat="42.9834849" lon="12.2566606"><ele>204.0</ele><time>2026-04-19T07:39:31.809Z</time></trkpt><trkpt lat="42.9833847" lon="12.2566818"><ele>204.0</ele><time>2026-04-19T07:39:33.827Z</time></trkpt><trkpt lat="42.9832844" lon="12.2566897"><ele>204.0</ele><time>2026-04-19T07:39:35.823Z</time></trkpt><trkpt lat="42.9831773" lon="12.2566983"><ele>204.0</ele><time>2026-04-19T07:39:37.822Z</time></trkpt><trkpt lat="42.9830649" lon="12.2566883"><ele>204.0</ele><time>2026-04-19T07:39:39.81Z</time></trkpt><trkpt lat="42.9829661" lon="12.2566858"><ele>204.0</ele><time>2026-04-19T07:39:41.812Z</time></trkpt><trkpt lat="42.9828544" lon="12.2566753"><ele>204.0</ele><time>2026-04-19T07:39:43.809Z</time></trkpt><trkpt lat="42.9827371" lon="12.2566419"><ele>204.0</ele><time>2026-04-19T07:39:45.808Z</time></trkpt><trkpt lat="42.9826518" lon="12.2566288"><ele>204.0</ele><time>2026-04-19T07:39:47.808Z</time></trkpt><trkpt lat="42.9825518" lon="12.2566288"><ele>204.0</ele><time>2026-04-19T07:39:49.808Z</time></trkpt><trkpt lat="42.9824201" lon="12.2566024"><ele>204.0</ele><time>2026-04-19T07:39:51.815Z</time></trkpt><trkpt lat="42.9823233" lon="12.256575"><ele>204.0</ele><time>2026-04-19T07:39:53.807Z</time></trkpt><trkpt lat="42.9822286" lon="12.2565343"><ele>204.0</ele><time>2026-04-19T07:39:55.808Z</time></trkpt><trkpt lat="42.9821352" lon="12.2564777"><ele>205.33333333333334</ele><time>2026-04-19T07:39:57.807Z</time></trkpt><trkpt lat="42.9820541" lon="12.2564115"><ele>206.66666666666669</ele><time>2026-04-19T07:39:59.814Z</time></trkpt><trkpt lat="42.9819859" lon="12.2563511"><ele>208.0</ele><time>2026-04-19T07:40:01.817Z</time></trkpt><trkpt lat="42.9819187" lon="12.2562995"><ele>209.33333333333334</ele><time>2026-04-19T07:40:03.829Z</time></trkpt><trkpt lat="42.981844" lon="12.2562552"><ele>210.66666666666669</ele><time>2026-04-19T07:40:05.834Z</time></trkpt><trkpt lat="42.981768" lon="12.2561773"><ele>212.0</ele><time>2026-04-19T07:40:07.82Z</time></trkpt><trkpt lat="42.981697" lon="12.2560824"><ele>211.2</ele><time>2026-04-19T07:40:09.825Z</time></trkpt><trkpt lat="42.9816238" lon="12.2559978"><ele>210.39999999999998</ele><time>2026-04-19T07:40:11.82Z</time></trkpt><trkpt lat="42.9815339" lon="12.2559399"><ele>209.60000000000002</ele><time>2026-04-19T07:40:13.823Z</time></trkpt><trkpt lat="42.9814405" lon="12.2559283"><ele>208.8</ele><time>2026-04-19T07:40:15.818Z</time></trkpt><trkpt lat="42.9813553" lon="12.2559644"><ele>208.0</ele><time>2026-04-19T07:40:17.814Z</time></trkpt><trkpt lat="42.9812616" lon="12.2560162"><ele>208.0</ele><time>2026-04-19T07:40:19.82Z</time></trkpt><trkpt lat="42.9811616" lon="12.2560237"><ele>208.0</ele><time>2026-04-19T07:40:21.815Z</time></trkpt><trkpt lat="42.9810538" lon="12.2560576"><ele>208.0</ele><time>2026-04-19T07:40:23.815Z</time></trkpt><trkpt lat="42.9809476" lon="12.2560692"><ele>208.0</ele><time>2026-04-19T07:40:25.818Z</time></trkpt><trkpt lat="42.9808442" lon="12.2560638"><ele>208.0</ele><time>2026-04-19T07:40:27.806Z</time></trkpt><trkpt lat="42.9807473" lon="12.2560048"><ele>207.4</ele><time>2026-04-19T07:40:29.811Z</time></trkpt><trkpt lat="42.9806518" lon="12.2559468"><ele>206.8</ele><time>2026-04-19T07:40:31.81Z</time></trkpt><trkpt lat="42.9805603" lon="12.2558949"><ele>206.2</ele><time>2026-04-19T07:40:33.814Z</time></trkpt><trkpt lat="42.9804729" lon="12.2558579"><ele>205.6</ele><time>2026-04-19T07:40:35.811Z</time></trkpt><trkpt lat="42.9803746" lon="12.2557996"><ele>205.0</ele><time>2026-04-19T07:40:37.826Z</time></trkpt><trkpt lat="42.9802706" lon="12.2557511"><ele>204.99999999999997</ele><time>2026-04-19T07:40:39.808Z</time></trkpt><trkpt lat="42.9802011" lon="12.255755"><ele>205.0</ele><time>2026-04-19T07:40:40.809Z</time></trkpt><trkpt lat="42.9800928" lon="12.2557755"><ele>205.0</ele><time>2026-04-19T07:40:42.806Z</time></trkpt><trkpt lat="42.9799778" lon="12.2558269"><ele>205.0</ele><time>2026-04-19T07:40:44.811Z</time></trkpt><trkpt lat="42.979912" lon="12.2558475"><ele>204.99999999999997</ele><time>2026-04-19T07:40:45.807Z</time></trkpt><trkpt lat="42.9798436" lon="12.2558766"><ele>205.0</ele><time>2026-04-19T07:40:46.808Z</time></trkpt><trkpt lat="42.9797725" lon="12.2558978"><ele>205.0</ele><time>2026-04-19T07:40:47.816Z</time></trkpt><trkpt lat="42.9796596" lon="12.2559503"><ele>205.0</ele><time>2026-04-19T07:40:49.809Z</time></trkpt><trkpt lat="42.9795997" lon="12.2559828"><ele>205.0</ele><time>2026-04-19T07:40:50.809Z</time></trkpt><trkpt lat="42.9794928" lon="12.2560323"><ele>205.0</ele><time>2026-04-19T07:40:52.812Z</time></trkpt><trkpt lat="42.9793884" lon="12.2560767"><ele>205.0</ele><time>2026-04-19T07:40:54.81Z</time></trkpt><trkpt lat="42.9792394" lon="12.2561681"><ele>205.2</ele><time>2026-04-19T07:40:57.812Z</time></trkpt><trkpt lat="42.9791426" lon="12.2562323"><ele>205.4</ele><time>2026-04-19T07:40:59.818Z</time></trkpt><trkpt lat="42.9790524" lon="12.2562932"><ele>205.60000000000002</ele><time>2026-04-19T07:41:01.808Z</time></trkpt><trkpt lat="42.9789924" lon="12.256321"><ele>205.8</ele><time>2026-04-19T07:41:02.814Z</time></trkpt><trkpt lat="42.9788956" lon="12.2563778"><ele>206.0</ele><time>2026-04-19T07:41:04.818Z</time></trkpt><trkpt lat="42.9787894" lon="12.2564248"><ele>205.60000000000002</ele><time>2026-04-19T07:41:06.815Z</time></trkpt><trkpt lat="42.9786941" lon="12.256461"><ele>205.2</ele><time>2026-04-19T07:41:08.813Z</time></trkpt><trkpt lat="42.9786031" lon="12.2565132"><ele>204.8</ele><time>2026-04-19T07:41:10.806Z</time></trkpt><trkpt lat="42.9784984" lon="12.2565473"><ele>204.39999999999998</ele><time>2026-04-19T07:41:12.814Z</time></trkpt><trkpt lat="42.978388" lon="12.2565991"><ele>204.0</ele><time>2026-04-19T07:41:14.814Z</time></trkpt><trkpt lat="42.9782845" lon="12.2566475"><ele>204.0</ele><time>2026-04-19T07:41:16.821Z</time></trkpt><trkpt lat="42.9781751" lon="12.25669"><ele>204.0</ele><time>2026-04-19T07:41:18.809Z</time></trkpt><trkpt lat="42.9780729" lon="12.2567443"><ele>204.0</ele><time>2026-04-19T07:41:20.834Z</time></trkpt><trkpt lat="42.9779665" lon="12.2568198"><ele>204.0</ele><time>2026-04-19T07:41:22.815Z</time></trkpt><trkpt lat="42.9778614" lon="12.2568799"><ele>204.0</ele><time>2026-04-19T07:41:24.814Z</time></trkpt><trkpt lat="42.9777464" lon="12.2569179"><ele>204.0</ele><time>2026-04-19T07:41:26.817Z</time></trkpt><trkpt lat="42.9776279" lon="12.2569617"><ele>204.0</ele><time>2026-04-19T07:41:28.826Z</time></trkpt><trkpt lat="42.9775194" lon="12.2570356"><ele>204.0</ele><time>2026-04-19T07:41:30.831Z</time></trkpt><trkpt lat="42.9774582" lon="12.2570578"><ele>204.0</ele><time>2026-04-19T07:41:31.837Z</time></trkpt><trkpt lat="42.9773554" lon="12.257148"><ele>204.0</ele><time>2026-04-19T07:41:33.822Z</time></trkpt><trkpt lat="42.9772616" lon="12.2572195"><ele>204.0</ele><time>2026-04-19T07:41:35.817Z</time></trkpt><trkpt lat="42.9771594" lon="12.2572753"><ele>204.0</ele><time>2026-04-19T07:41:37.805Z</time></trkpt><trkpt lat="42.977056" lon="12.2573219"><ele>204.0</ele><time>2026-04-19T07:41:39.82Z</time></trkpt><trkpt lat="42.9769557" lon="12.257391"><ele>204.0</ele><time>2026-04-19T07:41:41.826Z</time></trkpt><trkpt lat="42.976861" lon="12.2574555"><ele>204.0</ele><time>2026-04-19T07:41:43.81Z</time></trkpt><trkpt lat="42.976757" lon="12.2575288"><ele>204.0</ele><time>2026-04-19T07:41:45.816Z</time></trkpt><trkpt lat="42.9766567" lon="12.2576297"><ele>204.0</ele><time>2026-04-19T07:41:47.827Z</time></trkpt><trkpt lat="42.9765926" lon="12.2576469"><ele>204.0</ele><time>2026-04-19T07:41:48.831Z</time></trkpt><trkpt lat="42.9764866" lon="12.2577124"><ele>204.0</ele><time>2026-04-19T07:41:50.826Z</time></trkpt><trkpt lat="42.9763855" lon="12.2577768"><ele>203.79999999999998</ele><time>2026-04-19T07:41:52.82Z</time></trkpt><trkpt lat="42.9762959" lon="12.2578405"><ele>203.6</ele><time>2026-04-19T07:41:54.828Z</time></trkpt><trkpt lat="42.9762024" lon="12.2579109"><ele>203.4</ele><time>2026-04-19T07:41:56.812Z</time></trkpt><trkpt lat="42.9761014" lon="12.2579963"><ele>203.2</ele><time>2026-04-19T07:41:58.816Z</time></trkpt><trkpt lat="42.9760098" lon="12.258063"><ele>203.0</ele><time>2026-04-19T07:42:00.81Z</time></trkpt><trkpt lat="42.9759178" lon="12.2581288"><ele>203.2</ele><time>2026-04-19T07:42:02.824Z</time></trkpt><trkpt lat="42.9758249" lon="12.2581886"><ele>203.4</ele><time>2026-04-19T07:42:04.849Z</time></trkpt><trkpt lat="42.9757184" lon="12.2582319"><ele>203.6</ele><time>2026-04-19T07:42:06.82Z</time></trkpt><trkpt lat="42.9756044" lon="12.2582664"><ele>203.79999999999998</ele><time>2026-04-19T07:42:08.822Z</time></trkpt><trkpt lat="42.9755419" lon="12.2582784"><ele>204.0</ele><time>2026-04-19T07:42:09.824Z</time></trkpt><trkpt lat="42.9754359" lon="12.2582724"><ele>204.0</ele><time>2026-04-19T07:42:11.828Z</time></trkpt><trkpt lat="42.975335" lon="12.258244"><ele>204.0</ele><time>2026-04-19T07:42:13.818Z</time></trkpt><trkpt lat="42.9752383" lon="12.2582125"><ele>204.0</ele><time>2026-04-19T07:42:15.824Z</time></trkpt><trkpt lat="42.9751553" lon="12.2581822"><ele>204.0</ele><time>2026-04-19T07:42:17.825Z</time></trkpt><trkpt lat="42.975069" lon="12.2581636"><ele>204.0</ele><time>2026-04-19T07:42:19.819Z</time></trkpt><trkpt lat="42.9749879" lon="12.2581318"><ele>206.2</ele><time>2026-04-19T07:42:21.823Z</time></trkpt><trkpt lat="42.9749037" lon="12.2580895"><ele>208.39999999999998</ele><time>2026-04-19T07:42:23.826Z</time></trkpt><trkpt lat="42.9748123" lon="12.2580377"><ele>210.6</ele><time>2026-04-19T07:42:25.81Z</time></trkpt><trkpt lat="42.9747246" lon="12.2579859"><ele>212.8</ele><time>2026-04-19T07:42:27.829Z</time></trkpt><trkpt lat="42.9745887" lon="12.2578602"><ele>215.0</ele><time>2026-04-19T07:42:30.809Z</time></trkpt><trkpt lat="42.9745106" lon="12.2577718"><ele>215.0</ele><time>2026-04-19T07:42:32.824Z</time></trkpt><trkpt lat="42.9744292" lon="12.2576815"><ele>215.0</ele><time>2026-04-19T07:42:34.818Z</time></trkpt><trkpt lat="42.9743596" lon="12.2575904"><ele>215.0</ele><time>2026-04-19T07:42:36.813Z</time></trkpt><trkpt lat="42.9743138" lon="12.2575022"><ele>215.0</ele><time>2026-04-19T07:42:38.82Z</time></trkpt><trkpt lat="42.9742237" lon="12.257408"><ele>215.0</ele><time>2026-04-19T07:42:40.923Z</time></trkpt><trkpt lat="42.9741545" lon="12.2573232"><ele>215.4</ele><time>2026-04-19T07:42:42.819Z</time></trkpt><trkpt lat="42.9740848" lon="12.2572317"><ele>215.8</ele><time>2026-04-19T07:42:44.83Z</time></trkpt><trkpt lat="42.9740052" lon="12.2571501"><ele>216.2</ele><time>2026-04-19T07:42:46.811Z</time></trkpt><trkpt lat="42.9739069" lon="12.2571176"><ele>216.6</ele><time>2026-04-19T07:42:48.829Z</time></trkpt><trkpt lat="42.9738031" lon="12.2571366"><ele>217.0</ele><time>2026-04-19T07:42:50.822Z</time></trkpt><trkpt lat="42.9737118" lon="12.257166"><ele>217.0</ele><time>2026-04-19T07:42:52.92Z</time></trkpt><trkpt lat="42.9736178" lon="12.2572127"><ele>217.0</ele><time>2026-04-19T07:42:54.811Z</time></trkpt><trkpt lat="42.9735343" lon="12.2572551"><ele>217.0</ele><time>2026-04-19T07:42:56.808Z</time></trkpt><trkpt lat="42.9734509" lon="12.2573305"><ele>217.0</ele><time>2026-04-19T07:42:58.902Z</time></trkpt><trkpt lat="42.9733608" lon="12.2574165"><ele>217.0</ele><time>2026-04-19T07:43:00.823Z</time></trkpt><trkpt lat="42.973278" lon="12.2574686"><ele>215.6</ele><time>2026-04-19T07:43:02.813Z</time></trkpt><trkpt lat="42.9732002" lon="12.25755"><ele>214.2</ele><time>2026-04-19T07:43:04.816Z</time></trkpt><trkpt lat="42.9731334" lon="12.2576258"><ele>212.8</ele><time>2026-04-19T07:43:06.823Z</time></trkpt><trkpt lat="42.9730563" lon="12.2577205"><ele>211.4</ele><time>2026-04-19T07:43:08.814Z</time></trkpt><trkpt lat="42.9729659" lon="12.25779"><ele>210.0</ele><time>2026-04-19T07:43:10.831Z</time></trkpt><trkpt lat="42.9728892" lon="12.2578562"><ele>210.0</ele><time>2026-04-19T07:43:12.804Z</time></trkpt><trkpt lat="42.9728349" lon="12.2579129"><ele>210.0</ele><time>2026-04-19T07:43:14.813Z</time></trkpt><trkpt lat="42.972768" lon="12.2579971"><ele>210.0</ele><time>2026-04-19T07:43:16.819Z</time></trkpt><trkpt lat="42.9726975" lon="12.2580627"><ele>210.0</ele><time>2026-04-19T07:43:18.813Z</time></trkpt><trkpt lat="42.9726291" lon="12.2581319"><ele>210.0</ele><time>2026-04-19T07:43:20.816Z</time></trkpt><trkpt lat="42.9725566" lon="12.2582165"><ele>210.0</ele><time>2026-04-19T07:43:22.816Z</time></trkpt><trkpt lat="42.9724866" lon="12.2582864"><ele>210.33333333333334</ele><time>2026-04-19T07:43:24.821Z</time></trkpt><trkpt lat="42.9724197" lon="12.2583323"><ele>210.66666666666669</ele><time>2026-04-19T07:43:26.819Z</time></trkpt><trkpt lat="42.9723421" lon="12.2582911"><ele>211.0</ele><time>2026-04-19T07:43:29.817Z</time></trkpt><trkpt lat="42.9722756" lon="12.2582132"><ele>211.33333333333334</ele><time>2026-04-19T07:43:32.823Z</time></trkpt><trkpt lat="42.9722147" lon="12.2581243"><ele>211.66666666666669</ele><time>2026-04-19T07:43:35.823Z</time></trkpt><trkpt lat="42.9721562" lon="12.2580421"><ele>212.0</ele><time>2026-04-19T07:43:38.815Z</time></trkpt><trkpt lat="42.9721013" lon="12.2579679"><ele>212.50000000000003</ele><time>2026-04-19T07:43:41.823Z</time></trkpt><trkpt lat="42.9720444" lon="12.2578864"><ele>213.0</ele><time>2026-04-19T07:43:44.823Z</time></trkpt><trkpt lat="42.9719919" lon="12.2577955"><ele>213.5</ele><time>2026-04-19T07:43:47.822Z</time></trkpt><trkpt lat="42.9719333" lon="12.2577054"><ele>214.0</ele><time>2026-04-19T07:43:50.825Z</time></trkpt><trkpt lat="42.9718659" lon="12.2576223"><ele>214.50000000000003</ele><time>2026-04-19T07:43:53.823Z</time></trkpt><trkpt lat="42.9717984" lon="12.2575439"><ele>215.0</ele><time>2026-04-19T07:43:56.818Z</time></trkpt><trkpt lat="42.9717337" lon="12.2574634"><ele>215.83333333333334</ele><time>2026-04-19T07:43:59.821Z</time></trkpt><trkpt lat="42.9716808" lon="12.2573903"><ele>216.66666666666669</ele><time>2026-04-19T07:44:02.829Z</time></trkpt><trkpt lat="42.971612" lon="12.2573423"><ele>217.5</ele><time>2026-04-19T07:44:05.824Z</time></trkpt><trkpt lat="42.9715334" lon="12.2573185"><ele>218.33333333333331</ele><time>2026-04-19T07:44:08.831Z</time></trkpt><trkpt lat="42.9714399" lon="12.2573062"><ele>219.16666666666666</ele><time>2026-04-19T07:44:11.831Z</time></trkpt><trkpt lat="42.9713723" lon="12.2573019"><ele>220.0</ele><time>2026-04-19T07:44:13.832Z</time></trkpt><trkpt lat="42.9713078" lon="12.2572945"><ele>220.83333333333331</ele><time>2026-04-19T07:44:15.84Z</time></trkpt><trkpt lat="42.9712428" lon="12.2572818"><ele>221.66666666666666</ele><time>2026-04-19T07:44:17.822Z</time></trkpt><trkpt lat="42.9711796" lon="12.2572612"><ele>222.5</ele><time>2026-04-19T07:44:19.832Z</time></trkpt><trkpt lat="42.971113" lon="12.2572377"><ele>223.33333333333331</ele><time>2026-04-19T07:44:21.834Z</time></trkpt><trkpt lat="42.971039" lon="12.2572034"><ele>224.16666666666666</ele><time>2026-04-19T07:44:23.832Z</time></trkpt><trkpt lat="42.970965" lon="12.2571572"><ele>225.0</ele><time>2026-04-19T07:44:25.813Z</time></trkpt><trkpt lat="42.9708968" lon="12.2570708"><ele>224.8</ele><time>2026-04-19T07:44:27.83Z</time></trkpt><trkpt lat="42.970821" lon="12.2569956"><ele>224.6</ele><time>2026-04-19T07:44:29.832Z</time></trkpt><trkpt lat="42.9707405" lon="12.2569055"><ele>224.39999999999998</ele><time>2026-04-19T07:44:31.824Z</time></trkpt><trkpt lat="42.9706506" lon="12.2568127"><ele>224.2</ele><time>2026-04-19T07:44:33.823Z</time></trkpt><trkpt lat="42.9705669" lon="12.2567035"><ele>224.0</ele><time>2026-04-19T07:44:35.828Z</time></trkpt><trkpt lat="42.9704877" lon="12.2566077"><ele>224.0</ele><time>2026-04-19T07:44:37.827Z</time></trkpt><trkpt lat="42.9704125" lon="12.2565149"><ele>223.99999999999997</ele><time>2026-04-19T07:44:39.831Z</time></trkpt><trkpt lat="42.9703324" lon="12.2564277"><ele>223.99999999999997</ele><time>2026-04-19T07:44:41.821Z</time></trkpt><trkpt lat="42.9702477" lon="12.2563371"><ele>224.0</ele><time>2026-04-19T07:44:43.822Z</time></trkpt><trkpt lat="42.9701721" lon="12.2562343"><ele>224.0</ele><time>2026-04-19T07:44:45.815Z</time></trkpt><trkpt lat="42.9700734" lon="12.2561437"><ele>224.14285714285714</ele><time>2026-04-19T07:44:47.824Z</time></trkpt><trkpt lat="42.9700096" lon="12.2560923"><ele>224.28571428571428</ele><time>2026-04-19T07:44:48.82Z</time></trkpt><trkpt lat="42.969961" lon="12.2560269"><ele>224.42857142857144</ele><time>2026-04-19T07:44:49.821Z</time></trkpt><trkpt lat="42.9699101" lon="12.2559747"><ele>224.57142857142858</ele><time>2026-04-19T07:44:50.819Z</time></trkpt><trkpt lat="42.9698609" lon="12.2559133"><ele>224.71428571428572</ele><time>2026-04-19T07:44:51.832Z</time></trkpt><trkpt lat="42.9698177" lon="12.2558405"><ele>224.8571428571429</ele><time>2026-04-19T07:44:52.81Z</time></trkpt><trkpt lat="42.9697743" lon="12.2557711"><ele>225.00000000000003</ele><time>2026-04-19T07:44:53.824Z</time></trkpt><trkpt lat="42.9697322" lon="12.2557045"><ele>228.0</ele><time>2026-04-19T07:44:54.822Z</time></trkpt><trkpt lat="42.9696637" lon="12.2555637"><ele>231.0</ele><time>2026-04-19T07:44:56.821Z</time></trkpt><trkpt lat="42.9696105" lon="12.2554319"><ele>234.0</ele><time>2026-04-19T07:44:58.82Z</time></trkpt><trkpt lat="42.9695547" lon="12.2553242"><ele>237.0</ele><time>2026-04-19T07:45:00.82Z</time></trkpt><trkpt lat="42.9694859" lon="12.2551664"><ele>237.0</ele><time>2026-04-19T07:45:03.825Z</time></trkpt><trkpt lat="42.9694448" lon="12.2550739"><ele>237.0</ele><time>2026-04-19T07:45:05.837Z</time></trkpt><trkpt lat="42.9693616" lon="12.2550009"><ele>237.0</ele><time>2026-04-19T07:45:07.823Z</time></trkpt><trkpt lat="42.9693017" lon="12.2549313"><ele>237.0</ele><time>2026-04-19T07:45:09.817Z</time></trkpt><trkpt lat="42.9692005" lon="12.254882"><ele>237.0</ele><time>2026-04-19T07:45:11.821Z</time></trkpt><trkpt lat="42.969136" lon="12.2548782"><ele>237.0</ele><time>2026-04-19T07:45:12.813Z</time></trkpt><trkpt lat="42.969072" lon="12.2548838"><ele>234.0</ele><time>2026-04-19T07:45:13.817Z</time></trkpt><trkpt lat="42.9689634" lon="12.2548839"><ele>231.0</ele><time>2026-04-19T07:45:15.827Z</time></trkpt><trkpt lat="42.9688735" lon="12.2548587"><ele>228.0</ele><time>2026-04-19T07:45:17.819Z</time></trkpt><trkpt lat="42.9687808" lon="12.254837"><ele>225.0</ele><time>2026-04-19T07:45:19.817Z</time></trkpt><trkpt lat="42.9686753" lon="12.2548447"><ele>222.0</ele><time>2026-04-19T07:45:21.817Z</time></trkpt><trkpt lat="42.9686042" lon="12.254854"><ele>222.0</ele><time>2026-04-19T07:45:23.808Z</time></trkpt><trkpt lat="42.9685074" lon="12.2548518"><ele>222.0</ele><time>2026-04-19T07:45:25.918Z</time></trkpt><trkpt lat="42.9683974" lon="12.2548499"><ele>222.0</ele><time>2026-04-19T07:45:27.823Z</time></trkpt><trkpt lat="42.9682881" lon="12.2548218"><ele>222.0</ele><time>2026-04-19T07:45:29.821Z</time></trkpt><trkpt lat="42.968207" lon="12.2548086"><ele>222.0</ele><time>2026-04-19T07:45:31.82Z</time></trkpt><trkpt lat="42.9681137" lon="12.2547736"><ele>222.5</ele><time>2026-04-19T07:45:33.82Z</time></trkpt><trkpt lat="42.9680272" lon="12.2547419"><ele>223.0</ele><time>2026-04-19T07:45:35.821Z</time></trkpt><trkpt lat="42.9679457" lon="12.2546627"><ele>223.5</ele><time>2026-04-19T07:45:37.815Z</time></trkpt><trkpt lat="42.9678765" lon="12.2545851"><ele>224.0</ele><time>2026-04-19T07:45:39.827Z</time></trkpt><trkpt lat="42.9678233" lon="12.2545095"><ele>224.5</ele><time>2026-04-19T07:45:41.819Z</time></trkpt><trkpt lat="42.9677934" lon="12.2544129"><ele>225.0</ele><time>2026-04-19T07:45:43.935Z</time></trkpt><trkpt lat="42.967782" lon="12.2543128"><ele>225.0</ele><time>2026-04-19T07:45:46.821Z</time></trkpt><trkpt lat="42.9677826" lon="12.2542174"><ele>225.0</ele><time>2026-04-19T07:45:49.827Z</time></trkpt><trkpt lat="42.9677369" lon="12.2541182"><ele>225.0</ele><time>2026-04-19T07:45:52.826Z</time></trkpt><trkpt lat="42.9676799" lon="12.2540101"><ele>225.0</ele><time>2026-04-19T07:45:55.933Z</time></trkpt><trkpt lat="42.9676371" lon="12.2539331"><ele>225.0</ele><time>2026-04-19T07:45:57.82Z</time></trkpt><trkpt lat="42.9675875" lon="12.2538372"><ele>225.0</ele><time>2026-04-19T07:46:00.829Z</time></trkpt><trkpt lat="42.9675459" lon="12.2537721"><ele>226.16666666666666</ele><time>2026-04-19T07:46:02.812Z</time></trkpt><trkpt lat="42.9674864" lon="12.2536752"><ele>227.33333333333331</ele><time>2026-04-19T07:46:05.832Z</time></trkpt><trkpt lat="42.9674388" lon="12.2536173"><ele>228.5</ele><time>2026-04-19T07:46:07.828Z</time></trkpt><trkpt lat="42.9673928" lon="12.2535562"><ele>229.66666666666666</ele><time>2026-04-19T07:46:09.834Z</time></trkpt><trkpt lat="42.9673283" lon="12.2534734"><ele>230.83333333333331</ele><time>2026-04-19T07:46:12.812Z</time></trkpt><trkpt lat="42.9672598" lon="12.2534245"><ele>232.0</ele><time>2026-04-19T07:46:15.826Z</time></trkpt><trkpt lat="42.9671862" lon="12.2534634"><ele>231.99999999999997</ele><time>2026-04-19T07:46:19.83Z</time></trkpt><trkpt lat="42.9671697" lon="12.2535558"><ele>232.0</ele><time>2026-04-19T07:46:22.835Z</time></trkpt><trkpt lat="42.9671649" lon="12.2536648"><ele>232.0</ele><time>2026-04-19T07:46:25.833Z</time></trkpt><trkpt lat="42.9671684" lon="12.2537777"><ele>232.0</ele><time>2026-04-19T07:46:28.826Z</time></trkpt><trkpt lat="42.9671615" lon="12.2538801"><ele>231.99999999999997</ele><time>2026-04-19T07:46:31.83Z</time></trkpt><trkpt lat="42.9671528" lon="12.2539885"><ele>232.0</ele><time>2026-04-19T07:46:34.825Z</time></trkpt><trkpt lat="42.9671449" lon="12.2540963"><ele>232.0</ele><time>2026-04-19T07:46:37.826Z</time></trkpt><trkpt lat="42.9671134" lon="12.2542157"><ele>232.0</ele><time>2026-04-19T07:46:40.833Z</time></trkpt><trkpt lat="42.9670656" lon="12.2543256"><ele>232.0</ele><time>2026-04-19T07:46:43.827Z</time></trkpt><trkpt lat="42.9669962" lon="12.2544066"><ele>232.0</ele><time>2026-04-19T07:46:46.834Z</time></trkpt><trkpt lat="42.9669169" lon="12.2544745"><ele>232.0</ele><time>2026-04-19T07:46:49.818Z</time></trkpt><trkpt lat="42.9668522" lon="12.2545383"><ele>231.99999999999997</ele><time>2026-04-19T07:46:51.826Z</time></trkpt><trkpt lat="42.9667884" lon="12.2546097"><ele>232.0</ele><time>2026-04-19T07:46:53.827Z</time></trkpt><trkpt lat="42.966728" lon="12.2546713"><ele>232.0</ele><time>2026-04-19T07:46:55.831Z</time></trkpt><trkpt lat="42.9666593" lon="12.2547118"><ele>232.0</ele><time>2026-04-19T07:46:57.833Z</time></trkpt><trkpt lat="42.9666045" lon="12.2547568"><ele>231.99999999999997</ele><time>2026-04-19T07:46:59.831Z</time></trkpt><trkpt lat="42.9665682" lon="12.2548419"><ele>232.0</ele><time>2026-04-19T07:47:02.828Z</time></trkpt><trkpt lat="42.9664831" lon="12.2549906"><ele>232.49999999999997</ele><time>2026-04-19T07:47:04.832Z</time></trkpt><trkpt lat="42.9665201" lon="12.2550757"><ele>233.0</ele><time>2026-04-19T07:47:06.931Z</time></trkpt><trkpt lat="42.9665917" lon="12.2551519"><ele>233.5</ele><time>2026-04-19T07:47:08.836Z</time></trkpt><trkpt lat="42.966648" lon="12.2551912"><ele>234.0</ele><time>2026-04-19T07:47:10.833Z</time></trkpt><trkpt lat="42.9667127" lon="12.2552279"><ele>234.49999999999997</ele><time>2026-04-19T07:47:12.81Z</time></trkpt><trkpt lat="42.9668" lon="12.2552658"><ele>235.0</ele><time>2026-04-19T07:47:15.83Z</time></trkpt><trkpt lat="42.9668627" lon="12.2553054"><ele>234.99999999999997</ele><time>2026-04-19T07:47:17.807Z</time></trkpt><trkpt lat="42.9669169" lon="12.2553595"><ele>235.0</ele><time>2026-04-19T07:47:19.828Z</time></trkpt><trkpt lat="42.9669788" lon="12.2554489"><ele>235.0</ele><time>2026-04-19T07:47:22.826Z</time></trkpt><trkpt lat="42.9670395" lon="12.2555376"><ele>235.0</ele><time>2026-04-19T07:47:25.836Z</time></trkpt><trkpt lat="42.967091" lon="12.2556451"><ele>234.99999999999997</ele><time>2026-04-19T07:47:28.831Z</time></trkpt><trkpt lat="42.9671187" lon="12.2557239"><ele>235.0</ele><time>2026-04-19T07:47:30.816Z</time></trkpt><trkpt lat="42.9671366" lon="12.2558423"><ele>236.66666666666666</ele><time>2026-04-19T07:47:33.829Z</time></trkpt><trkpt lat="42.9671297" lon="12.2559511"><ele>238.33333333333331</ele><time>2026-04-19T07:47:36.827Z</time></trkpt><trkpt lat="42.9671285" lon="12.256065"><ele>240.0</ele><time>2026-04-19T07:47:39.823Z</time></trkpt><trkpt lat="42.967149" lon="12.2561817"><ele>241.66666666666669</ele><time>2026-04-19T07:47:42.827Z</time></trkpt><trkpt lat="42.9671727" lon="12.2562653"><ele>243.33333333333334</ele><time>2026-04-19T07:47:44.838Z</time></trkpt><trkpt lat="42.96722" lon="12.2563749"><ele>245.0</ele><time>2026-04-19T07:47:47.828Z</time></trkpt><trkpt lat="42.9672489" lon="12.2564562"><ele>246.28571428571428</ele><time>2026-04-19T07:47:49.829Z</time></trkpt><trkpt lat="42.967299" lon="12.2565488"><ele>247.57142857142856</ele><time>2026-04-19T07:47:51.831Z</time></trkpt><trkpt lat="42.9673281" lon="12.2566377"><ele>248.85714285714286</ele><time>2026-04-19T07:47:53.924Z</time></trkpt><trkpt lat="42.9673348" lon="12.2567317"><ele>250.14285714285714</ele><time>2026-04-19T07:47:55.835Z</time></trkpt><trkpt lat="42.9673408" lon="12.2568246"><ele>251.42857142857142</ele><time>2026-04-19T07:47:57.826Z</time></trkpt><trkpt lat="42.9673437" lon="12.2569146"><ele>252.71428571428572</ele><time>2026-04-19T07:47:59.824Z</time></trkpt><trkpt lat="42.9673632" lon="12.2570016"><ele>254.0</ele><time>2026-04-19T07:48:01.831Z</time></trkpt><trkpt lat="42.9674054" lon="12.2570826"><ele>254.00000000000003</ele><time>2026-04-19T07:48:03.826Z</time></trkpt><trkpt lat="42.9674682" lon="12.2571585"><ele>254.0</ele><time>2026-04-19T07:48:05.827Z</time></trkpt><trkpt lat="42.9675183" lon="12.2572408"><ele>254.0</ele><time>2026-04-19T07:48:07.823Z</time></trkpt><trkpt lat="42.9675508" lon="12.2573391"><ele>254.0</ele><time>2026-04-19T07:48:09.825Z</time></trkpt><trkpt lat="42.9675663" lon="12.2574445"><ele>254.00000000000003</ele><time>2026-04-19T07:48:11.823Z</time></trkpt><trkpt lat="42.9675801" lon="12.2575498"><ele>254.0</ele><time>2026-04-19T07:48:13.825Z</time></trkpt><trkpt lat="42.9675962" lon="12.2576737"><ele>251.16666666666669</ele><time>2026-04-19T07:48:15.825Z</time></trkpt><trkpt lat="42.9676123" lon="12.25778"><ele>248.33333333333334</ele><time>2026-04-19T07:48:17.824Z</time></trkpt><trkpt lat="42.9676352" lon="12.2578833"><ele>245.5</ele><time>2026-04-19T07:48:19.829Z</time></trkpt><trkpt lat="42.9676686" lon="12.257984"><ele>242.66666666666669</ele><time>2026-04-19T07:48:21.828Z</time></trkpt><trkpt lat="42.9676859" lon="12.2580951"><ele>239.83333333333334</ele><time>2026-04-19T07:48:23.827Z</time></trkpt><trkpt lat="42.9676662" lon="12.2582139"><ele>237.0</ele><time>2026-04-19T07:48:25.82Z</time></trkpt><trkpt lat="42.967634" lon="12.2583353"><ele>237.0</ele><time>2026-04-19T07:48:27.826Z</time></trkpt><trkpt lat="42.9676108" lon="12.2584474"><ele>237.0</ele><time>2026-04-19T07:48:29.812Z</time></trkpt><trkpt lat="42.9675855" lon="12.2585598"><ele>237.0</ele><time>2026-04-19T07:48:31.827Z</time></trkpt><trkpt lat="42.9675405" lon="12.2586469"><ele>237.0</ele><time>2026-04-19T07:48:33.829Z</time></trkpt><trkpt lat="42.9674996" lon="12.2587228"><ele>237.0</ele><time>2026-04-19T07:48:35.823Z</time></trkpt><trkpt lat="42.9674985" lon="12.2588115"><ele>237.0</ele><time>2026-04-19T07:48:37.826Z</time></trkpt><trkpt lat="42.9674778" lon="12.2589259"><ele>240.71428571428567</ele><time>2026-04-19T07:48:39.823Z</time></trkpt><trkpt lat="42.96747" lon="12.2590202"><ele>244.42857142857142</ele><time>2026-04-19T07:48:41.824Z</time></trkpt><trkpt lat="42.9674691" lon="12.2591097"><ele>248.1428571428571</ele><time>2026-04-19T07:48:43.826Z</time></trkpt><trkpt lat="42.9674642" lon="12.2591958"><ele>251.85714285714283</ele><time>2026-04-19T07:48:45.824Z</time></trkpt><trkpt lat="42.9674614" lon="12.2592848"><ele>255.57142857142856</ele><time>2026-04-19T07:48:47.821Z</time></trkpt><trkpt lat="42.9674535" lon="12.259409"><ele>259.2857142857143</ele><time>2026-04-19T07:48:50.831Z</time></trkpt><trkpt lat="42.9674392" lon="12.2594965"><ele>263.0</ele><time>2026-04-19T07:48:52.826Z</time></trkpt><trkpt lat="42.9674205" lon="12.2595811"><ele>263.0</ele><time>2026-04-19T07:48:54.813Z</time></trkpt><trkpt lat="42.9673822" lon="12.2596576"><ele>263.0</ele><time>2026-04-19T07:48:56.825Z</time></trkpt><trkpt lat="42.9673299" lon="12.2597612"><ele>263.0</ele><time>2026-04-19T07:48:59.906Z</time></trkpt><trkpt lat="42.9672954" lon="12.2598728"><ele>263.0</ele><time>2026-04-19T07:49:02.833Z</time></trkpt><trkpt lat="42.9672491" lon="12.2599544"><ele>263.0</ele><time>2026-04-19T07:49:05.832Z</time></trkpt><trkpt lat="42.9672975" lon="12.2600419"><ele>263.0</ele><time>2026-04-19T07:49:07.829Z</time></trkpt><trkpt lat="42.9673127" lon="12.2601565"><ele>263.4</ele><time>2026-04-19T07:49:10.917Z</time></trkpt><trkpt lat="42.9673192" lon="12.2602838"><ele>263.8</ele><time>2026-04-19T07:49:13.827Z</time></trkpt><trkpt lat="42.9673349" lon="12.2604116"><ele>264.2</ele><time>2026-04-19T07:49:16.894Z</time></trkpt><trkpt lat="42.9673546" lon="12.260529"><ele>264.6</ele><time>2026-04-19T07:49:19.81Z</time></trkpt><trkpt lat="42.9673706" lon="12.2606549"><ele>265.0</ele><time>2026-04-19T07:49:22.909Z</time></trkpt><trkpt lat="42.9673963" lon="12.2607691"><ele>266.1428571428571</ele><time>2026-04-19T07:49:25.82Z</time></trkpt><trkpt lat="42.9674145" lon="12.2608546"><ele>267.2857142857143</ele><time>2026-04-19T07:49:27.817Z</time></trkpt><trkpt lat="42.9674511" lon="12.2609459"><ele>268.42857142857144</ele><time>2026-04-19T07:49:29.832Z</time></trkpt><trkpt lat="42.9674755" lon="12.2610339"><ele>269.57142857142856</ele><time>2026-04-19T07:49:31.81Z</time></trkpt><trkpt lat="42.9674918" lon="12.2611514"><ele>270.7142857142857</ele><time>2026-04-19T07:49:34.812Z</time></trkpt><trkpt lat="42.967496" lon="12.2612439"><ele>271.85714285714283</ele><time>2026-04-19T07:49:36.813Z</time></trkpt><trkpt lat="42.9675063" lon="12.2613288"><ele>273.0</ele><time>2026-04-19T07:49:38.812Z</time></trkpt><trkpt lat="42.9675281" lon="12.2614273"><ele>273.0</ele><time>2026-04-19T07:49:41.813Z</time></trkpt><trkpt lat="42.9675199" lon="12.2615264"><ele>273.0</ele><time>2026-04-19T07:49:44.819Z</time></trkpt><trkpt lat="42.9674574" lon="12.2615668"><ele>273.0</ele><time>2026-04-19T07:49:47.833Z</time></trkpt><trkpt lat="42.9673824" lon="12.2615471"><ele>273.0</ele><time>2026-04-19T07:49:50.934Z</time></trkpt><trkpt lat="42.9673373" lon="12.2614589"><ele>273.0</ele><time>2026-04-19T07:49:53.833Z</time></trkpt><trkpt lat="42.9672972" lon="12.2613466"><ele>273.0</ele><time>2026-04-19T07:49:56.828Z</time></trkpt><trkpt lat="42.9672641" lon="12.261273"><ele>273.0</ele><time>2026-04-19T07:49:58.826Z</time></trkpt><trkpt lat="42.9672191" lon="12.2612062"><ele>273.0</ele><time>2026-04-19T07:50:00.83Z</time></trkpt><trkpt lat="42.967169" lon="12.2611388"><ele>273.0</ele><time>2026-04-19T07:50:02.824Z</time></trkpt><trkpt lat="42.9671274" lon="12.261073"><ele>273.0</ele><time>2026-04-19T07:50:04.831Z</time></trkpt><trkpt lat="42.9670895" lon="12.2610036"><ele>273.0</ele><time>2026-04-19T07:50:06.833Z</time></trkpt><trkpt lat="42.9670419" lon="12.260941"><ele>273.0</ele><time>2026-04-19T07:50:08.815Z</time></trkpt><trkpt lat="42.9669906" lon="12.2608898"><ele>273.0</ele><time>2026-04-19T07:50:10.814Z</time></trkpt><trkpt lat="42.9669325" lon="12.2608465"><ele>273.0</ele><time>2026-04-19T07:50:12.809Z</time></trkpt><trkpt lat="42.966871" lon="12.2608075"><ele>273.0</ele><time>2026-04-19T07:50:14.813Z</time></trkpt><trkpt lat="42.9668117" lon="12.2607618"><ele>273.0</ele><time>2026-04-19T07:50:16.814Z</time></trkpt><trkpt lat="42.9667524" lon="12.2607226"><ele>273.0</ele><time>2026-04-19T07:50:18.808Z</time></trkpt><trkpt lat="42.966693" lon="12.2606802"><ele>273.0</ele><time>2026-04-19T07:50:20.806Z</time></trkpt><trkpt lat="42.966614" lon="12.2606218"><ele>273.0</ele><time>2026-04-19T07:50:23.805Z</time></trkpt><trkpt lat="42.9665476" lon="12.2605798"><ele>273.0</ele><time>2026-04-19T07:50:25.807Z</time></trkpt><trkpt lat="42.9664848" lon="12.260545"><ele>275.57142857142856</ele><time>2026-04-19T07:50:27.813Z</time></trkpt><trkpt lat="42.9664163" lon="12.2605078"><ele>278.1428571428571</ele><time>2026-04-19T07:50:29.809Z</time></trkpt><trkpt lat="42.9663507" lon="12.2604712"><ele>280.7142857142857</ele><time>2026-04-19T07:50:31.807Z</time></trkpt><trkpt lat="42.9662933" lon="12.2604304"><ele>283.2857142857143</ele><time>2026-04-19T07:50:33.827Z</time></trkpt><trkpt lat="42.9662389" lon="12.2603847"><ele>285.85714285714283</ele><time>2026-04-19T07:50:35.846Z</time></trkpt><trkpt lat="42.9661858" lon="12.2603375"><ele>288.42857142857144</ele><time>2026-04-19T07:50:37.826Z</time></trkpt><trkpt lat="42.9661343" lon="12.2602858"><ele>291.0</ele><time>2026-04-19T07:50:39.828Z</time></trkpt><trkpt lat="42.9660842" lon="12.2602317"><ele>291.0</ele><time>2026-04-19T07:50:41.845Z</time></trkpt><trkpt lat="42.9660379" lon="12.2601702"><ele>291.0</ele><time>2026-04-19T07:50:43.818Z</time></trkpt><trkpt lat="42.9659969" lon="12.2601019"><ele>291.0</ele><time>2026-04-19T07:50:45.815Z</time></trkpt><trkpt lat="42.9659587" lon="12.2600313"><ele>291.0</ele><time>2026-04-19T07:50:47.813Z</time></trkpt><trkpt lat="42.9659181" lon="12.2599622"><ele>291.0</ele><time>2026-04-19T07:50:49.808Z</time></trkpt><trkpt lat="42.9658749" lon="12.2598952"><ele>291.0</ele><time>2026-04-19T07:50:51.829Z</time></trkpt><trkpt lat="42.9658314" lon="12.2598314"><ele>291.0</ele><time>2026-04-19T07:50:53.831Z</time></trkpt><trkpt lat="42.9657931" lon="12.2597617"><ele>293.42857142857144</ele><time>2026-04-19T07:50:55.819Z</time></trkpt><trkpt lat="42.9657312" lon="12.2596649"><ele>295.85714285714283</ele><time>2026-04-19T07:50:58.828Z</time></trkpt><trkpt lat="42.9656822" lon="12.2596078"><ele>298.2857142857143</ele><time>2026-04-19T07:51:00.837Z</time></trkpt><trkpt lat="42.9656346" lon="12.2595477"><ele>300.7142857142857</ele><time>2026-04-19T07:51:02.828Z</time></trkpt><trkpt lat="42.965587" lon="12.2594877"><ele>303.1428571428571</ele><time>2026-04-19T07:51:04.814Z</time></trkpt><trkpt lat="42.9655385" lon="12.2594304"><ele>305.57142857142856</ele><time>2026-04-19T07:51:06.828Z</time></trkpt><trkpt lat="42.9654882" lon="12.2593756"><ele>308.0</ele><time>2026-04-19T07:51:08.831Z</time></trkpt><trkpt lat="42.9654376" lon="12.2593197"><ele>308.0</ele><time>2026-04-19T07:51:10.828Z</time></trkpt><trkpt lat="42.9653856" lon="12.2592664"><ele>308.0</ele><time>2026-04-19T07:51:12.83Z</time></trkpt><trkpt lat="42.9653372" lon="12.2592109"><ele>308.0</ele><time>2026-04-19T07:51:14.829Z</time></trkpt><trkpt lat="42.9652877" lon="12.2591553"><ele>308.0</ele><time>2026-04-19T07:51:16.811Z</time></trkpt><trkpt lat="42.965219" lon="12.2590679"><ele>308.0</ele><time>2026-04-19T07:51:19.825Z</time></trkpt><trkpt lat="42.9651684" lon="12.2590107"><ele>308.0</ele><time>2026-04-19T07:51:21.826Z</time></trkpt><trkpt lat="42.965118" lon="12.2589554"><ele>308.0</ele><time>2026-04-19T07:51:23.828Z</time></trkpt><trkpt lat="42.9650657" lon="12.2589024"><ele>309.14285714285717</ele><time>2026-04-19T07:51:25.825Z</time></trkpt><trkpt lat="42.965015" lon="12.2588486"><ele>310.2857142857143</ele><time>2026-04-19T07:51:27.822Z</time></trkpt><trkpt lat="42.9649463" lon="12.258765"><ele>311.42857142857144</ele><time>2026-04-19T07:51:30.831Z</time></trkpt><trkpt lat="42.9648943" lon="12.2587077"><ele>312.57142857142856</ele><time>2026-04-19T07:51:32.833Z</time></trkpt><trkpt lat="42.9648448" lon="12.2586537"><ele>313.7142857142857</ele><time>2026-04-19T07:51:34.81Z</time></trkpt><trkpt lat="42.9647776" lon="12.2585646"><ele>314.8571428571429</ele><time>2026-04-19T07:51:37.827Z</time></trkpt><trkpt lat="42.9647521" lon="12.2584826"><ele>316.0</ele><time>2026-04-19T07:51:39.831Z</time></trkpt><trkpt lat="42.9647512" lon="12.2583921"><ele>316.00000000000006</ele><time>2026-04-19T07:51:41.825Z</time></trkpt><trkpt lat="42.9647715" lon="12.2583026"><ele>316.0</ele><time>2026-04-19T07:51:43.817Z</time></trkpt><trkpt lat="42.9647965" lon="12.258218"><ele>316.0</ele><time>2026-04-19T07:51:45.819Z</time></trkpt><trkpt lat="42.9648192" lon="12.2581262"><ele>316.0</ele><time>2026-04-19T07:51:47.818Z</time></trkpt><trkpt lat="42.9648299" lon="12.2580279"><ele>316.0</ele><time>2026-04-19T07:51:49.817Z</time></trkpt><trkpt lat="42.9648285" lon="12.2579313"><ele>316.00000000000006</ele><time>2026-04-19T07:51:51.824Z</time></trkpt><trkpt lat="42.9648113" lon="12.2578332"><ele>316.0</ele><time>2026-04-19T07:51:53.823Z</time></trkpt><trkpt lat="42.9647822" lon="12.2577349"><ele>315.3333333333333</ele><time>2026-04-19T07:51:55.82Z</time></trkpt><trkpt lat="42.9647452" lon="12.2576434"><ele>314.66666666666663</ele><time>2026-04-19T07:51:57.82Z</time></trkpt><trkpt lat="42.9646972" lon="12.2575614"><ele>314.0</ele><time>2026-04-19T07:51:59.823Z</time></trkpt><trkpt lat="42.964648" lon="12.2574911"><ele>313.3333333333333</ele><time>2026-04-19T07:52:01.809Z</time></trkpt><trkpt lat="42.9645909" lon="12.257415"><ele>312.6666666666667</ele><time>2026-04-19T07:52:03.833Z</time></trkpt><trkpt lat="42.9645307" lon="12.2573329"><ele>312.0</ele><time>2026-04-19T07:52:05.827Z</time></trkpt><trkpt lat="42.9644594" lon="12.2572484"><ele>310.4</ele><time>2026-04-19T07:52:07.809Z</time></trkpt><trkpt lat="42.9643791" lon="12.2571645"><ele>308.79999999999995</ele><time>2026-04-19T07:52:09.831Z</time></trkpt><trkpt lat="42.9642918" lon="12.2570874"><ele>307.2</ele><time>2026-04-19T07:52:11.827Z</time></trkpt><trkpt lat="42.9642011" lon="12.2570151"><ele>305.59999999999997</ele><time>2026-04-19T07:52:13.824Z</time></trkpt><trkpt lat="42.9641134" lon="12.2569428"><ele>304.0</ele><time>2026-04-19T07:52:15.826Z</time></trkpt><trkpt lat="42.9640272" lon="12.2568702"><ele>304.0</ele><time>2026-04-19T07:52:17.831Z</time></trkpt><trkpt lat="42.9639473" lon="12.2568126"><ele>304.0</ele><time>2026-04-19T07:52:19.824Z</time></trkpt><trkpt lat="42.9638709" lon="12.2567578"><ele>304.0</ele><time>2026-04-19T07:52:21.833Z</time></trkpt><trkpt lat="42.9637977" lon="12.2566962"><ele>304.0</ele><time>2026-04-19T07:52:23.832Z</time></trkpt><trkpt lat="42.9637263" lon="12.2566398"><ele>304.0</ele><time>2026-04-19T07:52:25.835Z</time></trkpt><trkpt lat="42.963649" lon="12.2565864"><ele>304.0</ele><time>2026-04-19T07:52:27.827Z</time></trkpt><trkpt lat="42.9635749" lon="12.2565363"><ele>304.0</ele><time>2026-04-19T07:52:29.832Z</time></trkpt><trkpt lat="42.9635072" lon="12.2564904"><ele>304.0</ele><time>2026-04-19T07:52:31.824Z</time></trkpt><trkpt lat="42.9634423" lon="12.2564418"><ele>304.0</ele><time>2026-04-19T07:52:33.823Z</time></trkpt><trkpt lat="42.963375" lon="12.2563958"><ele>304.0</ele><time>2026-04-19T07:52:35.831Z</time></trkpt><trkpt lat="42.9633154" lon="12.2563509"><ele>304.0</ele><time>2026-04-19T07:52:37.821Z</time></trkpt><trkpt lat="42.9632529" lon="12.2562987"><ele>304.0</ele><time>2026-04-19T07:52:39.827Z</time></trkpt><trkpt lat="42.963192" lon="12.2562515"><ele>304.0</ele><time>2026-04-19T07:52:41.819Z</time></trkpt><trkpt lat="42.9631303" lon="12.2562071"><ele>306.16666666666663</ele><time>2026-04-19T07:52:43.825Z</time></trkpt><trkpt lat="42.9630707" lon="12.2561654"><ele>308.3333333333333</ele><time>2026-04-19T07:52:45.826Z</time></trkpt><trkpt lat="42.9630116" lon="12.2561188"><ele>310.5</ele><time>2026-04-19T07:52:47.821Z</time></trkpt><trkpt lat="42.9629543" lon="12.256075"><ele>312.6666666666667</ele><time>2026-04-19T07:52:49.819Z</time></trkpt><trkpt lat="42.9628775" lon="12.2560165"><ele>314.83333333333337</ele><time>2026-04-19T07:52:52.818Z</time></trkpt><trkpt lat="42.9627939" lon="12.2559706"><ele>317.0</ele><time>2026-04-19T07:52:55.824Z</time></trkpt><trkpt lat="42.9627022" lon="12.2559517"><ele>317.0</ele><time>2026-04-19T07:52:58.825Z</time></trkpt><trkpt lat="42.962639" lon="12.2559641"><ele>317.0</ele><time>2026-04-19T07:53:00.81Z</time></trkpt><trkpt lat="42.9625565" lon="12.2560107"><ele>317.0</ele><time>2026-04-19T07:53:03.818Z</time></trkpt><trkpt lat="42.9624785" lon="12.2560502"><ele>317.0</ele><time>2026-04-19T07:53:06.819Z</time></trkpt><trkpt lat="42.962396" lon="12.25609"><ele>317.0</ele><time>2026-04-19T07:53:09.816Z</time></trkpt><trkpt lat="42.9623057" lon="12.25609"><ele>317.0</ele><time>2026-04-19T07:53:12.817Z</time></trkpt><trkpt lat="42.9622466" lon="12.2560079"><ele>318.83333333333337</ele><time>2026-04-19T07:53:15.833Z</time></trkpt><trkpt lat="42.9622392" lon="12.2558913"><ele>320.6666666666667</ele><time>2026-04-19T07:53:18.937Z</time></trkpt><trkpt lat="42.9622559" lon="12.255806"><ele>322.5</ele><time>2026-04-19T07:53:20.821Z</time></trkpt><trkpt lat="42.9622785" lon="12.2557228"><ele>324.3333333333333</ele><time>2026-04-19T07:53:22.823Z</time></trkpt><trkpt lat="42.9623095" lon="12.2556452"><ele>326.16666666666663</ele><time>2026-04-19T07:53:24.923Z</time></trkpt><trkpt lat="42.9623411" lon="12.2555309"><ele>328.0</ele><time>2026-04-19T07:53:27.814Z</time></trkpt><trkpt lat="42.9623742" lon="12.2554217"><ele>328.4285714285714</ele><time>2026-04-19T07:53:30.833Z</time></trkpt><trkpt lat="42.9624046" lon="12.2553421"><ele>328.85714285714283</ele><time>2026-04-19T07:53:32.822Z</time></trkpt><trkpt lat="42.962428" lon="12.2552622"><ele>329.2857142857143</ele><time>2026-04-19T07:53:34.824Z</time></trkpt><trkpt lat="42.9624457" lon="12.2551788"><ele>329.71428571428567</ele><time>2026-04-19T07:53:36.913Z</time></trkpt><trkpt lat="42.9624711" lon="12.2550608"><ele>330.1428571428571</ele><time>2026-04-19T07:53:39.822Z</time></trkpt><trkpt lat="42.9624908" lon="12.2549512"><ele>330.57142857142856</ele><time>2026-04-19T07:53:42.929Z</time></trkpt><trkpt lat="42.9625335" lon="12.2548594"><ele>331.0</ele><time>2026-04-19T07:53:45.82Z</time></trkpt><trkpt lat="42.9626037" lon="12.254811"><ele>333.16666666666663</ele><time>2026-04-19T07:53:48.82Z</time></trkpt><trkpt lat="42.9626735" lon="12.254769"><ele>335.3333333333333</ele><time>2026-04-19T07:53:51.819Z</time></trkpt><trkpt lat="42.9627543" lon="12.2547491"><ele>337.5</ele><time>2026-04-19T07:53:54.934Z</time></trkpt><trkpt lat="42.9628403" lon="12.254717"><ele>339.6666666666667</ele><time>2026-04-19T07:53:57.809Z</time></trkpt><trkpt lat="42.9629167" lon="12.2546589"><ele>341.83333333333337</ele><time>2026-04-19T07:54:00.916Z</time></trkpt><trkpt lat="42.9629694" lon="12.2545613"><ele>344.0</ele><time>2026-04-19T07:54:03.825Z</time></trkpt><trkpt lat="42.963009" lon="12.2544557"><ele>344.0</ele><time>2026-04-19T07:54:06.821Z</time></trkpt><trkpt lat="42.9630464" lon="12.2543481"><ele>344.0</ele><time>2026-04-19T07:54:09.82Z</time></trkpt><trkpt lat="42.9630763" lon="12.2542477"><ele>344.0</ele><time>2026-04-19T07:54:12.812Z</time></trkpt><trkpt lat="42.9631018" lon="12.2541593"><ele>344.0</ele><time>2026-04-19T07:54:15.833Z</time></trkpt><trkpt lat="42.963119" lon="12.2540488"><ele>344.0</ele><time>2026-04-19T07:54:18.816Z</time></trkpt><trkpt lat="42.9631381" lon="12.2539337"><ele>344.0</ele><time>2026-04-19T07:54:21.833Z</time></trkpt><trkpt lat="42.9631651" lon="12.2538214"><ele>345.0</ele><time>2026-04-19T07:54:24.922Z</time></trkpt><trkpt lat="42.9631864" lon="12.253724"><ele>346.0</ele><time>2026-04-19T07:54:27.813Z</time></trkpt><trkpt lat="42.9632294" lon="12.2536236"><ele>347.0</ele><time>2026-04-19T07:54:30.822Z</time></trkpt><trkpt lat="42.9632612" lon="12.2535284"><ele>348.0</ele><time>2026-04-19T07:54:32.829Z</time></trkpt><trkpt lat="42.9632855" lon="12.2534058"><ele>349.0</ele><time>2026-04-19T07:54:35.808Z</time></trkpt><trkpt lat="42.9633099" lon="12.2532778"><ele>350.0</ele><time>2026-04-19T07:54:38.839Z</time></trkpt><trkpt lat="42.9633316" lon="12.2531856"><ele>346.6666666666667</ele><time>2026-04-19T07:54:40.813Z</time></trkpt><trkpt lat="42.9633685" lon="12.2530867"><ele>343.33333333333337</ele><time>2026-04-19T07:54:42.81Z</time></trkpt><trkpt lat="42.9634021" lon="12.2529676"><ele>340.0</ele><time>2026-04-19T07:54:45.811Z</time></trkpt><trkpt lat="42.9634137" lon="12.2528719"><ele>336.6666666666667</ele><time>2026-04-19T07:54:47.806Z</time></trkpt><trkpt lat="42.9634185" lon="12.2527843"><ele>333.3333333333333</ele><time>2026-04-19T07:54:49.816Z</time></trkpt><trkpt lat="42.9634086" lon="12.2526613"><ele>330.0</ele><time>2026-04-19T07:54:52.818Z</time></trkpt><trkpt lat="42.9634221" lon="12.2525668"><ele>330.0</ele><time>2026-04-19T07:54:54.814Z</time></trkpt><trkpt lat="42.9634299" lon="12.2524386"><ele>330.0</ele><time>2026-04-19T07:54:56.824Z</time></trkpt><trkpt lat="42.9634415" lon="12.2523407"><ele>330.0</ele><time>2026-04-19T07:54:58.823Z</time></trkpt><trkpt lat="42.9634598" lon="12.2522419"><ele>330.0</ele><time>2026-04-19T07:55:00.82Z</time></trkpt><trkpt lat="42.9634874" lon="12.2521346"><ele>330.0</ele><time>2026-04-19T07:55:02.823Z</time></trkpt><trkpt lat="42.9634893" lon="12.2520267"><ele>330.0</ele><time>2026-04-19T07:55:04.81Z</time></trkpt><trkpt lat="42.9634914" lon="12.2519176"><ele>330.5</ele><time>2026-04-19T07:55:06.823Z</time></trkpt><trkpt lat="42.9634981" lon="12.2518031"><ele>331.0</ele><time>2026-04-19T07:55:08.818Z</time></trkpt><trkpt lat="42.9635131" lon="12.2517"><ele>331.5</ele><time>2026-04-19T07:55:10.802Z</time></trkpt><trkpt lat="42.9635258" lon="12.2515933"><ele>332.0</ele><time>2026-04-19T07:55:12.827Z</time></trkpt><trkpt lat="42.9635325" lon="12.2514839"><ele>332.5</ele><time>2026-04-19T07:55:14.823Z</time></trkpt><trkpt lat="42.9635411" lon="12.251376"><ele>333.0</ele><time>2026-04-19T07:55:16.822Z</time></trkpt><trkpt lat="42.9635603" lon="12.2512632"><ele>334.3333333333333</ele><time>2026-04-19T07:55:18.816Z</time></trkpt><trkpt lat="42.9635745" lon="12.2511528"><ele>335.6666666666667</ele><time>2026-04-19T07:55:20.84Z</time></trkpt><trkpt lat="42.9635851" lon="12.2510445"><ele>337.0</ele><time>2026-04-19T07:55:22.826Z</time></trkpt><trkpt lat="42.9636004" lon="12.250943"><ele>338.33333333333337</ele><time>2026-04-19T07:55:24.83Z</time></trkpt><trkpt lat="42.9636247" lon="12.2508513"><ele>339.6666666666667</ele><time>2026-04-19T07:55:26.826Z</time></trkpt><trkpt lat="42.9636524" lon="12.2507627"><ele>341.0</ele><time>2026-04-19T07:55:28.939Z</time></trkpt><trkpt lat="42.9636764" lon="12.2506724"><ele>343.57142857142856</ele><time>2026-04-19T07:55:30.816Z</time></trkpt><trkpt lat="42.963706" lon="12.2505896"><ele>346.14285714285717</ele><time>2026-04-19T07:55:32.836Z</time></trkpt><trkpt lat="42.9637328" lon="12.2505075"><ele>348.7142857142857</ele><time>2026-04-19T07:55:34.828Z</time></trkpt><trkpt lat="42.9637558" lon="12.2504253"><ele>351.2857142857143</ele><time>2026-04-19T07:55:36.831Z</time></trkpt><trkpt lat="42.9637859" lon="12.2503483"><ele>353.8571428571429</ele><time>2026-04-19T07:55:38.83Z</time></trkpt><trkpt lat="42.9638105" lon="12.2502691"><ele>356.42857142857144</ele><time>2026-04-19T07:55:40.807Z</time></trkpt><trkpt lat="42.963822" lon="12.2501841"><ele>359.0</ele><time>2026-04-19T07:55:42.83Z</time></trkpt><trkpt lat="42.9638552" lon="12.2500701"><ele>359.0</ele><time>2026-04-19T07:55:45.825Z</time></trkpt><trkpt lat="42.9638829" lon="12.2499591"><ele>359.0</ele><time>2026-04-19T07:55:48.836Z</time></trkpt><trkpt lat="42.9639454" lon="12.2498787"><ele>359.0</ele><time>2026-04-19T07:55:51.83Z</time></trkpt><trkpt lat="42.9640351" lon="12.2498604"><ele>359.0</ele><time>2026-04-19T07:55:54.826Z</time></trkpt><trkpt lat="42.9641263" lon="12.2498664"><ele>359.0</ele><time>2026-04-19T07:55:57.826Z</time></trkpt><trkpt lat="42.9641879" lon="12.2497929"><ele>359.0</ele><time>2026-04-19T07:56:00.829Z</time></trkpt><trkpt lat="42.964146" lon="12.2496839"><ele>362.14285714285717</ele><time>2026-04-19T07:56:03.817Z</time></trkpt><trkpt lat="42.9640867" lon="12.2496477"><ele>365.28571428571433</ele><time>2026-04-19T07:56:05.832Z</time></trkpt><trkpt lat="42.9640186" lon="12.249629"><ele>368.42857142857144</ele><time>2026-04-19T07:56:07.828Z</time></trkpt><trkpt lat="42.9639543" lon="12.2496131"><ele>371.57142857142856</ele><time>2026-04-19T07:56:09.823Z</time></trkpt><trkpt lat="42.9638927" lon="12.2495905"><ele>374.7142857142857</ele><time>2026-04-19T07:56:11.81Z</time></trkpt><trkpt lat="42.9638288" lon="12.2495663"><ele>377.85714285714283</ele><time>2026-04-19T07:56:13.836Z</time></trkpt><trkpt lat="42.9637604" lon="12.24955"><ele>381.0</ele><time>2026-04-19T07:56:15.828Z</time></trkpt><trkpt lat="42.9636687" lon="12.249516"><ele>381.0</ele><time>2026-04-19T07:56:18.818Z</time></trkpt><trkpt lat="42.9635826" lon="12.2494879"><ele>381.0</ele><time>2026-04-19T07:56:21.831Z</time></trkpt><trkpt lat="42.9635548" lon="12.2493944"><ele>381.0</ele><time>2026-04-19T07:56:24.823Z</time></trkpt><trkpt lat="42.9636373" lon="12.2493574"><ele>381.0</ele><time>2026-04-19T07:56:27.819Z</time></trkpt><trkpt lat="42.9637003" lon="12.2493519"><ele>381.0</ele><time>2026-04-19T07:56:29.811Z</time></trkpt><trkpt lat="42.9637913" lon="12.2493403"><ele>381.0</ele><time>2026-04-19T07:56:32.824Z</time></trkpt><trkpt lat="42.9638796" lon="12.2493328"><ele>381.0</ele><time>2026-04-19T07:56:35.832Z</time></trkpt><trkpt lat="42.963946" lon="12.2493457"><ele>381.0</ele><time>2026-04-19T07:56:38.831Z</time></trkpt><trkpt lat="42.9640082" lon="12.2493623"><ele>381.0</ele><time>2026-04-19T07:56:41.82Z</time></trkpt><trkpt lat="42.9640705" lon="12.2493447"><ele>381.0</ele><time>2026-04-19T07:56:43.826Z</time></trkpt><trkpt lat="42.9641146" lon="12.2492815"><ele>381.0</ele><time>2026-04-19T07:56:45.821Z</time></trkpt><trkpt lat="42.964071" lon="12.2492027"><ele>381.0</ele><time>2026-04-19T07:56:48.819Z</time></trkpt><trkpt lat="42.9639938" lon="12.2491766"><ele>381.0</ele><time>2026-04-19T07:56:51.821Z</time></trkpt><trkpt lat="42.9639152" lon="12.2491614"><ele>381.0</ele><time>2026-04-19T07:56:54.821Z</time></trkpt><trkpt lat="42.9638337" lon="12.2491374"><ele>381.0</ele><time>2026-04-19T07:56:57.819Z</time></trkpt><trkpt lat="42.9637526" lon="12.2490822"><ele>381.0</ele><time>2026-04-19T07:57:00.818Z</time></trkpt><trkpt lat="42.9636916" lon="12.2490136"><ele>381.0</ele><time>2026-04-19T07:57:03.817Z</time></trkpt><trkpt lat="42.9636266" lon="12.2489188"><ele>381.0</ele><time>2026-04-19T07:57:06.816Z</time></trkpt><trkpt lat="42.9635812" lon="12.2488536"><ele>381.0</ele><time>2026-04-19T07:57:08.825Z</time></trkpt><trkpt lat="42.9635233" lon="12.2487777"><ele>382.0</ele><time>2026-04-19T07:57:11.817Z</time></trkpt><trkpt lat="42.9634655" lon="12.2486808"><ele>383.0</ele><time>2026-04-19T07:57:14.82Z</time></trkpt><trkpt lat="42.9634193" lon="12.2486217"><ele>384.0</ele><time>2026-04-19T07:57:16.907Z</time></trkpt><trkpt lat="42.9633854" lon="12.2485059"><ele>385.0</ele><time>2026-04-19T07:57:19.819Z</time></trkpt><trkpt lat="42.9633782" lon="12.2484196"><ele>386.0</ele><time>2026-04-19T07:57:21.816Z</time></trkpt><trkpt lat="42.963375" lon="12.2483187"><ele>387.0</ele><time>2026-04-19T07:57:24.816Z</time></trkpt><trkpt lat="42.9633748" lon="12.2482184"><ele>387.0</ele><time>2026-04-19T07:57:28.817Z</time></trkpt><trkpt lat="42.9633842" lon="12.2481331"><ele>387.0</ele><time>2026-04-19T08:01:15.819Z</time></trkpt><trkpt lat="42.9633355" lon="12.2480245"><ele>387.0</ele><time>2026-04-19T08:01:18.818Z</time></trkpt><trkpt lat="42.9633239" lon="12.2479045"><ele>387.0</ele><time>2026-04-19T08:01:21.812Z</time></trkpt><trkpt lat="42.9633346" lon="12.2478087"><ele>387.0</ele><time>2026-04-19T08:01:23.813Z</time></trkpt><trkpt lat="42.9633562" lon="12.2477177"><ele>387.0</ele><time>2026-04-19T08:01:25.818Z</time></trkpt><trkpt lat="42.9633887" lon="12.2476251"><ele>385.8571428571429</ele><time>2026-04-19T08:01:27.82Z</time></trkpt><trkpt lat="42.9634145" lon="12.2475435"><ele>384.7142857142857</ele><time>2026-04-19T08:01:29.824Z</time></trkpt><trkpt lat="42.9633943" lon="12.247461"><ele>383.57142857142856</ele><time>2026-04-19T08:01:31.808Z</time></trkpt><trkpt lat="42.9633348" lon="12.2474127"><ele>382.42857142857144</ele><time>2026-04-19T08:01:33.817Z</time></trkpt><trkpt lat="42.9632783" lon="12.2473738"><ele>381.2857142857143</ele><time>2026-04-19T08:01:35.816Z</time></trkpt><trkpt lat="42.963248" lon="12.2472908"><ele>380.14285714285717</ele><time>2026-04-19T08:01:37.821Z</time></trkpt><trkpt lat="42.9632033" lon="12.2471936"><ele>379.0</ele><time>2026-04-19T08:01:39.816Z</time></trkpt><trkpt lat="42.9631239" lon="12.2471072"><ele>375.8571428571429</ele><time>2026-04-19T08:01:41.824Z</time></trkpt><trkpt lat="42.963072" lon="12.2470573"><ele>372.7142857142857</ele><time>2026-04-19T08:01:42.82Z</time></trkpt><trkpt lat="42.9630132" lon="12.2470109"><ele>369.57142857142856</ele><time>2026-04-19T08:01:43.818Z</time></trkpt><trkpt lat="42.9629551" lon="12.2469594"><ele>366.42857142857144</ele><time>2026-04-19T08:01:44.819Z</time></trkpt><trkpt lat="42.9629015" lon="12.2469073"><ele>363.2857142857143</ele><time>2026-04-19T08:01:45.816Z</time></trkpt><trkpt lat="42.9628395" lon="12.2468516"><ele>360.14285714285717</ele><time>2026-04-19T08:01:46.82Z</time></trkpt><trkpt lat="42.9627752" lon="12.2468053"><ele>357.0</ele><time>2026-04-19T08:01:47.818Z</time></trkpt><trkpt lat="42.9627048" lon="12.2467461"><ele>357.0</ele><time>2026-04-19T08:01:48.816Z</time></trkpt><trkpt lat="42.962637" lon="12.2466952"><ele>357.0</ele><time>2026-04-19T08:01:49.815Z</time></trkpt><trkpt lat="42.9625756" lon="12.2466283"><ele>357.0</ele><time>2026-04-19T08:01:50.838Z</time></trkpt><trkpt lat="42.9625176" lon="12.2465674"><ele>357.0</ele><time>2026-04-19T08:01:51.825Z</time></trkpt><trkpt lat="42.9624716" lon="12.2465037"><ele>357.0</ele><time>2026-04-19T08:01:52.918Z</time></trkpt><trkpt lat="42.9623717" lon="12.2463889"><ele>357.0</ele><time>2026-04-19T08:01:54.818Z</time></trkpt><trkpt lat="42.962293" lon="12.2462928"><ele>355.5</ele><time>2026-04-19T08:01:56.816Z</time></trkpt><trkpt lat="42.9622427" lon="12.2461716"><ele>354.0</ele><time>2026-04-19T08:01:58.919Z</time></trkpt><trkpt lat="42.9622394" lon="12.2460616"><ele>352.5</ele><time>2026-04-19T08:02:00.812Z</time></trkpt><trkpt lat="42.9622517" lon="12.2459695"><ele>351.0</ele><time>2026-04-19T08:02:02.817Z</time></trkpt><trkpt lat="42.9622079" lon="12.2459014"><ele>349.5</ele><time>2026-04-19T08:02:05.833Z</time></trkpt><trkpt lat="42.9621481" lon="12.245845"><ele>348.0</ele><time>2026-04-19T08:02:09.82Z</time></trkpt><trkpt lat="42.962129" lon="12.2457169"><ele>347.3333333333333</ele><time>2026-04-19T08:02:12.823Z</time></trkpt><trkpt lat="42.9621119" lon="12.2456151"><ele>346.6666666666667</ele><time>2026-04-19T08:02:14.817Z</time></trkpt><trkpt lat="42.9620857" lon="12.2455104"><ele>346.0</ele><time>2026-04-19T08:02:16.821Z</time></trkpt><trkpt lat="42.9620626" lon="12.2454089"><ele>345.33333333333337</ele><time>2026-04-19T08:02:18.821Z</time></trkpt><trkpt lat="42.9620436" lon="12.2453078"><ele>344.6666666666667</ele><time>2026-04-19T08:02:20.8Z</time></trkpt><trkpt lat="42.9620324" lon="12.2451905"><ele>344.0</ele><time>2026-04-19T08:02:22.813Z</time></trkpt><trkpt lat="42.9620104" lon="12.2450813"><ele>344.00000000000006</ele><time>2026-04-19T08:02:24.826Z</time></trkpt><trkpt lat="42.9619888" lon="12.2449841"><ele>344.0</ele><time>2026-04-19T08:02:26.821Z</time></trkpt><trkpt lat="42.9619725" lon="12.2448978"><ele>344.0</ele><time>2026-04-19T08:02:28.82Z</time></trkpt><trkpt lat="42.9619586" lon="12.2448119"><ele>344.0</ele><time>2026-04-19T08:02:30.832Z</time></trkpt><trkpt lat="42.9619239" lon="12.2446921"><ele>344.0</ele><time>2026-04-19T08:02:33.83Z</time></trkpt><trkpt lat="42.9618866" lon="12.2446154"><ele>344.00000000000006</ele><time>2026-04-19T08:02:35.828Z</time></trkpt><trkpt lat="42.9618447" lon="12.2445226"><ele>344.0</ele><time>2026-04-19T08:02:38.822Z</time></trkpt><trkpt lat="42.9618027" lon="12.2444298"><ele>342.6666666666667</ele><time>2026-04-19T08:02:41.829Z</time></trkpt><trkpt lat="42.9617467" lon="12.2443544"><ele>341.33333333333337</ele><time>2026-04-19T08:02:44.827Z</time></trkpt><trkpt lat="42.9616807" lon="12.2442993"><ele>340.0</ele><time>2026-04-19T08:02:47.833Z</time></trkpt><trkpt lat="42.9616187" lon="12.2442275"><ele>338.6666666666667</ele><time>2026-04-19T08:02:50.832Z</time></trkpt><trkpt lat="42.9615644" lon="12.2441461"><ele>337.3333333333333</ele><time>2026-04-19T08:02:53.831Z</time></trkpt><trkpt lat="42.9615116" lon="12.2440604"><ele>336.0</ele><time>2026-04-19T08:02:56.829Z</time></trkpt><trkpt lat="42.9614666" lon="12.2439748"><ele>339.1666666666667</ele><time>2026-04-19T08:02:59.831Z</time></trkpt><trkpt lat="42.9614152" lon="12.2438834"><ele>342.3333333333333</ele><time>2026-04-19T08:03:02.821Z</time></trkpt><trkpt lat="42.9613476" lon="12.2438082"><ele>345.5</ele><time>2026-04-19T08:03:05.818Z</time></trkpt><trkpt lat="42.9612689" lon="12.2437643"><ele>348.66666666666663</ele><time>2026-04-19T08:03:08.82Z</time></trkpt><trkpt lat="42.9611743" lon="12.2437421"><ele>351.8333333333333</ele><time>2026-04-19T08:03:11.814Z</time></trkpt><trkpt lat="42.9611059" lon="12.2437297"><ele>355.0</ele><time>2026-04-19T08:03:13.815Z</time></trkpt><trkpt lat="42.96104" lon="12.2437156"><ele>355.0</ele><time>2026-04-19T08:03:15.821Z</time></trkpt><trkpt lat="42.9609712" lon="12.2436977"><ele>355.0</ele><time>2026-04-19T08:03:17.824Z</time></trkpt><trkpt lat="42.9608983" lon="12.2436835"><ele>355.0</ele><time>2026-04-19T08:03:19.819Z</time></trkpt><trkpt lat="42.9608212" lon="12.2436628"><ele>355.0</ele><time>2026-04-19T08:03:21.818Z</time></trkpt><trkpt lat="42.9607375" lon="12.2436398"><ele>355.0</ele><time>2026-04-19T08:03:23.82Z</time></trkpt><trkpt lat="42.9606585" lon="12.2435851"><ele>355.0</ele><time>2026-04-19T08:03:25.822Z</time></trkpt><trkpt lat="42.9605686" lon="12.2435375"><ele>358.8</ele><time>2026-04-19T08:03:27.815Z</time></trkpt><trkpt lat="42.9604898" lon="12.2435084"><ele>362.6</ele><time>2026-04-19T08:03:29.817Z</time></trkpt><trkpt lat="42.9603912" lon="12.2434592"><ele>366.4</ele><time>2026-04-19T08:03:31.834Z</time></trkpt><trkpt lat="42.9602914" lon="12.243426"><ele>370.2</ele><time>2026-04-19T08:03:33.931Z</time></trkpt><trkpt lat="42.9602028" lon="12.2433935"><ele>374.0</ele><time>2026-04-19T08:03:35.825Z</time></trkpt><trkpt lat="42.9601259" lon="12.2433519"><ele>374.0</ele><time>2026-04-19T08:03:37.822Z</time></trkpt><trkpt lat="42.9600612" lon="12.2433121"><ele>374.0</ele><time>2026-04-19T08:03:39.832Z</time></trkpt><trkpt lat="42.9599957" lon="12.2432784"><ele>374.0</ele><time>2026-04-19T08:03:41.828Z</time></trkpt><trkpt lat="42.9599318" lon="12.2432465"><ele>374.0</ele><time>2026-04-19T08:03:43.819Z</time></trkpt><trkpt lat="42.9598708" lon="12.2432058"><ele>374.0</ele><time>2026-04-19T08:03:45.831Z</time></trkpt><trkpt lat="42.9598133" lon="12.2431598"><ele>374.0</ele><time>2026-04-19T08:03:47.829Z</time></trkpt><trkpt lat="42.9597644" lon="12.2430951"><ele>374.0</ele><time>2026-04-19T08:03:49.827Z</time></trkpt><trkpt lat="42.9597185" lon="12.2430257"><ele>375.2857142857143</ele><time>2026-04-19T08:03:51.817Z</time></trkpt><trkpt lat="42.9596741" lon="12.2429589"><ele>376.5714285714286</ele><time>2026-04-19T08:03:53.816Z</time></trkpt><trkpt lat="42.9596214" lon="12.2428546"><ele>377.8571428571429</ele><time>2026-04-19T08:03:56.914Z</time></trkpt><trkpt lat="42.9595812" lon="12.242784"><ele>379.1428571428571</ele><time>2026-04-19T08:03:58.819Z</time></trkpt><trkpt lat="42.959541" lon="12.2427056"><ele>380.42857142857144</ele><time>2026-04-19T08:04:00.834Z</time></trkpt><trkpt lat="42.9595224" lon="12.2426051"><ele>381.7142857142857</ele><time>2026-04-19T08:04:02.93Z</time></trkpt><trkpt lat="42.9595279" lon="12.2425118"><ele>383.0</ele><time>2026-04-19T08:04:04.813Z</time></trkpt><trkpt lat="42.9595453" lon="12.2424242"><ele>383.0</ele><time>2026-04-19T08:04:06.821Z</time></trkpt><trkpt lat="42.9595711" lon="12.2423374"><ele>383.0</ele><time>2026-04-19T08:04:08.806Z</time></trkpt><trkpt lat="42.9596003" lon="12.2422518"><ele>383.0</ele><time>2026-04-19T08:04:10.817Z</time></trkpt><trkpt lat="42.9596317" lon="12.2421634"><ele>383.0</ele><time>2026-04-19T08:04:12.817Z</time></trkpt><trkpt lat="42.9596575" lon="12.2420688"><ele>383.0</ele><time>2026-04-19T08:04:14.818Z</time></trkpt><trkpt lat="42.9596739" lon="12.2419752"><ele>383.0</ele><time>2026-04-19T08:04:16.818Z</time></trkpt><trkpt lat="42.9596869" lon="12.2418788"><ele>383.0</ele><time>2026-04-19T08:04:18.817Z</time></trkpt><trkpt lat="42.9597015" lon="12.2417847"><ele>383.2857142857143</ele><time>2026-04-19T08:04:20.82Z</time></trkpt><trkpt lat="42.9597079" lon="12.2416877"><ele>383.57142857142856</ele><time>2026-04-19T08:04:22.821Z</time></trkpt><trkpt lat="42.959721" lon="12.2415883"><ele>383.8571428571429</ele><time>2026-04-19T08:04:24.803Z</time></trkpt><trkpt lat="42.9597411" lon="12.2414884"><ele>384.1428571428571</ele><time>2026-04-19T08:04:26.833Z</time></trkpt><trkpt lat="42.9597464" lon="12.24139"><ele>384.42857142857144</ele><time>2026-04-19T08:04:28.827Z</time></trkpt><trkpt lat="42.9597522" lon="12.2412938"><ele>384.7142857142857</ele><time>2026-04-19T08:04:30.832Z</time></trkpt><trkpt lat="42.9597597" lon="12.241199"><ele>385.0</ele><time>2026-04-19T08:04:32.822Z</time></trkpt><trkpt lat="42.9597645" lon="12.2411063"><ele>385.14285714285717</ele><time>2026-04-19T08:04:34.825Z</time></trkpt><trkpt lat="42.9597672" lon="12.2410183"><ele>385.2857142857143</ele><time>2026-04-19T08:04:36.815Z</time></trkpt><trkpt lat="42.959769" lon="12.2409306"><ele>385.42857142857144</ele><time>2026-04-19T08:04:38.824Z</time></trkpt><trkpt lat="42.9597613" lon="12.2408402"><ele>385.57142857142856</ele><time>2026-04-19T08:04:40.83Z</time></trkpt><trkpt lat="42.9597422" lon="12.2407532"><ele>385.7142857142857</ele><time>2026-04-19T08:04:42.817Z</time></trkpt><trkpt lat="42.9597082" lon="12.2406646"><ele>385.8571428571429</ele><time>2026-04-19T08:04:44.824Z</time></trkpt><trkpt lat="42.9596667" lon="12.2405774"><ele>386.0</ele><time>2026-04-19T08:04:46.816Z</time></trkpt><trkpt lat="42.9596247" lon="12.2404943"><ele>384.99999999999994</ele><time>2026-04-19T08:04:48.82Z</time></trkpt><trkpt lat="42.9595847" lon="12.2404129"><ele>384.0</ele><time>2026-04-19T08:04:50.833Z</time></trkpt><trkpt lat="42.9595383" lon="12.2403272"><ele>383.0</ele><time>2026-04-19T08:04:52.808Z</time></trkpt><trkpt lat="42.9594917" lon="12.2402353"><ele>382.0</ele><time>2026-04-19T08:04:54.816Z</time></trkpt><trkpt lat="42.9594409" lon="12.2401313"><ele>381.0</ele><time>2026-04-19T08:04:56.819Z</time></trkpt><trkpt lat="42.9593865" lon="12.240014"><ele>380.0</ele><time>2026-04-19T08:04:58.807Z</time></trkpt><trkpt lat="42.959322" lon="12.2398889"><ele>379.5</ele><time>2026-04-19T08:05:00.81Z</time></trkpt><trkpt lat="42.9592579" lon="12.2397597"><ele>379.0</ele><time>2026-04-19T08:05:02.81Z</time></trkpt><trkpt lat="42.9591936" lon="12.2396257"><ele>378.5</ele><time>2026-04-19T08:05:04.813Z</time></trkpt><trkpt lat="42.9591285" lon="12.2394871"><ele>378.0</ele><time>2026-04-19T08:05:06.814Z</time></trkpt><trkpt lat="42.9590689" lon="12.2393429"><ele>378.0</ele><time>2026-04-19T08:05:08.819Z</time></trkpt><trkpt lat="42.9590353" lon="12.2392681"><ele>378.0</ele><time>2026-04-19T08:05:09.817Z</time></trkpt><trkpt lat="42.9590002" lon="12.2391903"><ele>378.0</ele><time>2026-04-19T08:05:10.82Z</time></trkpt><trkpt lat="42.9589609" lon="12.2391113"><ele>378.0</ele><time>2026-04-19T08:05:11.818Z</time></trkpt><trkpt lat="42.9589214" lon="12.2390337"><ele>378.0</ele><time>2026-04-19T08:05:12.815Z</time></trkpt><trkpt lat="42.9588883" lon="12.2389561"><ele>378.0</ele><time>2026-04-19T08:05:13.815Z</time></trkpt><trkpt lat="42.9588513" lon="12.2388805"><ele>378.0</ele><time>2026-04-19T08:05:14.818Z</time></trkpt><trkpt lat="42.9588184" lon="12.2388066"><ele>376.59999999999997</ele><time>2026-04-19T08:05:15.818Z</time></trkpt><trkpt lat="42.9587513" lon="12.2386671"><ele>375.2</ele><time>2026-04-19T08:05:17.815Z</time></trkpt><trkpt lat="42.9586864" lon="12.2385386"><ele>373.8</ele><time>2026-04-19T08:05:19.814Z</time></trkpt><trkpt lat="42.9586322" lon="12.2384159"><ele>372.4</ele><time>2026-04-19T08:05:21.815Z</time></trkpt><trkpt lat="42.958573" lon="12.2383089"><ele>371.0</ele><time>2026-04-19T08:05:23.828Z</time></trkpt><trkpt lat="42.9585274" lon="12.2381988"><ele>373.0</ele><time>2026-04-19T08:05:25.913Z</time></trkpt><trkpt lat="42.9584898" lon="12.238098"><ele>375.0</ele><time>2026-04-19T08:05:27.815Z</time></trkpt><trkpt lat="42.9584516" lon="12.2379973"><ele>377.0</ele><time>2026-04-19T08:05:29.826Z</time></trkpt><trkpt lat="42.95841" lon="12.2378801"><ele>379.0</ele><time>2026-04-19T08:05:32.824Z</time></trkpt><trkpt lat="42.9583763" lon="12.2377955"><ele>381.0</ele><time>2026-04-19T08:05:34.819Z</time></trkpt><trkpt lat="42.9583404" lon="12.2376889"><ele>383.0</ele><time>2026-04-19T08:05:37.824Z</time></trkpt><trkpt lat="42.9582814" lon="12.2375957"><ele>383.0</ele><time>2026-04-19T08:05:41.835Z</time></trkpt><trkpt lat="42.9582342" lon="12.2375231"><ele>383.0</ele><time>2026-04-19T08:05:43.815Z</time></trkpt><trkpt lat="42.9581831" lon="12.2374211"><ele>383.0</ele><time>2026-04-19T08:05:45.815Z</time></trkpt><trkpt lat="42.9581363" lon="12.2372863"><ele>383.0</ele><time>2026-04-19T08:05:47.825Z</time></trkpt><trkpt lat="42.9580787" lon="12.2371438"><ele>383.0</ele><time>2026-04-19T08:05:49.927Z</time></trkpt><trkpt lat="42.9580198" lon="12.2370085"><ele>384.79999999999995</ele><time>2026-04-19T08:05:51.816Z</time></trkpt><trkpt lat="42.9579713" lon="12.2368815"><ele>386.6</ele><time>2026-04-19T08:05:53.82Z</time></trkpt><trkpt lat="42.9579147" lon="12.2367771"><ele>388.4</ele><time>2026-04-19T08:05:55.815Z</time></trkpt><trkpt lat="42.9578615" lon="12.2366782"><ele>390.20000000000005</ele><time>2026-04-19T08:05:57.815Z</time></trkpt><trkpt lat="42.9578104" lon="12.2365716"><ele>392.0</ele><time>2026-04-19T08:05:59.82Z</time></trkpt><trkpt lat="42.957759" lon="12.2364628"><ele>393.99999999999994</ele><time>2026-04-19T08:06:01.833Z</time></trkpt><trkpt lat="42.9577102" lon="12.2363631"><ele>396.0</ele><time>2026-04-19T08:06:03.823Z</time></trkpt><trkpt lat="42.9576682" lon="12.2362672"><ele>398.0</ele><time>2026-04-19T08:06:05.819Z</time></trkpt><trkpt lat="42.9576435" lon="12.236169"><ele>400.0</ele><time>2026-04-19T08:06:07.829Z</time></trkpt><trkpt lat="42.9576425" lon="12.2360465"><ele>401.99999999999994</ele><time>2026-04-19T08:06:09.806Z</time></trkpt><trkpt lat="42.9576408" lon="12.23591"><ele>404.0</ele><time>2026-04-19T08:06:11.817Z</time></trkpt><trkpt lat="42.9576015" lon="12.2357139"><ele>403.79999999999995</ele><time>2026-04-19T08:06:14.824Z</time></trkpt><trkpt lat="42.9575525" lon="12.235583"><ele>403.59999999999997</ele><time>2026-04-19T08:06:16.816Z</time></trkpt><trkpt lat="42.957486" lon="12.2354739"><ele>403.4</ele><time>2026-04-19T08:06:18.819Z</time></trkpt><trkpt lat="42.9573913" lon="12.235397"><ele>403.2</ele><time>2026-04-19T08:06:20.819Z</time></trkpt><trkpt lat="42.9572994" lon="12.2353495"><ele>403.0</ele><time>2026-04-19T08:06:22.819Z</time></trkpt><trkpt lat="42.9572044" lon="12.2353136"><ele>403.0</ele><time>2026-04-19T08:06:24.82Z</time></trkpt><trkpt lat="42.9571135" lon="12.235271"><ele>403.0</ele><time>2026-04-19T08:06:26.831Z</time></trkpt><trkpt lat="42.9570183" lon="12.2352116"><ele>403.0</ele><time>2026-04-19T08:06:28.82Z</time></trkpt><trkpt lat="42.9568987" lon="12.2351753"><ele>403.0</ele><time>2026-04-19T08:06:30.815Z</time></trkpt><trkpt lat="42.9567691" lon="12.2351954"><ele>401.1666666666667</ele><time>2026-04-19T08:06:32.819Z</time></trkpt><trkpt lat="42.9566492" lon="12.2352649"><ele>399.33333333333337</ele><time>2026-04-19T08:06:34.816Z</time></trkpt><trkpt lat="42.9565775" lon="12.2353022"><ele>397.5</ele><time>2026-04-19T08:06:35.815Z</time></trkpt><trkpt lat="42.9565045" lon="12.2353423"><ele>395.66666666666663</ele><time>2026-04-19T08:06:36.915Z</time></trkpt><trkpt lat="42.9564345" lon="12.2353889"><ele>393.8333333333333</ele><time>2026-04-19T08:06:37.821Z</time></trkpt><trkpt lat="42.9563615" lon="12.2354203"><ele>392.0</ele><time>2026-04-19T08:06:38.812Z</time></trkpt><trkpt lat="42.9562959" lon="12.2354449"><ele>391.99999999999994</ele><time>2026-04-19T08:06:39.815Z</time></trkpt><trkpt lat="42.9562253" lon="12.2354763"><ele>392.0</ele><time>2026-04-19T08:06:40.817Z</time></trkpt><trkpt lat="42.9561512" lon="12.2354981"><ele>392.0</ele><time>2026-04-19T08:06:41.824Z</time></trkpt><trkpt lat="42.9560818" lon="12.2355214"><ele>392.0</ele><time>2026-04-19T08:06:42.816Z</time></trkpt><trkpt lat="42.9560013" lon="12.2355462"><ele>391.99999999999994</ele><time>2026-04-19T08:06:43.823Z</time></trkpt><trkpt lat="42.9559217" lon="12.2355698"><ele>392.0</ele><time>2026-04-19T08:06:44.816Z</time></trkpt><trkpt lat="42.9558386" lon="12.2355904"><ele>390.99999999999994</ele><time>2026-04-19T08:06:45.817Z</time></trkpt><trkpt lat="42.9557561" lon="12.2356135"><ele>390.0</ele><time>2026-04-19T08:06:46.82Z</time></trkpt><trkpt lat="42.9556727" lon="12.2356215"><ele>389.0</ele><time>2026-04-19T08:06:47.803Z</time></trkpt><trkpt lat="42.9555975" lon="12.2356093"><ele>388.0</ele><time>2026-04-19T08:06:48.82Z</time></trkpt><trkpt lat="42.9555213" lon="12.2355917"><ele>386.99999999999994</ele><time>2026-04-19T08:06:49.821Z</time></trkpt><trkpt lat="42.9554517" lon="12.2355509"><ele>386.0</ele><time>2026-04-19T08:06:50.825Z</time></trkpt><trkpt lat="42.9553856" lon="12.2355008"><ele>386.00000000000006</ele><time>2026-04-19T08:06:51.82Z</time></trkpt><trkpt lat="42.9553251" lon="12.2354487"><ele>386.0</ele><time>2026-04-19T08:06:52.816Z</time></trkpt><trkpt lat="42.9552646" lon="12.2353813"><ele>386.0</ele><time>2026-04-19T08:06:53.817Z</time></trkpt><trkpt lat="42.9552028" lon="12.2353155"><ele>386.0</ele><time>2026-04-19T08:06:54.819Z</time></trkpt><trkpt lat="42.9551506" lon="12.2352405"><ele>386.0</ele><time>2026-04-19T08:06:55.811Z</time></trkpt><trkpt lat="42.9551072" lon="12.2351643"><ele>386.00000000000006</ele><time>2026-04-19T08:06:56.816Z</time></trkpt><trkpt lat="42.9550817" lon="12.2350853"><ele>386.0</ele><time>2026-04-19T08:06:57.817Z</time></trkpt><trkpt lat="42.9550986" lon="12.2349263"><ele>388.0</ele><time>2026-04-19T08:06:59.819Z</time></trkpt><trkpt lat="42.9551572" lon="12.2347828"><ele>390.0</ele><time>2026-04-19T08:07:01.818Z</time></trkpt><trkpt lat="42.9552008" lon="12.2347071"><ele>392.0</ele><time>2026-04-19T08:07:02.816Z</time></trkpt><trkpt lat="42.9552387" lon="12.2345591"><ele>394.0</ele><time>2026-04-19T08:07:04.819Z</time></trkpt><trkpt lat="42.9551922" lon="12.2344015"><ele>396.0</ele><time>2026-04-19T08:07:06.818Z</time></trkpt><trkpt lat="42.955152" lon="12.234331"><ele>396.0</ele><time>2026-04-19T08:07:07.817Z</time></trkpt><trkpt lat="42.9551137" lon="12.2342564"><ele>396.0</ele><time>2026-04-19T08:07:08.82Z</time></trkpt><trkpt lat="42.955071" lon="12.2340834"><ele>396.0</ele><time>2026-04-19T08:07:10.821Z</time></trkpt><trkpt lat="42.955053" lon="12.233979"><ele>396.0</ele><time>2026-04-19T08:07:11.916Z</time></trkpt><trkpt lat="42.9550448" lon="12.2337575"><ele>396.0</ele><time>2026-04-19T08:07:13.823Z</time></trkpt><trkpt lat="42.9550406" lon="12.2336447"><ele>396.3333333333333</ele><time>2026-04-19T08:07:14.832Z</time></trkpt><trkpt lat="42.9550398" lon="12.2335266"><ele>396.66666666666663</ele><time>2026-04-19T08:07:15.832Z</time></trkpt><trkpt lat="42.9550408" lon="12.2334075"><ele>397.0</ele><time>2026-04-19T08:07:16.818Z</time></trkpt><trkpt lat="42.955044" lon="12.2332851"><ele>397.3333333333333</ele><time>2026-04-19T08:07:17.813Z</time></trkpt><trkpt lat="42.9550446" lon="12.2331737"><ele>397.66666666666663</ele><time>2026-04-19T08:07:18.818Z</time></trkpt><trkpt lat="42.9550499" lon="12.233058"><ele>398.0</ele><time>2026-04-19T08:07:19.825Z</time></trkpt><trkpt lat="42.9550681" lon="12.2329494"><ele>396.0</ele><time>2026-04-19T08:07:20.815Z</time></trkpt><trkpt lat="42.9550892" lon="12.2328392"><ele>394.0</ele><time>2026-04-19T08:07:21.817Z</time></trkpt><trkpt lat="42.9551192" lon="12.2327312"><ele>392.0</ele><time>2026-04-19T08:07:22.815Z</time></trkpt><trkpt lat="42.9551485" lon="12.2326321"><ele>390.0</ele><time>2026-04-19T08:07:23.918Z</time></trkpt><trkpt lat="42.955214" lon="12.2324234"><ele>388.0</ele><time>2026-04-19T08:07:25.815Z</time></trkpt><trkpt lat="42.9552472" lon="12.2323153"><ele>386.00000000000006</ele><time>2026-04-19T08:07:26.826Z</time></trkpt><trkpt lat="42.9552848" lon="12.2322088"><ele>384.0</ele><time>2026-04-19T08:07:27.816Z</time></trkpt><trkpt lat="42.9553233" lon="12.232111"><ele>382.0</ele><time>2026-04-19T08:07:28.816Z</time></trkpt><trkpt lat="42.955358" lon="12.232007"><ele>380.0</ele><time>2026-04-19T08:07:29.919Z</time></trkpt><trkpt lat="42.9553878" lon="12.2319042"><ele>378.0</ele><time>2026-04-19T08:07:30.821Z</time></trkpt><trkpt lat="42.9554094" lon="12.2318075"><ele>376.0</ele><time>2026-04-19T08:07:31.82Z</time></trkpt><trkpt lat="42.9554106" lon="12.2316574"><ele>376.0</ele><time>2026-04-19T08:07:33.818Z</time></trkpt><trkpt lat="42.9553439" lon="12.2316019"><ele>376.0</ele><time>2026-04-19T08:07:35.922Z</time></trkpt><trkpt lat="42.9552691" lon="12.2316384"><ele>376.0</ele><time>2026-04-19T08:07:39.817Z</time></trkpt><trkpt lat="42.9551923" lon="12.2316605"><ele>376.0</ele><time>2026-04-19T08:07:43.822Z</time></trkpt><trkpt lat="42.9551255" lon="12.2316978"><ele>376.0</ele><time>2026-04-19T08:07:46.817Z</time></trkpt><trkpt lat="42.9550596" lon="12.2317397"><ele>376.0</ele><time>2026-04-19T08:07:49.81Z</time></trkpt><trkpt lat="42.9549981" lon="12.2317784"><ele>376.0</ele><time>2026-04-19T08:07:52.82Z</time></trkpt><trkpt lat="42.9549172" lon="12.2318057"><ele>374.7142857142857</ele><time>2026-04-19T08:07:56.816Z</time></trkpt><trkpt lat="42.9548608" lon="12.2318681"><ele>373.42857142857144</ele><time>2026-04-19T08:07:59.82Z</time></trkpt><trkpt lat="42.9548041" lon="12.2319328"><ele>372.1428571428571</ele><time>2026-04-19T08:08:03.803Z</time></trkpt><trkpt lat="42.9547329" lon="12.231963"><ele>370.8571428571429</ele><time>2026-04-19T08:08:07.808Z</time></trkpt><trkpt lat="42.9546674" lon="12.2320162"><ele>369.5714285714286</ele><time>2026-04-19T08:08:10.805Z</time></trkpt><trkpt lat="42.9545891" lon="12.2320554"><ele>368.2857142857143</ele><time>2026-04-19T08:08:13.804Z</time></trkpt><trkpt lat="42.9545292" lon="12.2320823"><ele>367.0</ele><time>2026-04-19T08:08:16.921Z</time></trkpt><trkpt lat="42.9544587" lon="12.2321096"><ele>367.0</ele><time>2026-04-19T08:08:19.815Z</time></trkpt><trkpt lat="42.9543836" lon="12.2321389"><ele>367.0</ele><time>2026-04-19T08:08:22.818Z</time></trkpt><trkpt lat="42.9543121" lon="12.2321769"><ele>367.0</ele><time>2026-04-19T08:08:25.821Z</time></trkpt><trkpt lat="42.954247" lon="12.232224"><ele>367.0</ele><time>2026-04-19T08:08:28.928Z</time></trkpt><trkpt lat="42.9541805" lon="12.2322729"><ele>367.0</ele><time>2026-04-19T08:08:31.815Z</time></trkpt><trkpt lat="42.95411" lon="12.2323345"><ele>367.0</ele><time>2026-04-19T08:08:34.814Z</time></trkpt><trkpt lat="42.9540418" lon="12.2323999"><ele>367.8333333333333</ele><time>2026-04-19T08:08:37.823Z</time></trkpt><trkpt lat="42.953971" lon="12.232462"><ele>368.66666666666663</ele><time>2026-04-19T08:08:40.922Z</time></trkpt><trkpt lat="42.9539028" lon="12.2325266"><ele>369.5</ele><time>2026-04-19T08:08:43.821Z</time></trkpt><trkpt lat="42.9538402" lon="12.232602"><ele>370.3333333333333</ele><time>2026-04-19T08:08:46.817Z</time></trkpt><trkpt lat="42.9537838" lon="12.232669"><ele>371.1666666666667</ele><time>2026-04-19T08:08:49.82Z</time></trkpt><trkpt lat="42.9537274" lon="12.23275"><ele>372.0</ele><time>2026-04-19T08:08:52.814Z</time></trkpt><trkpt lat="42.9536946" lon="12.2328612"><ele>372.0</ele><time>2026-04-19T08:08:55.817Z</time></trkpt><trkpt lat="42.9536783" lon="12.2329639"><ele>372.0</ele><time>2026-04-19T08:08:58.823Z</time></trkpt><trkpt lat="42.9536652" lon="12.2330707"><ele>372.0</ele><time>2026-04-19T08:09:01.831Z</time></trkpt><trkpt lat="42.9536546" lon="12.2331797"><ele>372.0</ele><time>2026-04-19T08:09:04.925Z</time></trkpt><trkpt lat="42.9536359" lon="12.2332715"><ele>372.0</ele><time>2026-04-19T08:09:07.819Z</time></trkpt><trkpt lat="42.9535993" lon="12.2333646"><ele>372.0</ele><time>2026-04-19T08:09:10.815Z</time></trkpt><trkpt lat="42.9535467" lon="12.233437"><ele>372.00000000000006</ele><time>2026-04-19T08:09:13.81Z</time></trkpt><trkpt lat="42.9534843" lon="12.2334553"><ele>372.0</ele><time>2026-04-19T08:09:16.813Z</time></trkpt><trkpt lat="42.9534492" lon="12.233371"><ele>372.0</ele><time>2026-04-19T08:09:20.814Z</time></trkpt><trkpt lat="42.9534787" lon="12.2332885"><ele>372.0</ele><time>2026-04-19T08:09:23.82Z</time></trkpt><trkpt lat="42.953505" lon="12.2331991"><ele>372.0</ele><time>2026-04-19T08:09:26.805Z</time></trkpt><trkpt lat="42.9535268" lon="12.2330955"><ele>372.00000000000006</ele><time>2026-04-19T08:09:29.805Z</time></trkpt><trkpt lat="42.9535336" lon="12.2329961"><ele>372.0</ele><time>2026-04-19T08:09:32.817Z</time></trkpt><trkpt lat="42.9535427" lon="12.2328947"><ele>372.0</ele><time>2026-04-19T08:09:35.81Z</time></trkpt><trkpt lat="42.9535381" lon="12.2327917"><ele>372.0</ele><time>2026-04-19T08:09:38.816Z</time></trkpt><trkpt lat="42.9535575" lon="12.2326961"><ele>372.0</ele><time>2026-04-19T08:09:41.803Z</time></trkpt><trkpt lat="42.9535821" lon="12.2326075"><ele>372.0</ele><time>2026-04-19T08:09:44.807Z</time></trkpt><trkpt lat="42.9536057" lon="12.2325183"><ele>372.0</ele><time>2026-04-19T08:09:47.806Z</time></trkpt><trkpt lat="42.9536392" lon="12.2324213"><ele>372.0</ele><time>2026-04-19T08:09:50.805Z</time></trkpt><trkpt lat="42.9536795" lon="12.2323164"><ele>374.8333333333333</ele><time>2026-04-19T08:09:53.803Z</time></trkpt><trkpt lat="42.9537062" lon="12.232216"><ele>377.66666666666663</ele><time>2026-04-19T08:09:56.814Z</time></trkpt><trkpt lat="42.9537613" lon="12.2321295"><ele>380.5</ele><time>2026-04-19T08:09:59.826Z</time></trkpt><trkpt lat="42.9538203" lon="12.2320589"><ele>383.3333333333333</ele><time>2026-04-19T08:10:02.816Z</time></trkpt><trkpt lat="42.9538915" lon="12.231976"><ele>386.16666666666663</ele><time>2026-04-19T08:10:05.806Z</time></trkpt><trkpt lat="42.9539314" lon="12.2319032"><ele>389.0</ele><time>2026-04-19T08:10:07.822Z</time></trkpt><trkpt lat="42.954004" lon="12.2318172"><ele>388.99999999999994</ele><time>2026-04-19T08:10:10.816Z</time></trkpt><trkpt lat="42.9540502" lon="12.2317492"><ele>389.0</ele><time>2026-04-19T08:10:13.818Z</time></trkpt><trkpt lat="42.9541223" lon="12.231686"><ele>389.0</ele><time>2026-04-19T08:10:17.824Z</time></trkpt><trkpt lat="42.9541744" lon="12.2316171"><ele>389.0</ele><time>2026-04-19T08:10:20.815Z</time></trkpt><trkpt lat="42.954213" lon="12.2315487"><ele>388.99999999999994</ele><time>2026-04-19T08:10:23.817Z</time></trkpt><trkpt lat="42.9542471" lon="12.2314467"><ele>389.0</ele><time>2026-04-19T08:10:26.815Z</time></trkpt><trkpt lat="42.954291" lon="12.2313431"><ele>387.99999999999994</ele><time>2026-04-19T08:10:30.816Z</time></trkpt><trkpt lat="42.9543401" lon="12.2312412"><ele>387.0</ele><time>2026-04-19T08:10:33.819Z</time></trkpt><trkpt lat="42.9543775" lon="12.2311428"><ele>386.0</ele><time>2026-04-19T08:10:37.815Z</time></trkpt><trkpt lat="42.9544108" lon="12.2310554"><ele>385.0</ele><time>2026-04-19T08:10:40.824Z</time></trkpt><trkpt lat="42.9544446" lon="12.2309767"><ele>384.0</ele><time>2026-04-19T08:10:43.817Z</time></trkpt><trkpt lat="42.9544442" lon="12.2308727"><ele>383.0</ele><time>2026-04-19T08:10:46.816Z</time></trkpt><trkpt lat="42.9544377" lon="12.2307427"><ele>383.0</ele><time>2026-04-19T08:10:50.817Z</time></trkpt><trkpt lat="42.9544467" lon="12.2306436"><ele>383.0</ele><time>2026-04-19T08:10:53.821Z</time></trkpt><trkpt lat="42.9544764" lon="12.2305423"><ele>383.0</ele><time>2026-04-19T08:10:56.815Z</time></trkpt><trkpt lat="42.9544985" lon="12.2304595"><ele>383.0</ele><time>2026-04-19T08:10:58.818Z</time></trkpt><trkpt lat="42.9545407" lon="12.2303188"><ele>383.0</ele><time>2026-04-19T08:11:02.814Z</time></trkpt><trkpt lat="42.954576" lon="12.2302134"><ele>383.0</ele><time>2026-04-19T08:11:05.831Z</time></trkpt><trkpt lat="42.9546104" lon="12.2301006"><ele>383.83333333333337</ele><time>2026-04-19T08:11:08.822Z</time></trkpt><trkpt lat="42.954635" lon="12.230019"><ele>384.6666666666667</ele><time>2026-04-19T08:11:10.822Z</time></trkpt><trkpt lat="42.954674" lon="12.2299073"><ele>385.5</ele><time>2026-04-19T08:11:13.823Z</time></trkpt><trkpt lat="42.9547228" lon="12.229816"><ele>386.33333333333337</ele><time>2026-04-19T08:11:16.82Z</time></trkpt><trkpt lat="42.9547529" lon="12.22974"><ele>387.1666666666667</ele><time>2026-04-19T08:11:18.818Z</time></trkpt><trkpt lat="42.9547914" lon="12.229647"><ele>388.0</ele><time>2026-04-19T08:11:21.805Z</time></trkpt><trkpt lat="42.9548358" lon="12.2295682"><ele>389.2857142857143</ele><time>2026-04-19T08:11:24.821Z</time></trkpt><trkpt lat="42.9548898" lon="12.2295043"><ele>390.5714285714286</ele><time>2026-04-19T08:11:27.82Z</time></trkpt><trkpt lat="42.9549374" lon="12.2294006"><ele>391.8571428571429</ele><time>2026-04-19T08:11:30.821Z</time></trkpt><trkpt lat="42.9549564" lon="12.2293163"><ele>393.1428571428571</ele><time>2026-04-19T08:11:32.821Z</time></trkpt><trkpt lat="42.9549707" lon="12.2291932"><ele>394.42857142857144</ele><time>2026-04-19T08:11:35.815Z</time></trkpt><trkpt lat="42.9549724" lon="12.2291054"><ele>395.7142857142857</ele><time>2026-04-19T08:11:37.821Z</time></trkpt><trkpt lat="42.9549602" lon="12.2290188"><ele>397.0</ele><time>2026-04-19T08:11:39.819Z</time></trkpt><trkpt lat="42.9549414" lon="12.2289328"><ele>398.7142857142857</ele><time>2026-04-19T08:11:41.825Z</time></trkpt><trkpt lat="42.9549221" lon="12.2288506"><ele>400.42857142857144</ele><time>2026-04-19T08:11:43.819Z</time></trkpt><trkpt lat="42.9549018" lon="12.2287647"><ele>402.1428571428571</ele><time>2026-04-19T08:11:45.825Z</time></trkpt><trkpt lat="42.9548692" lon="12.2286513"><ele>403.8571428571429</ele><time>2026-04-19T08:11:48.824Z</time></trkpt><trkpt lat="42.9548204" lon="12.2285551"><ele>405.5714285714286</ele><time>2026-04-19T08:11:51.823Z</time></trkpt><trkpt lat="42.9547727" lon="12.2284989"><ele>407.2857142857143</ele><time>2026-04-19T08:11:53.826Z</time></trkpt><trkpt lat="42.9547131" lon="12.2284613"><ele>409.0</ele><time>2026-04-19T08:11:55.816Z</time></trkpt><trkpt lat="42.9546519" lon="12.2284389"><ele>409.00000000000006</ele><time>2026-04-19T08:11:57.824Z</time></trkpt><trkpt lat="42.9545683" lon="12.2284094"><ele>409.0</ele><time>2026-04-19T08:12:00.819Z</time></trkpt><trkpt lat="42.9544895" lon="12.2283946"><ele>409.0</ele><time>2026-04-19T08:12:03.809Z</time></trkpt><trkpt lat="42.9544126" lon="12.2283717"><ele>409.0</ele><time>2026-04-19T08:12:06.824Z</time></trkpt><trkpt lat="42.9543394" lon="12.2283307"><ele>409.00000000000006</ele><time>2026-04-19T08:12:09.829Z</time></trkpt><trkpt lat="42.954277" lon="12.228274"><ele>409.0</ele><time>2026-04-19T08:12:12.811Z</time></trkpt><trkpt lat="42.9542151" lon="12.2282161"><ele>409.33333333333337</ele><time>2026-04-19T08:12:15.815Z</time></trkpt><trkpt lat="42.9541582" lon="12.2281522"><ele>409.6666666666667</ele><time>2026-04-19T08:12:18.827Z</time></trkpt><trkpt lat="42.9541064" lon="12.2280749"><ele>410.0</ele><time>2026-04-19T08:12:21.824Z</time></trkpt><trkpt lat="42.9540676" lon="12.2279839"><ele>410.33333333333337</ele><time>2026-04-19T08:12:24.827Z</time></trkpt><trkpt lat="42.9540316" lon="12.2278885"><ele>410.6666666666667</ele><time>2026-04-19T08:12:27.824Z</time></trkpt><trkpt lat="42.9539907" lon="12.2277936"><ele>411.0</ele><time>2026-04-19T08:12:30.834Z</time></trkpt><trkpt lat="42.9539477" lon="12.2277015"><ele>413.5</ele><time>2026-04-19T08:12:33.823Z</time></trkpt><trkpt lat="42.9538977" lon="12.2276116"><ele>416.0</ele><time>2026-04-19T08:12:36.826Z</time></trkpt><trkpt lat="42.9538479" lon="12.2275213"><ele>418.5</ele><time>2026-04-19T08:12:39.826Z</time></trkpt><trkpt lat="42.9538053" lon="12.2274314"><ele>421.0</ele><time>2026-04-19T08:12:42.823Z</time></trkpt><trkpt lat="42.953765" lon="12.2273431"><ele>423.5</ele><time>2026-04-19T08:12:45.833Z</time></trkpt><trkpt lat="42.9537239" lon="12.2272569"><ele>426.0</ele><time>2026-04-19T08:12:48.825Z</time></trkpt><trkpt lat="42.9536828" lon="12.2271685"><ele>428.0</ele><time>2026-04-19T08:12:51.827Z</time></trkpt><trkpt lat="42.9536542" lon="12.2270721"><ele>430.0</ele><time>2026-04-19T08:12:54.826Z</time></trkpt><trkpt lat="42.9536377" lon="12.2269689"><ele>432.0</ele><time>2026-04-19T08:12:57.832Z</time></trkpt><trkpt lat="42.9536336" lon="12.2268656"><ele>434.0</ele><time>2026-04-19T08:13:00.828Z</time></trkpt><trkpt lat="42.9536389" lon="12.2267653"><ele>436.0</ele><time>2026-04-19T08:13:03.823Z</time></trkpt><trkpt lat="42.9536473" lon="12.2266616"><ele>438.0</ele><time>2026-04-19T08:13:06.818Z</time></trkpt><trkpt lat="42.953681" lon="12.2265716"><ele>438.0</ele><time>2026-04-19T08:13:09.82Z</time></trkpt><trkpt lat="42.9537429" lon="12.2265254"><ele>438.0</ele><time>2026-04-19T08:13:12.829Z</time></trkpt><trkpt lat="42.9538078" lon="12.2265413"><ele>438.0</ele><time>2026-04-19T08:13:15.815Z</time></trkpt><trkpt lat="42.9538813" lon="12.2265908"><ele>438.0</ele><time>2026-04-19T08:13:19.817Z</time></trkpt><trkpt lat="42.9539448" lon="12.2266297"><ele>438.0</ele><time>2026-04-19T08:13:22.814Z</time></trkpt><trkpt lat="42.9540175" lon="12.2266577"><ele>438.0</ele><time>2026-04-19T08:13:27.923Z</time></trkpt><trkpt lat="42.954096" lon="12.2266952"><ele>438.0</ele><time>2026-04-19T08:13:31.818Z</time></trkpt><trkpt lat="42.9541506" lon="12.2267467"><ele>439.6666666666667</ele><time>2026-04-19T08:13:34.82Z</time></trkpt><trkpt lat="42.954209" lon="12.226781"><ele>441.33333333333337</ele><time>2026-04-19T08:13:37.816Z</time></trkpt><trkpt lat="42.9542851" lon="12.2268045"><ele>443.0</ele><time>2026-04-19T08:13:40.818Z</time></trkpt><trkpt lat="42.9543668" lon="12.2268143"><ele>444.6666666666667</ele><time>2026-04-19T08:13:43.823Z</time></trkpt><trkpt lat="42.95444" lon="12.2268424"><ele>446.33333333333337</ele><time>2026-04-19T08:13:46.816Z</time></trkpt><trkpt lat="42.9545167" lon="12.2268865"><ele>448.0</ele><time>2026-04-19T08:13:49.821Z</time></trkpt><trkpt lat="42.954594" lon="12.2269322"><ele>448.00000000000006</ele><time>2026-04-19T08:13:52.821Z</time></trkpt><trkpt lat="42.9546755" lon="12.2269646"><ele>448.0</ele><time>2026-04-19T08:13:55.813Z</time></trkpt><trkpt lat="42.954792" lon="12.226974"><ele>448.0</ele><time>2026-04-19T08:13:59.819Z</time></trkpt><trkpt lat="42.9548749" lon="12.2269759"><ele>448.0</ele><time>2026-04-19T08:14:02.817Z</time></trkpt><trkpt lat="42.9549555" lon="12.2269635"><ele>448.00000000000006</ele><time>2026-04-19T08:14:05.808Z</time></trkpt><trkpt lat="42.9550343" lon="12.2269456"><ele>448.0</ele><time>2026-04-19T08:14:08.819Z</time></trkpt><trkpt lat="42.9550947" lon="12.226916"><ele>446.42857142857144</ele><time>2026-04-19T08:14:11.814Z</time></trkpt><trkpt lat="42.9551609" lon="12.2268908"><ele>444.8571428571429</ele><time>2026-04-19T08:14:15.817Z</time></trkpt><trkpt lat="42.9552338" lon="12.2268595"><ele>443.2857142857143</ele><time>2026-04-19T08:14:19.818Z</time></trkpt><trkpt lat="42.9552878" lon="12.2268082"><ele>441.7142857142857</ele><time>2026-04-19T08:14:22.819Z</time></trkpt><trkpt lat="42.9553357" lon="12.2267453"><ele>440.14285714285717</ele><time>2026-04-19T08:14:25.807Z</time></trkpt><trkpt lat="42.9553783" lon="12.2266797"><ele>438.57142857142856</ele><time>2026-04-19T08:14:28.815Z</time></trkpt><trkpt lat="42.9554296" lon="12.22659"><ele>437.0</ele><time>2026-04-19T08:14:32.804Z</time></trkpt><trkpt lat="42.9554725" lon="12.2264965"><ele>439.71428571428567</ele><time>2026-04-19T08:14:36.813Z</time></trkpt><trkpt lat="42.9554917" lon="12.2264131"><ele>442.42857142857144</ele><time>2026-04-19T08:14:39.802Z</time></trkpt><trkpt lat="42.9554917" lon="12.2263067"><ele>445.1428571428571</ele><time>2026-04-19T08:14:43.818Z</time></trkpt><trkpt lat="42.9555055" lon="12.2261981"><ele>447.85714285714283</ele><time>2026-04-19T08:14:47.812Z</time></trkpt><trkpt lat="42.9555219" lon="12.2260888"><ele>450.57142857142856</ele><time>2026-04-19T08:14:51.819Z</time></trkpt><trkpt lat="42.955542" lon="12.2260014"><ele>453.2857142857143</ele><time>2026-04-19T08:14:54.808Z</time></trkpt><trkpt lat="42.955564" lon="12.2259007"><ele>456.0</ele><time>2026-04-19T08:14:58.823Z</time></trkpt><trkpt lat="42.9555983" lon="12.2257973"><ele>456.0</ele><time>2026-04-19T08:15:02.815Z</time></trkpt><trkpt lat="42.9556307" lon="12.2257205"><ele>455.99999999999994</ele><time>2026-04-19T08:15:05.818Z</time></trkpt><trkpt lat="42.9556671" lon="12.2256437"><ele>456.0</ele><time>2026-04-19T08:15:08.814Z</time></trkpt><trkpt lat="42.9557058" lon="12.2255742"><ele>456.0</ele><time>2026-04-19T08:15:11.816Z</time></trkpt><trkpt lat="42.9557713" lon="12.2255177"><ele>455.99999999999994</ele><time>2026-04-19T08:15:15.816Z</time></trkpt><trkpt lat="42.9558471" lon="12.2254792"><ele>456.0</ele><time>2026-04-19T08:15:18.804Z</time></trkpt><trkpt lat="42.9559071" lon="12.2253983"><ele>456.0</ele><time>2026-04-19T08:15:20.831Z</time></trkpt><trkpt lat="42.9559654" lon="12.2252868"><ele>455.1428571428571</ele><time>2026-04-19T08:15:22.82Z</time></trkpt><trkpt lat="42.9560044" lon="12.2252111"><ele>454.2857142857142</ele><time>2026-04-19T08:15:24.818Z</time></trkpt><trkpt lat="42.9560353" lon="12.2251221"><ele>453.42857142857144</ele><time>2026-04-19T08:15:26.813Z</time></trkpt><trkpt lat="42.9560606" lon="12.2250356"><ele>452.57142857142856</ele><time>2026-04-19T08:15:28.815Z</time></trkpt><trkpt lat="42.9561044" lon="12.2249347"><ele>451.7142857142857</ele><time>2026-04-19T08:15:31.807Z</time></trkpt><trkpt lat="42.956125" lon="12.2248357"><ele>450.8571428571429</ele><time>2026-04-19T08:15:34.817Z</time></trkpt><trkpt lat="42.9561482" lon="12.224743"><ele>450.00000000000006</ele><time>2026-04-19T08:15:37.819Z</time></trkpt><trkpt lat="42.9561591" lon="12.2246489"><ele>452.8571428571429</ele><time>2026-04-19T08:15:40.819Z</time></trkpt><trkpt lat="42.9561654" lon="12.2245369"><ele>455.7142857142857</ele><time>2026-04-19T08:15:44.82Z</time></trkpt><trkpt lat="42.9561653" lon="12.2244387"><ele>458.57142857142856</ele><time>2026-04-19T08:15:48.927Z</time></trkpt><trkpt lat="42.9561706" lon="12.2243511"><ele>461.42857142857144</ele><time>2026-04-19T08:15:52.814Z</time></trkpt><trkpt lat="42.9561682" lon="12.2242385"><ele>464.2857142857142</ele><time>2026-04-19T08:15:56.819Z</time></trkpt><trkpt lat="42.9562035" lon="12.2241498"><ele>467.1428571428571</ele><time>2026-04-19T08:16:00.827Z</time></trkpt><trkpt lat="42.956255" lon="12.2240872"><ele>470.0</ele><time>2026-04-19T08:16:04.821Z</time></trkpt><trkpt lat="42.9563186" lon="12.2240733"><ele>469.99999999999994</ele><time>2026-04-19T08:16:08.822Z</time></trkpt><trkpt lat="42.9563846" lon="12.2240246"><ele>470.0</ele><time>2026-04-19T08:16:12.805Z</time></trkpt><trkpt lat="42.9564456" lon="12.2239674"><ele>470.0</ele><time>2026-04-19T08:16:16.811Z</time></trkpt><trkpt lat="42.9564919" lon="12.2238941"><ele>470.0</ele><time>2026-04-19T08:16:20.806Z</time></trkpt><trkpt lat="42.9564999" lon="12.2237794"><ele>469.99999999999994</ele><time>2026-04-19T08:16:24.819Z</time></trkpt><trkpt lat="42.9564876" lon="12.2236676"><ele>470.0</ele><time>2026-04-19T08:16:28.814Z</time></trkpt><trkpt lat="42.9564731" lon="12.2235771"><ele>472.99999999999994</ele><time>2026-04-19T08:16:31.819Z</time></trkpt><trkpt lat="42.9564481" lon="12.2234841"><ele>476.0</ele><time>2026-04-19T08:16:34.816Z</time></trkpt><trkpt lat="42.9564176" lon="12.223402"><ele>479.0</ele><time>2026-04-19T08:16:37.823Z</time></trkpt><trkpt lat="42.9563749" lon="12.2233127"><ele>482.0</ele><time>2026-04-19T08:16:40.895Z</time></trkpt><trkpt lat="42.9563401" lon="12.2232009"><ele>484.99999999999994</ele><time>2026-04-19T08:16:43.816Z</time></trkpt><trkpt lat="42.9563092" lon="12.2230865"><ele>488.0</ele><time>2026-04-19T08:16:46.813Z</time></trkpt><trkpt lat="42.9562876" lon="12.2229704"><ele>490.66666666666663</ele><time>2026-04-19T08:16:49.818Z</time></trkpt><trkpt lat="42.9562718" lon="12.2228552"><ele>493.3333333333333</ele><time>2026-04-19T08:16:52.815Z</time></trkpt><trkpt lat="42.9562615" lon="12.2227465"><ele>496.0</ele><time>2026-04-19T08:16:55.823Z</time></trkpt><trkpt lat="42.9562493" lon="12.2226539"><ele>498.66666666666663</ele><time>2026-04-19T08:16:58.819Z</time></trkpt><trkpt lat="42.9562309" lon="12.2225474"><ele>501.3333333333333</ele><time>2026-04-19T08:17:01.816Z</time></trkpt><trkpt lat="42.9562097" lon="12.2224459"><ele>504.0</ele><time>2026-04-19T08:17:04.933Z</time></trkpt><trkpt lat="42.9561805" lon="12.2223425"><ele>503.1666666666667</ele><time>2026-04-19T08:17:07.816Z</time></trkpt><trkpt lat="42.9561586" lon="12.2222586"><ele>502.33333333333337</ele><time>2026-04-19T08:17:10.819Z</time></trkpt><trkpt lat="42.9560977" lon="12.2221805"><ele>501.5</ele><time>2026-04-19T08:17:14.817Z</time></trkpt><trkpt lat="42.9560095" lon="12.2221008"><ele>500.6666666666667</ele><time>2026-04-19T08:17:18.826Z</time></trkpt><trkpt lat="42.9559408" lon="12.222042"><ele>499.83333333333337</ele><time>2026-04-19T08:17:21.831Z</time></trkpt><trkpt lat="42.9558876" lon="12.2219768"><ele>499.0</ele><time>2026-04-19T08:17:24.828Z</time></trkpt><trkpt lat="42.9558292" lon="12.2219256"><ele>499.00000000000006</ele><time>2026-04-19T08:17:27.824Z</time></trkpt><trkpt lat="42.955797" lon="12.2218351"><ele>499.0</ele><time>2026-04-19T08:17:30.826Z</time></trkpt><trkpt lat="42.9558255" lon="12.2217522"><ele>499.00000000000006</ele><time>2026-04-19T08:17:33.824Z</time></trkpt><trkpt lat="42.9558948" lon="12.2217387"><ele>499.00000000000006</ele><time>2026-04-19T08:17:36.824Z</time></trkpt><trkpt lat="42.9559603" lon="12.2217266"><ele>499.0</ele><time>2026-04-19T08:17:39.824Z</time></trkpt><trkpt lat="42.9560129" lon="12.2216499"><ele>499.00000000000006</ele><time>2026-04-19T08:17:42.825Z</time></trkpt><trkpt lat="42.9560539" lon="12.2215698"><ele>499.00000000000006</ele><time>2026-04-19T08:17:45.823Z</time></trkpt><trkpt lat="42.9561288" lon="12.2215442"><ele>501.1428571428572</ele><time>2026-04-19T08:17:49.826Z</time></trkpt><trkpt lat="42.9561761" lon="12.2216058"><ele>503.28571428571433</ele><time>2026-04-19T08:17:52.821Z</time></trkpt><trkpt lat="42.9562245" lon="12.2216804"><ele>505.42857142857144</ele><time>2026-04-19T08:17:55.831Z</time></trkpt><trkpt lat="42.9562873" lon="12.221743"><ele>507.5714285714286</ele><time>2026-04-19T08:17:58.924Z</time></trkpt><trkpt lat="42.9563485" lon="12.2217908"><ele>509.7142857142858</ele><time>2026-04-19T08:18:01.824Z</time></trkpt><trkpt lat="42.9564148" lon="12.2218403"><ele>511.85714285714283</ele><time>2026-04-19T08:18:04.822Z</time></trkpt><trkpt lat="42.9564856" lon="12.221872"><ele>514.0</ele><time>2026-04-19T08:18:07.817Z</time></trkpt><trkpt lat="42.9565618" lon="12.2218802"><ele>514.0</ele><time>2026-04-19T08:18:10.824Z</time></trkpt><trkpt lat="42.9566261" lon="12.2218922"><ele>514.0</ele><time>2026-04-19T08:18:13.822Z</time></trkpt><trkpt lat="42.9566964" lon="12.2218456"><ele>514.0</ele><time>2026-04-19T08:18:17.822Z</time></trkpt><trkpt lat="42.9567155" lon="12.2217592"><ele>514.0</ele><time>2026-04-19T08:18:20.833Z</time></trkpt><trkpt lat="42.9567328" lon="12.2216629"><ele>514.0</ele><time>2026-04-19T08:18:23.827Z</time></trkpt><trkpt lat="42.9567518" lon="12.2215653"><ele>514.0</ele><time>2026-04-19T08:18:26.827Z</time></trkpt><trkpt lat="42.9567629" lon="12.2214643"><ele>514.0</ele><time>2026-04-19T08:18:29.827Z</time></trkpt><trkpt lat="42.9567773" lon="12.2213617"><ele>515.1428571428571</ele><time>2026-04-19T08:18:32.825Z</time></trkpt><trkpt lat="42.9567885" lon="12.221256"><ele>516.2857142857143</ele><time>2026-04-19T08:18:35.826Z</time></trkpt><trkpt lat="42.9567821" lon="12.2211632"><ele>517.4285714285714</ele><time>2026-04-19T08:18:38.825Z</time></trkpt><trkpt lat="42.956745" lon="12.2210811"><ele>518.5714285714286</ele><time>2026-04-19T08:18:41.83Z</time></trkpt><trkpt lat="42.9566855" lon="12.2210224"><ele>519.7142857142857</ele><time>2026-04-19T08:18:44.823Z</time></trkpt><trkpt lat="42.9566342" lon="12.220957"><ele>520.8571428571429</ele><time>2026-04-19T08:18:47.831Z</time></trkpt><trkpt lat="42.9566039" lon="12.2208636"><ele>522.0</ele><time>2026-04-19T08:18:51.823Z</time></trkpt><trkpt lat="42.9566715" lon="12.2208039"><ele>522.7142857142858</ele><time>2026-04-19T08:18:55.832Z</time></trkpt><trkpt lat="42.956739" lon="12.2208222"><ele>523.4285714285714</ele><time>2026-04-19T08:18:58.83Z</time></trkpt><trkpt lat="42.956805" lon="12.2208197"><ele>524.1428571428571</ele><time>2026-04-19T08:19:01.827Z</time></trkpt><trkpt lat="42.9568679" lon="12.220784"><ele>524.8571428571429</ele><time>2026-04-19T08:19:04.807Z</time></trkpt><trkpt lat="42.9568882" lon="12.2206767"><ele>525.5714285714286</ele><time>2026-04-19T08:19:08.81Z</time></trkpt><trkpt lat="42.9568438" lon="12.2206025"><ele>526.2857142857143</ele><time>2026-04-19T08:19:11.806Z</time></trkpt><trkpt lat="42.9567944" lon="12.2205371"><ele>527.0</ele><time>2026-04-19T08:19:14.809Z</time></trkpt><trkpt lat="42.9568093" lon="12.2204302"><ele>530.1666666666666</ele><time>2026-04-19T08:19:18.833Z</time></trkpt><trkpt lat="42.9568786" lon="12.2203656"><ele>533.3333333333333</ele><time>2026-04-19T08:19:22.806Z</time></trkpt><trkpt lat="42.9569514" lon="12.2203313"><ele>536.5</ele><time>2026-04-19T08:19:26.802Z</time></trkpt><trkpt lat="42.9570203" lon="12.220273"><ele>539.6666666666666</ele><time>2026-04-19T08:19:30.806Z</time></trkpt><trkpt lat="42.9570831" lon="12.2202194"><ele>542.8333333333334</ele><time>2026-04-19T08:19:34.817Z</time></trkpt><trkpt lat="42.9571447" lon="12.2201498"><ele>546.0</ele><time>2026-04-19T08:19:38.812Z</time></trkpt><trkpt lat="42.9572089" lon="12.2201059"><ele>546.0</ele><time>2026-04-19T08:19:43.811Z</time></trkpt><trkpt lat="42.9572872" lon="12.2200969"><ele>546.0</ele><time>2026-04-19T08:19:47.817Z</time></trkpt><trkpt lat="42.9573585" lon="12.2200818"><ele>546.0</ele><time>2026-04-19T08:19:50.803Z</time></trkpt><trkpt lat="42.9574415" lon="12.2200686"><ele>546.0</ele><time>2026-04-19T08:19:54.819Z</time></trkpt><trkpt lat="42.9575203" lon="12.2200636"><ele>546.0</ele><time>2026-04-19T08:19:58.814Z</time></trkpt><trkpt lat="42.9575886" lon="12.2200703"><ele>546.0</ele><time>2026-04-19T08:20:01.819Z</time></trkpt><trkpt lat="42.9576646" lon="12.2200696"><ele>547.1428571428571</ele><time>2026-04-19T08:20:04.8Z</time></trkpt><trkpt lat="42.9577446" lon="12.2200643"><ele>548.2857142857142</ele><time>2026-04-19T08:20:07.829Z</time></trkpt><trkpt lat="42.9578169" lon="12.220055"><ele>549.4285714285714</ele><time>2026-04-19T08:20:10.812Z</time></trkpt><trkpt lat="42.9578835" lon="12.2200426"><ele>550.5714285714286</ele><time>2026-04-19T08:20:13.806Z</time></trkpt><trkpt lat="42.9579509" lon="12.2200283"><ele>551.7142857142857</ele><time>2026-04-19T08:20:16.825Z</time></trkpt><trkpt lat="42.9580172" lon="12.2200094"><ele>552.8571428571429</ele><time>2026-04-19T08:20:19.802Z</time></trkpt><trkpt lat="42.9580879" lon="12.219998"><ele>554.0</ele><time>2026-04-19T08:20:22.825Z</time></trkpt><trkpt lat="42.9581523" lon="12.2199827"><ele>554.0</ele><time>2026-04-19T08:20:25.814Z</time></trkpt><trkpt lat="42.9582132" lon="12.2199523"><ele>554.0</ele><time>2026-04-19T08:20:40.814Z</time></trkpt><trkpt lat="42.9582731" lon="12.2199946"><ele>554.0</ele><time>2026-04-19T08:20:58.813Z</time></trkpt><trkpt lat="42.9583542" lon="12.2199866"><ele>554.0</ele><time>2026-04-19T08:21:06.815Z</time></trkpt><trkpt lat="42.9584284" lon="12.2200067"><ele>554.0</ele><time>2026-04-19T08:21:10.819Z</time></trkpt><trkpt lat="42.9585017" lon="12.2200357"><ele>554.0</ele><time>2026-04-19T08:21:14.817Z</time></trkpt><trkpt lat="42.9585674" lon="12.2200476"><ele>554.0</ele><time>2026-04-19T08:21:18.815Z</time></trkpt><trkpt lat="42.9586313" lon="12.2200562"><ele>554.7142857142857</ele><time>2026-04-19T08:21:21.814Z</time></trkpt><trkpt lat="42.9587042" lon="12.2200474"><ele>555.4285714285713</ele><time>2026-04-19T08:21:25.814Z</time></trkpt><trkpt lat="42.9587675" lon="12.2200572"><ele>556.1428571428571</ele><time>2026-04-19T08:21:29.815Z</time></trkpt><trkpt lat="42.9588445" lon="12.2200216"><ele>556.8571428571429</ele><time>2026-04-19T08:21:33.81Z</time></trkpt><trkpt lat="42.958909" lon="12.2200086"><ele>557.5714285714287</ele><time>2026-04-19T08:21:36.816Z</time></trkpt><trkpt lat="42.9589879" lon="12.2199764"><ele>558.2857142857143</ele><time>2026-04-19T08:21:39.82Z</time></trkpt><trkpt lat="42.9590467" lon="12.219918"><ele>559.0</ele><time>2026-04-19T08:21:43.914Z</time></trkpt><trkpt lat="42.9590943" lon="12.219859"><ele>560.1666666666667</ele><time>2026-04-19T08:21:46.812Z</time></trkpt><trkpt lat="42.9591661" lon="12.2197583"><ele>561.3333333333334</ele><time>2026-04-19T08:21:51.819Z</time></trkpt><trkpt lat="42.9592115" lon="12.219667"><ele>562.5</ele><time>2026-04-19T08:21:54.815Z</time></trkpt><trkpt lat="42.9592597" lon="12.2195674"><ele>563.6666666666666</ele><time>2026-04-19T08:21:57.814Z</time></trkpt><trkpt lat="42.9593039" lon="12.2194939"><ele>564.8333333333333</ele><time>2026-04-19T08:22:00.935Z</time></trkpt><trkpt lat="42.9593395" lon="12.2194058"><ele>566.0</ele><time>2026-04-19T08:22:03.822Z</time></trkpt><trkpt lat="42.9593446" lon="12.2192982"><ele>566.0</ele><time>2026-04-19T08:22:06.817Z</time></trkpt><trkpt lat="42.9593482" lon="12.2192041"><ele>566.0</ele><time>2026-04-19T08:22:09.824Z</time></trkpt><trkpt lat="42.959345" lon="12.2191125"><ele>566.0</ele><time>2026-04-19T08:22:14.825Z</time></trkpt><trkpt lat="42.9593127" lon="12.2190381"><ele>566.0</ele><time>2026-04-19T08:22:18.828Z</time></trkpt><trkpt lat="42.9592505" lon="12.2190595"><ele>566.0</ele><time>2026-04-19T08:22:22.828Z</time></trkpt><trkpt lat="42.9591843" lon="12.2189963"><ele>566.0</ele><time>2026-04-19T08:29:45.819Z</time></trkpt><trkpt lat="42.9591198" lon="12.2189843"><ele>566.0</ele><time>2026-04-19T08:29:48.814Z</time></trkpt><trkpt lat="42.9590584" lon="12.2189594"><ele>565.3333333333333</ele><time>2026-04-19T08:29:51.814Z</time></trkpt><trkpt lat="42.9589734" lon="12.2189527"><ele>564.6666666666666</ele><time>2026-04-19T08:29:55.821Z</time></trkpt><trkpt lat="42.9589082" lon="12.2189707"><ele>564.0</ele><time>2026-04-19T08:29:58.814Z</time></trkpt><trkpt lat="42.9588288" lon="12.2189573"><ele>563.3333333333334</ele><time>2026-04-19T08:30:02.815Z</time></trkpt><trkpt lat="42.9587637" lon="12.2189635"><ele>562.6666666666667</ele><time>2026-04-19T08:30:05.813Z</time></trkpt><trkpt lat="42.9586752" lon="12.2189627"><ele>562.0</ele><time>2026-04-19T08:30:08.824Z</time></trkpt><trkpt lat="42.9585703" lon="12.21891"><ele>562.0</ele><time>2026-04-19T08:30:12.832Z</time></trkpt><trkpt lat="42.9585018" lon="12.2188545"><ele>562.0</ele><time>2026-04-19T08:30:15.815Z</time></trkpt><trkpt lat="42.9584207" lon="12.2188222"><ele>562.0</ele><time>2026-04-19T08:30:18.814Z</time></trkpt><trkpt lat="42.9583375" lon="12.2188107"><ele>562.0</ele><time>2026-04-19T08:30:21.821Z</time></trkpt><trkpt lat="42.9582597" lon="12.2187901"><ele>562.0</ele><time>2026-04-19T08:30:24.82Z</time></trkpt><trkpt lat="42.9581953" lon="12.2187229"><ele>562.0</ele><time>2026-04-19T08:30:27.808Z</time></trkpt><trkpt lat="42.9581813" lon="12.2186373"><ele>562.5</ele><time>2026-04-19T08:30:29.816Z</time></trkpt><trkpt lat="42.9581534" lon="12.2185565"><ele>563.0</ele><time>2026-04-19T08:30:32.819Z</time></trkpt><trkpt lat="42.9580899" lon="12.2184842"><ele>563.5</ele><time>2026-04-19T08:30:35.831Z</time></trkpt><trkpt lat="42.9580229" lon="12.2184101"><ele>564.0</ele><time>2026-04-19T08:30:38.825Z</time></trkpt><trkpt lat="42.9579474" lon="12.2183338"><ele>564.5</ele><time>2026-04-19T08:30:41.826Z</time></trkpt><trkpt lat="42.9578908" lon="12.2182852"><ele>565.0</ele><time>2026-04-19T08:30:43.814Z</time></trkpt><trkpt lat="42.957809" lon="12.2182223"><ele>565.0</ele><time>2026-04-19T08:30:46.813Z</time></trkpt><trkpt lat="42.9577271" lon="12.2181694"><ele>565.0</ele><time>2026-04-19T08:30:49.815Z</time></trkpt><trkpt lat="42.9576429" lon="12.2181183"><ele>565.0</ele><time>2026-04-19T08:30:52.823Z</time></trkpt><trkpt lat="42.957562" lon="12.2180721"><ele>565.0</ele><time>2026-04-19T08:30:55.813Z</time></trkpt><trkpt lat="42.9574853" lon="12.2180293"><ele>565.0</ele><time>2026-04-19T08:30:58.825Z</time></trkpt><trkpt lat="42.9574157" lon="12.2179748"><ele>565.0</ele><time>2026-04-19T08:31:01.821Z</time></trkpt><trkpt lat="42.9573482" lon="12.2178987"><ele>565.6666666666667</ele><time>2026-04-19T08:31:04.824Z</time></trkpt><trkpt lat="42.9572867" lon="12.2178018"><ele>566.3333333333334</ele><time>2026-04-19T08:31:07.816Z</time></trkpt><trkpt lat="42.9572349" lon="12.2177428"><ele>567.0</ele><time>2026-04-19T08:31:09.816Z</time></trkpt><trkpt lat="42.9571701" lon="12.2176958"><ele>567.6666666666666</ele><time>2026-04-19T08:31:11.816Z</time></trkpt><trkpt lat="42.9571137" lon="12.2176437"><ele>568.3333333333333</ele><time>2026-04-19T08:31:13.814Z</time></trkpt><trkpt lat="42.95703" lon="12.2175853"><ele>569.0</ele><time>2026-04-19T08:31:15.83Z</time></trkpt><trkpt lat="42.9569693" lon="12.2175079"><ele>569.0</ele><time>2026-04-19T08:31:17.821Z</time></trkpt><trkpt lat="42.9569405" lon="12.2173937"><ele>569.0</ele><time>2026-04-19T08:31:19.832Z</time></trkpt><trkpt lat="42.9569206" lon="12.2172498"><ele>569.0</ele><time>2026-04-19T08:31:21.822Z</time></trkpt><trkpt lat="42.9568729" lon="12.2170979"><ele>569.0</ele><time>2026-04-19T08:31:23.821Z</time></trkpt><trkpt lat="42.9568354" lon="12.2170208"><ele>569.0</ele><time>2026-04-19T08:31:24.823Z</time></trkpt><trkpt lat="42.9567923" lon="12.2169517"><ele>568.6666666666666</ele><time>2026-04-19T08:31:25.828Z</time></trkpt><trkpt lat="42.9567113" lon="12.216859"><ele>568.3333333333333</ele><time>2026-04-19T08:31:27.821Z</time></trkpt><trkpt lat="42.9566467" lon="12.2168035"><ele>568.0</ele><time>2026-04-19T08:31:29.812Z</time></trkpt><trkpt lat="42.9565901" lon="12.216754"><ele>567.6666666666666</ele><time>2026-04-19T08:31:31.81Z</time></trkpt><trkpt lat="42.9565194" lon="12.2166873"><ele>567.3333333333334</ele><time>2026-04-19T08:31:33.821Z</time></trkpt><trkpt lat="42.9564296" lon="12.2166021"><ele>567.0</ele><time>2026-04-19T08:31:35.815Z</time></trkpt><trkpt lat="42.9563316" lon="12.2165012"><ele>564.8333333333334</ele><time>2026-04-19T08:31:37.819Z</time></trkpt><trkpt lat="42.9562759" lon="12.2164487"><ele>562.6666666666666</ele><time>2026-04-19T08:31:38.812Z</time></trkpt><trkpt lat="42.9562183" lon="12.216384"><ele>560.5</ele><time>2026-04-19T08:31:39.815Z</time></trkpt><trkpt lat="42.9561557" lon="12.2163192"><ele>558.3333333333333</ele><time>2026-04-19T08:31:40.814Z</time></trkpt><trkpt lat="42.9560875" lon="12.2162508"><ele>556.1666666666666</ele><time>2026-04-19T08:31:41.815Z</time></trkpt><trkpt lat="42.9560209" lon="12.216182"><ele>554.0</ele><time>2026-04-19T08:31:42.814Z</time></trkpt><trkpt lat="42.9559523" lon="12.2161008"><ele>554.0</ele><time>2026-04-19T08:31:43.807Z</time></trkpt><trkpt lat="42.955891" lon="12.2160131"><ele>554.0</ele><time>2026-04-19T08:31:44.811Z</time></trkpt><trkpt lat="42.9558276" lon="12.2159294"><ele>554.0</ele><time>2026-04-19T08:31:45.814Z</time></trkpt><trkpt lat="42.9557729" lon="12.2158408"><ele>554.0</ele><time>2026-04-19T08:31:46.815Z</time></trkpt><trkpt lat="42.9557211" lon="12.2157561"><ele>554.0</ele><time>2026-04-19T08:31:47.818Z</time></trkpt><trkpt lat="42.9556776" lon="12.2156691"><ele>554.0</ele><time>2026-04-19T08:31:48.814Z</time></trkpt><trkpt lat="42.955631" lon="12.2155835"><ele>553.5</ele><time>2026-04-19T08:31:49.821Z</time></trkpt><trkpt lat="42.9555827" lon="12.2155147"><ele>553.0</ele><time>2026-04-19T08:31:50.815Z</time></trkpt><trkpt lat="42.9555294" lon="12.2154613"><ele>552.5</ele><time>2026-04-19T08:31:51.815Z</time></trkpt><trkpt lat="42.9554763" lon="12.215409"><ele>552.0</ele><time>2026-04-19T08:31:52.811Z</time></trkpt><trkpt lat="42.9554318" lon="12.2153461"><ele>551.5</ele><time>2026-04-19T08:31:53.809Z</time></trkpt><trkpt lat="42.9553688" lon="12.2152353"><ele>551.0</ele><time>2026-04-19T08:31:55.812Z</time></trkpt><trkpt lat="42.9553216" lon="12.2151368"><ele>551.0</ele><time>2026-04-19T08:31:57.818Z</time></trkpt><trkpt lat="42.9552741" lon="12.2150546"><ele>551.0</ele><time>2026-04-19T08:31:59.808Z</time></trkpt><trkpt lat="42.9552196" lon="12.2149805"><ele>551.0</ele><time>2026-04-19T08:32:01.811Z</time></trkpt><trkpt lat="42.9551614" lon="12.2149071"><ele>551.0</ele><time>2026-04-19T08:32:03.824Z</time></trkpt><trkpt lat="42.955096" lon="12.2148493"><ele>551.0</ele><time>2026-04-19T08:32:05.811Z</time></trkpt><trkpt lat="42.9550596" lon="12.2147319"><ele>551.0</ele><time>2026-04-19T08:32:08.813Z</time></trkpt><trkpt lat="42.9550437" lon="12.2146478"><ele>551.8333333333333</ele><time>2026-04-19T08:32:10.81Z</time></trkpt><trkpt lat="42.9550152" lon="12.2145609"><ele>552.6666666666666</ele><time>2026-04-19T08:32:12.81Z</time></trkpt><trkpt lat="42.9549785" lon="12.2144738"><ele>553.5</ele><time>2026-04-19T08:32:14.813Z</time></trkpt><trkpt lat="42.9549291" lon="12.2143929"><ele>554.3333333333334</ele><time>2026-04-19T08:32:16.82Z</time></trkpt><trkpt lat="42.9548577" lon="12.2143449"><ele>555.1666666666667</ele><time>2026-04-19T08:32:18.811Z</time></trkpt><trkpt lat="42.954778" lon="12.2143308"><ele>556.0</ele><time>2026-04-19T08:32:20.912Z</time></trkpt><trkpt lat="42.9546982" lon="12.2142899"><ele>556.0</ele><time>2026-04-19T08:32:22.818Z</time></trkpt><trkpt lat="42.9546684" lon="12.2141829"><ele>556.0</ele><time>2026-04-19T08:32:24.824Z</time></trkpt><trkpt lat="42.9546478" lon="12.2140488"><ele>556.0</ele><time>2026-04-19T08:32:26.824Z</time></trkpt><trkpt lat="42.954622" lon="12.21392"><ele>556.0</ele><time>2026-04-19T08:32:28.815Z</time></trkpt><trkpt lat="42.9545792" lon="12.2137899"><ele>556.0</ele><time>2026-04-19T08:32:30.813Z</time></trkpt><trkpt lat="42.9545222" lon="12.2136996"><ele>554.4285714285714</ele><time>2026-04-19T08:32:32.812Z</time></trkpt><trkpt lat="42.9544723" lon="12.2136177"><ele>552.8571428571429</ele><time>2026-04-19T08:32:34.799Z</time></trkpt><trkpt lat="42.9544391" lon="12.2135388"><ele>551.2857142857143</ele><time>2026-04-19T08:32:36.811Z</time></trkpt><trkpt lat="42.9544215" lon="12.213445"><ele>549.7142857142858</ele><time>2026-04-19T08:32:38.81Z</time></trkpt><trkpt lat="42.9544044" lon="12.2133535"><ele>548.1428571428572</ele><time>2026-04-19T08:32:40.814Z</time></trkpt><trkpt lat="42.9544028" lon="12.2132657"><ele>546.5714285714286</ele><time>2026-04-19T08:32:42.812Z</time></trkpt><trkpt lat="42.9543909" lon="12.2131745"><ele>545.0</ele><time>2026-04-19T08:32:44.817Z</time></trkpt><trkpt lat="42.9543764" lon="12.2130894"><ele>543.8571428571429</ele><time>2026-04-19T08:32:46.819Z</time></trkpt><trkpt lat="42.9543553" lon="12.2130069"><ele>542.7142857142858</ele><time>2026-04-19T08:32:48.811Z</time></trkpt><trkpt lat="42.9543174" lon="12.2129313"><ele>541.5714285714286</ele><time>2026-04-19T08:32:50.802Z</time></trkpt><trkpt lat="42.9542697" lon="12.2128609"><ele>540.4285714285714</ele><time>2026-04-19T08:32:52.833Z</time></trkpt><trkpt lat="42.9541999" lon="12.212787"><ele>539.2857142857142</ele><time>2026-04-19T08:32:55.91Z</time></trkpt><trkpt lat="42.9541483" lon="12.2127365"><ele>538.1428571428571</ele><time>2026-04-19T08:32:57.81Z</time></trkpt><trkpt lat="42.9540873" lon="12.2126835"><ele>537.0</ele><time>2026-04-19T08:32:59.807Z</time></trkpt><trkpt lat="42.9540306" lon="12.212623"><ele>539.1428571428571</ele><time>2026-04-19T08:33:01.802Z</time></trkpt><trkpt lat="42.953979" lon="12.2125559"><ele>541.2857142857142</ele><time>2026-04-19T08:33:03.811Z</time></trkpt><trkpt lat="42.9539292" lon="12.2124869"><ele>543.4285714285714</ele><time>2026-04-19T08:33:05.81Z</time></trkpt><trkpt lat="42.9538814" lon="12.2124106"><ele>545.5714285714286</ele><time>2026-04-19T08:33:07.809Z</time></trkpt><trkpt lat="42.9538146" lon="12.2123487"><ele>547.7142857142858</ele><time>2026-04-19T08:33:09.814Z</time></trkpt><trkpt lat="42.9537634" lon="12.2122799"><ele>549.8571428571429</ele><time>2026-04-19T08:33:11.825Z</time></trkpt><trkpt lat="42.9537177" lon="12.2122079"><ele>552.0</ele><time>2026-04-19T08:33:13.818Z</time></trkpt><trkpt lat="42.9536692" lon="12.2121372"><ele>552.0</ele><time>2026-04-19T08:33:15.828Z</time></trkpt><trkpt lat="42.9536129" lon="12.2120738"><ele>552.0</ele><time>2026-04-19T08:33:17.817Z</time></trkpt><trkpt lat="42.9535485" lon="12.2120216"><ele>552.0</ele><time>2026-04-19T08:33:19.83Z</time></trkpt><trkpt lat="42.9534701" lon="12.2119841"><ele>552.0</ele><time>2026-04-19T08:33:21.814Z</time></trkpt><trkpt lat="42.9533853" lon="12.2119522"><ele>552.0</ele><time>2026-04-19T08:33:23.825Z</time></trkpt><trkpt lat="42.9533064" lon="12.2119201"><ele>552.0</ele><time>2026-04-19T08:33:25.802Z</time></trkpt><trkpt lat="42.9532287" lon="12.2118883"><ele>554.0</ele><time>2026-04-19T08:33:27.82Z</time></trkpt><trkpt lat="42.9531556" lon="12.2118549"><ele>556.0</ele><time>2026-04-19T08:33:29.815Z</time></trkpt><trkpt lat="42.9530818" lon="12.2118266"><ele>558.0</ele><time>2026-04-19T08:33:31.817Z</time></trkpt><trkpt lat="42.953008" lon="12.211789"><ele>560.0</ele><time>2026-04-19T08:33:33.839Z</time></trkpt><trkpt lat="42.952938" lon="12.2117383"><ele>562.0</ele><time>2026-04-19T08:33:35.833Z</time></trkpt><trkpt lat="42.9528672" lon="12.2116782"><ele>564.0</ele><time>2026-04-19T08:33:37.829Z</time></trkpt><trkpt lat="42.9527988" lon="12.2116206"><ele>564.0</ele><time>2026-04-19T08:33:39.817Z</time></trkpt><trkpt lat="42.9527357" lon="12.2115515"><ele>564.0</ele><time>2026-04-19T08:33:41.823Z</time></trkpt><trkpt lat="42.9526623" lon="12.2114364"><ele>564.0</ele><time>2026-04-19T08:33:44.835Z</time></trkpt><trkpt lat="42.9526201" lon="12.211349"><ele>564.0</ele><time>2026-04-19T08:33:46.818Z</time></trkpt><trkpt lat="42.952588" lon="12.2112603"><ele>564.0</ele><time>2026-04-19T08:33:48.821Z</time></trkpt><trkpt lat="42.952555" lon="12.21118"><ele>564.0</ele><time>2026-04-19T08:33:50.821Z</time></trkpt><trkpt lat="42.9525242" lon="12.2110978"><ele>564.6666666666666</ele><time>2026-04-19T08:33:52.817Z</time></trkpt><trkpt lat="42.952498" lon="12.2110176"><ele>565.3333333333334</ele><time>2026-04-19T08:33:54.814Z</time></trkpt><trkpt lat="42.952475" lon="12.2109079"><ele>566.0</ele><time>2026-04-19T08:33:57.816Z</time></trkpt><trkpt lat="42.9524866" lon="12.2107859"><ele>566.6666666666667</ele><time>2026-04-19T08:34:00.937Z</time></trkpt><trkpt lat="42.9524833" lon="12.2106986"><ele>567.3333333333334</ele><time>2026-04-19T08:34:02.822Z</time></trkpt><trkpt lat="42.9524758" lon="12.210607"><ele>568.0</ele><time>2026-04-19T08:34:04.826Z</time></trkpt><trkpt lat="42.952487" lon="12.2104845"><ele>568.0</ele><time>2026-04-19T08:34:07.82Z</time></trkpt><trkpt lat="42.9524973" lon="12.210397"><ele>568.0</ele><time>2026-04-19T08:34:10.815Z</time></trkpt><trkpt lat="42.9525268" lon="12.2102835"><ele>568.0</ele><time>2026-04-19T08:36:55.801Z</time></trkpt><trkpt lat="42.9525381" lon="12.2101841"><ele>568.0</ele><time>2026-04-19T08:36:57.813Z</time></trkpt><trkpt lat="42.9525599" lon="12.2100389"><ele>568.0</ele><time>2026-04-19T08:36:59.817Z</time></trkpt><trkpt lat="42.952564" lon="12.2099481"><ele>568.0</ele><time>2026-04-19T08:37:00.822Z</time></trkpt><trkpt lat="42.9525692" lon="12.2098541"><ele>562.8333333333334</ele><time>2026-04-19T08:37:01.83Z</time></trkpt><trkpt lat="42.9525723" lon="12.2097518"><ele>557.6666666666667</ele><time>2026-04-19T08:37:02.823Z</time></trkpt><trkpt lat="42.9525793" lon="12.2096399"><ele>552.5</ele><time>2026-04-19T08:37:03.828Z</time></trkpt><trkpt lat="42.9525921" lon="12.2095241"><ele>547.3333333333334</ele><time>2026-04-19T08:37:04.813Z</time></trkpt><trkpt lat="42.9526083" lon="12.2094022"><ele>542.1666666666666</ele><time>2026-04-19T08:37:05.816Z</time></trkpt><trkpt lat="42.9526281" lon="12.2092804"><ele>537.0</ele><time>2026-04-19T08:37:06.822Z</time></trkpt><trkpt lat="42.952646" lon="12.2091728"><ele>536.9999999999999</ele><time>2026-04-19T08:37:07.82Z</time></trkpt><trkpt lat="42.952662" lon="12.2090771"><ele>537.0</ele><time>2026-04-19T08:37:08.82Z</time></trkpt><trkpt lat="42.9526695" lon="12.2089833"><ele>537.0</ele><time>2026-04-19T08:37:09.824Z</time></trkpt><trkpt lat="42.9526712" lon="12.2088901"><ele>537.0</ele><time>2026-04-19T08:37:10.817Z</time></trkpt><trkpt lat="42.9526632" lon="12.2087931"><ele>537.0</ele><time>2026-04-19T08:37:11.818Z</time></trkpt><trkpt lat="42.9526452" lon="12.2086924"><ele>536.9999999999999</ele><time>2026-04-19T08:37:12.817Z</time></trkpt><trkpt lat="42.9526198" lon="12.2085844"><ele>537.0</ele><time>2026-04-19T08:37:13.82Z</time></trkpt><trkpt lat="42.9525926" lon="12.2084774"><ele>535.5</ele><time>2026-04-19T08:37:14.822Z</time></trkpt><trkpt lat="42.952564" lon="12.2083739"><ele>534.0</ele><time>2026-04-19T08:37:15.824Z</time></trkpt><trkpt lat="42.9525668" lon="12.2082698"><ele>532.5</ele><time>2026-04-19T08:37:16.816Z</time></trkpt><trkpt lat="42.9525864" lon="12.2081661"><ele>531.0</ele><time>2026-04-19T08:37:17.812Z</time></trkpt><trkpt lat="42.9526139" lon="12.2080652"><ele>529.5</ele><time>2026-04-19T08:37:18.799Z</time></trkpt><trkpt lat="42.9526374" lon="12.2079591"><ele>528.0</ele><time>2026-04-19T08:37:19.813Z</time></trkpt><trkpt lat="42.952648" lon="12.2078482"><ele>526.6</ele><time>2026-04-19T08:37:20.81Z</time></trkpt><trkpt lat="42.9526466" lon="12.2077262"><ele>525.1999999999999</ele><time>2026-04-19T08:37:21.81Z</time></trkpt><trkpt lat="42.9526476" lon="12.2075971"><ele>523.8</ele><time>2026-04-19T08:37:22.809Z</time></trkpt><trkpt lat="42.9526525" lon="12.2074765"><ele>522.4</ele><time>2026-04-19T08:37:23.815Z</time></trkpt><trkpt lat="42.9526629" lon="12.2073631"><ele>521.0</ele><time>2026-04-19T08:37:24.919Z</time></trkpt><trkpt lat="42.9526601" lon="12.2071668"><ele>520.5714285714286</ele><time>2026-04-19T08:37:26.81Z</time></trkpt><trkpt lat="42.952648" lon="12.2070761"><ele>520.1428571428571</ele><time>2026-04-19T08:37:27.814Z</time></trkpt><trkpt lat="42.9526244" lon="12.2069814"><ele>519.7142857142858</ele><time>2026-04-19T08:37:28.808Z</time></trkpt><trkpt lat="42.9525862" lon="12.206909"><ele>519.2857142857142</ele><time>2026-04-19T08:37:29.81Z</time></trkpt><trkpt lat="42.9525336" lon="12.2068455"><ele>518.8571428571429</ele><time>2026-04-19T08:37:30.812Z</time></trkpt><trkpt lat="42.9524685" lon="12.2067908"><ele>518.4285714285714</ele><time>2026-04-19T08:37:31.827Z</time></trkpt><trkpt lat="42.9523932" lon="12.2067596"><ele>518.0</ele><time>2026-04-19T08:37:32.813Z</time></trkpt><trkpt lat="42.9523223" lon="12.2067599"><ele>521.4</ele><time>2026-04-19T08:37:33.799Z</time></trkpt><trkpt lat="42.9522041" lon="12.206767"><ele>524.8</ele><time>2026-04-19T08:37:35.811Z</time></trkpt><trkpt lat="42.9521089" lon="12.2067709"><ele>528.2</ele><time>2026-04-19T08:37:37.808Z</time></trkpt><trkpt lat="42.9520216" lon="12.2067291"><ele>531.6</ele><time>2026-04-19T08:37:39.811Z</time></trkpt><trkpt lat="42.9519289" lon="12.2066659"><ele>535.0</ele><time>2026-04-19T08:37:41.809Z</time></trkpt><trkpt lat="42.9518467" lon="12.2065877"><ele>535.0</ele><time>2026-04-19T08:37:43.812Z</time></trkpt><trkpt lat="42.951769" lon="12.2065149"><ele>535.0</ele><time>2026-04-19T08:37:45.808Z</time></trkpt><trkpt lat="42.9516946" lon="12.2064257"><ele>535.0</ele><time>2026-04-19T08:37:47.813Z</time></trkpt><trkpt lat="42.9516056" lon="12.2062382"><ele>535.0</ele><time>2026-04-19T08:37:50.811Z</time></trkpt><trkpt lat="42.9515907" lon="12.206149"><ele>535.0</ele><time>2026-04-19T08:37:51.814Z</time></trkpt><trkpt lat="42.9515824" lon="12.2060568"><ele>534.1666666666667</ele><time>2026-04-19T08:37:52.822Z</time></trkpt><trkpt lat="42.9515761" lon="12.2059636"><ele>533.3333333333334</ele><time>2026-04-19T08:37:53.806Z</time></trkpt><trkpt lat="42.9515683" lon="12.2058781"><ele>532.5</ele><time>2026-04-19T08:37:54.92Z</time></trkpt><trkpt lat="42.9515149" lon="12.2057219"><ele>531.6666666666666</ele><time>2026-04-19T08:37:56.81Z</time></trkpt><trkpt lat="42.9514858" lon="12.2056394"><ele>530.8333333333333</ele><time>2026-04-19T08:37:57.81Z</time></trkpt><trkpt lat="42.9514506" lon="12.2055549"><ele>530.0</ele><time>2026-04-19T08:37:58.819Z</time></trkpt><trkpt lat="42.9514128" lon="12.2054698"><ele>528.0</ele><time>2026-04-19T08:37:59.816Z</time></trkpt><trkpt lat="42.9513685" lon="12.2053816"><ele>526.0</ele><time>2026-04-19T08:38:00.807Z</time></trkpt><trkpt lat="42.9513311" lon="12.2052904"><ele>524.0</ele><time>2026-04-19T08:38:01.809Z</time></trkpt><trkpt lat="42.9513009" lon="12.2051913"><ele>522.0</ele><time>2026-04-19T08:38:02.813Z</time></trkpt><trkpt lat="42.951267" lon="12.2050865"><ele>520.0</ele><time>2026-04-19T08:38:03.83Z</time></trkpt><trkpt lat="42.9512357" lon="12.2049888"><ele>518.0</ele><time>2026-04-19T08:38:04.812Z</time></trkpt><trkpt lat="42.9512068" lon="12.2048881"><ele>516.1666666666666</ele><time>2026-04-19T08:38:05.811Z</time></trkpt><trkpt lat="42.9511784" lon="12.2047805"><ele>514.3333333333333</ele><time>2026-04-19T08:38:06.81Z</time></trkpt><trkpt lat="42.9511622" lon="12.2046731"><ele>512.5</ele><time>2026-04-19T08:38:07.823Z</time></trkpt><trkpt lat="42.9511593" lon="12.2045576"><ele>510.66666666666663</ele><time>2026-04-19T08:38:08.815Z</time></trkpt><trkpt lat="42.951173" lon="12.2044369"><ele>508.8333333333333</ele><time>2026-04-19T08:38:09.815Z</time></trkpt><trkpt lat="42.9511957" lon="12.2043157"><ele>507.0</ele><time>2026-04-19T08:38:10.808Z</time></trkpt><trkpt lat="42.9512237" lon="12.2041913"><ele>507.0</ele><time>2026-04-19T08:38:11.81Z</time></trkpt><trkpt lat="42.9512599" lon="12.2040715"><ele>507.00000000000006</ele><time>2026-04-19T08:38:12.812Z</time></trkpt><trkpt lat="42.9512955" lon="12.203948"><ele>507.00000000000006</ele><time>2026-04-19T08:38:13.813Z</time></trkpt><trkpt lat="42.951338" lon="12.203834"><ele>507.0</ele><time>2026-04-19T08:38:14.815Z</time></trkpt><trkpt lat="42.9513762" lon="12.2037092"><ele>507.0</ele><time>2026-04-19T08:38:15.819Z</time></trkpt><trkpt lat="42.9514102" lon="12.2035884"><ele>506.0</ele><time>2026-04-19T08:38:16.813Z</time></trkpt><trkpt lat="42.9514466" lon="12.2034449"><ele>505.00000000000006</ele><time>2026-04-19T08:38:17.813Z</time></trkpt><trkpt lat="42.9514743" lon="12.2033019"><ele>504.00000000000006</ele><time>2026-04-19T08:38:18.825Z</time></trkpt><trkpt lat="42.951504" lon="12.203157"><ele>503.0</ele><time>2026-04-19T08:38:19.815Z</time></trkpt><trkpt lat="42.9515242" lon="12.2030124"><ele>502.0</ele><time>2026-04-19T08:38:20.813Z</time></trkpt><trkpt lat="42.9515416" lon="12.2028655"><ele>501.6</ele><time>2026-04-19T08:38:21.809Z</time></trkpt><trkpt lat="42.9515572" lon="12.2027312"><ele>501.20000000000005</ele><time>2026-04-19T08:38:22.808Z</time></trkpt><trkpt lat="42.9515803" lon="12.2026045"><ele>500.8</ele><time>2026-04-19T08:38:23.81Z</time></trkpt><trkpt lat="42.951599" lon="12.20247"><ele>500.4</ele><time>2026-04-19T08:38:24.816Z</time></trkpt><trkpt lat="42.9516224" lon="12.2023407"><ele>500.0</ele><time>2026-04-19T08:38:25.81Z</time></trkpt><trkpt lat="42.9516432" lon="12.2022249"><ele>499.99999999999994</ele><time>2026-04-19T08:38:26.811Z</time></trkpt><trkpt lat="42.9516631" lon="12.2021134"><ele>500.0</ele><time>2026-04-19T08:38:27.819Z</time></trkpt><trkpt lat="42.9516832" lon="12.2020066"><ele>500.0</ele><time>2026-04-19T08:38:28.812Z</time></trkpt><trkpt lat="42.9517089" lon="12.201919"><ele>500.0</ele><time>2026-04-19T08:38:29.812Z</time></trkpt><trkpt lat="42.9517948" lon="12.2018287"><ele>499.99999999999994</ele><time>2026-04-19T08:38:31.813Z</time></trkpt><trkpt lat="42.9518622" lon="12.2018081"><ele>500.0</ele><time>2026-04-19T08:38:33.817Z</time></trkpt><trkpt lat="42.9519261" lon="12.2018004"><ele>498.2</ele><time>2026-04-19T08:38:36.815Z</time></trkpt><trkpt lat="42.9520108" lon="12.2017767"><ele>496.4</ele><time>2026-04-19T08:39:58.811Z</time></trkpt><trkpt lat="42.9520999" lon="12.2017572"><ele>494.6</ele><time>2026-04-19T08:40:00.821Z</time></trkpt><trkpt lat="42.9521996" lon="12.2017164"><ele>492.8</ele><time>2026-04-19T08:40:02.813Z</time></trkpt><trkpt lat="42.9523066" lon="12.2016497"><ele>491.0</ele><time>2026-04-19T08:40:04.814Z</time></trkpt><trkpt lat="42.9523784" lon="12.201627"><ele>490.99999999999994</ele><time>2026-04-19T08:40:05.811Z</time></trkpt><trkpt lat="42.9524555" lon="12.201622"><ele>491.0</ele><time>2026-04-19T08:40:06.812Z</time></trkpt><trkpt lat="42.9525413" lon="12.2016376"><ele>491.0</ele><time>2026-04-19T08:40:07.808Z</time></trkpt><trkpt lat="42.9526196" lon="12.2016719"><ele>491.0</ele><time>2026-04-19T08:40:08.815Z</time></trkpt><trkpt lat="42.9527048" lon="12.2017139"><ele>490.99999999999994</ele><time>2026-04-19T08:40:09.809Z</time></trkpt><trkpt lat="42.9527943" lon="12.2017753"><ele>491.0</ele><time>2026-04-19T08:40:10.815Z</time></trkpt><trkpt lat="42.9528819" lon="12.2018421"><ele>487.8</ele><time>2026-04-19T08:40:11.815Z</time></trkpt><trkpt lat="42.9529595" lon="12.201922"><ele>484.6</ele><time>2026-04-19T08:40:12.813Z</time></trkpt><trkpt lat="42.9530313" lon="12.2020131"><ele>481.4</ele><time>2026-04-19T08:40:13.809Z</time></trkpt><trkpt lat="42.9530962" lon="12.2021093"><ele>478.2</ele><time>2026-04-19T08:40:14.813Z</time></trkpt><trkpt lat="42.9531524" lon="12.2022044"><ele>475.0</ele><time>2026-04-19T08:40:15.811Z</time></trkpt><trkpt lat="42.953202" lon="12.2023003"><ele>474.83333333333337</ele><time>2026-04-19T08:40:16.814Z</time></trkpt><trkpt lat="42.9532463" lon="12.2023946"><ele>474.6666666666667</ele><time>2026-04-19T08:40:17.826Z</time></trkpt><trkpt lat="42.953302" lon="12.2024759"><ele>474.5</ele><time>2026-04-19T08:40:18.814Z</time></trkpt><trkpt lat="42.9533616" lon="12.2025295"><ele>474.33333333333337</ele><time>2026-04-19T08:40:19.812Z</time></trkpt><trkpt lat="42.9534226" lon="12.2025532"><ele>474.1666666666667</ele><time>2026-04-19T08:40:20.815Z</time></trkpt><trkpt lat="42.9535146" lon="12.2025686"><ele>474.0</ele><time>2026-04-19T08:40:22.811Z</time></trkpt><trkpt lat="42.9536209" lon="12.2025994"><ele>470.79999999999995</ele><time>2026-04-19T08:40:24.817Z</time></trkpt><trkpt lat="42.9537319" lon="12.202646"><ele>467.59999999999997</ele><time>2026-04-19T08:40:26.813Z</time></trkpt><trkpt lat="42.9538516" lon="12.2027128"><ele>464.4</ele><time>2026-04-19T08:40:28.813Z</time></trkpt><trkpt lat="42.9539247" lon="12.2027452"><ele>461.2</ele><time>2026-04-19T08:40:29.811Z</time></trkpt><trkpt lat="42.9539897" lon="12.2027735"><ele>458.0</ele><time>2026-04-19T08:40:30.815Z</time></trkpt><trkpt lat="42.9540968" lon="12.2028067"><ele>454.4</ele><time>2026-04-19T08:40:32.813Z</time></trkpt><trkpt lat="42.9542091" lon="12.2028209"><ele>450.79999999999995</ele><time>2026-04-19T08:40:34.81Z</time></trkpt><trkpt lat="42.9543091" lon="12.2028758"><ele>447.2</ele><time>2026-04-19T08:40:36.814Z</time></trkpt><trkpt lat="42.9544342" lon="12.2028832"><ele>443.6</ele><time>2026-04-19T08:40:38.819Z</time></trkpt><trkpt lat="42.9545044" lon="12.2028602"><ele>440.0</ele><time>2026-04-19T08:40:39.808Z</time></trkpt><trkpt lat="42.9545738" lon="12.2028221"><ele>439.99999999999994</ele><time>2026-04-19T08:40:40.809Z</time></trkpt><trkpt lat="42.9546305" lon="12.2027818"><ele>440.0</ele><time>2026-04-19T08:40:41.815Z</time></trkpt><trkpt lat="42.9546798" lon="12.2026521"><ele>440.0</ele><time>2026-04-19T08:40:43.807Z</time></trkpt><trkpt lat="42.9546741" lon="12.2024835"><ele>440.0</ele><time>2026-04-19T08:40:45.814Z</time></trkpt><trkpt lat="42.954668" lon="12.2023906"><ele>439.99999999999994</ele><time>2026-04-19T08:40:46.809Z</time></trkpt><trkpt lat="42.9546614" lon="12.2022871"><ele>440.0</ele><time>2026-04-19T08:40:47.832Z</time></trkpt><trkpt lat="42.9546517" lon="12.2021768"><ele>440.49999999999994</ele><time>2026-04-19T08:40:48.815Z</time></trkpt><trkpt lat="42.9546368" lon="12.2020631"><ele>441.0</ele><time>2026-04-19T08:40:49.807Z</time></trkpt><trkpt lat="42.9546152" lon="12.2019617"><ele>441.5</ele><time>2026-04-19T08:40:50.808Z</time></trkpt><trkpt lat="42.9545833" lon="12.2018553"><ele>442.0</ele><time>2026-04-19T08:40:51.809Z</time></trkpt><trkpt lat="42.9545505" lon="12.2017593"><ele>442.49999999999994</ele><time>2026-04-19T08:40:52.809Z</time></trkpt><trkpt lat="42.9545207" lon="12.2016595"><ele>443.0</ele><time>2026-04-19T08:40:53.821Z</time></trkpt><trkpt lat="42.9544892" lon="12.2015681"><ele>446.2</ele><time>2026-04-19T08:40:54.812Z</time></trkpt><trkpt lat="42.9544569" lon="12.201463"><ele>449.4</ele><time>2026-04-19T08:40:55.921Z</time></trkpt><trkpt lat="42.9544041" lon="12.2012903"><ele>452.59999999999997</ele><time>2026-04-19T08:40:57.81Z</time></trkpt><trkpt lat="42.9543971" lon="12.201141"><ele>455.79999999999995</ele><time>2026-04-19T08:40:59.81Z</time></trkpt><trkpt lat="42.9544659" lon="12.2010671"><ele>459.0</ele><time>2026-04-19T08:41:01.933Z</time></trkpt><trkpt lat="42.9545479" lon="12.20108"><ele>459.0</ele><time>2026-04-19T08:41:03.804Z</time></trkpt><trkpt lat="42.9546158" lon="12.2011426"><ele>459.0</ele><time>2026-04-19T08:41:05.819Z</time></trkpt><trkpt lat="42.9546687" lon="12.2012032"><ele>459.0</ele><time>2026-04-19T08:41:07.815Z</time></trkpt><trkpt lat="42.9547147" lon="12.2012659"><ele>459.0</ele><time>2026-04-19T08:41:09.817Z</time></trkpt><trkpt lat="42.9547889" lon="12.2013407"><ele>459.0</ele><time>2026-04-19T08:41:12.815Z</time></trkpt><trkpt lat="42.9548499" lon="12.2013646"><ele>459.0</ele><time>2026-04-19T08:41:14.821Z</time></trkpt><trkpt lat="42.9549383" lon="12.2013323"><ele>459.0</ele><time>2026-04-19T08:41:17.817Z</time></trkpt><trkpt lat="42.9549932" lon="12.2012828"><ele>459.0</ele><time>2026-04-19T08:41:19.814Z</time></trkpt><trkpt lat="42.955072" lon="12.2012675"><ele>459.0</ele><time>2026-04-19T08:41:21.817Z</time></trkpt><trkpt lat="42.9551372" lon="12.2013079"><ele>459.0</ele><time>2026-04-19T08:41:23.812Z</time></trkpt><trkpt lat="42.9551803" lon="12.2013729"><ele>459.0</ele><time>2026-04-19T08:41:25.809Z</time></trkpt><trkpt lat="42.9552484" lon="12.2014509"><ele>459.0</ele><time>2026-04-19T08:41:28.804Z</time></trkpt><trkpt lat="42.9553158" lon="12.201496"><ele>459.0</ele><time>2026-04-19T08:41:31.812Z</time></trkpt><trkpt lat="42.9553972" lon="12.2015322"><ele>457.6666666666667</ele><time>2026-04-19T08:41:34.82Z</time></trkpt><trkpt lat="42.9554875" lon="12.2015554"><ele>456.33333333333337</ele><time>2026-04-19T08:41:37.811Z</time></trkpt><trkpt lat="42.9555547" lon="12.2015867"><ele>455.0</ele><time>2026-04-19T08:41:39.812Z</time></trkpt><trkpt lat="42.9556186" lon="12.2016226"><ele>453.6666666666667</ele><time>2026-04-19T08:41:41.797Z</time></trkpt><trkpt lat="42.955704" lon="12.2016668"><ele>452.33333333333337</ele><time>2026-04-19T08:41:44.796Z</time></trkpt><trkpt lat="42.955792" lon="12.2017168"><ele>451.0</ele><time>2026-04-19T08:41:47.814Z</time></trkpt><trkpt lat="42.9558652" lon="12.2017228"><ele>452.50000000000006</ele><time>2026-04-19T08:41:49.804Z</time></trkpt><trkpt lat="42.9559361" lon="12.2017132"><ele>454.0</ele><time>2026-04-19T08:41:51.814Z</time></trkpt><trkpt lat="42.9560061" lon="12.2016988"><ele>455.5</ele><time>2026-04-19T08:41:53.824Z</time></trkpt><trkpt lat="42.9561099" lon="12.2016806"><ele>457.0</ele><time>2026-04-19T08:41:56.814Z</time></trkpt><trkpt lat="42.9561758" lon="12.2016777"><ele>458.50000000000006</ele><time>2026-04-19T08:41:58.816Z</time></trkpt><trkpt lat="42.956301" lon="12.2016837"><ele>460.0</ele><time>2026-04-19T08:42:02.805Z</time></trkpt><trkpt lat="42.9563675" lon="12.2017061"><ele>460.00000000000006</ele><time>2026-04-19T08:42:04.816Z</time></trkpt><trkpt lat="42.9564307" lon="12.2017396"><ele>460.0</ele><time>2026-04-19T08:42:06.818Z</time></trkpt><trkpt lat="42.9565205" lon="12.2017801"><ele>460.0</ele><time>2026-04-19T08:42:09.801Z</time></trkpt><trkpt lat="42.9565889" lon="12.2018044"><ele>460.0</ele><time>2026-04-19T08:42:11.815Z</time></trkpt><trkpt lat="42.9566568" lon="12.2018375"><ele>460.00000000000006</ele><time>2026-04-19T08:42:13.817Z</time></trkpt><trkpt lat="42.9567292" lon="12.2018699"><ele>460.0</ele><time>2026-04-19T08:42:15.811Z</time></trkpt><trkpt lat="42.9567987" lon="12.2018944"><ele>459.42857142857133</ele><time>2026-04-19T08:42:17.813Z</time></trkpt><trkpt lat="42.9568682" lon="12.2019101"><ele>458.85714285714283</ele><time>2026-04-19T08:42:19.813Z</time></trkpt><trkpt lat="42.9569326" lon="12.2019183"><ele>458.2857142857142</ele><time>2026-04-19T08:42:21.8Z</time></trkpt><trkpt lat="42.9569958" lon="12.2019237"><ele>457.71428571428567</ele><time>2026-04-19T08:42:23.819Z</time></trkpt><trkpt lat="42.9570862" lon="12.2019251"><ele>457.1428571428571</ele><time>2026-04-19T08:42:26.812Z</time></trkpt><trkpt lat="42.9571636" lon="12.2019467"><ele>456.57142857142856</ele><time>2026-04-19T08:42:29.799Z</time></trkpt><trkpt lat="42.9572303" lon="12.2019753"><ele>456.0</ele><time>2026-04-19T08:42:32.822Z</time></trkpt><trkpt lat="42.9573049" lon="12.2020218"><ele>456.0</ele><time>2026-04-19T08:42:35.796Z</time></trkpt><trkpt lat="42.9573703" lon="12.2020682"><ele>456.0</ele><time>2026-04-19T08:42:38.802Z</time></trkpt><trkpt lat="42.957609" lon="12.2019851"><ele>456.0</ele><time>2026-04-19T08:42:39.801Z</time></trkpt><trkpt lat="42.9576942" lon="12.2019404"><ele>456.0</ele><time>2026-04-19T08:42:40.815Z</time></trkpt><trkpt lat="42.957768" lon="12.2018996"><ele>453.5</ele><time>2026-04-19T08:42:41.821Z</time></trkpt><trkpt lat="42.9578501" lon="12.2018387"><ele>451.0</ele><time>2026-04-19T08:42:42.825Z</time></trkpt><trkpt lat="42.9579339" lon="12.2017774"><ele>448.5</ele><time>2026-04-19T08:42:43.812Z</time></trkpt><trkpt lat="42.9580102" lon="12.2017177"><ele>446.0</ele><time>2026-04-19T08:42:44.802Z</time></trkpt><trkpt lat="42.9580856" lon="12.2016588"><ele>443.5</ele><time>2026-04-19T08:42:45.801Z</time></trkpt><trkpt lat="42.9581515" lon="12.2016015"><ele>441.0</ele><time>2026-04-19T08:42:46.815Z</time></trkpt><trkpt lat="42.9582146" lon="12.2015411"><ele>441.8333333333333</ele><time>2026-04-19T08:42:47.815Z</time></trkpt><trkpt lat="42.9582804" lon="12.2014911"><ele>442.66666666666663</ele><time>2026-04-19T08:42:48.821Z</time></trkpt><trkpt lat="42.9583482" lon="12.2014576"><ele>443.5</ele><time>2026-04-19T08:42:49.814Z</time></trkpt><trkpt lat="42.958467" lon="12.2014203"><ele>444.3333333333333</ele><time>2026-04-19T08:42:51.812Z</time></trkpt><trkpt lat="42.9585262" lon="12.2013897"><ele>445.16666666666663</ele><time>2026-04-19T08:42:52.822Z</time></trkpt><trkpt lat="42.9585851" lon="12.2013414"><ele>446.0</ele><time>2026-04-19T08:42:53.817Z</time></trkpt><trkpt lat="42.9586358" lon="12.2012672"><ele>443.99999999999994</ele><time>2026-04-19T08:42:54.818Z</time></trkpt><trkpt lat="42.9586751" lon="12.201178"><ele>442.0</ele><time>2026-04-19T08:42:55.807Z</time></trkpt><trkpt lat="42.9587062" lon="12.2010803"><ele>440.0</ele><time>2026-04-19T08:42:56.81Z</time></trkpt><trkpt lat="42.9587442" lon="12.2009707"><ele>438.0</ele><time>2026-04-19T08:42:57.81Z</time></trkpt><trkpt lat="42.9587954" lon="12.200863"><ele>435.99999999999994</ele><time>2026-04-19T08:42:58.808Z</time></trkpt><trkpt lat="42.958852" lon="12.2007582"><ele>434.0</ele><time>2026-04-19T08:42:59.808Z</time></trkpt><trkpt lat="42.9589129" lon="12.2006661"><ele>434.0</ele><time>2026-04-19T08:43:00.809Z</time></trkpt><trkpt lat="42.9589755" lon="12.2005847"><ele>434.0</ele><time>2026-04-19T08:43:01.808Z</time></trkpt><trkpt lat="42.9590395" lon="12.2005153"><ele>434.0</ele><time>2026-04-19T08:43:02.808Z</time></trkpt><trkpt lat="42.9591186" lon="12.2004415"><ele>434.0</ele><time>2026-04-19T08:43:03.808Z</time></trkpt><trkpt lat="42.9591965" lon="12.2003718"><ele>434.0</ele><time>2026-04-19T08:43:04.812Z</time></trkpt><trkpt lat="42.9592847" lon="12.2003061"><ele>430.4</ele><time>2026-04-19T08:43:05.808Z</time></trkpt><trkpt lat="42.959374" lon="12.200243"><ele>426.79999999999995</ele><time>2026-04-19T08:43:06.812Z</time></trkpt><trkpt lat="42.9594519" lon="12.2001757"><ele>423.20000000000005</ele><time>2026-04-19T08:43:07.797Z</time></trkpt><trkpt lat="42.9595329" lon="12.2000946"><ele>419.6</ele><time>2026-04-19T08:43:08.796Z</time></trkpt><trkpt lat="42.9596066" lon="12.2000008"><ele>416.0</ele><time>2026-04-19T08:43:09.807Z</time></trkpt><trkpt lat="42.9596709" lon="12.1998994"><ele>417.49999999999994</ele><time>2026-04-19T08:43:10.807Z</time></trkpt><trkpt lat="42.9597318" lon="12.1997975"><ele>419.0</ele><time>2026-04-19T08:43:11.806Z</time></trkpt><trkpt lat="42.9597958" lon="12.1997187"><ele>420.5</ele><time>2026-04-19T08:43:12.81Z</time></trkpt><trkpt lat="42.9598788" lon="12.1996799"><ele>422.0</ele><time>2026-04-19T08:43:13.8Z</time></trkpt><trkpt lat="42.959947" lon="12.1996329"><ele>423.49999999999994</ele><time>2026-04-19T08:43:14.798Z</time></trkpt><trkpt lat="42.9600077" lon="12.1996077"><ele>425.0</ele><time>2026-04-19T08:43:15.8Z</time></trkpt><trkpt lat="42.9601141" lon="12.1995392"><ele>424.99999999999994</ele><time>2026-04-19T08:43:17.796Z</time></trkpt><trkpt lat="42.9601964" lon="12.1994786"><ele>425.0</ele><time>2026-04-19T08:43:19.808Z</time></trkpt><trkpt lat="42.9602583" lon="12.1994269"><ele>425.0</ele><time>2026-04-19T08:43:21.814Z</time></trkpt><trkpt lat="42.9602911" lon="12.1993467"><ele>425.0</ele><time>2026-04-19T08:44:10.808Z</time></trkpt><trkpt lat="42.9603565" lon="12.1993256"><ele>424.99999999999994</ele><time>2026-04-19T08:44:45.807Z</time></trkpt><trkpt lat="42.9604204" lon="12.199326"><ele>425.0</ele><time>2026-04-19T08:45:19.812Z</time></trkpt><trkpt lat="42.9605119" lon="12.1993226"><ele>424.99999999999994</ele><time>2026-04-19T08:45:22.812Z</time></trkpt><trkpt lat="42.960585" lon="12.1993331"><ele>425.0</ele><time>2026-04-19T08:45:24.811Z</time></trkpt><trkpt lat="42.9606712" lon="12.1993495"><ele>425.0</ele><time>2026-04-19T08:45:26.816Z</time></trkpt><trkpt lat="42.9607449" lon="12.1993807"><ele>425.0</ele><time>2026-04-19T08:45:28.809Z</time></trkpt><trkpt lat="42.9608133" lon="12.1994116"><ele>424.99999999999994</ele><time>2026-04-19T08:45:30.81Z</time></trkpt><trkpt lat="42.9608821" lon="12.1994408"><ele>425.0</ele><time>2026-04-19T08:45:32.815Z</time></trkpt><trkpt lat="42.96095" lon="12.1994675"><ele>423.85714285714283</ele><time>2026-04-19T08:45:34.814Z</time></trkpt><trkpt lat="42.961013" lon="12.199488"><ele>422.71428571428567</ele><time>2026-04-19T08:45:36.799Z</time></trkpt><trkpt lat="42.9610765" lon="12.1995108"><ele>421.57142857142856</ele><time>2026-04-19T08:45:39.811Z</time></trkpt><trkpt lat="42.9611449" lon="12.1995163"><ele>420.42857142857144</ele><time>2026-04-19T08:45:42.817Z</time></trkpt><trkpt lat="42.961211" lon="12.1995154"><ele>419.2857142857143</ele><time>2026-04-19T08:45:45.807Z</time></trkpt><trkpt lat="42.9612777" lon="12.199512"><ele>418.14285714285717</ele><time>2026-04-19T08:45:48.82Z</time></trkpt><trkpt lat="42.9613416" lon="12.1994887"><ele>417.0</ele><time>2026-04-19T08:45:51.81Z</time></trkpt><trkpt lat="42.9614116" lon="12.1994497"><ele>417.0</ele><time>2026-04-19T08:45:54.812Z</time></trkpt><trkpt lat="42.9614607" lon="12.1993906"><ele>417.0</ele><time>2026-04-19T08:45:56.81Z</time></trkpt><trkpt lat="42.9615172" lon="12.1992684"><ele>417.0</ele><time>2026-04-19T08:45:58.812Z</time></trkpt><trkpt lat="42.9615571" lon="12.1991098"><ele>417.0</ele><time>2026-04-19T08:46:00.926Z</time></trkpt><trkpt lat="42.9616059" lon="12.1989108"><ele>417.0</ele><time>2026-04-19T08:46:02.811Z</time></trkpt><trkpt lat="42.9616371" lon="12.1988063"><ele>417.5</ele><time>2026-04-19T08:46:03.808Z</time></trkpt><trkpt lat="42.9616708" lon="12.1986925"><ele>418.0</ele><time>2026-04-19T08:46:04.812Z</time></trkpt><trkpt lat="42.9617089" lon="12.1985829"><ele>418.5</ele><time>2026-04-19T08:46:05.811Z</time></trkpt><trkpt lat="42.96175" lon="12.1984736"><ele>419.0</ele><time>2026-04-19T08:46:06.81Z</time></trkpt><trkpt lat="42.9618043" lon="12.1983751"><ele>419.5</ele><time>2026-04-19T08:46:07.811Z</time></trkpt><trkpt lat="42.961847" lon="12.198269"><ele>420.0</ele><time>2026-04-19T08:46:08.819Z</time></trkpt><trkpt lat="42.9618879" lon="12.1981615"><ele>418.1666666666667</ele><time>2026-04-19T08:46:09.812Z</time></trkpt><trkpt lat="42.9619246" lon="12.1980516"><ele>416.33333333333337</ele><time>2026-04-19T08:46:10.806Z</time></trkpt><trkpt lat="42.9619699" lon="12.1979509"><ele>414.5</ele><time>2026-04-19T08:46:11.828Z</time></trkpt><trkpt lat="42.9620147" lon="12.197848"><ele>412.6666666666667</ele><time>2026-04-19T08:46:12.809Z</time></trkpt><trkpt lat="42.9620458" lon="12.1977473"><ele>410.83333333333337</ele><time>2026-04-19T08:46:13.805Z</time></trkpt><trkpt lat="42.962076" lon="12.1976683"><ele>409.0</ele><time>2026-04-19T08:46:14.816Z</time></trkpt><trkpt lat="42.9621318" lon="12.1975419"><ele>409.0</ele><time>2026-04-19T08:46:16.815Z</time></trkpt><trkpt lat="42.962198" lon="12.1974268"><ele>409.0</ele><time>2026-04-19T08:46:18.823Z</time></trkpt><trkpt lat="42.9622479" lon="12.1973742"><ele>409.0</ele><time>2026-04-19T08:46:19.809Z</time></trkpt><trkpt lat="42.9623115" lon="12.1973437"><ele>409.0</ele><time>2026-04-19T08:46:20.808Z</time></trkpt><trkpt lat="42.9624248" lon="12.1973121"><ele>409.0</ele><time>2026-04-19T08:46:22.813Z</time></trkpt><trkpt lat="42.9625313" lon="12.1973223"><ele>407.2</ele><time>2026-04-19T08:46:24.812Z</time></trkpt><trkpt lat="42.9626241" lon="12.1973521"><ele>405.4</ele><time>2026-04-19T08:46:26.828Z</time></trkpt><trkpt lat="42.962726" lon="12.1973884"><ele>403.6</ele><time>2026-04-19T08:46:28.812Z</time></trkpt><trkpt lat="42.9628358" lon="12.1974295"><ele>401.8</ele><time>2026-04-19T08:46:30.811Z</time></trkpt><trkpt lat="42.9629444" lon="12.1974549"><ele>400.0</ele><time>2026-04-19T08:46:32.805Z</time></trkpt><trkpt lat="42.9630428" lon="12.1974668"><ele>400.0</ele><time>2026-04-19T08:46:34.812Z</time></trkpt><trkpt lat="42.9631566" lon="12.1974907"><ele>400.0</ele><time>2026-04-19T08:46:36.815Z</time></trkpt><trkpt lat="42.9632749" lon="12.1975205"><ele>400.0</ele><time>2026-04-19T08:46:38.811Z</time></trkpt><trkpt lat="42.9633834" lon="12.1975721"><ele>400.0</ele><time>2026-04-19T08:46:40.808Z</time></trkpt><trkpt lat="42.9634756" lon="12.1976173"><ele>400.0</ele><time>2026-04-19T08:46:42.815Z</time></trkpt><trkpt lat="42.9635253" lon="12.1976798"><ele>400.0</ele><time>2026-04-19T08:46:44.809Z</time></trkpt><trkpt lat="42.9634892" lon="12.1977612"><ele>400.0</ele><time>2026-04-19T08:47:56.811Z</time></trkpt><trkpt lat="42.9634456" lon="12.1978403"><ele>400.0</ele><time>2026-04-19T08:47:58.814Z</time></trkpt><trkpt lat="42.9633454" lon="12.1979215"><ele>400.0</ele><time>2026-04-19T08:48:00.817Z</time></trkpt><trkpt lat="42.9632697" lon="12.1980371"><ele>400.0</ele><time>2026-04-19T08:48:02.814Z</time></trkpt><trkpt lat="42.963196" lon="12.1981712"><ele>397.83333333333337</ele><time>2026-04-19T08:48:04.81Z</time></trkpt><trkpt lat="42.9631054" lon="12.1982777"><ele>395.6666666666667</ele><time>2026-04-19T08:48:06.809Z</time></trkpt><trkpt lat="42.9630475" lon="12.198313"><ele>393.5</ele><time>2026-04-19T08:48:07.806Z</time></trkpt><trkpt lat="42.9629841" lon="12.1983402"><ele>391.33333333333337</ele><time>2026-04-19T08:48:08.811Z</time></trkpt><trkpt lat="42.9629215" lon="12.1983745"><ele>389.1666666666667</ele><time>2026-04-19T08:48:09.807Z</time></trkpt><trkpt lat="42.9628656" lon="12.1984195"><ele>387.0</ele><time>2026-04-19T08:48:10.805Z</time></trkpt><trkpt lat="42.9628329" lon="12.1985722"><ele>387.0</ele><time>2026-04-19T08:48:12.809Z</time></trkpt><trkpt lat="42.9629109" lon="12.1987739"><ele>387.0</ele><time>2026-04-19T08:48:15.807Z</time></trkpt><trkpt lat="42.9629574" lon="12.1988551"><ele>387.0</ele><time>2026-04-19T08:48:17.825Z</time></trkpt><trkpt lat="42.9629864" lon="12.1989324"><ele>387.0</ele><time>2026-04-19T08:48:19.908Z</time></trkpt><trkpt lat="42.9630362" lon="12.1990008"><ele>387.0</ele><time>2026-04-19T08:48:21.805Z</time></trkpt><trkpt lat="42.9630853" lon="12.1990686"><ele>387.0</ele><time>2026-04-19T08:48:23.813Z</time></trkpt><trkpt lat="42.9631279" lon="12.1991388"><ele>386.42857142857144</ele><time>2026-04-19T08:48:25.814Z</time></trkpt><trkpt lat="42.9631647" lon="12.1992141"><ele>385.8571428571429</ele><time>2026-04-19T08:48:27.821Z</time></trkpt><trkpt lat="42.9631975" lon="12.1992909"><ele>385.2857142857143</ele><time>2026-04-19T08:48:29.816Z</time></trkpt><trkpt lat="42.9632368" lon="12.1993625"><ele>384.7142857142857</ele><time>2026-04-19T08:48:31.815Z</time></trkpt><trkpt lat="42.9632958" lon="12.1994598"><ele>384.1428571428571</ele><time>2026-04-19T08:48:34.816Z</time></trkpt><trkpt lat="42.9633328" lon="12.1995361"><ele>383.57142857142856</ele><time>2026-04-19T08:48:36.814Z</time></trkpt><trkpt lat="42.9633675" lon="12.1996231"><ele>383.0</ele><time>2026-04-19T08:48:38.814Z</time></trkpt><trkpt lat="42.9633944" lon="12.1997023"><ele>378.75</ele><time>2026-04-19T08:48:40.816Z</time></trkpt><trkpt lat="42.9634168" lon="12.1998224"><ele>374.5</ele><time>2026-04-19T08:48:43.82Z</time></trkpt><trkpt lat="42.9634053" lon="12.199939"><ele>370.25</ele><time>2026-04-19T08:48:46.814Z</time></trkpt><trkpt lat="42.963377" lon="12.2000926"><ele>366.0</ele><time>2026-04-19T08:48:48.932Z</time></trkpt><trkpt lat="42.9633694" lon="12.2003487"><ele>366.0</ele><time>2026-04-19T08:48:50.802Z</time></trkpt><trkpt lat="42.9633792" lon="12.2005831"><ele>366.0</ele><time>2026-04-19T08:48:51.819Z</time></trkpt><trkpt lat="42.9633745" lon="12.2006895"><ele>366.0</ele><time>2026-04-19T08:48:52.817Z</time></trkpt><trkpt lat="42.9633783" lon="12.2007927"><ele>366.0</ele><time>2026-04-19T08:48:53.816Z</time></trkpt><trkpt lat="42.963385" lon="12.2008823"><ele>366.0</ele><time>2026-04-19T08:48:54.813Z</time></trkpt><trkpt lat="42.9633973" lon="12.2009769"><ele>364.3333333333333</ele><time>2026-04-19T08:48:55.831Z</time></trkpt><trkpt lat="42.9634093" lon="12.20108"><ele>362.6666666666667</ele><time>2026-04-19T08:48:56.827Z</time></trkpt><trkpt lat="42.9634193" lon="12.2011894"><ele>361.0</ele><time>2026-04-19T08:48:57.815Z</time></trkpt><trkpt lat="42.9634341" lon="12.2012931"><ele>359.33333333333337</ele><time>2026-04-19T08:48:58.814Z</time></trkpt><trkpt lat="42.963442" lon="12.2013868"><ele>357.6666666666667</ele><time>2026-04-19T08:48:59.819Z</time></trkpt><trkpt lat="42.9634431" lon="12.2015348"><ele>356.0</ele><time>2026-04-19T08:49:01.821Z</time></trkpt><trkpt lat="42.9633922" lon="12.2016859"><ele>357.5</ele><time>2026-04-19T08:49:03.813Z</time></trkpt><trkpt lat="42.9633461" lon="12.2017651"><ele>359.0</ele><time>2026-04-19T08:49:04.816Z</time></trkpt><trkpt lat="42.9633034" lon="12.2018577"><ele>360.5</ele><time>2026-04-19T08:49:05.807Z</time></trkpt><trkpt lat="42.9632498" lon="12.201927"><ele>362.0</ele><time>2026-04-19T08:49:06.811Z</time></trkpt><trkpt lat="42.9632001" lon="12.2019953"><ele>363.5</ele><time>2026-04-19T08:49:07.807Z</time></trkpt><trkpt lat="42.9631808" lon="12.2020777"><ele>365.0</ele><time>2026-04-19T08:49:08.805Z</time></trkpt><trkpt lat="42.9631943" lon="12.2022378"><ele>361.0</ele><time>2026-04-19T08:49:10.808Z</time></trkpt><trkpt lat="42.9632487" lon="12.2024041"><ele>357.0</ele><time>2026-04-19T08:49:12.801Z</time></trkpt><trkpt lat="42.963296" lon="12.2025493"><ele>353.0</ele><time>2026-04-19T08:49:14.811Z</time></trkpt><trkpt lat="42.9632883" lon="12.2027207"><ele>349.0</ele><time>2026-04-19T08:49:16.807Z</time></trkpt><trkpt lat="42.9632392" lon="12.2028289"><ele>349.0</ele><time>2026-04-19T08:49:18.804Z</time></trkpt><trkpt lat="42.9631382" lon="12.2028632"><ele>349.0</ele><time>2026-04-19T08:49:20.796Z</time></trkpt><trkpt lat="42.9630634" lon="12.2029082"><ele>349.0</ele><time>2026-04-19T08:49:23.797Z</time></trkpt><trkpt lat="42.9629751" lon="12.2029343"><ele>349.0</ele><time>2026-04-19T08:49:27.797Z</time></trkpt><trkpt lat="42.9628817" lon="12.2029385"><ele>349.0</ele><time>2026-04-19T08:49:30.896Z</time></trkpt><trkpt lat="42.9627995" lon="12.2029473"><ele>349.0</ele><time>2026-04-19T08:49:33.802Z</time></trkpt><trkpt lat="42.9627272" lon="12.2029646"><ele>349.0</ele><time>2026-04-19T08:49:36.908Z</time></trkpt><trkpt lat="42.9626612" lon="12.2029913"><ele>349.0</ele><time>2026-04-19T08:49:39.817Z</time></trkpt><trkpt lat="42.962584" lon="12.2030374"><ele>349.0</ele><time>2026-04-19T08:49:42.814Z</time></trkpt><trkpt lat="42.9625088" lon="12.203074"><ele>349.0</ele><time>2026-04-19T08:49:45.822Z</time></trkpt><trkpt lat="42.962444" lon="12.2031238"><ele>349.0</ele><time>2026-04-19T08:49:48.826Z</time></trkpt><trkpt lat="42.9623697" lon="12.203171"><ele>351.0</ele><time>2026-04-19T08:49:51.814Z</time></trkpt><trkpt lat="42.9622633" lon="12.2032281"><ele>353.0</ele><time>2026-04-19T08:49:55.814Z</time></trkpt><trkpt lat="42.9621879" lon="12.2032671"><ele>355.0</ele><time>2026-04-19T08:49:58.815Z</time></trkpt><trkpt lat="42.9621141" lon="12.2033112"><ele>357.0</ele><time>2026-04-19T08:50:01.814Z</time></trkpt><trkpt lat="42.9620501" lon="12.2033536"><ele>359.0</ele><time>2026-04-19T08:50:04.814Z</time></trkpt><trkpt lat="42.9619862" lon="12.2033975"><ele>361.0</ele><time>2026-04-19T08:50:07.813Z</time></trkpt><trkpt lat="42.9619182" lon="12.2034548"><ele>361.0</ele><time>2026-04-19T08:50:10.813Z</time></trkpt><trkpt lat="42.9618723" lon="12.2035144"><ele>361.0</ele><time>2026-04-19T08:50:13.816Z</time></trkpt><trkpt lat="42.9618318" lon="12.2036074"><ele>361.0</ele><time>2026-04-19T08:50:17.812Z</time></trkpt><trkpt lat="42.9618807" lon="12.2036637"><ele>361.0</ele><time>2026-04-19T08:50:21.813Z</time></trkpt><trkpt lat="42.9619512" lon="12.203631"><ele>361.0</ele><time>2026-04-19T08:50:25.811Z</time></trkpt><trkpt lat="42.9620097" lon="12.2035889"><ele>361.0</ele><time>2026-04-19T08:50:28.814Z</time></trkpt><trkpt lat="42.9620928" lon="12.2035673"><ele>361.0</ele><time>2026-04-19T08:50:32.823Z</time></trkpt><trkpt lat="42.9621559" lon="12.20358"><ele>361.0</ele><time>2026-04-19T08:50:35.822Z</time></trkpt><trkpt lat="42.9622259" lon="12.2036044"><ele>361.0</ele><time>2026-04-19T08:50:39.812Z</time></trkpt><trkpt lat="42.962294" lon="12.2036036"><ele>361.0</ele><time>2026-04-19T08:50:43.822Z</time></trkpt><trkpt lat="42.9623597" lon="12.2035913"><ele>361.0</ele><time>2026-04-19T08:50:47.813Z</time></trkpt><trkpt lat="42.9624319" lon="12.2035754"><ele>361.0</ele><time>2026-04-19T08:50:51.905Z</time></trkpt><trkpt lat="42.9624947" lon="12.2035544"><ele>361.0</ele><time>2026-04-19T08:50:54.814Z</time></trkpt><trkpt lat="42.9625745" lon="12.2035386"><ele>361.0</ele><time>2026-04-19T08:50:58.816Z</time></trkpt><trkpt lat="42.962651" lon="12.2035276"><ele>360.8333333333333</ele><time>2026-04-19T08:51:02.812Z</time></trkpt><trkpt lat="42.9627202" lon="12.2035389"><ele>360.66666666666663</ele><time>2026-04-19T08:51:06.812Z</time></trkpt><trkpt lat="42.9627904" lon="12.2035357"><ele>360.5</ele><time>2026-04-19T08:51:09.812Z</time></trkpt><trkpt lat="42.9628706" lon="12.2035055"><ele>360.3333333333333</ele><time>2026-04-19T08:51:12.813Z</time></trkpt><trkpt lat="42.9629532" lon="12.2034783"><ele>360.1666666666667</ele><time>2026-04-19T08:51:15.812Z</time></trkpt><trkpt lat="42.9630243" lon="12.2034676"><ele>360.0</ele><time>2026-04-19T08:51:18.814Z</time></trkpt><trkpt lat="42.9630952" lon="12.2034653"><ele>360.0</ele><time>2026-04-19T08:51:21.815Z</time></trkpt><trkpt lat="42.96316" lon="12.2034918"><ele>360.0</ele><time>2026-04-19T08:51:24.814Z</time></trkpt><trkpt lat="42.9632233" lon="12.2035317"><ele>360.0</ele><time>2026-04-19T08:51:27.798Z</time></trkpt><trkpt lat="42.9632915" lon="12.2035698"><ele>360.0</ele><time>2026-04-19T08:51:30.814Z</time></trkpt><trkpt lat="42.9633827" lon="12.203623"><ele>360.0</ele><time>2026-04-19T08:51:34.815Z</time></trkpt><trkpt lat="42.963459" lon="12.2036631"><ele>360.0</ele><time>2026-04-19T08:51:37.808Z</time></trkpt><trkpt lat="42.9635263" lon="12.2037249"><ele>361.1428571428571</ele><time>2026-04-19T08:51:42.815Z</time></trkpt><trkpt lat="42.9635904" lon="12.2037502"><ele>362.28571428571433</ele><time>2026-04-19T08:51:45.812Z</time></trkpt><trkpt lat="42.9636536" lon="12.2037414"><ele>363.42857142857144</ele><time>2026-04-19T08:51:48.812Z</time></trkpt><trkpt lat="42.963721" lon="12.2037358"><ele>364.57142857142856</ele><time>2026-04-19T08:51:51.815Z</time></trkpt><trkpt lat="42.9637923" lon="12.2037202"><ele>365.71428571428567</ele><time>2026-04-19T08:51:54.815Z</time></trkpt><trkpt lat="42.963865" lon="12.2037517"><ele>366.8571428571429</ele><time>2026-04-19T08:51:58.815Z</time></trkpt><trkpt lat="42.9639013" lon="12.2038399"><ele>368.0</ele><time>2026-04-19T08:52:02.811Z</time></trkpt><trkpt lat="42.9639132" lon="12.2039259"><ele>370.0</ele><time>2026-04-19T08:52:06.813Z</time></trkpt><trkpt lat="42.9639396" lon="12.2040161"><ele>372.0</ele><time>2026-04-19T08:52:10.814Z</time></trkpt><trkpt lat="42.9639766" lon="12.2040879"><ele>374.0</ele><time>2026-04-19T08:52:13.815Z</time></trkpt><trkpt lat="42.9640176" lon="12.2041835"><ele>376.0</ele><time>2026-04-19T08:52:17.813Z</time></trkpt><trkpt lat="42.9640542" lon="12.2042541"><ele>378.0</ele><time>2026-04-19T08:52:20.816Z</time></trkpt><trkpt lat="42.9640938" lon="12.2043449"><ele>380.0</ele><time>2026-04-19T08:52:24.814Z</time></trkpt><trkpt lat="42.9641199" lon="12.2044311"><ele>382.0</ele><time>2026-04-19T08:52:28.814Z</time></trkpt><trkpt lat="42.9641548" lon="12.2045212"><ele>382.0</ele><time>2026-04-19T08:52:32.816Z</time></trkpt><trkpt lat="42.9641987" lon="12.204605"><ele>382.0</ele><time>2026-04-19T08:52:36.815Z</time></trkpt><trkpt lat="42.9642447" lon="12.2046735"><ele>382.0</ele><time>2026-04-19T08:52:40.822Z</time></trkpt><trkpt lat="42.9642896" lon="12.2047377"><ele>382.0</ele><time>2026-04-19T08:52:44.812Z</time></trkpt><trkpt lat="42.9643308" lon="12.2048044"><ele>382.0</ele><time>2026-04-19T08:52:48.812Z</time></trkpt><trkpt lat="42.9643775" lon="12.204872"><ele>382.0</ele><time>2026-04-19T08:52:52.815Z</time></trkpt><trkpt lat="42.9644305" lon="12.2049273"><ele>382.0</ele><time>2026-04-19T08:52:56.813Z</time></trkpt><trkpt lat="42.9645033" lon="12.2049023"><ele>382.0</ele><time>2026-04-19T08:53:00.813Z</time></trkpt><trkpt lat="42.9645562" lon="12.2048545"><ele>382.0</ele><time>2026-04-19T08:53:03.816Z</time></trkpt><trkpt lat="42.964608" lon="12.2047955"><ele>382.0</ele><time>2026-04-19T08:53:06.818Z</time></trkpt><trkpt lat="42.9646659" lon="12.2047372"><ele>382.0</ele><time>2026-04-19T08:53:09.813Z</time></trkpt><trkpt lat="42.9647288" lon="12.2046676"><ele>382.0</ele><time>2026-04-19T08:53:12.814Z</time></trkpt><trkpt lat="42.9647913" lon="12.2045893"><ele>382.0</ele><time>2026-04-19T08:53:15.814Z</time></trkpt><trkpt lat="42.9648446" lon="12.2045295"><ele>382.0</ele><time>2026-04-19T08:53:17.911Z</time></trkpt><trkpt lat="42.9649013" lon="12.2044546"><ele>382.6</ele><time>2026-04-19T08:53:19.812Z</time></trkpt><trkpt lat="42.9649799" lon="12.2043824"><ele>383.20000000000005</ele><time>2026-04-19T08:53:21.813Z</time></trkpt><trkpt lat="42.9650666" lon="12.2043236"><ele>383.8</ele><time>2026-04-19T08:53:23.811Z</time></trkpt><trkpt lat="42.965165" lon="12.2043157"><ele>384.4</ele><time>2026-04-19T08:53:25.831Z</time></trkpt><trkpt lat="42.9652639" lon="12.2043033"><ele>385.0</ele><time>2026-04-19T08:53:27.813Z</time></trkpt><trkpt lat="42.9653558" lon="12.2042563"><ele>382.6</ele><time>2026-04-19T08:53:29.811Z</time></trkpt><trkpt lat="42.9654441" lon="12.2041423"><ele>380.2</ele><time>2026-04-19T08:53:31.82Z</time></trkpt><trkpt lat="42.9655192" lon="12.2040031"><ele>377.79999999999995</ele><time>2026-04-19T08:53:33.812Z</time></trkpt><trkpt lat="42.9655498" lon="12.2039254"><ele>375.4</ele><time>2026-04-19T08:53:34.81Z</time></trkpt><trkpt lat="42.9656346" lon="12.2037941"><ele>373.0</ele><time>2026-04-19T08:53:36.825Z</time></trkpt><trkpt lat="42.9656772" lon="12.203724"><ele>373.0</ele><time>2026-04-19T08:53:37.814Z</time></trkpt><trkpt lat="42.9657112" lon="12.2036425"><ele>373.0</ele><time>2026-04-19T08:53:38.814Z</time></trkpt><trkpt lat="42.9657365" lon="12.2035507"><ele>373.0</ele><time>2026-04-19T08:53:39.814Z</time></trkpt><trkpt lat="42.9657584" lon="12.2034602"><ele>373.0</ele><time>2026-04-19T08:53:40.816Z</time></trkpt><trkpt lat="42.965777" lon="12.2033626"><ele>373.0</ele><time>2026-04-19T08:53:41.818Z</time></trkpt><trkpt lat="42.9657965" lon="12.2032671"><ele>373.0</ele><time>2026-04-19T08:53:42.815Z</time></trkpt><trkpt lat="42.9658262" lon="12.2031844"><ele>373.0</ele><time>2026-04-19T08:53:43.813Z</time></trkpt><trkpt lat="42.9658509" lon="12.2031005"><ele>371.66666666666663</ele><time>2026-04-19T08:53:44.815Z</time></trkpt><trkpt lat="42.9658827" lon="12.2030163"><ele>370.3333333333333</ele><time>2026-04-19T08:53:45.813Z</time></trkpt><trkpt lat="42.9659517" lon="12.2028787"><ele>369.0</ele><time>2026-04-19T08:53:47.812Z</time></trkpt><trkpt lat="42.9660063" lon="12.2028269"><ele>367.6666666666667</ele><time>2026-04-19T08:53:48.817Z</time></trkpt><trkpt lat="42.9660695" lon="12.202785"><ele>366.33333333333337</ele><time>2026-04-19T08:53:49.826Z</time></trkpt><trkpt lat="42.9661323" lon="12.2027629"><ele>365.0</ele><time>2026-04-19T08:53:50.813Z</time></trkpt><trkpt lat="42.9662611" lon="12.2027346"><ele>365.0</ele><time>2026-04-19T08:53:52.808Z</time></trkpt><trkpt lat="42.9663892" lon="12.2026995"><ele>365.0</ele><time>2026-04-19T08:53:54.821Z</time></trkpt><trkpt lat="42.9664605" lon="12.2026729"><ele>365.0</ele><time>2026-04-19T08:53:55.811Z</time></trkpt><trkpt lat="42.9665363" lon="12.2026465"><ele>365.0</ele><time>2026-04-19T08:53:56.808Z</time></trkpt><trkpt lat="42.9666036" lon="12.2026265"><ele>365.0</ele><time>2026-04-19T08:53:57.812Z</time></trkpt><trkpt lat="42.9666875" lon="12.2025729"><ele>365.0</ele><time>2026-04-19T08:53:58.811Z</time></trkpt><trkpt lat="42.9667486" lon="12.2025397"><ele>362.6666666666667</ele><time>2026-04-19T08:53:59.808Z</time></trkpt><trkpt lat="42.9668153" lon="12.2025107"><ele>360.33333333333337</ele><time>2026-04-19T08:54:00.808Z</time></trkpt><trkpt lat="42.9668807" lon="12.2024611"><ele>358.0</ele><time>2026-04-19T08:54:01.797Z</time></trkpt><trkpt lat="42.9669456" lon="12.2024194"><ele>355.6666666666667</ele><time>2026-04-19T08:54:02.81Z</time></trkpt><trkpt lat="42.9670107" lon="12.2023826"><ele>353.3333333333333</ele><time>2026-04-19T08:54:03.811Z</time></trkpt><trkpt lat="42.9671143" lon="12.2023079"><ele>351.0</ele><time>2026-04-19T08:54:05.811Z</time></trkpt><trkpt lat="42.9671822" lon="12.2022698"><ele>350.8</ele><time>2026-04-19T08:54:06.812Z</time></trkpt><trkpt lat="42.967253" lon="12.2022488"><ele>350.6</ele><time>2026-04-19T08:54:07.8Z</time></trkpt><trkpt lat="42.9673617" lon="12.2022158"><ele>350.4</ele><time>2026-04-19T08:54:09.808Z</time></trkpt><trkpt lat="42.9674778" lon="12.2022007"><ele>350.2</ele><time>2026-04-19T08:54:11.794Z</time></trkpt><trkpt lat="42.9675795" lon="12.2022351"><ele>350.0</ele><time>2026-04-19T08:54:13.814Z</time></trkpt><trkpt lat="42.9676428" lon="12.2022534"><ele>347.0</ele><time>2026-04-19T08:54:14.797Z</time></trkpt><trkpt lat="42.9677545" lon="12.2022374"><ele>344.0</ele><time>2026-04-19T08:54:16.815Z</time></trkpt><trkpt lat="42.9678254" lon="12.2021934"><ele>341.0</ele><time>2026-04-19T08:54:17.796Z</time></trkpt><trkpt lat="42.967941" lon="12.2021068"><ele>338.0</ele><time>2026-04-19T08:54:19.794Z</time></trkpt><trkpt lat="42.9680422" lon="12.2020267"><ele>335.0</ele><time>2026-04-19T08:54:21.791Z</time></trkpt><trkpt lat="42.968157" lon="12.2019133"><ele>335.0</ele><time>2026-04-19T08:54:23.797Z</time></trkpt><trkpt lat="42.9682322" lon="12.2018473"><ele>335.0</ele><time>2026-04-19T08:54:24.795Z</time></trkpt><trkpt lat="42.9682817" lon="12.2017882"><ele>335.0</ele><time>2026-04-19T08:54:25.802Z</time></trkpt><trkpt lat="42.9683834" lon="12.2016813"><ele>335.0</ele><time>2026-04-19T08:54:27.796Z</time></trkpt><trkpt lat="42.9684325" lon="12.2016199"><ele>335.0</ele><time>2026-04-19T08:54:28.796Z</time></trkpt><trkpt lat="42.9684807" lon="12.2015623"><ele>335.0</ele><time>2026-04-19T08:54:29.808Z</time></trkpt><trkpt lat="42.9685864" lon="12.2014721"><ele>329.6</ele><time>2026-04-19T08:54:31.794Z</time></trkpt><trkpt lat="42.9686931" lon="12.2013383"><ele>324.2</ele><time>2026-04-19T08:54:33.801Z</time></trkpt><trkpt lat="42.9687478" lon="12.2012866"><ele>318.8</ele><time>2026-04-19T08:54:34.794Z</time></trkpt><trkpt lat="42.9688372" lon="12.2011837"><ele>313.4</ele><time>2026-04-19T08:54:36.794Z</time></trkpt><trkpt lat="42.9689176" lon="12.2010991"><ele>308.0</ele><time>2026-04-19T08:54:38.795Z</time></trkpt><trkpt lat="42.968934" lon="12.2009898"><ele>308.0</ele><time>2026-04-19T08:54:40.935Z</time></trkpt><trkpt lat="42.9689252" lon="12.200883"><ele>308.0</ele><time>2026-04-19T08:54:42.797Z</time></trkpt><trkpt lat="42.9689069" lon="12.200765"><ele>308.0</ele><time>2026-04-19T08:54:44.795Z</time></trkpt><trkpt lat="42.9689273" lon="12.2006589"><ele>308.0</ele><time>2026-04-19T08:54:46.794Z</time></trkpt><trkpt lat="42.9689589" lon="12.2005459"><ele>308.0</ele><time>2026-04-19T08:54:49.8Z</time></trkpt><trkpt lat="42.9690273" lon="12.2004688"><ele>308.0</ele><time>2026-04-19T08:54:52.923Z</time></trkpt><trkpt lat="42.9691013" lon="12.2004465"><ele>307.57142857142856</ele><time>2026-04-19T08:54:56.817Z</time></trkpt><trkpt lat="42.9691745" lon="12.2004594"><ele>307.1428571428571</ele><time>2026-04-19T08:55:00.793Z</time></trkpt><trkpt lat="42.9692421" lon="12.2004497"><ele>306.7142857142857</ele><time>2026-04-19T08:55:03.809Z</time></trkpt><trkpt lat="42.9693132" lon="12.2004316"><ele>306.2857142857143</ele><time>2026-04-19T08:55:06.786Z</time></trkpt><trkpt lat="42.9693705" lon="12.2003642"><ele>305.85714285714283</ele><time>2026-04-19T08:55:08.808Z</time></trkpt><trkpt lat="42.9693831" lon="12.2002602"><ele>305.42857142857144</ele><time>2026-04-19T08:55:10.796Z</time></trkpt><trkpt lat="42.9693683" lon="12.2001678"><ele>305.0</ele><time>2026-04-19T08:55:12.817Z</time></trkpt><trkpt lat="42.9693618" lon="12.2000702"><ele>304.8571428571429</ele><time>2026-04-19T08:55:14.812Z</time></trkpt><trkpt lat="42.969387" lon="12.1999655"><ele>304.71428571428567</ele><time>2026-04-19T08:55:17.808Z</time></trkpt><trkpt lat="42.9694407" lon="12.1999086"><ele>304.57142857142856</ele><time>2026-04-19T08:55:21.808Z</time></trkpt><trkpt lat="42.969499" lon="12.1998405"><ele>304.42857142857144</ele><time>2026-04-19T08:57:50.808Z</time></trkpt><trkpt lat="42.9695364" lon="12.199769"><ele>304.28571428571433</ele><time>2026-04-19T08:57:54.806Z</time></trkpt><trkpt lat="42.9696009" lon="12.1997187"><ele>304.1428571428571</ele><time>2026-04-19T08:57:58.806Z</time></trkpt><trkpt lat="42.9696747" lon="12.199697"><ele>304.0</ele><time>2026-04-19T08:58:02.807Z</time></trkpt><trkpt lat="42.9697489" lon="12.1996708"><ele>304.0</ele><time>2026-04-19T08:58:06.809Z</time></trkpt><trkpt lat="42.9698297" lon="12.1996663"><ele>304.0</ele><time>2026-04-19T08:58:09.81Z</time></trkpt><trkpt lat="42.9699004" lon="12.1996292"><ele>304.0</ele><time>2026-04-19T08:58:11.823Z</time></trkpt><trkpt lat="42.9699634" lon="12.1995892"><ele>304.0</ele><time>2026-04-19T08:58:14.795Z</time></trkpt><trkpt lat="42.9700245" lon="12.1995288"><ele>304.0</ele><time>2026-04-19T08:58:17.805Z</time></trkpt><trkpt lat="42.9700822" lon="12.1994637"><ele>304.0</ele><time>2026-04-19T08:58:20.797Z</time></trkpt><trkpt lat="42.9701346" lon="12.1993733"><ele>304.5</ele><time>2026-04-19T08:58:23.812Z</time></trkpt><trkpt lat="42.9701825" lon="12.1992652"><ele>305.0</ele><time>2026-04-19T08:58:26.808Z</time></trkpt><trkpt lat="42.9702282" lon="12.1992003"><ele>305.5</ele><time>2026-04-19T08:58:28.796Z</time></trkpt><trkpt lat="42.9702734" lon="12.1991277"><ele>306.0</ele><time>2026-04-19T08:58:30.805Z</time></trkpt><trkpt lat="42.9703137" lon="12.1990582"><ele>306.5</ele><time>2026-04-19T08:58:32.814Z</time></trkpt><trkpt lat="42.9703577" lon="12.1989679"><ele>307.0</ele><time>2026-04-19T08:58:35.795Z</time></trkpt><trkpt lat="42.9704008" lon="12.1988681"><ele>307.0</ele><time>2026-04-19T08:58:38.816Z</time></trkpt><trkpt lat="42.9704581" lon="12.198793"><ele>307.0</ele><time>2026-04-19T08:58:41.811Z</time></trkpt><trkpt lat="42.9705128" lon="12.1987126"><ele>307.0</ele><time>2026-04-19T08:58:44.813Z</time></trkpt><trkpt lat="42.9705634" lon="12.1986345"><ele>307.0</ele><time>2026-04-19T08:58:47.815Z</time></trkpt><trkpt lat="42.970613" lon="12.198565"><ele>307.0</ele><time>2026-04-19T08:58:50.814Z</time></trkpt><trkpt lat="42.97065" lon="12.1984722"><ele>307.0</ele><time>2026-04-19T08:58:53.816Z</time></trkpt><trkpt lat="42.9706823" lon="12.1983859"><ele>307.0</ele><time>2026-04-19T08:58:56.815Z</time></trkpt><trkpt lat="42.9707293" lon="12.1982904"><ele>307.0</ele><time>2026-04-19T08:59:00.821Z</time></trkpt><trkpt lat="42.9707725" lon="12.1981912"><ele>307.0</ele><time>2026-04-19T08:59:04.814Z</time></trkpt><trkpt lat="42.9708234" lon="12.1981263"><ele>307.0</ele><time>2026-04-19T08:59:07.813Z</time></trkpt><trkpt lat="42.9708627" lon="12.1980456"><ele>307.0</ele><time>2026-04-19T08:59:10.812Z</time></trkpt><trkpt lat="42.9709052" lon="12.197963"><ele>307.0</ele><time>2026-04-19T08:59:13.819Z</time></trkpt><trkpt lat="42.9709444" lon="12.1978814"><ele>307.2857142857143</ele><time>2026-04-19T08:59:16.797Z</time></trkpt><trkpt lat="42.9709917" lon="12.197816"><ele>307.57142857142856</ele><time>2026-04-19T08:59:19.814Z</time></trkpt><trkpt lat="42.9710325" lon="12.1977447"><ele>307.8571428571429</ele><time>2026-04-19T08:59:22.8Z</time></trkpt><trkpt lat="42.9710816" lon="12.1976759"><ele>308.1428571428571</ele><time>2026-04-19T08:59:25.801Z</time></trkpt><trkpt lat="42.9711356" lon="12.1976143"><ele>308.42857142857144</ele><time>2026-04-19T08:59:28.813Z</time></trkpt><trkpt lat="42.9711904" lon="12.1975522"><ele>308.7142857142857</ele><time>2026-04-19T08:59:31.807Z</time></trkpt><trkpt lat="42.9712532" lon="12.1974968"><ele>309.0</ele><time>2026-04-19T08:59:36.809Z</time></trkpt><trkpt lat="42.9713172" lon="12.1974686"><ele>309.0</ele><time>2026-04-19T08:59:41.799Z</time></trkpt><trkpt lat="42.971374" lon="12.1974242"><ele>309.0</ele><time>2026-04-19T08:59:45.799Z</time></trkpt><trkpt lat="42.9714526" lon="12.1974218"><ele>309.0</ele><time>2026-04-19T08:59:48.818Z</time></trkpt><trkpt lat="42.9715242" lon="12.1974315"><ele>309.0</ele><time>2026-04-19T08:59:50.8Z</time></trkpt><trkpt lat="42.971613" lon="12.1974197"><ele>309.0</ele><time>2026-04-19T08:59:52.817Z</time></trkpt><trkpt lat="42.9717227" lon="12.1974154"><ele>309.0</ele><time>2026-04-19T08:59:54.814Z</time></trkpt><trkpt lat="42.9717894" lon="12.1973994"><ele>306.8333333333333</ele><time>2026-04-19T08:59:55.82Z</time></trkpt><trkpt lat="42.9718577" lon="12.1973802"><ele>304.6666666666667</ele><time>2026-04-19T08:59:56.814Z</time></trkpt><trkpt lat="42.9719275" lon="12.1973505"><ele>302.5</ele><time>2026-04-19T08:59:57.818Z</time></trkpt><trkpt lat="42.9720019" lon="12.1973078"><ele>300.33333333333337</ele><time>2026-04-19T08:59:58.819Z</time></trkpt><trkpt lat="42.9720868" lon="12.1972753"><ele>298.1666666666667</ele><time>2026-04-19T08:59:59.818Z</time></trkpt><trkpt lat="42.9721865" lon="12.1972581"><ele>296.0</ele><time>2026-04-19T09:00:00.815Z</time></trkpt><trkpt lat="42.972288" lon="12.1972798"><ele>296.0</ele><time>2026-04-19T09:00:01.819Z</time></trkpt><trkpt lat="42.9723977" lon="12.1973006"><ele>296.0</ele><time>2026-04-19T09:00:02.815Z</time></trkpt><trkpt lat="42.9725129" lon="12.1972959"><ele>296.0</ele><time>2026-04-19T09:00:03.816Z</time></trkpt><trkpt lat="42.9726273" lon="12.1972712"><ele>296.0</ele><time>2026-04-19T09:00:04.815Z</time></trkpt><trkpt lat="42.9727446" lon="12.1972386"><ele>293.75</ele><time>2026-04-19T09:00:05.812Z</time></trkpt><trkpt lat="42.9728576" lon="12.1972086"><ele>291.5</ele><time>2026-04-19T09:00:06.807Z</time></trkpt><trkpt lat="42.9729674" lon="12.1971886"><ele>289.25</ele><time>2026-04-19T09:00:07.806Z</time></trkpt><trkpt lat="42.9730802" lon="12.1971808"><ele>287.0</ele><time>2026-04-19T09:00:08.808Z</time></trkpt><trkpt lat="42.9732" lon="12.1971775"><ele>287.0</ele><time>2026-04-19T09:00:09.806Z</time></trkpt><trkpt lat="42.9733277" lon="12.1971755"><ele>287.0</ele><time>2026-04-19T09:00:10.807Z</time></trkpt><trkpt lat="42.9734449" lon="12.1971773"><ele>287.0</ele><time>2026-04-19T09:00:11.806Z</time></trkpt><trkpt lat="42.9735642" lon="12.1971684"><ele>287.0</ele><time>2026-04-19T09:00:12.808Z</time></trkpt><trkpt lat="42.9736881" lon="12.1971502"><ele>285.25</ele><time>2026-04-19T09:00:13.807Z</time></trkpt><trkpt lat="42.9738032" lon="12.1971337"><ele>283.5</ele><time>2026-04-19T09:00:14.806Z</time></trkpt><trkpt lat="42.9739456" lon="12.1970767"><ele>281.75</ele><time>2026-04-19T09:00:15.805Z</time></trkpt><trkpt lat="42.9740826" lon="12.1970278"><ele>280.0</ele><time>2026-04-19T09:00:16.802Z</time></trkpt><trkpt lat="42.9742148" lon="12.1969882"><ele>277.75</ele><time>2026-04-19T09:00:17.814Z</time></trkpt><trkpt lat="42.9743385" lon="12.1969755"><ele>275.5</ele><time>2026-04-19T09:00:18.798Z</time></trkpt><trkpt lat="42.9744566" lon="12.1969763"><ele>273.25</ele><time>2026-04-19T09:00:19.808Z</time></trkpt><trkpt lat="42.9745743" lon="12.1969788"><ele>271.0</ele><time>2026-04-19T09:00:20.812Z</time></trkpt><trkpt lat="42.9747029" lon="12.1970259"><ele>271.0</ele><time>2026-04-19T09:00:21.811Z</time></trkpt><trkpt lat="42.9748188" lon="12.1971016"><ele>271.0</ele><time>2026-04-19T09:00:22.808Z</time></trkpt><trkpt lat="42.9749222" lon="12.1972172"><ele>271.0</ele><time>2026-04-19T09:00:23.805Z</time></trkpt><trkpt lat="42.9750215" lon="12.1973261"><ele>271.0</ele><time>2026-04-19T09:00:24.812Z</time></trkpt><trkpt lat="42.9751209" lon="12.1974447"><ele>270.6</ele><time>2026-04-19T09:00:25.807Z</time></trkpt><trkpt lat="42.9752174" lon="12.1975468"><ele>270.20000000000005</ele><time>2026-04-19T09:00:26.808Z</time></trkpt><trkpt lat="42.9753002" lon="12.1976452"><ele>269.79999999999995</ele><time>2026-04-19T09:00:27.811Z</time></trkpt><trkpt lat="42.9753815" lon="12.1977222"><ele>269.4</ele><time>2026-04-19T09:00:28.805Z</time></trkpt><trkpt lat="42.9754712" lon="12.1977403"><ele>269.0</ele><time>2026-04-19T09:00:29.808Z</time></trkpt><trkpt lat="42.9755523" lon="12.1977066"><ele>269.0</ele><time>2026-04-19T09:00:30.808Z</time></trkpt><trkpt lat="42.9756373" lon="12.1976487"><ele>269.0</ele><time>2026-04-19T09:00:31.806Z</time></trkpt><trkpt lat="42.9757163" lon="12.1975748"><ele>269.0</ele><time>2026-04-19T09:00:32.816Z</time></trkpt><trkpt lat="42.9757968" lon="12.1974986"><ele>269.0</ele><time>2026-04-19T09:00:33.819Z</time></trkpt><trkpt lat="42.9758663" lon="12.1974299"><ele>269.0</ele><time>2026-04-19T09:00:34.803Z</time></trkpt><trkpt lat="42.9759356" lon="12.1973499"><ele>268.0</ele><time>2026-04-19T09:00:35.808Z</time></trkpt><trkpt lat="42.9759998" lon="12.1972614"><ele>267.0</ele><time>2026-04-19T09:00:36.806Z</time></trkpt><trkpt lat="42.9760629" lon="12.1971686"><ele>266.0</ele><time>2026-04-19T09:00:37.913Z</time></trkpt><trkpt lat="42.9761796" lon="12.1969727"><ele>265.0</ele><time>2026-04-19T09:00:39.806Z</time></trkpt><trkpt lat="42.976254" lon="12.1969007"><ele>265.0</ele><time>2026-04-19T09:00:40.799Z</time></trkpt><trkpt lat="42.976331" lon="12.19684"><ele>265.0</ele><time>2026-04-19T09:00:41.815Z</time></trkpt><trkpt lat="42.9764127" lon="12.1967903"><ele>265.0</ele><time>2026-04-19T09:00:42.806Z</time></trkpt><trkpt lat="42.9764904" lon="12.1967599"><ele>265.0</ele><time>2026-04-19T09:00:43.804Z</time></trkpt><trkpt lat="42.9765776" lon="12.1967451"><ele>265.0</ele><time>2026-04-19T09:00:44.812Z</time></trkpt><trkpt lat="42.976659" lon="12.196742"><ele>265.0</ele><time>2026-04-19T09:00:45.803Z</time></trkpt><trkpt lat="42.976737" lon="12.1967583"><ele>264.4285714285714</ele><time>2026-04-19T09:00:46.805Z</time></trkpt><trkpt lat="42.9768035" lon="12.1967799"><ele>263.85714285714283</ele><time>2026-04-19T09:00:47.808Z</time></trkpt><trkpt lat="42.976878" lon="12.1968112"><ele>263.2857142857143</ele><time>2026-04-19T09:00:48.793Z</time></trkpt><trkpt lat="42.9769502" lon="12.196837"><ele>262.71428571428567</ele><time>2026-04-19T09:00:49.806Z</time></trkpt><trkpt lat="42.9770219" lon="12.1968626"><ele>262.1428571428571</ele><time>2026-04-19T09:00:50.809Z</time></trkpt><trkpt lat="42.9770922" lon="12.1968907"><ele>261.57142857142856</ele><time>2026-04-19T09:00:51.81Z</time></trkpt><trkpt lat="42.9771657" lon="12.1969249"><ele>261.0</ele><time>2026-04-19T09:00:52.811Z</time></trkpt><trkpt lat="42.977235" lon="12.1969507"><ele>261.0</ele><time>2026-04-19T09:00:53.804Z</time></trkpt><trkpt lat="42.9773077" lon="12.1969811"><ele>261.0</ele><time>2026-04-19T09:00:54.809Z</time></trkpt><trkpt lat="42.9773788" lon="12.1969857"><ele>261.0</ele><time>2026-04-19T09:00:55.81Z</time></trkpt><trkpt lat="42.9774436" lon="12.1969979"><ele>261.0</ele><time>2026-04-19T09:00:56.814Z</time></trkpt><trkpt lat="42.9775083" lon="12.1970086"><ele>261.0</ele><time>2026-04-19T09:00:57.806Z</time></trkpt><trkpt lat="42.977574" lon="12.1970191"><ele>261.0</ele><time>2026-04-19T09:00:58.809Z</time></trkpt><trkpt lat="42.9776969" lon="12.1970198"><ele>260.6</ele><time>2026-04-19T09:01:00.803Z</time></trkpt><trkpt lat="42.9777612" lon="12.1969979"><ele>260.20000000000005</ele><time>2026-04-19T09:01:01.804Z</time></trkpt><trkpt lat="42.9778775" lon="12.1969588"><ele>259.79999999999995</ele><time>2026-04-19T09:01:03.811Z</time></trkpt><trkpt lat="42.9779795" lon="12.1968896"><ele>259.4</ele><time>2026-04-19T09:01:05.814Z</time></trkpt><trkpt lat="42.9780773" lon="12.196809"><ele>259.0</ele><time>2026-04-19T09:01:07.811Z</time></trkpt><trkpt lat="42.9781788" lon="12.1967564"><ele>259.0</ele><time>2026-04-19T09:01:09.809Z</time></trkpt><trkpt lat="42.9782851" lon="12.1966989"><ele>259.0</ele><time>2026-04-19T09:01:11.804Z</time></trkpt><trkpt lat="42.9784008" lon="12.1966515"><ele>259.0</ele><time>2026-04-19T09:01:13.805Z</time></trkpt><trkpt lat="42.9785033" lon="12.1965982"><ele>259.0</ele><time>2026-04-19T09:01:15.813Z</time></trkpt><trkpt lat="42.9786096" lon="12.1965628"><ele>260.0</ele><time>2026-04-19T09:01:17.811Z</time></trkpt><trkpt lat="42.9787878" lon="12.1964681"><ele>261.0</ele><time>2026-04-19T09:01:20.811Z</time></trkpt><trkpt lat="42.9788988" lon="12.1964295"><ele>262.0</ele><time>2026-04-19T09:01:22.811Z</time></trkpt><trkpt lat="42.9790117" lon="12.196391"><ele>263.0</ele><time>2026-04-19T09:01:24.911Z</time></trkpt><trkpt lat="42.979127" lon="12.1963289"><ele>260.4</ele><time>2026-04-19T09:01:26.803Z</time></trkpt><trkpt lat="42.9792409" lon="12.1962489"><ele>257.8</ele><time>2026-04-19T09:01:28.808Z</time></trkpt><trkpt lat="42.9792942" lon="12.1961956"><ele>255.2</ele><time>2026-04-19T09:01:29.807Z</time></trkpt><trkpt lat="42.9793969" lon="12.1960984"><ele>252.6</ele><time>2026-04-19T09:01:31.809Z</time></trkpt><trkpt lat="42.9794504" lon="12.1960475"><ele>250.0</ele><time>2026-04-19T09:01:32.815Z</time></trkpt><trkpt lat="42.9795093" lon="12.1960054"><ele>250.0</ele><time>2026-04-19T09:01:33.812Z</time></trkpt><trkpt lat="42.9796161" lon="12.1959363"><ele>250.0</ele><time>2026-04-19T09:01:35.8Z</time></trkpt><trkpt lat="42.9797248" lon="12.1958852"><ele>250.0</ele><time>2026-04-19T09:01:37.806Z</time></trkpt><trkpt lat="42.9798307" lon="12.1958277"><ele>250.0</ele><time>2026-04-19T09:01:39.807Z</time></trkpt><trkpt lat="42.9799308" lon="12.1957659"><ele>249.8</ele><time>2026-04-19T09:01:41.805Z</time></trkpt><trkpt lat="42.9800301" lon="12.1957165"><ele>249.6</ele><time>2026-04-19T09:01:43.808Z</time></trkpt><trkpt lat="42.9801233" lon="12.1956757"><ele>249.39999999999998</ele><time>2026-04-19T09:01:45.804Z</time></trkpt><trkpt lat="42.9802208" lon="12.1956258"><ele>249.2</ele><time>2026-04-19T09:01:47.809Z</time></trkpt><trkpt lat="42.9803177" lon="12.1955826"><ele>249.0</ele><time>2026-04-19T09:01:49.811Z</time></trkpt><trkpt lat="42.9804177" lon="12.1955402"><ele>249.0</ele><time>2026-04-19T09:01:51.804Z</time></trkpt><trkpt lat="42.980515" lon="12.1954964"><ele>248.99999999999997</ele><time>2026-04-19T09:01:53.804Z</time></trkpt><trkpt lat="42.9806101" lon="12.1954676"><ele>248.99999999999997</ele><time>2026-04-19T09:01:55.811Z</time></trkpt><trkpt lat="42.9807109" lon="12.1954067"><ele>249.0</ele><time>2026-04-19T09:01:57.811Z</time></trkpt><trkpt lat="42.9808088" lon="12.1953585"><ele>249.0</ele><time>2026-04-19T09:01:59.81Z</time></trkpt><trkpt lat="42.9808984" lon="12.1953076"><ele>249.0</ele><time>2026-04-19T09:02:01.807Z</time></trkpt><trkpt lat="42.980994" lon="12.1952462"><ele>249.0</ele><time>2026-04-19T09:02:03.816Z</time></trkpt><trkpt lat="42.9810946" lon="12.1951971"><ele>249.0</ele><time>2026-04-19T09:02:05.806Z</time></trkpt><trkpt lat="42.9812443" lon="12.19525"><ele>249.0</ele><time>2026-04-19T09:02:08.803Z</time></trkpt><trkpt lat="42.9813181" lon="12.1953424"><ele>249.0</ele><time>2026-04-19T09:02:10.809Z</time></trkpt><trkpt lat="42.9813823" lon="12.1954361"><ele>248.99999999999997</ele><time>2026-04-19T09:02:12.802Z</time></trkpt><trkpt lat="42.9814491" lon="12.1955379"><ele>248.99999999999997</ele><time>2026-04-19T09:02:14.805Z</time></trkpt><trkpt lat="42.981511" lon="12.1956438"><ele>249.0</ele><time>2026-04-19T09:02:16.807Z</time></trkpt><trkpt lat="42.9815932" lon="12.1957349"><ele>249.0</ele><time>2026-04-19T09:02:18.811Z</time></trkpt><trkpt lat="42.9816691" lon="12.195823"><ele>248.79999999999998</ele><time>2026-04-19T09:02:20.807Z</time></trkpt><trkpt lat="42.9817382" lon="12.1959206"><ele>248.59999999999997</ele><time>2026-04-19T09:02:22.817Z</time></trkpt><trkpt lat="42.9818091" lon="12.1960056"><ele>248.4</ele><time>2026-04-19T09:02:24.903Z</time></trkpt><trkpt lat="42.9818855" lon="12.1960781"><ele>248.2</ele><time>2026-04-19T09:02:26.809Z</time></trkpt><trkpt lat="42.9819766" lon="12.1961375"><ele>248.0</ele><time>2026-04-19T09:02:28.809Z</time></trkpt><trkpt lat="42.9820723" lon="12.1961958"><ele>248.0</ele><time>2026-04-19T09:02:30.805Z</time></trkpt><trkpt lat="42.982177" lon="12.1962396"><ele>248.0</ele><time>2026-04-19T09:02:32.801Z</time></trkpt><trkpt lat="42.9822744" lon="12.1962899"><ele>248.0</ele><time>2026-04-19T09:02:34.805Z</time></trkpt><trkpt lat="42.9823739" lon="12.196336"><ele>248.0</ele><time>2026-04-19T09:02:36.803Z</time></trkpt><trkpt lat="42.9824796" lon="12.1963818"><ele>248.0</ele><time>2026-04-19T09:02:38.812Z</time></trkpt><trkpt lat="42.9825716" lon="12.1964422"><ele>247.25</ele><time>2026-04-19T09:02:40.808Z</time></trkpt><trkpt lat="42.9826653" lon="12.1965131"><ele>246.5</ele><time>2026-04-19T09:02:42.905Z</time></trkpt><trkpt lat="42.982762" lon="12.196582"><ele>245.75</ele><time>2026-04-19T09:02:44.803Z</time></trkpt><trkpt lat="42.9828692" lon="12.1966555"><ele>245.0</ele><time>2026-04-19T09:02:46.802Z</time></trkpt><trkpt lat="42.9829625" lon="12.1967456"><ele>245.0</ele><time>2026-04-19T09:02:48.804Z</time></trkpt><trkpt lat="42.983048" lon="12.1968288"><ele>245.0</ele><time>2026-04-19T09:02:50.809Z</time></trkpt><trkpt lat="42.983138" lon="12.1969018"><ele>245.0</ele><time>2026-04-19T09:02:52.804Z</time></trkpt><trkpt lat="42.9832265" lon="12.1969826"><ele>245.0</ele><time>2026-04-19T09:02:54.804Z</time></trkpt><trkpt lat="42.9833055" lon="12.1970728"><ele>245.0</ele><time>2026-04-19T09:02:56.809Z</time></trkpt><trkpt lat="42.9833769" lon="12.1971645"><ele>243.6</ele><time>2026-04-19T09:02:58.801Z</time></trkpt><trkpt lat="42.9834418" lon="12.1972464"><ele>242.2</ele><time>2026-04-19T09:03:00.903Z</time></trkpt><trkpt lat="42.9835161" lon="12.1973613"><ele>240.8</ele><time>2026-04-19T09:03:02.816Z</time></trkpt><trkpt lat="42.9836027" lon="12.1974643"><ele>239.4</ele><time>2026-04-19T09:03:04.811Z</time></trkpt><trkpt lat="42.9836438" lon="12.1975316"><ele>238.0</ele><time>2026-04-19T09:03:05.804Z</time></trkpt><trkpt lat="42.9837316" lon="12.1976387"><ele>238.0</ele><time>2026-04-19T09:03:07.81Z</time></trkpt><trkpt lat="42.9837737" lon="12.1977037"><ele>238.0</ele><time>2026-04-19T09:03:08.802Z</time></trkpt><trkpt lat="42.9838566" lon="12.1978276"><ele>238.0</ele><time>2026-04-19T09:03:10.809Z</time></trkpt><trkpt lat="42.9839407" lon="12.1979441"><ele>238.0</ele><time>2026-04-19T09:03:12.804Z</time></trkpt><trkpt lat="42.9840342" lon="12.1980611"><ele>238.0</ele><time>2026-04-19T09:03:14.811Z</time></trkpt><trkpt lat="42.9841045" lon="12.1981741"><ele>238.0</ele><time>2026-04-19T09:03:16.806Z</time></trkpt><trkpt lat="42.9841605" lon="12.1983073"><ele>238.0</ele><time>2026-04-19T09:03:18.791Z</time></trkpt><trkpt lat="42.9842094" lon="12.1984341"><ele>238.0</ele><time>2026-04-19T09:03:20.811Z</time></trkpt><trkpt lat="42.9842576" lon="12.1985734"><ele>238.0</ele><time>2026-04-19T09:03:22.806Z</time></trkpt><trkpt lat="42.9842964" lon="12.1987243"><ele>238.0</ele><time>2026-04-19T09:03:24.805Z</time></trkpt><trkpt lat="42.9843275" lon="12.1987999"><ele>237.0</ele><time>2026-04-19T09:03:25.809Z</time></trkpt><trkpt lat="42.9843692" lon="12.1989533"><ele>236.0</ele><time>2026-04-19T09:03:27.807Z</time></trkpt><trkpt lat="42.9844146" lon="12.1991036"><ele>235.0</ele><time>2026-04-19T09:03:29.792Z</time></trkpt><trkpt lat="42.9844622" lon="12.199253"><ele>234.0</ele><time>2026-04-19T09:03:31.814Z</time></trkpt><trkpt lat="42.9845091" lon="12.199394"><ele>234.0</ele><time>2026-04-19T09:03:33.81Z</time></trkpt><trkpt lat="42.9845572" lon="12.1995237"><ele>233.99999999999997</ele><time>2026-04-19T09:03:35.809Z</time></trkpt><trkpt lat="42.9846024" lon="12.1996493"><ele>233.99999999999997</ele><time>2026-04-19T09:03:37.809Z</time></trkpt><trkpt lat="42.9846533" lon="12.1997715"><ele>234.0</ele><time>2026-04-19T09:03:39.808Z</time></trkpt><trkpt lat="42.9847041" lon="12.1999017"><ele>234.0</ele><time>2026-04-19T09:03:41.811Z</time></trkpt><trkpt lat="42.9847517" lon="12.2000249"><ele>234.2</ele><time>2026-04-19T09:03:43.808Z</time></trkpt><trkpt lat="42.9847921" lon="12.200156"><ele>234.39999999999998</ele><time>2026-04-19T09:03:45.808Z</time></trkpt><trkpt lat="42.9848403" lon="12.2002893"><ele>234.6</ele><time>2026-04-19T09:03:47.809Z</time></trkpt><trkpt lat="42.9848939" lon="12.2004101"><ele>234.8</ele><time>2026-04-19T09:03:49.806Z</time></trkpt><trkpt lat="42.9849518" lon="12.200533"><ele>235.0</ele><time>2026-04-19T09:03:51.803Z</time></trkpt><trkpt lat="42.9850101" lon="12.2006588"><ele>234.8</ele><time>2026-04-19T09:03:53.809Z</time></trkpt><trkpt lat="42.9850732" lon="12.200784"><ele>234.6</ele><time>2026-04-19T09:03:55.813Z</time></trkpt><trkpt lat="42.9851368" lon="12.2008996"><ele>234.39999999999998</ele><time>2026-04-19T09:03:57.81Z</time></trkpt><trkpt lat="42.9851979" lon="12.2010071"><ele>234.2</ele><time>2026-04-19T09:03:59.805Z</time></trkpt><trkpt lat="42.9852618" lon="12.2011107"><ele>234.0</ele><time>2026-04-19T09:04:01.806Z</time></trkpt><trkpt lat="42.9853301" lon="12.2012031"><ele>234.0</ele><time>2026-04-19T09:04:03.804Z</time></trkpt><trkpt lat="42.9853915" lon="12.2012874"><ele>233.99999999999997</ele><time>2026-04-19T09:04:05.812Z</time></trkpt><trkpt lat="42.9854551" lon="12.2013772"><ele>233.99999999999997</ele><time>2026-04-19T09:04:07.812Z</time></trkpt><trkpt lat="42.9855269" lon="12.2014707"><ele>234.0</ele><time>2026-04-19T09:04:09.805Z</time></trkpt><trkpt lat="42.9856017" lon="12.2015628"><ele>234.0</ele><time>2026-04-19T09:04:11.806Z</time></trkpt><trkpt lat="42.985668" lon="12.2016536"><ele>233.79999999999998</ele><time>2026-04-19T09:04:13.796Z</time></trkpt><trkpt lat="42.9857246" lon="12.2017492"><ele>233.59999999999997</ele><time>2026-04-19T09:04:15.79Z</time></trkpt><trkpt lat="42.9857927" lon="12.2018313"><ele>233.4</ele><time>2026-04-19T09:04:17.797Z</time></trkpt><trkpt lat="42.9858497" lon="12.2019374"><ele>233.2</ele><time>2026-04-19T09:04:19.792Z</time></trkpt><trkpt lat="42.9859146" lon="12.2020358"><ele>233.0</ele><time>2026-04-19T09:04:21.793Z</time></trkpt><trkpt lat="42.9859779" lon="12.2021413"><ele>233.0</ele><time>2026-04-19T09:04:23.798Z</time></trkpt><trkpt lat="42.9860525" lon="12.2022678"><ele>233.0</ele><time>2026-04-19T09:04:25.793Z</time></trkpt><trkpt lat="42.9861427" lon="12.2023537"><ele>233.0</ele><time>2026-04-19T09:04:27.797Z</time></trkpt><trkpt lat="42.9862214" lon="12.2024388"><ele>233.0</ele><time>2026-04-19T09:04:29.795Z</time></trkpt><trkpt lat="42.9863098" lon="12.2025051"><ele>233.0</ele><time>2026-04-19T09:04:31.807Z</time></trkpt><trkpt lat="42.9863933" lon="12.202556"><ele>232.83333333333334</ele><time>2026-04-19T09:04:33.814Z</time></trkpt><trkpt lat="42.9864775" lon="12.202605"><ele>232.66666666666669</ele><time>2026-04-19T09:04:35.809Z</time></trkpt><trkpt lat="42.9865487" lon="12.2026615"><ele>232.5</ele><time>2026-04-19T09:04:37.808Z</time></trkpt><trkpt lat="42.9866168" lon="12.2027226"><ele>232.33333333333331</ele><time>2026-04-19T09:04:39.802Z</time></trkpt><trkpt lat="42.9866876" lon="12.2027657"><ele>232.16666666666666</ele><time>2026-04-19T09:04:41.804Z</time></trkpt><trkpt lat="42.9867655" lon="12.2028115"><ele>232.0</ele><time>2026-04-19T09:04:43.811Z</time></trkpt><trkpt lat="42.986842" lon="12.2028531"><ele>231.99999999999997</ele><time>2026-04-19T09:04:45.802Z</time></trkpt><trkpt lat="42.9869168" lon="12.202899"><ele>232.0</ele><time>2026-04-19T09:04:47.805Z</time></trkpt><trkpt lat="42.986993" lon="12.202941"><ele>232.0</ele><time>2026-04-19T09:04:49.804Z</time></trkpt><trkpt lat="42.9870716" lon="12.2029875"><ele>232.0</ele><time>2026-04-19T09:04:51.804Z</time></trkpt><trkpt lat="42.9871505" lon="12.2030339"><ele>231.99999999999997</ele><time>2026-04-19T09:04:53.805Z</time></trkpt><trkpt lat="42.9872271" lon="12.2030823"><ele>232.0</ele><time>2026-04-19T09:04:55.805Z</time></trkpt><trkpt lat="42.9873041" lon="12.2031399"><ele>231.99999999999997</ele><time>2026-04-19T09:04:57.81Z</time></trkpt><trkpt lat="42.9873831" lon="12.2031896"><ele>232.0</ele><time>2026-04-19T09:04:59.806Z</time></trkpt><trkpt lat="42.9874539" lon="12.2032331"><ele>232.0</ele><time>2026-04-19T09:05:01.811Z</time></trkpt><trkpt lat="42.9875275" lon="12.2032831"><ele>232.0</ele><time>2026-04-19T09:05:03.81Z</time></trkpt><trkpt lat="42.9876026" lon="12.2033217"><ele>231.99999999999997</ele><time>2026-04-19T09:05:05.808Z</time></trkpt><trkpt lat="42.9876792" lon="12.2033812"><ele>232.0</ele><time>2026-04-19T09:05:07.804Z</time></trkpt><trkpt lat="42.9877659" lon="12.2034357"><ele>232.0</ele><time>2026-04-19T09:05:09.809Z</time></trkpt><trkpt lat="42.9878622" lon="12.2034863"><ele>232.0</ele><time>2026-04-19T09:05:11.805Z</time></trkpt><trkpt lat="42.9879562" lon="12.2035394"><ele>232.0</ele><time>2026-04-19T09:05:13.822Z</time></trkpt><trkpt lat="42.9880625" lon="12.2035878"><ele>232.0</ele><time>2026-04-19T09:05:15.804Z</time></trkpt><trkpt lat="42.9881752" lon="12.2036461"><ele>232.0</ele><time>2026-04-19T09:05:17.811Z</time></trkpt><trkpt lat="42.9882766" lon="12.203709"><ele>231.39999999999998</ele><time>2026-04-19T09:05:19.796Z</time></trkpt><trkpt lat="42.9883716" lon="12.2037662"><ele>230.79999999999998</ele><time>2026-04-19T09:05:21.801Z</time></trkpt><trkpt lat="42.9884733" lon="12.2038249"><ele>230.2</ele><time>2026-04-19T09:05:23.806Z</time></trkpt><trkpt lat="42.9885752" lon="12.2038673"><ele>229.6</ele><time>2026-04-19T09:05:25.812Z</time></trkpt><trkpt lat="42.988676" lon="12.2039198"><ele>229.0</ele><time>2026-04-19T09:05:27.801Z</time></trkpt><trkpt lat="42.9887732" lon="12.2039723"><ele>229.39999999999998</ele><time>2026-04-19T09:05:29.804Z</time></trkpt><trkpt lat="42.9888849" lon="12.2040165"><ele>229.79999999999998</ele><time>2026-04-19T09:05:31.805Z</time></trkpt><trkpt lat="42.9889749" lon="12.2040774"><ele>230.20000000000002</ele><time>2026-04-19T09:05:33.808Z</time></trkpt><trkpt lat="42.989062" lon="12.20413"><ele>230.60000000000002</ele><time>2026-04-19T09:05:35.805Z</time></trkpt><trkpt lat="42.9891563" lon="12.2041784"><ele>231.0</ele><time>2026-04-19T09:05:37.807Z</time></trkpt><trkpt lat="42.9892447" lon="12.2042223"><ele>231.0</ele><time>2026-04-19T09:05:39.804Z</time></trkpt><trkpt lat="42.9893269" lon="12.204271"><ele>231.00000000000003</ele><time>2026-04-19T09:05:41.804Z</time></trkpt><trkpt lat="42.9894103" lon="12.2043193"><ele>231.00000000000003</ele><time>2026-04-19T09:05:43.804Z</time></trkpt><trkpt lat="42.9894955" lon="12.2043633"><ele>231.0</ele><time>2026-04-19T09:05:45.82Z</time></trkpt><trkpt lat="42.989585" lon="12.2044144"><ele>231.0</ele><time>2026-04-19T09:05:47.8Z</time></trkpt><trkpt lat="42.9896669" lon="12.2045025"><ele>231.0</ele><time>2026-04-19T09:05:49.924Z</time></trkpt><trkpt lat="42.9897254" lon="12.2045899"><ele>231.00000000000003</ele><time>2026-04-19T09:05:51.803Z</time></trkpt><trkpt lat="42.989792" lon="12.2046788"><ele>231.00000000000003</ele><time>2026-04-19T09:05:53.816Z</time></trkpt><trkpt lat="42.9898522" lon="12.2047663"><ele>231.0</ele><time>2026-04-19T09:05:55.811Z</time></trkpt><trkpt lat="42.9899117" lon="12.2048409"><ele>231.0</ele><time>2026-04-19T09:05:57.793Z</time></trkpt><trkpt lat="42.9899923" lon="12.2049282"><ele>231.16666666666666</ele><time>2026-04-19T09:06:00.811Z</time></trkpt><trkpt lat="42.9900599" lon="12.2049848"><ele>231.33333333333331</ele><time>2026-04-19T09:06:02.811Z</time></trkpt><trkpt lat="42.9901315" lon="12.2050321"><ele>231.5</ele><time>2026-04-19T09:06:04.815Z</time></trkpt><trkpt lat="42.9902075" lon="12.2050796"><ele>231.66666666666666</ele><time>2026-04-19T09:06:06.811Z</time></trkpt><trkpt lat="42.9902888" lon="12.2051315"><ele>231.83333333333331</ele><time>2026-04-19T09:06:08.812Z</time></trkpt><trkpt lat="42.990373" lon="12.205192"><ele>232.0</ele><time>2026-04-19T09:06:10.814Z</time></trkpt><trkpt lat="42.9904569" lon="12.2052462"><ele>231.99999999999997</ele><time>2026-04-19T09:06:12.812Z</time></trkpt><trkpt lat="42.9905398" lon="12.2053013"><ele>232.0</ele><time>2026-04-19T09:06:14.818Z</time></trkpt><trkpt lat="42.9906209" lon="12.2053597"><ele>232.0</ele><time>2026-04-19T09:06:16.811Z</time></trkpt><trkpt lat="42.9907003" lon="12.2054149"><ele>232.0</ele><time>2026-04-19T09:06:18.844Z</time></trkpt><trkpt lat="42.9907768" lon="12.205467"><ele>231.99999999999997</ele><time>2026-04-19T09:06:20.815Z</time></trkpt><trkpt lat="42.9908518" lon="12.205527"><ele>232.0</ele><time>2026-04-19T09:06:22.814Z</time></trkpt><trkpt lat="42.9909262" lon="12.205583"><ele>231.83333333333331</ele><time>2026-04-19T09:06:24.806Z</time></trkpt><trkpt lat="42.9910004" lon="12.2056353"><ele>231.66666666666666</ele><time>2026-04-19T09:06:26.813Z</time></trkpt><trkpt lat="42.9910712" lon="12.2056847"><ele>231.5</ele><time>2026-04-19T09:06:28.82Z</time></trkpt><trkpt lat="42.9911383" lon="12.2057285"><ele>231.33333333333331</ele><time>2026-04-19T09:06:30.81Z</time></trkpt><trkpt lat="42.9912027" lon="12.2057594"><ele>231.16666666666666</ele><time>2026-04-19T09:06:32.803Z</time></trkpt><trkpt lat="42.9912642" lon="12.2057863"><ele>231.0</ele><time>2026-04-19T09:06:34.812Z</time></trkpt><trkpt lat="42.9913592" lon="12.2058132"><ele>231.0</ele><time>2026-04-19T09:06:37.793Z</time></trkpt><trkpt lat="42.9914315" lon="12.2058357"><ele>231.00000000000003</ele><time>2026-04-19T09:06:39.812Z</time></trkpt><trkpt lat="42.9915134" lon="12.2058634"><ele>231.00000000000003</ele><time>2026-04-19T09:06:41.809Z</time></trkpt><trkpt lat="42.9916089" lon="12.205905"><ele>231.0</ele><time>2026-04-19T09:06:43.807Z</time></trkpt><trkpt lat="42.9917173" lon="12.2059621"><ele>231.0</ele><time>2026-04-19T09:06:45.8Z</time></trkpt><trkpt lat="42.99183" lon="12.2060291"><ele>230.25</ele><time>2026-04-19T09:06:47.805Z</time></trkpt><trkpt lat="42.9919531" lon="12.2060866"><ele>229.5</ele><time>2026-04-19T09:06:49.909Z</time></trkpt><trkpt lat="42.9920661" lon="12.206143"><ele>228.75</ele><time>2026-04-19T09:06:51.808Z</time></trkpt><trkpt lat="42.9921723" lon="12.2061982"><ele>228.0</ele><time>2026-04-19T09:06:53.812Z</time></trkpt><trkpt lat="42.9922769" lon="12.2062505"><ele>228.0</ele><time>2026-04-19T09:06:55.803Z</time></trkpt><trkpt lat="42.9923799" lon="12.2063234"><ele>228.0</ele><time>2026-04-19T09:06:57.807Z</time></trkpt><trkpt lat="42.9924684" lon="12.2063988"><ele>228.0</ele><time>2026-04-19T09:06:59.812Z</time></trkpt><trkpt lat="42.9925397" lon="12.2064885"><ele>228.0</ele><time>2026-04-19T09:07:01.909Z</time></trkpt><trkpt lat="42.992605" lon="12.2065943"><ele>228.0</ele><time>2026-04-19T09:07:03.809Z</time></trkpt><trkpt lat="42.9926671" lon="12.2066886"><ele>227.83333333333334</ele><time>2026-04-19T09:07:05.805Z</time></trkpt><trkpt lat="42.9927191" lon="12.2067731"><ele>227.66666666666669</ele><time>2026-04-19T09:07:07.805Z</time></trkpt><trkpt lat="42.9927806" lon="12.2068626"><ele>227.5</ele><time>2026-04-19T09:07:09.808Z</time></trkpt><trkpt lat="42.992833" lon="12.2069466"><ele>227.33333333333334</ele><time>2026-04-19T09:07:11.807Z</time></trkpt><trkpt lat="42.992887" lon="12.2070303"><ele>227.16666666666669</ele><time>2026-04-19T09:07:13.811Z</time></trkpt><trkpt lat="42.9929408" lon="12.2071062"><ele>227.0</ele><time>2026-04-19T09:07:15.822Z</time></trkpt><trkpt lat="42.9929938" lon="12.2071874"><ele>227.0</ele><time>2026-04-19T09:07:17.815Z</time></trkpt><trkpt lat="42.9930499" lon="12.2072647"><ele>227.00000000000003</ele><time>2026-04-19T09:07:19.803Z</time></trkpt><trkpt lat="42.993105" lon="12.2073303"><ele>227.0</ele><time>2026-04-19T09:07:21.808Z</time></trkpt><trkpt lat="42.9931559" lon="12.2073938"><ele>227.0</ele><time>2026-04-19T09:07:23.806Z</time></trkpt><trkpt lat="42.9932041" lon="12.2074578"><ele>227.00000000000003</ele><time>2026-04-19T09:07:25.808Z</time></trkpt><trkpt lat="42.9932566" lon="12.207513"><ele>227.0</ele><time>2026-04-19T09:07:27.805Z</time></trkpt><trkpt lat="42.9933225" lon="12.2075899"><ele>227.0</ele><time>2026-04-19T09:07:30.809Z</time></trkpt><trkpt lat="42.9933746" lon="12.2076478"><ele>227.14285714285717</ele><time>2026-04-19T09:07:32.807Z</time></trkpt><trkpt lat="42.9934317" lon="12.2077058"><ele>227.2857142857143</ele><time>2026-04-19T09:07:34.811Z</time></trkpt><trkpt lat="42.9934836" lon="12.2077634"><ele>227.42857142857144</ele><time>2026-04-19T09:07:36.804Z</time></trkpt><trkpt lat="42.9935344" lon="12.2078308"><ele>227.57142857142856</ele><time>2026-04-19T09:07:38.812Z</time></trkpt><trkpt lat="42.9935841" lon="12.207903"><ele>227.7142857142857</ele><time>2026-04-19T09:07:40.803Z</time></trkpt><trkpt lat="42.993629" lon="12.2079733"><ele>227.85714285714283</ele><time>2026-04-19T09:07:42.813Z</time></trkpt><trkpt lat="42.9936695" lon="12.208041"><ele>228.0</ele><time>2026-04-19T09:07:44.812Z</time></trkpt><trkpt lat="42.9937117" lon="12.2081119"><ele>229.14285714285714</ele><time>2026-04-19T09:07:46.816Z</time></trkpt><trkpt lat="42.9937509" lon="12.2081873"><ele>230.28571428571428</ele><time>2026-04-19T09:07:48.813Z</time></trkpt><trkpt lat="42.9937911" lon="12.2082667"><ele>231.42857142857142</ele><time>2026-04-19T09:07:50.813Z</time></trkpt><trkpt lat="42.9938315" lon="12.2083494"><ele>232.57142857142856</ele><time>2026-04-19T09:07:52.812Z</time></trkpt><trkpt lat="42.9938676" lon="12.2084337"><ele>233.71428571428572</ele><time>2026-04-19T09:07:54.812Z</time></trkpt><trkpt lat="42.9939033" lon="12.2085198"><ele>234.85714285714283</ele><time>2026-04-19T09:07:56.816Z</time></trkpt><trkpt lat="42.9939439" lon="12.2085943"><ele>236.0</ele><time>2026-04-19T09:07:58.813Z</time></trkpt><trkpt lat="42.9939981" lon="12.2086539"><ele>236.0</ele><time>2026-04-19T09:08:00.812Z</time></trkpt><trkpt lat="42.99406" lon="12.2086874"><ele>236.0</ele><time>2026-04-19T09:08:02.815Z</time></trkpt><trkpt lat="42.9941294" lon="12.208669"><ele>236.0</ele><time>2026-04-19T09:08:04.81Z</time></trkpt><trkpt lat="42.9941925" lon="12.2086384"><ele>236.0</ele><time>2026-04-19T09:08:06.811Z</time></trkpt><trkpt lat="42.9942823" lon="12.2086001"><ele>236.0</ele><time>2026-04-19T09:08:09.813Z</time></trkpt><trkpt lat="42.9943486" lon="12.2085887"><ele>236.0</ele><time>2026-04-19T09:08:11.814Z</time></trkpt><trkpt lat="42.9944123" lon="12.2086036"><ele>236.0</ele><time>2026-04-19T09:08:13.812Z</time></trkpt><trkpt lat="42.9944971" lon="12.2086633"><ele>235.20000000000002</ele><time>2026-04-19T09:08:16.813Z</time></trkpt><trkpt lat="42.994559" lon="12.2087231"><ele>234.40000000000003</ele><time>2026-04-19T09:08:18.815Z</time></trkpt><trkpt lat="42.9946386" lon="12.2088073"><ele>233.6</ele><time>2026-04-19T09:08:20.812Z</time></trkpt><trkpt lat="42.9947436" lon="12.2089123"><ele>232.8</ele><time>2026-04-19T09:08:22.811Z</time></trkpt><trkpt lat="42.9948035" lon="12.2089758"><ele>232.0</ele><time>2026-04-19T09:08:23.811Z</time></trkpt><trkpt lat="42.9948694" lon="12.2090475"><ele>231.99999999999997</ele><time>2026-04-19T09:08:24.812Z</time></trkpt><trkpt lat="42.9949364" lon="12.2091157"><ele>232.0</ele><time>2026-04-19T09:08:25.811Z</time></trkpt><trkpt lat="42.9950072" lon="12.2091767"><ele>232.0</ele><time>2026-04-19T09:08:26.818Z</time></trkpt><trkpt lat="42.995076" lon="12.2092303"><ele>232.0</ele><time>2026-04-19T09:08:27.811Z</time></trkpt><trkpt lat="42.9951473" lon="12.2092646"><ele>231.99999999999997</ele><time>2026-04-19T09:08:28.816Z</time></trkpt><trkpt lat="42.9952151" lon="12.2092865"><ele>232.0</ele><time>2026-04-19T09:08:29.794Z</time></trkpt><trkpt lat="42.9952797" lon="12.2093113"><ele>231.49999999999997</ele><time>2026-04-19T09:08:30.813Z</time></trkpt><trkpt lat="42.9953393" lon="12.2093394"><ele>231.0</ele><time>2026-04-19T09:08:31.803Z</time></trkpt><trkpt lat="42.9954249" lon="12.2094267"><ele>230.5</ele><time>2026-04-19T09:08:33.799Z</time></trkpt><trkpt lat="42.9954749" lon="12.2095225"><ele>230.0</ele><time>2026-04-19T09:08:35.8Z</time></trkpt><trkpt lat="42.9954933" lon="12.2096278"><ele>229.49999999999997</ele><time>2026-04-19T09:08:37.811Z</time></trkpt><trkpt lat="42.9955119" lon="12.2097257"><ele>229.0</ele><time>2026-04-19T09:08:39.789Z</time></trkpt><trkpt lat="42.9955313" lon="12.2098226"><ele>229.42857142857142</ele><time>2026-04-19T09:08:41.805Z</time></trkpt><trkpt lat="42.9955492" lon="12.2099201"><ele>229.8571428571429</ele><time>2026-04-19T09:08:43.897Z</time></trkpt><trkpt lat="42.9955669" lon="12.2100086"><ele>230.2857142857143</ele><time>2026-04-19T09:08:45.798Z</time></trkpt><trkpt lat="42.995586" lon="12.2101359"><ele>230.71428571428572</ele><time>2026-04-19T09:08:48.792Z</time></trkpt><trkpt lat="42.9956047" lon="12.210221"><ele>231.14285714285717</ele><time>2026-04-19T09:08:50.79Z</time></trkpt><trkpt lat="42.9956155" lon="12.2103114"><ele>231.5714285714286</ele><time>2026-04-19T09:08:52.793Z</time></trkpt><trkpt lat="42.995625" lon="12.2104011"><ele>232.00000000000003</ele><time>2026-04-19T09:08:54.794Z</time></trkpt><trkpt lat="42.9956386" lon="12.2104893"><ele>232.00000000000003</ele><time>2026-04-19T09:08:56.791Z</time></trkpt><trkpt lat="42.9956554" lon="12.2105833"><ele>232.0</ele><time>2026-04-19T09:08:58.812Z</time></trkpt><trkpt lat="42.9956668" lon="12.2106749"><ele>232.00000000000003</ele><time>2026-04-19T09:09:00.798Z</time></trkpt><trkpt lat="42.9956779" lon="12.2107688"><ele>232.00000000000003</ele><time>2026-04-19T09:09:02.81Z</time></trkpt><trkpt lat="42.9956913" lon="12.2108661"><ele>232.0</ele><time>2026-04-19T09:09:04.833Z</time></trkpt><trkpt lat="42.995705" lon="12.2109636"><ele>232.00000000000003</ele><time>2026-04-19T09:09:06.808Z</time></trkpt><trkpt lat="42.9957285" lon="12.2110588"><ele>232.00000000000003</ele><time>2026-04-19T09:09:08.818Z</time></trkpt><trkpt lat="42.9957519" lon="12.2111532"><ele>232.28571428571433</ele><time>2026-04-19T09:09:10.815Z</time></trkpt><trkpt lat="42.9957637" lon="12.2112444"><ele>232.57142857142858</ele><time>2026-04-19T09:09:12.811Z</time></trkpt><trkpt lat="42.9957745" lon="12.2113351"><ele>232.8571428571429</ele><time>2026-04-19T09:09:14.812Z</time></trkpt><trkpt lat="42.9957917" lon="12.2114248"><ele>233.14285714285717</ele><time>2026-04-19T09:09:16.812Z</time></trkpt><trkpt lat="42.9958094" lon="12.2115111"><ele>233.42857142857144</ele><time>2026-04-19T09:09:18.822Z</time></trkpt><trkpt lat="42.9958242" lon="12.2115948"><ele>233.71428571428572</ele><time>2026-04-19T09:09:20.812Z</time></trkpt><trkpt lat="42.9958404" lon="12.2116811"><ele>234.0</ele><time>2026-04-19T09:09:22.81Z</time></trkpt><trkpt lat="42.9958558" lon="12.2117734"><ele>234.0</ele><time>2026-04-19T09:09:24.813Z</time></trkpt><trkpt lat="42.9958675" lon="12.2118686"><ele>234.00000000000003</ele><time>2026-04-19T09:09:26.814Z</time></trkpt><trkpt lat="42.9958848" lon="12.2119647"><ele>234.0</ele><time>2026-04-19T09:09:28.811Z</time></trkpt><trkpt lat="42.9958969" lon="12.212064"><ele>234.0</ele><time>2026-04-19T09:09:30.812Z</time></trkpt><trkpt lat="42.9959132" lon="12.2121631"><ele>234.00000000000003</ele><time>2026-04-19T09:09:32.812Z</time></trkpt><trkpt lat="42.9959298" lon="12.2122612"><ele>234.0</ele><time>2026-04-19T09:09:34.795Z</time></trkpt><trkpt lat="42.9959525" lon="12.2123555"><ele>234.0</ele><time>2026-04-19T09:09:36.813Z</time></trkpt><trkpt lat="42.995973" lon="12.2124486"><ele>234.2857142857143</ele><time>2026-04-19T09:09:38.815Z</time></trkpt><trkpt lat="42.995995" lon="12.212546"><ele>234.5714285714286</ele><time>2026-04-19T09:09:40.81Z</time></trkpt><trkpt lat="42.996015" lon="12.2126404"><ele>234.85714285714286</ele><time>2026-04-19T09:09:42.798Z</time></trkpt><trkpt lat="42.9960267" lon="12.2127385"><ele>235.14285714285717</ele><time>2026-04-19T09:09:44.815Z</time></trkpt><trkpt lat="42.9960399" lon="12.2128355"><ele>235.42857142857144</ele><time>2026-04-19T09:09:46.821Z</time></trkpt><trkpt lat="42.9960546" lon="12.212932"><ele>235.71428571428572</ele><time>2026-04-19T09:09:48.815Z</time></trkpt><trkpt lat="42.9960701" lon="12.2130268"><ele>236.0</ele><time>2026-04-19T09:09:50.813Z</time></trkpt><trkpt lat="42.9960926" lon="12.2131567"><ele>236.33333333333334</ele><time>2026-04-19T09:09:53.811Z</time></trkpt><trkpt lat="42.9961022" lon="12.2132573"><ele>236.66666666666669</ele><time>2026-04-19T09:09:55.811Z</time></trkpt><trkpt lat="42.9961223" lon="12.2133644"><ele>237.0</ele><time>2026-04-19T09:09:57.815Z</time></trkpt><trkpt lat="42.9961431" lon="12.2134664"><ele>237.33333333333331</ele><time>2026-04-19T09:09:59.812Z</time></trkpt><trkpt lat="42.9961664" lon="12.2135694"><ele>237.66666666666666</ele><time>2026-04-19T09:10:01.811Z</time></trkpt><trkpt lat="42.9961824" lon="12.2136846"><ele>238.0</ele><time>2026-04-19T09:10:03.812Z</time></trkpt><trkpt lat="42.9962018" lon="12.2138018"><ele>238.0</ele><time>2026-04-19T09:10:05.811Z</time></trkpt><trkpt lat="42.996225" lon="12.2139297"><ele>238.0</ele><time>2026-04-19T09:10:07.808Z</time></trkpt><trkpt lat="42.9962554" lon="12.2140492"><ele>238.0</ele><time>2026-04-19T09:10:09.811Z</time></trkpt><trkpt lat="42.9962788" lon="12.2141859"><ele>238.0</ele><time>2026-04-19T09:10:11.811Z</time></trkpt><trkpt lat="42.9962979" lon="12.2143278"><ele>238.0</ele><time>2026-04-19T09:10:13.809Z</time></trkpt><trkpt lat="42.9963251" lon="12.2144758"><ele>238.0</ele><time>2026-04-19T09:10:15.811Z</time></trkpt><trkpt lat="42.9963635" lon="12.2146312"><ele>238.0</ele><time>2026-04-19T09:10:17.814Z</time></trkpt><trkpt lat="42.9964038" lon="12.2147916"><ele>238.0</ele><time>2026-04-19T09:10:19.81Z</time></trkpt><trkpt lat="42.9964229" lon="12.2149659"><ele>238.0</ele><time>2026-04-19T09:10:21.812Z</time></trkpt><trkpt lat="42.9964401" lon="12.2150598"><ele>238.0</ele><time>2026-04-19T09:10:22.804Z</time></trkpt><trkpt lat="42.9964496" lon="12.2151534"><ele>237.66666666666666</ele><time>2026-04-19T09:10:23.805Z</time></trkpt><trkpt lat="42.9964614" lon="12.2152504"><ele>237.33333333333331</ele><time>2026-04-19T09:10:24.807Z</time></trkpt><trkpt lat="42.9964736" lon="12.2153546"><ele>237.0</ele><time>2026-04-19T09:10:25.804Z</time></trkpt><trkpt lat="42.9964888" lon="12.2154567"><ele>236.66666666666669</ele><time>2026-04-19T09:10:26.812Z</time></trkpt><trkpt lat="42.9965026" lon="12.2155611"><ele>236.33333333333334</ele><time>2026-04-19T09:10:27.813Z</time></trkpt><trkpt lat="42.9965211" lon="12.2156638"><ele>236.0</ele><time>2026-04-19T09:10:28.807Z</time></trkpt><trkpt lat="42.9965369" lon="12.2157741"><ele>235.50000000000003</ele><time>2026-04-19T09:10:29.804Z</time></trkpt><trkpt lat="42.9965565" lon="12.2158753"><ele>235.0</ele><time>2026-04-19T09:10:30.807Z</time></trkpt><trkpt lat="42.9965695" lon="12.2159871"><ele>234.5</ele><time>2026-04-19T09:10:31.808Z</time></trkpt><trkpt lat="42.9965903" lon="12.2160975"><ele>234.0</ele><time>2026-04-19T09:10:32.812Z</time></trkpt><trkpt lat="42.996602" lon="12.2162084"><ele>233.50000000000003</ele><time>2026-04-19T09:10:33.804Z</time></trkpt><trkpt lat="42.9966136" lon="12.2163221"><ele>233.0</ele><time>2026-04-19T09:10:34.809Z</time></trkpt><trkpt lat="42.9966235" lon="12.2164332"><ele>232.16666666666669</ele><time>2026-04-19T09:10:35.805Z</time></trkpt><trkpt lat="42.9966362" lon="12.2165523"><ele>231.33333333333334</ele><time>2026-04-19T09:10:36.898Z</time></trkpt><trkpt lat="42.9966482" lon="12.216669"><ele>230.5</ele><time>2026-04-19T09:10:37.812Z</time></trkpt><trkpt lat="42.9966634" lon="12.2167891"><ele>229.66666666666669</ele><time>2026-04-19T09:10:38.797Z</time></trkpt><trkpt lat="42.996677" lon="12.2169015"><ele>228.83333333333334</ele><time>2026-04-19T09:10:39.801Z</time></trkpt><trkpt lat="42.996688" lon="12.2170226"><ele>228.0</ele><time>2026-04-19T09:10:40.803Z</time></trkpt><trkpt lat="42.9967085" lon="12.2171313"><ele>227.66666666666666</ele><time>2026-04-19T09:10:41.802Z</time></trkpt><trkpt lat="42.9967272" lon="12.2172375"><ele>227.33333333333331</ele><time>2026-04-19T09:10:42.802Z</time></trkpt><trkpt lat="42.9967454" lon="12.2173509"><ele>227.0</ele><time>2026-04-19T09:10:43.799Z</time></trkpt><trkpt lat="42.9967578" lon="12.2174569"><ele>226.66666666666666</ele><time>2026-04-19T09:10:44.807Z</time></trkpt><trkpt lat="42.9967836" lon="12.2175634"><ele>226.33333333333331</ele><time>2026-04-19T09:10:45.802Z</time></trkpt><trkpt lat="42.9968021" lon="12.2176699"><ele>226.0</ele><time>2026-04-19T09:10:46.818Z</time></trkpt><trkpt lat="42.9968236" lon="12.2177738"><ele>225.66666666666666</ele><time>2026-04-19T09:10:47.805Z</time></trkpt><trkpt lat="42.9968485" lon="12.2178702"><ele>225.33333333333331</ele><time>2026-04-19T09:10:48.803Z</time></trkpt><trkpt lat="42.9968667" lon="12.2179653"><ele>225.0</ele><time>2026-04-19T09:10:49.81Z</time></trkpt><trkpt lat="42.9968791" lon="12.2180564"><ele>224.66666666666669</ele><time>2026-04-19T09:10:50.804Z</time></trkpt><trkpt lat="42.9968849" lon="12.2181515"><ele>224.33333333333334</ele><time>2026-04-19T09:10:51.81Z</time></trkpt><trkpt lat="42.9968891" lon="12.2182427"><ele>224.0</ele><time>2026-04-19T09:10:52.805Z</time></trkpt><trkpt lat="42.9969337" lon="12.2183945"><ele>223.79999999999998</ele><time>2026-04-19T09:10:54.807Z</time></trkpt><trkpt lat="42.9969726" lon="12.2185353"><ele>223.59999999999997</ele><time>2026-04-19T09:10:56.813Z</time></trkpt><trkpt lat="42.9969998" lon="12.2186728"><ele>223.4</ele><time>2026-04-19T09:10:58.805Z</time></trkpt><trkpt lat="42.9970235" lon="12.2188152"><ele>223.2</ele><time>2026-04-19T09:11:00.915Z</time></trkpt><trkpt lat="42.9970504" lon="12.2189672"><ele>223.0</ele><time>2026-04-19T09:11:02.797Z</time></trkpt><trkpt lat="42.9970825" lon="12.2191178"><ele>222.8</ele><time>2026-04-19T09:11:04.807Z</time></trkpt><trkpt lat="42.9971294" lon="12.2192574"><ele>222.60000000000002</ele><time>2026-04-19T09:11:06.806Z</time></trkpt><trkpt lat="42.9971633" lon="12.2193931"><ele>222.39999999999998</ele><time>2026-04-19T09:11:08.811Z</time></trkpt><trkpt lat="42.9972157" lon="12.2195227"><ele>222.2</ele><time>2026-04-19T09:11:10.805Z</time></trkpt><trkpt lat="42.997243" lon="12.2196538"><ele>222.0</ele><time>2026-04-19T09:11:12.804Z</time></trkpt><trkpt lat="42.9972813" lon="12.2197857"><ele>221.39999999999998</ele><time>2026-04-19T09:11:14.807Z</time></trkpt><trkpt lat="42.9973252" lon="12.2199408"><ele>220.79999999999998</ele><time>2026-04-19T09:11:16.804Z</time></trkpt><trkpt lat="42.9973283" lon="12.2200278"><ele>220.2</ele><time>2026-04-19T09:11:17.811Z</time></trkpt><trkpt lat="42.9973078" lon="12.2201149"><ele>219.6</ele><time>2026-04-19T09:11:18.804Z</time></trkpt><trkpt lat="42.9972355" lon="12.2202699"><ele>219.0</ele><time>2026-04-19T09:11:20.803Z</time></trkpt><trkpt lat="42.9971864" lon="12.220348"><ele>219.0</ele><time>2026-04-19T09:11:21.807Z</time></trkpt><trkpt lat="42.997135" lon="12.2204061"><ele>219.0</ele><time>2026-04-19T09:11:22.805Z</time></trkpt><trkpt lat="42.9970532" lon="12.2205255"><ele>219.0</ele><time>2026-04-19T09:11:24.802Z</time></trkpt><trkpt lat="42.9970305" lon="12.2206361"><ele>219.0</ele><time>2026-04-19T09:11:26.804Z</time></trkpt><trkpt lat="42.9970479" lon="12.2207501"><ele>219.0</ele><time>2026-04-19T09:11:28.809Z</time></trkpt><trkpt lat="42.9970808" lon="12.2208605"><ele>219.0</ele><time>2026-04-19T09:11:30.807Z</time></trkpt><trkpt lat="42.9971022" lon="12.2210009"><ele>218.83333333333334</ele><time>2026-04-19T09:11:32.81Z</time></trkpt><trkpt lat="42.9971235" lon="12.2211166"><ele>218.66666666666669</ele><time>2026-04-19T09:11:34.804Z</time></trkpt><trkpt lat="42.9971367" lon="12.2212451"><ele>218.5</ele><time>2026-04-19T09:11:36.806Z</time></trkpt><trkpt lat="42.9971331" lon="12.2213565"><ele>218.33333333333334</ele><time>2026-04-19T09:11:38.804Z</time></trkpt><trkpt lat="42.9971282" lon="12.2214524"><ele>218.16666666666669</ele><time>2026-04-19T09:11:40.812Z</time></trkpt><trkpt lat="42.9971349" lon="12.2215698"><ele>218.0</ele><time>2026-04-19T09:11:43.804Z</time></trkpt><trkpt lat="42.9971443" lon="12.221658"><ele>218.4</ele><time>2026-04-19T09:11:46.795Z</time></trkpt><trkpt lat="42.9971696" lon="12.2217551"><ele>218.8</ele><time>2026-04-19T09:11:48.809Z</time></trkpt><trkpt lat="42.9972097" lon="12.2218748"><ele>219.2</ele><time>2026-04-19T09:11:50.805Z</time></trkpt><trkpt lat="42.9972502" lon="12.222007"><ele>219.6</ele><time>2026-04-19T09:11:52.808Z</time></trkpt><trkpt lat="42.9972882" lon="12.2221437"><ele>220.0</ele><time>2026-04-19T09:11:54.811Z</time></trkpt><trkpt lat="42.9973288" lon="12.2222827"><ele>220.2</ele><time>2026-04-19T09:11:56.807Z</time></trkpt><trkpt lat="42.9973768" lon="12.222431"><ele>220.4</ele><time>2026-04-19T09:11:58.805Z</time></trkpt><trkpt lat="42.997416" lon="12.2225778"><ele>220.60000000000002</ele><time>2026-04-19T09:12:00.811Z</time></trkpt><trkpt lat="42.9974585" lon="12.2227108"><ele>220.8</ele><time>2026-04-19T09:12:02.805Z</time></trkpt><trkpt lat="42.9975046" lon="12.2228407"><ele>221.0</ele><time>2026-04-19T09:12:04.809Z</time></trkpt><trkpt lat="42.9975498" lon="12.2229687"><ele>220.0</ele><time>2026-04-19T09:12:06.807Z</time></trkpt><trkpt lat="42.9975963" lon="12.2230762"><ele>219.00000000000003</ele><time>2026-04-19T09:12:08.804Z</time></trkpt><trkpt lat="42.9976427" lon="12.2231886"><ele>218.00000000000003</ele><time>2026-04-19T09:12:10.788Z</time></trkpt><trkpt lat="42.9976799" lon="12.2233142"><ele>217.0</ele><time>2026-04-19T09:12:12.811Z</time></trkpt><trkpt lat="42.9977199" lon="12.2234315"><ele>216.0</ele><time>2026-04-19T09:12:14.81Z</time></trkpt><trkpt lat="42.9977645" lon="12.2235397"><ele>216.0</ele><time>2026-04-19T09:12:16.811Z</time></trkpt><trkpt lat="42.9977979" lon="12.223644"><ele>216.0</ele><time>2026-04-19T09:12:18.809Z</time></trkpt><trkpt lat="42.9978302" lon="12.2237454"><ele>216.0</ele><time>2026-04-19T09:12:20.812Z</time></trkpt><trkpt lat="42.9978645" lon="12.2238494"><ele>216.0</ele><time>2026-04-19T09:12:22.81Z</time></trkpt><trkpt lat="42.9979025" lon="12.2239552"><ele>216.0</ele><time>2026-04-19T09:12:24.815Z</time></trkpt><trkpt lat="42.9979292" lon="12.2240648"><ele>216.0</ele><time>2026-04-19T09:12:26.806Z</time></trkpt><trkpt lat="42.9979656" lon="12.2241761"><ele>216.20000000000002</ele><time>2026-04-19T09:12:28.808Z</time></trkpt><trkpt lat="42.9980056" lon="12.224362"><ele>216.40000000000003</ele><time>2026-04-19T09:12:31.799Z</time></trkpt><trkpt lat="42.9980205" lon="12.2244841"><ele>216.6</ele><time>2026-04-19T09:12:33.802Z</time></trkpt><trkpt lat="42.9980186" lon="12.2245953"><ele>216.8</ele><time>2026-04-19T09:12:35.806Z</time></trkpt><trkpt lat="42.9980255" lon="12.2247259"><ele>217.0</ele><time>2026-04-19T09:12:37.801Z</time></trkpt><trkpt lat="42.9980267" lon="12.224856"><ele>217.0</ele><time>2026-04-19T09:12:39.804Z</time></trkpt><trkpt lat="42.9980184" lon="12.2249924"><ele>217.0</ele><time>2026-04-19T09:12:41.808Z</time></trkpt><trkpt lat="42.9980128" lon="12.2251299"><ele>217.0</ele><time>2026-04-19T09:12:43.809Z</time></trkpt><trkpt lat="42.9980241" lon="12.2252601"><ele>217.0</ele><time>2026-04-19T09:12:45.798Z</time></trkpt><trkpt lat="42.9980267" lon="12.2253973"><ele>217.0</ele><time>2026-04-19T09:12:47.806Z</time></trkpt><trkpt lat="42.9980185" lon="12.2255407"><ele>216.6</ele><time>2026-04-19T09:12:49.808Z</time></trkpt><trkpt lat="42.9980091" lon="12.2256616"><ele>216.2</ele><time>2026-04-19T09:12:51.805Z</time></trkpt><trkpt lat="42.9979963" lon="12.2258484"><ele>215.8</ele><time>2026-04-19T09:12:54.799Z</time></trkpt><trkpt lat="42.997988" lon="12.2259812"><ele>215.4</ele><time>2026-04-19T09:12:56.807Z</time></trkpt><trkpt lat="42.9979837" lon="12.2261072"><ele>215.0</ele><time>2026-04-19T09:12:58.79Z</time></trkpt><trkpt lat="42.9979832" lon="12.2262315"><ele>215.0</ele><time>2026-04-19T09:13:00.811Z</time></trkpt><trkpt lat="42.9979743" lon="12.2263616"><ele>215.0</ele><time>2026-04-19T09:13:02.804Z</time></trkpt><trkpt lat="42.9979568" lon="12.226479"><ele>215.0</ele><time>2026-04-19T09:13:04.789Z</time></trkpt><trkpt lat="42.9979527" lon="12.226623"><ele>215.0</ele><time>2026-04-19T09:13:06.8Z</time></trkpt><trkpt lat="42.9979518" lon="12.2267414"><ele>215.0</ele><time>2026-04-19T09:13:08.791Z</time></trkpt><trkpt lat="42.9979456" lon="12.226862"><ele>214.83333333333334</ele><time>2026-04-19T09:13:10.808Z</time></trkpt><trkpt lat="42.9979231" lon="12.2269635"><ele>214.66666666666669</ele><time>2026-04-19T09:13:12.8Z</time></trkpt><trkpt lat="42.9979141" lon="12.227078"><ele>214.5</ele><time>2026-04-19T09:13:14.816Z</time></trkpt><trkpt lat="42.9979016" lon="12.2271986"><ele>214.33333333333331</ele><time>2026-04-19T09:13:16.803Z</time></trkpt><trkpt lat="42.9978825" lon="12.2273113"><ele>214.16666666666666</ele><time>2026-04-19T09:13:18.804Z</time></trkpt><trkpt lat="42.9978662" lon="12.2274229"><ele>214.0</ele><time>2026-04-19T09:13:20.792Z</time></trkpt><trkpt lat="42.9978487" lon="12.2275365"><ele>213.99999999999997</ele><time>2026-04-19T09:13:22.796Z</time></trkpt><trkpt lat="42.9978429" lon="12.2276518"><ele>214.0</ele><time>2026-04-19T09:13:24.806Z</time></trkpt><trkpt lat="42.9978287" lon="12.2277675"><ele>214.0</ele><time>2026-04-19T09:13:26.794Z</time></trkpt><trkpt lat="42.9978122" lon="12.2278811"><ele>214.0</ele><time>2026-04-19T09:13:28.807Z</time></trkpt><trkpt lat="42.9977975" lon="12.2279959"><ele>213.99999999999997</ele><time>2026-04-19T09:13:30.792Z</time></trkpt><trkpt lat="42.9977853" lon="12.2281171"><ele>214.0</ele><time>2026-04-19T09:13:32.788Z</time></trkpt><trkpt lat="42.9977687" lon="12.228234"><ele>214.33333333333331</ele><time>2026-04-19T09:13:34.901Z</time></trkpt><trkpt lat="42.9977511" lon="12.2283485"><ele>214.66666666666666</ele><time>2026-04-19T09:13:36.807Z</time></trkpt><trkpt lat="42.9977307" lon="12.2284566"><ele>215.0</ele><time>2026-04-19T09:13:38.793Z</time></trkpt><trkpt lat="42.9977079" lon="12.2285654"><ele>215.33333333333331</ele><time>2026-04-19T09:13:40.889Z</time></trkpt><trkpt lat="42.9976905" lon="12.2286751"><ele>215.66666666666666</ele><time>2026-04-19T09:13:42.792Z</time></trkpt><trkpt lat="42.9976778" lon="12.228792"><ele>216.0</ele><time>2026-04-19T09:13:44.796Z</time></trkpt><trkpt lat="42.9976593" lon="12.2289133"><ele>216.0</ele><time>2026-04-19T09:13:46.908Z</time></trkpt><trkpt lat="42.9976417" lon="12.2290248"><ele>216.0</ele><time>2026-04-19T09:13:48.79Z</time></trkpt><trkpt lat="42.9976231" lon="12.2291472"><ele>216.0</ele><time>2026-04-19T09:13:50.8Z</time></trkpt><trkpt lat="42.9976031" lon="12.2292567"><ele>216.0</ele><time>2026-04-19T09:13:52.896Z</time></trkpt><trkpt lat="42.9975933" lon="12.2293786"><ele>216.0</ele><time>2026-04-19T09:13:54.8Z</time></trkpt><trkpt lat="42.997577" lon="12.2295094"><ele>216.0</ele><time>2026-04-19T09:13:56.814Z</time></trkpt><trkpt lat="42.9975605" lon="12.2296233"><ele>216.0</ele><time>2026-04-19T09:13:58.805Z</time></trkpt><trkpt lat="42.9975534" lon="12.2297372"><ele>216.0</ele><time>2026-04-19T09:14:00.805Z</time></trkpt><trkpt lat="42.99754" lon="12.229851"><ele>216.0</ele><time>2026-04-19T09:14:02.804Z</time></trkpt><trkpt lat="42.9975258" lon="12.2299549"><ele>216.0</ele><time>2026-04-19T09:14:04.811Z</time></trkpt><trkpt lat="42.9975067" lon="12.230067"><ele>216.0</ele><time>2026-04-19T09:14:06.81Z</time></trkpt><trkpt lat="42.9974876" lon="12.2301774"><ele>216.0</ele><time>2026-04-19T09:14:08.804Z</time></trkpt><trkpt lat="42.9974645" lon="12.2302875"><ele>216.0</ele><time>2026-04-19T09:14:10.806Z</time></trkpt><trkpt lat="42.9974437" lon="12.2304033"><ele>216.0</ele><time>2026-04-19T09:14:12.802Z</time></trkpt><trkpt lat="42.9974222" lon="12.23052"><ele>216.0</ele><time>2026-04-19T09:14:14.804Z</time></trkpt><trkpt lat="42.9973984" lon="12.2306378"><ele>216.0</ele><time>2026-04-19T09:14:16.808Z</time></trkpt><trkpt lat="42.9973843" lon="12.230759"><ele>216.0</ele><time>2026-04-19T09:14:18.798Z</time></trkpt><trkpt lat="42.9973684" lon="12.2308823"><ele>216.0</ele><time>2026-04-19T09:14:20.784Z</time></trkpt><trkpt lat="42.9973475" lon="12.2310061"><ele>216.0</ele><time>2026-04-19T09:14:22.811Z</time></trkpt><trkpt lat="42.9973284" lon="12.2311218"><ele>216.0</ele><time>2026-04-19T09:14:24.809Z</time></trkpt><trkpt lat="42.9973097" lon="12.2312425"><ele>216.0</ele><time>2026-04-19T09:14:26.811Z</time></trkpt><trkpt lat="42.9972903" lon="12.2313606"><ele>216.0</ele><time>2026-04-19T09:14:28.81Z</time></trkpt><trkpt lat="42.997279" lon="12.2314787"><ele>216.0</ele><time>2026-04-19T09:14:30.811Z</time></trkpt><trkpt lat="42.997261" lon="12.2315945"><ele>216.0</ele><time>2026-04-19T09:14:32.809Z</time></trkpt><trkpt lat="42.9972366" lon="12.2317106"><ele>216.33333333333334</ele><time>2026-04-19T09:14:34.81Z</time></trkpt><trkpt lat="42.9972138" lon="12.2318288"><ele>216.66666666666669</ele><time>2026-04-19T09:14:36.811Z</time></trkpt><trkpt lat="42.9971977" lon="12.2319483"><ele>217.0</ele><time>2026-04-19T09:14:38.808Z</time></trkpt><trkpt lat="42.9971865" lon="12.2320702"><ele>217.33333333333334</ele><time>2026-04-19T09:14:40.811Z</time></trkpt><trkpt lat="42.9971779" lon="12.2321843"><ele>217.66666666666669</ele><time>2026-04-19T09:14:42.81Z</time></trkpt><trkpt lat="42.9971657" lon="12.2323031"><ele>218.0</ele><time>2026-04-19T09:14:44.808Z</time></trkpt><trkpt lat="42.9971509" lon="12.2324157"><ele>218.33333333333334</ele><time>2026-04-19T09:14:46.816Z</time></trkpt><trkpt lat="42.9971379" lon="12.2325342"><ele>218.66666666666669</ele><time>2026-04-19T09:14:48.811Z</time></trkpt><trkpt lat="42.9971305" lon="12.2326356"><ele>219.0</ele><time>2026-04-19T09:14:50.91Z</time></trkpt><trkpt lat="42.9971254" lon="12.2327375"><ele>219.33333333333331</ele><time>2026-04-19T09:14:52.809Z</time></trkpt><trkpt lat="42.9971268" lon="12.2328532"><ele>219.66666666666666</ele><time>2026-04-19T09:14:54.81Z</time></trkpt><trkpt lat="42.9971292" lon="12.232981"><ele>220.0</ele><time>2026-04-19T09:14:56.824Z</time></trkpt><trkpt lat="42.9971297" lon="12.2331032"><ele>220.16666666666666</ele><time>2026-04-19T09:14:58.814Z</time></trkpt><trkpt lat="42.9971301" lon="12.2332252"><ele>220.33333333333331</ele><time>2026-04-19T09:15:00.812Z</time></trkpt><trkpt lat="42.9971346" lon="12.2333425"><ele>220.5</ele><time>2026-04-19T09:15:02.808Z</time></trkpt><trkpt lat="42.9971377" lon="12.2334577"><ele>220.66666666666669</ele><time>2026-04-19T09:15:04.81Z</time></trkpt><trkpt lat="42.9971406" lon="12.2335723"><ele>220.83333333333334</ele><time>2026-04-19T09:15:06.807Z</time></trkpt><trkpt lat="42.9971411" lon="12.2336872"><ele>221.0</ele><time>2026-04-19T09:15:08.811Z</time></trkpt><trkpt lat="42.9971448" lon="12.2337982"><ele>221.00000000000003</ele><time>2026-04-19T09:15:10.812Z</time></trkpt><trkpt lat="42.9971439" lon="12.2339079"><ele>221.0</ele><time>2026-04-19T09:15:12.812Z</time></trkpt><trkpt lat="42.9971436" lon="12.2340125"><ele>221.0</ele><time>2026-04-19T09:15:14.812Z</time></trkpt><trkpt lat="42.9971478" lon="12.2341131"><ele>221.0</ele><time>2026-04-19T09:15:16.809Z</time></trkpt><trkpt lat="42.9971478" lon="12.2342113"><ele>221.00000000000003</ele><time>2026-04-19T09:15:18.792Z</time></trkpt><trkpt lat="42.997144" lon="12.234315"><ele>221.0</ele><time>2026-04-19T09:15:20.811Z</time></trkpt><trkpt lat="42.9971466" lon="12.2344158"><ele>221.33333333333334</ele><time>2026-04-19T09:15:22.812Z</time></trkpt><trkpt lat="42.9971476" lon="12.2345098"><ele>221.66666666666669</ele><time>2026-04-19T09:15:24.811Z</time></trkpt><trkpt lat="42.9971499" lon="12.2346441"><ele>222.0</ele><time>2026-04-19T09:15:27.811Z</time></trkpt><trkpt lat="42.9971409" lon="12.2347687"><ele>222.33333333333331</ele><time>2026-04-19T09:15:30.812Z</time></trkpt><trkpt lat="42.9971397" lon="12.2348567"><ele>222.66666666666666</ele><time>2026-04-19T09:15:32.81Z</time></trkpt><trkpt lat="42.9971232" lon="12.2349808"><ele>223.0</ele><time>2026-04-19T09:15:35.81Z</time></trkpt><trkpt lat="42.9970958" lon="12.2351035"><ele>223.83333333333331</ele><time>2026-04-19T09:15:38.813Z</time></trkpt><trkpt lat="42.9970641" lon="12.2352246"><ele>224.66666666666666</ele><time>2026-04-19T09:15:41.81Z</time></trkpt><trkpt lat="42.9970356" lon="12.2353018"><ele>225.5</ele><time>2026-04-19T09:15:43.813Z</time></trkpt><trkpt lat="42.9969919" lon="12.2354112"><ele>226.33333333333331</ele><time>2026-04-19T09:15:46.808Z</time></trkpt><trkpt lat="42.9969524" lon="12.2355267"><ele>227.16666666666666</ele><time>2026-04-19T09:15:49.814Z</time></trkpt><trkpt lat="42.9969259" lon="12.235609"><ele>228.0</ele><time>2026-04-19T09:15:51.813Z</time></trkpt><trkpt lat="42.9969027" lon="12.2356907"><ele>228.66666666666666</ele><time>2026-04-19T09:15:53.813Z</time></trkpt><trkpt lat="42.9968819" lon="12.2357723"><ele>229.33333333333331</ele><time>2026-04-19T09:15:55.812Z</time></trkpt><trkpt lat="42.996854" lon="12.2358937"><ele>230.0</ele><time>2026-04-19T09:15:58.809Z</time></trkpt><trkpt lat="42.9968239" lon="12.2360115"><ele>230.66666666666666</ele><time>2026-04-19T09:16:01.811Z</time></trkpt><trkpt lat="42.9967963" lon="12.2361332"><ele>231.33333333333331</ele><time>2026-04-19T09:16:04.809Z</time></trkpt><trkpt lat="42.9967772" lon="12.236216"><ele>232.0</ele><time>2026-04-19T09:16:06.813Z</time></trkpt><trkpt lat="42.9967488" lon="12.2363356"><ele>232.0</ele><time>2026-04-19T09:16:09.805Z</time></trkpt><trkpt lat="42.9967157" lon="12.2364506"><ele>232.0</ele><time>2026-04-19T09:16:12.811Z</time></trkpt><trkpt lat="42.9966745" lon="12.2365651"><ele>232.0</ele><time>2026-04-19T09:16:15.799Z</time></trkpt><trkpt lat="42.9966216" lon="12.2366684"><ele>232.0</ele><time>2026-04-19T09:16:18.799Z</time></trkpt><trkpt lat="42.9965697" lon="12.2367747"><ele>232.0</ele><time>2026-04-19T09:16:21.808Z</time></trkpt><trkpt lat="42.9965226" lon="12.2368757"><ele>233.8571428571429</ele><time>2026-04-19T09:16:24.814Z</time></trkpt><trkpt lat="42.9964747" lon="12.236978"><ele>235.71428571428572</ele><time>2026-04-19T09:16:27.812Z</time></trkpt><trkpt lat="42.9964257" lon="12.2370862"><ele>237.57142857142858</ele><time>2026-04-19T09:16:30.815Z</time></trkpt><trkpt lat="42.9963898" lon="12.2371593"><ele>239.42857142857144</ele><time>2026-04-19T09:16:32.806Z</time></trkpt><trkpt lat="42.9963561" lon="12.2372343"><ele>241.28571428571428</ele><time>2026-04-19T09:16:34.812Z</time></trkpt><trkpt lat="42.996322" lon="12.2373073"><ele>243.14285714285714</ele><time>2026-04-19T09:16:36.819Z</time></trkpt><trkpt lat="42.9962909" lon="12.2373852"><ele>245.0</ele><time>2026-04-19T09:16:38.808Z</time></trkpt><trkpt lat="42.9962593" lon="12.2374613"><ele>246.16666666666669</ele><time>2026-04-19T09:16:40.822Z</time></trkpt><trkpt lat="42.9962264" lon="12.237535"><ele>247.33333333333334</ele><time>2026-04-19T09:16:42.812Z</time></trkpt><trkpt lat="42.9961773" lon="12.2376405"><ele>248.5</ele><time>2026-04-19T09:16:45.808Z</time></trkpt><trkpt lat="42.9961177" lon="12.2377765"><ele>249.66666666666669</ele><time>2026-04-19T09:16:49.809Z</time></trkpt><trkpt lat="42.9960728" lon="12.2378687"><ele>250.83333333333334</ele><time>2026-04-19T09:16:52.812Z</time></trkpt><trkpt lat="42.9960268" lon="12.2379579"><ele>252.0</ele><time>2026-04-19T09:16:55.811Z</time></trkpt><trkpt lat="42.9959819" lon="12.2380507"><ele>252.0</ele><time>2026-04-19T09:16:58.811Z</time></trkpt><trkpt lat="42.9959378" lon="12.238141"><ele>252.0</ele><time>2026-04-19T09:17:01.811Z</time></trkpt><trkpt lat="42.9958909" lon="12.2382332"><ele>252.0</ele><time>2026-04-19T09:17:04.818Z</time></trkpt><trkpt lat="42.9958368" lon="12.2383283"><ele>252.0</ele><time>2026-04-19T09:17:07.809Z</time></trkpt><trkpt lat="42.9957882" lon="12.2384264"><ele>252.0</ele><time>2026-04-19T09:17:10.808Z</time></trkpt><trkpt lat="42.9957336" lon="12.2385195"><ele>252.0</ele><time>2026-04-19T09:17:13.8Z</time></trkpt><trkpt lat="42.9956826" lon="12.2386155"><ele>254.16666666666666</ele><time>2026-04-19T09:17:16.811Z</time></trkpt><trkpt lat="42.9956331" lon="12.2387114"><ele>256.3333333333333</ele><time>2026-04-19T09:17:19.81Z</time></trkpt><trkpt lat="42.9955867" lon="12.2388101"><ele>258.5</ele><time>2026-04-19T09:17:22.816Z</time></trkpt><trkpt lat="42.9955398" lon="12.2389014"><ele>260.66666666666663</ele><time>2026-04-19T09:17:25.806Z</time></trkpt><trkpt lat="42.995493" lon="12.2389894"><ele>262.8333333333333</ele><time>2026-04-19T09:17:28.811Z</time></trkpt><trkpt lat="42.9954472" lon="12.2390831"><ele>265.0</ele><time>2026-04-19T09:17:31.81Z</time></trkpt><trkpt lat="42.9954" lon="12.2391715"><ele>265.16666666666663</ele><time>2026-04-19T09:17:34.808Z</time></trkpt><trkpt lat="42.9953542" lon="12.2392664"><ele>265.3333333333333</ele><time>2026-04-19T09:17:37.816Z</time></trkpt><trkpt lat="42.9953046" lon="12.2393606"><ele>265.5</ele><time>2026-04-19T09:17:40.811Z</time></trkpt><trkpt lat="42.9952588" lon="12.2394564"><ele>265.6666666666667</ele><time>2026-04-19T09:17:43.807Z</time></trkpt><trkpt lat="42.9952175" lon="12.2395565"><ele>265.83333333333337</ele><time>2026-04-19T09:17:46.81Z</time></trkpt><trkpt lat="42.9951745" lon="12.2396561"><ele>266.0</ele><time>2026-04-19T09:17:49.809Z</time></trkpt><trkpt lat="42.9951382" lon="12.2397469"><ele>265.7142857142857</ele><time>2026-04-19T09:17:52.812Z</time></trkpt><trkpt lat="42.995108" lon="12.2398399"><ele>265.42857142857144</ele><time>2026-04-19T09:17:55.805Z</time></trkpt><trkpt lat="42.9950808" lon="12.2399365"><ele>265.1428571428571</ele><time>2026-04-19T09:17:58.811Z</time></trkpt><trkpt lat="42.9950554" lon="12.240037"><ele>264.8571428571429</ele><time>2026-04-19T09:18:01.815Z</time></trkpt><trkpt lat="42.9950191" lon="12.2401282"><ele>264.57142857142856</ele><time>2026-04-19T09:18:04.814Z</time></trkpt><trkpt lat="42.9949871" lon="12.2402129"><ele>264.2857142857143</ele><time>2026-04-19T09:18:07.811Z</time></trkpt><trkpt lat="42.9949518" lon="12.2402951"><ele>264.0</ele><time>2026-04-19T09:18:10.81Z</time></trkpt><trkpt lat="42.9949119" lon="12.2403744"><ele>266.3333333333333</ele><time>2026-04-19T09:18:13.806Z</time></trkpt><trkpt lat="42.99485" lon="12.2404466"><ele>268.6666666666667</ele><time>2026-04-19T09:18:17.804Z</time></trkpt><trkpt lat="42.9947926" lon="12.2404847"><ele>271.0</ele><time>2026-04-19T09:18:20.811Z</time></trkpt><trkpt lat="42.9947165" lon="12.2405064"><ele>273.33333333333337</ele><time>2026-04-19T09:18:23.789Z</time></trkpt><trkpt lat="42.9946433" lon="12.2405385"><ele>275.6666666666667</ele><time>2026-04-19T09:18:26.805Z</time></trkpt><trkpt lat="42.9945659" lon="12.2405763"><ele>278.0</ele><time>2026-04-19T09:18:29.81Z</time></trkpt><trkpt lat="42.9944955" lon="12.2406154"><ele>279.33333333333337</ele><time>2026-04-19T09:18:32.797Z</time></trkpt><trkpt lat="42.9944312" lon="12.24065"><ele>280.6666666666667</ele><time>2026-04-19T09:18:35.796Z</time></trkpt><trkpt lat="42.9943525" lon="12.240724"><ele>282.0</ele><time>2026-04-19T09:18:38.791Z</time></trkpt><trkpt lat="42.9943007" lon="12.2408043"><ele>283.3333333333333</ele><time>2026-04-19T09:18:41.796Z</time></trkpt><trkpt lat="42.9942638" lon="12.2409119"><ele>284.66666666666663</ele><time>2026-04-19T09:18:44.788Z</time></trkpt><trkpt lat="42.9942441" lon="12.241033"><ele>286.0</ele><time>2026-04-19T09:18:47.791Z</time></trkpt><trkpt lat="42.9942238" lon="12.2411523"><ele>286.0</ele><time>2026-04-19T09:18:50.893Z</time></trkpt><trkpt lat="42.9942009" lon="12.2412562"><ele>286.0</ele><time>2026-04-19T09:18:53.791Z</time></trkpt><trkpt lat="42.9941688" lon="12.2413444"><ele>286.0</ele><time>2026-04-19T09:18:56.789Z</time></trkpt><trkpt lat="42.9941459" lon="12.2414609"><ele>286.0</ele><time>2026-04-19T09:18:59.797Z</time></trkpt><trkpt lat="42.994126" lon="12.2415752"><ele>286.0</ele><time>2026-04-19T09:19:02.903Z</time></trkpt><trkpt lat="42.9941105" lon="12.241694"><ele>286.0</ele><time>2026-04-19T09:19:05.805Z</time></trkpt><trkpt lat="42.9941026" lon="12.2418135"><ele>288.16666666666663</ele><time>2026-04-19T09:19:08.898Z</time></trkpt><trkpt lat="42.9941018" lon="12.2419361"><ele>290.3333333333333</ele><time>2026-04-19T09:19:11.793Z</time></trkpt><trkpt lat="42.9940956" lon="12.2420563"><ele>292.5</ele><time>2026-04-19T09:19:14.807Z</time></trkpt><trkpt lat="42.9940656" lon="12.242168"><ele>294.6666666666667</ele><time>2026-04-19T09:19:17.807Z</time></trkpt><trkpt lat="42.9939993" lon="12.2422411"><ele>296.83333333333337</ele><time>2026-04-19T09:19:20.874Z</time></trkpt><trkpt lat="42.9939195" lon="12.2422382"><ele>299.0</ele><time>2026-04-19T09:19:23.812Z</time></trkpt><trkpt lat="42.9938564" lon="12.2422163"><ele>299.0</ele><time>2026-04-19T09:19:25.809Z</time></trkpt><trkpt lat="42.9937954" lon="12.2421944"><ele>299.0</ele><time>2026-04-19T09:19:27.811Z</time></trkpt><trkpt lat="42.9937091" lon="12.2421943"><ele>299.0</ele><time>2026-04-19T09:19:30.81Z</time></trkpt><trkpt lat="42.9936215" lon="12.2422018"><ele>299.0</ele><time>2026-04-19T09:19:33.816Z</time></trkpt><trkpt lat="42.9935299" lon="12.242207"><ele>299.0</ele><time>2026-04-19T09:19:36.807Z</time></trkpt><trkpt lat="42.9934386" lon="12.2421945"><ele>299.0</ele><time>2026-04-19T09:19:39.807Z</time></trkpt><trkpt lat="42.9933555" lon="12.2421961"><ele>299.0</ele><time>2026-04-19T09:19:42.81Z</time></trkpt><trkpt lat="42.9932713" lon="12.2421926"><ele>299.0</ele><time>2026-04-19T09:19:45.809Z</time></trkpt><trkpt lat="42.9931832" lon="12.2421951"><ele>299.0</ele><time>2026-04-19T09:19:48.81Z</time></trkpt><trkpt lat="42.9930998" lon="12.2422462"><ele>299.0</ele><time>2026-04-19T09:19:51.798Z</time></trkpt><trkpt lat="42.9930297" lon="12.2423228"><ele>299.0</ele><time>2026-04-19T09:19:54.808Z</time></trkpt><trkpt lat="42.9929732" lon="12.2424178"><ele>299.0</ele><time>2026-04-19T09:19:57.802Z</time></trkpt><trkpt lat="42.99292" lon="12.2425152"><ele>301.6666666666667</ele><time>2026-04-19T09:20:00.807Z</time></trkpt><trkpt lat="42.9928319" lon="12.2425776"><ele>304.33333333333337</ele><time>2026-04-19T09:20:03.807Z</time></trkpt><trkpt lat="42.9927545" lon="12.2425962"><ele>307.0</ele><time>2026-04-19T09:20:05.804Z</time></trkpt><trkpt lat="42.9926752" lon="12.2425931"><ele>309.6666666666667</ele><time>2026-04-19T09:20:07.808Z</time></trkpt><trkpt lat="42.9925963" lon="12.2425844"><ele>312.3333333333333</ele><time>2026-04-19T09:20:09.81Z</time></trkpt><trkpt lat="42.9925309" lon="12.2425616"><ele>315.0</ele><time>2026-04-19T09:20:11.795Z</time></trkpt><trkpt lat="42.9924578" lon="12.2425428"><ele>315.2857142857143</ele><time>2026-04-19T09:20:13.805Z</time></trkpt><trkpt lat="42.9923951" lon="12.2425263"><ele>315.57142857142856</ele><time>2026-04-19T09:20:15.808Z</time></trkpt><trkpt lat="42.9923327" lon="12.2424945"><ele>315.8571428571429</ele><time>2026-04-19T09:20:17.806Z</time></trkpt><trkpt lat="42.9922684" lon="12.2424822"><ele>316.1428571428571</ele><time>2026-04-19T09:20:19.796Z</time></trkpt><trkpt lat="42.9922046" lon="12.2424753"><ele>316.42857142857144</ele><time>2026-04-19T09:20:21.81Z</time></trkpt><trkpt lat="42.9921119" lon="12.2424811"><ele>316.7142857142857</ele><time>2026-04-19T09:20:24.807Z</time></trkpt><trkpt lat="42.9920204" lon="12.2424976"><ele>317.0</ele><time>2026-04-19T09:20:27.808Z</time></trkpt><trkpt lat="42.9919532" lon="12.2425165"><ele>317.0</ele><time>2026-04-19T09:20:29.808Z</time></trkpt><trkpt lat="42.9918867" lon="12.2425392"><ele>317.0</ele><time>2026-04-19T09:20:31.809Z</time></trkpt><trkpt lat="42.9918223" lon="12.2425591"><ele>317.0</ele><time>2026-04-19T09:20:33.81Z</time></trkpt><trkpt lat="42.9917572" lon="12.2425766"><ele>317.0</ele><time>2026-04-19T09:20:35.811Z</time></trkpt><trkpt lat="42.9916914" lon="12.2425959"><ele>317.0</ele><time>2026-04-19T09:20:37.807Z</time></trkpt><trkpt lat="42.9916261" lon="12.2426124"><ele>317.0</ele><time>2026-04-19T09:20:39.797Z</time></trkpt><trkpt lat="42.9915648" lon="12.2426363"><ele>317.0</ele><time>2026-04-19T09:20:41.809Z</time></trkpt><trkpt lat="42.9914779" lon="12.2426793"><ele>316.6666666666667</ele><time>2026-04-19T09:20:44.792Z</time></trkpt><trkpt lat="42.9914065" lon="12.2427549"><ele>316.33333333333337</ele><time>2026-04-19T09:20:47.792Z</time></trkpt><trkpt lat="42.9913375" lon="12.2428252"><ele>316.0</ele><time>2026-04-19T09:20:50.811Z</time></trkpt><trkpt lat="42.9912665" lon="12.2428792"><ele>315.6666666666667</ele><time>2026-04-19T09:20:53.811Z</time></trkpt><trkpt lat="42.9912167" lon="12.2429483"><ele>315.3333333333333</ele><time>2026-04-19T09:20:56.812Z</time></trkpt><trkpt lat="42.9912715" lon="12.2430403"><ele>315.0</ele><time>2026-04-19T09:20:59.808Z</time></trkpt><trkpt lat="42.9913293" lon="12.2430887"><ele>315.85714285714283</ele><time>2026-04-19T09:21:01.813Z</time></trkpt><trkpt lat="42.9913874" lon="12.2431331"><ele>316.7142857142857</ele><time>2026-04-19T09:21:03.802Z</time></trkpt><trkpt lat="42.991452" lon="12.2431632"><ele>317.57142857142856</ele><time>2026-04-19T09:21:05.808Z</time></trkpt><trkpt lat="42.9915097" lon="12.2431983"><ele>318.42857142857144</ele><time>2026-04-19T09:21:07.808Z</time></trkpt><trkpt lat="42.9915843" lon="12.2432702"><ele>319.2857142857143</ele><time>2026-04-19T09:21:10.807Z</time></trkpt><trkpt lat="42.9916447" lon="12.2433046"><ele>320.1428571428571</ele><time>2026-04-19T09:21:12.804Z</time></trkpt><trkpt lat="42.9917033" lon="12.2433384"><ele>321.0</ele><time>2026-04-19T09:21:14.811Z</time></trkpt><trkpt lat="42.9917673" lon="12.2433683"><ele>321.71428571428567</ele><time>2026-04-19T09:21:16.814Z</time></trkpt><trkpt lat="42.9918344" lon="12.2433976"><ele>322.42857142857144</ele><time>2026-04-19T09:21:18.806Z</time></trkpt><trkpt lat="42.9918998" lon="12.243418"><ele>323.1428571428571</ele><time>2026-04-19T09:21:20.805Z</time></trkpt><trkpt lat="42.9919613" lon="12.243452"><ele>323.85714285714283</ele><time>2026-04-19T09:21:22.808Z</time></trkpt><trkpt lat="42.9920239" lon="12.2434909"><ele>324.57142857142856</ele><time>2026-04-19T09:21:24.899Z</time></trkpt><trkpt lat="42.9920874" lon="12.2435265"><ele>325.2857142857143</ele><time>2026-04-19T09:21:26.813Z</time></trkpt><trkpt lat="42.9921625" lon="12.2435607"><ele>326.0</ele><time>2026-04-19T09:21:28.809Z</time></trkpt><trkpt lat="42.992226" lon="12.2435937"><ele>326.0</ele><time>2026-04-19T09:21:30.804Z</time></trkpt><trkpt lat="42.9922893" lon="12.243629"><ele>326.0</ele><time>2026-04-19T09:21:32.804Z</time></trkpt><trkpt lat="42.9923554" lon="12.2436568"><ele>326.0</ele><time>2026-04-19T09:21:34.811Z</time></trkpt><trkpt lat="42.9924193" lon="12.2436854"><ele>326.0</ele><time>2026-04-19T09:21:36.805Z</time></trkpt><trkpt lat="42.9924815" lon="12.2437191"><ele>326.0</ele><time>2026-04-19T09:21:38.812Z</time></trkpt><trkpt lat="42.9925448" lon="12.2437426"><ele>326.0</ele><time>2026-04-19T09:21:40.817Z</time></trkpt><trkpt lat="42.9926346" lon="12.2437663"><ele>326.0</ele><time>2026-04-19T09:21:43.806Z</time></trkpt><trkpt lat="42.9927008" lon="12.2437702"><ele>326.1666666666667</ele><time>2026-04-19T09:21:45.808Z</time></trkpt><trkpt lat="42.9928036" lon="12.2438034"><ele>326.33333333333337</ele><time>2026-04-19T09:21:49.804Z</time></trkpt><trkpt lat="42.9928809" lon="12.2438377"><ele>326.5</ele><time>2026-04-19T09:21:52.807Z</time></trkpt><trkpt lat="42.9929554" lon="12.2438665"><ele>326.6666666666667</ele><time>2026-04-19T09:21:55.804Z</time></trkpt><trkpt lat="42.9930365" lon="12.2439038"><ele>326.8333333333333</ele><time>2026-04-19T09:21:58.789Z</time></trkpt><trkpt lat="42.9931071" lon="12.2439609"><ele>327.0</ele><time>2026-04-19T09:22:01.81Z</time></trkpt><trkpt lat="42.9931749" lon="12.2440165"><ele>327.8333333333333</ele><time>2026-04-19T09:22:04.892Z</time></trkpt><trkpt lat="42.9932385" lon="12.2440683"><ele>328.6666666666667</ele><time>2026-04-19T09:22:07.802Z</time></trkpt><trkpt lat="42.9933025" lon="12.2441082"><ele>329.5</ele><time>2026-04-19T09:22:10.799Z</time></trkpt><trkpt lat="42.9933819" lon="12.2441349"><ele>330.33333333333337</ele><time>2026-04-19T09:22:13.807Z</time></trkpt><trkpt lat="42.9934698" lon="12.2441519"><ele>331.1666666666667</ele><time>2026-04-19T09:22:16.798Z</time></trkpt><trkpt lat="42.9935508" lon="12.2441779"><ele>332.0</ele><time>2026-04-19T09:22:19.801Z</time></trkpt><trkpt lat="42.9936172" lon="12.2441877"><ele>332.85714285714283</ele><time>2026-04-19T09:22:21.902Z</time></trkpt><trkpt lat="42.993682" lon="12.2441951"><ele>333.7142857142857</ele><time>2026-04-19T09:22:23.804Z</time></trkpt><trkpt lat="42.9937457" lon="12.2442058"><ele>334.57142857142856</ele><time>2026-04-19T09:22:25.799Z</time></trkpt><trkpt lat="42.9938252" lon="12.2442295"><ele>335.42857142857144</ele><time>2026-04-19T09:22:28.806Z</time></trkpt><trkpt lat="42.9938964" lon="12.2442545"><ele>336.2857142857143</ele><time>2026-04-19T09:22:31.809Z</time></trkpt><trkpt lat="42.993957" lon="12.2442923"><ele>337.14285714285717</ele><time>2026-04-19T09:22:33.799Z</time></trkpt><trkpt lat="42.9940394" lon="12.2443516"><ele>338.0</ele><time>2026-04-19T09:22:36.803Z</time></trkpt><trkpt lat="42.9941045" lon="12.2444013"><ele>338.2857142857143</ele><time>2026-04-19T09:22:39.795Z</time></trkpt><trkpt lat="42.9941897" lon="12.2444266"><ele>338.57142857142856</ele><time>2026-04-19T09:22:42.788Z</time></trkpt><trkpt lat="42.9942555" lon="12.2444284"><ele>338.8571428571429</ele><time>2026-04-19T09:22:44.802Z</time></trkpt><trkpt lat="42.9943234" lon="12.2444204"><ele>339.1428571428571</ele><time>2026-04-19T09:22:46.801Z</time></trkpt><trkpt lat="42.9943945" lon="12.2444195"><ele>339.4285714285714</ele><time>2026-04-19T09:22:48.799Z</time></trkpt><trkpt lat="42.9944605" lon="12.24442"><ele>339.7142857142857</ele><time>2026-04-19T09:22:50.803Z</time></trkpt><trkpt lat="42.9945244" lon="12.2444214"><ele>340.0</ele><time>2026-04-19T09:22:52.783Z</time></trkpt><trkpt lat="42.9946191" lon="12.2443979"><ele>340.0</ele><time>2026-04-19T09:22:55.802Z</time></trkpt><trkpt lat="42.9946927" lon="12.2443649"><ele>340.0</ele><time>2026-04-19T09:22:57.807Z</time></trkpt><trkpt lat="42.9947661" lon="12.2443505"><ele>340.0</ele><time>2026-04-19T09:22:59.812Z</time></trkpt><trkpt lat="42.9948325" lon="12.2443615"><ele>340.0</ele><time>2026-04-19T09:23:01.812Z</time></trkpt><trkpt lat="42.9948998" lon="12.2443867"><ele>340.0</ele><time>2026-04-19T09:23:03.805Z</time></trkpt><trkpt lat="42.9949733" lon="12.2444023"><ele>340.0</ele><time>2026-04-19T09:23:05.805Z</time></trkpt><trkpt lat="42.9950522" lon="12.2444114"><ele>340.0</ele><time>2026-04-19T09:23:07.807Z</time></trkpt><trkpt lat="42.9951381" lon="12.244435"><ele>338.0</ele><time>2026-04-19T09:23:09.803Z</time></trkpt><trkpt lat="42.9952186" lon="12.2444755"><ele>336.0</ele><time>2026-04-19T09:23:11.811Z</time></trkpt><trkpt lat="42.9952989" lon="12.2445189"><ele>334.0</ele><time>2026-04-19T09:23:13.813Z</time></trkpt><trkpt lat="42.9953809" lon="12.2445611"><ele>332.0</ele><time>2026-04-19T09:23:15.806Z</time></trkpt><trkpt lat="42.9954613" lon="12.2446151"><ele>330.0</ele><time>2026-04-19T09:23:17.799Z</time></trkpt><trkpt lat="42.9955502" lon="12.2446835"><ele>330.0</ele><time>2026-04-19T09:23:19.802Z</time></trkpt><trkpt lat="42.9956461" lon="12.2447371"><ele>330.0</ele><time>2026-04-19T09:23:21.91Z</time></trkpt><trkpt lat="42.9957345" lon="12.2447896"><ele>330.0</ele><time>2026-04-19T09:23:23.806Z</time></trkpt><trkpt lat="42.9958247" lon="12.2448467"><ele>330.0</ele><time>2026-04-19T09:23:25.792Z</time></trkpt><trkpt lat="42.9959128" lon="12.244918"><ele>330.0</ele><time>2026-04-19T09:23:27.804Z</time></trkpt><trkpt lat="42.9959993" lon="12.244989"><ele>329.5</ele><time>2026-04-19T09:23:29.797Z</time></trkpt><trkpt lat="42.9960698" lon="12.2450778"><ele>329.0</ele><time>2026-04-19T09:23:31.807Z</time></trkpt><trkpt lat="42.9961346" lon="12.2451688"><ele>328.5</ele><time>2026-04-19T09:23:33.803Z</time></trkpt><trkpt lat="42.9961994" lon="12.2452592"><ele>328.0</ele><time>2026-04-19T09:23:35.802Z</time></trkpt><trkpt lat="42.9962734" lon="12.2453385"><ele>327.5</ele><time>2026-04-19T09:23:37.794Z</time></trkpt><trkpt lat="42.996325" lon="12.2454096"><ele>327.0</ele><time>2026-04-19T09:23:39.79Z</time></trkpt><trkpt lat="42.9963687" lon="12.2454746"><ele>327.0</ele><time>2026-04-19T09:23:41.788Z</time></trkpt><trkpt lat="42.9964387" lon="12.2455481"><ele>327.0</ele><time>2026-04-19T09:23:43.791Z</time></trkpt><trkpt lat="42.9965111" lon="12.24563"><ele>327.0</ele><time>2026-04-19T09:23:45.788Z</time></trkpt><trkpt lat="42.9966147" lon="12.2456869"><ele>327.0</ele><time>2026-04-19T09:23:47.79Z</time></trkpt><trkpt lat="42.9966717" lon="12.2457695"><ele>327.0</ele><time>2026-04-19T09:23:49.788Z</time></trkpt><trkpt lat="42.996754" lon="12.2458425"><ele>328.6</ele><time>2026-04-19T09:23:51.786Z</time></trkpt><trkpt lat="42.9968435" lon="12.2459128"><ele>330.20000000000005</ele><time>2026-04-19T09:23:53.796Z</time></trkpt><trkpt lat="42.9969246" lon="12.2459727"><ele>331.8</ele><time>2026-04-19T09:23:55.798Z</time></trkpt><trkpt lat="42.997038" lon="12.246029"><ele>333.4</ele><time>2026-04-19T09:23:57.88Z</time></trkpt><trkpt lat="42.9971129" lon="12.246087"><ele>335.0</ele><time>2026-04-19T09:23:59.798Z</time></trkpt><trkpt lat="42.9972067" lon="12.2461413"><ele>335.0</ele><time>2026-04-19T09:24:01.811Z</time></trkpt><trkpt lat="42.9972891" lon="12.2461894"><ele>335.0</ele><time>2026-04-19T09:24:03.804Z</time></trkpt><trkpt lat="42.9973827" lon="12.2462132"><ele>335.0</ele><time>2026-04-19T09:24:05.811Z</time></trkpt><trkpt lat="42.9974742" lon="12.246232"><ele>335.0</ele><time>2026-04-19T09:24:07.798Z</time></trkpt><trkpt lat="42.997578" lon="12.2462478"><ele>335.0</ele><time>2026-04-19T09:24:09.801Z</time></trkpt><trkpt lat="42.9976833" lon="12.2462654"><ele>333.8</ele><time>2026-04-19T09:24:11.799Z</time></trkpt><trkpt lat="42.9977834" lon="12.2462797"><ele>332.6</ele><time>2026-04-19T09:24:13.799Z</time></trkpt><trkpt lat="42.9978938" lon="12.2462976"><ele>331.4</ele><time>2026-04-19T09:24:15.795Z</time></trkpt><trkpt lat="42.9980071" lon="12.2463229"><ele>330.2</ele><time>2026-04-19T09:24:17.804Z</time></trkpt><trkpt lat="42.9981229" lon="12.246322"><ele>329.0</ele><time>2026-04-19T09:24:19.801Z</time></trkpt><trkpt lat="42.9981861" lon="12.2463159"><ele>329.0</ele><time>2026-04-19T09:24:20.8Z</time></trkpt><trkpt lat="42.9982947" lon="12.2462855"><ele>329.0</ele><time>2026-04-19T09:24:22.804Z</time></trkpt><trkpt lat="42.9983576" lon="12.246266"><ele>329.0</ele><time>2026-04-19T09:24:23.799Z</time></trkpt><trkpt lat="42.9984537" lon="12.2462529"><ele>329.0</ele><time>2026-04-19T09:24:25.805Z</time></trkpt><trkpt lat="42.998558" lon="12.2462416"><ele>329.0</ele><time>2026-04-19T09:24:27.799Z</time></trkpt><trkpt lat="42.9986585" lon="12.2462354"><ele>329.0</ele><time>2026-04-19T09:24:29.801Z</time></trkpt><trkpt lat="42.9987526" lon="12.246235"><ele>329.0</ele><time>2026-04-19T09:24:31.8Z</time></trkpt><trkpt lat="42.9988368" lon="12.2462347"><ele>329.0</ele><time>2026-04-19T09:24:33.904Z</time></trkpt><trkpt lat="42.9989138" lon="12.2462243"><ele>329.0</ele><time>2026-04-19T09:24:35.796Z</time></trkpt><trkpt lat="42.9989928" lon="12.2462109"><ele>329.0</ele><time>2026-04-19T09:24:37.803Z</time></trkpt><trkpt lat="42.9990618" lon="12.2462013"><ele>329.0</ele><time>2026-04-19T09:24:39.797Z</time></trkpt><trkpt lat="42.9991358" lon="12.2461994"><ele>326.59999999999997</ele><time>2026-04-19T09:24:41.812Z</time></trkpt><trkpt lat="42.999233" lon="12.246183"><ele>324.2</ele><time>2026-04-19T09:24:43.8Z</time></trkpt><trkpt lat="42.9993307" lon="12.246163"><ele>321.79999999999995</ele><time>2026-04-19T09:24:45.9Z</time></trkpt><trkpt lat="42.9994595" lon="12.2461555"><ele>319.4</ele><time>2026-04-19T09:24:47.801Z</time></trkpt><trkpt lat="42.9995306" lon="12.2461908"><ele>317.0</ele><time>2026-04-19T09:24:48.804Z</time></trkpt><trkpt lat="42.9995891" lon="12.2462492"><ele>317.0</ele><time>2026-04-19T09:24:49.808Z</time></trkpt><trkpt lat="42.9996372" lon="12.2463306"><ele>317.0</ele><time>2026-04-19T09:24:50.801Z</time></trkpt><trkpt lat="42.9996849" lon="12.2463909"><ele>317.0</ele><time>2026-04-19T09:24:51.801Z</time></trkpt><trkpt lat="42.9997382" lon="12.2464563"><ele>317.0</ele><time>2026-04-19T09:24:52.797Z</time></trkpt><trkpt lat="42.9998151" lon="12.2465062"><ele>317.0</ele><time>2026-04-19T09:24:53.813Z</time></trkpt><trkpt lat="42.999899" lon="12.2465599"><ele>317.0</ele><time>2026-04-19T09:24:54.797Z</time></trkpt><trkpt lat="42.9999963" lon="12.2466119"><ele>318.0</ele><time>2026-04-19T09:24:55.8Z</time></trkpt><trkpt lat="43.0000892" lon="12.2466589"><ele>319.0</ele><time>2026-04-19T09:24:56.8Z</time></trkpt><trkpt lat="43.0001832" lon="12.2467148"><ele>320.0</ele><time>2026-04-19T09:24:57.888Z</time></trkpt><trkpt lat="43.0002668" lon="12.2467669"><ele>321.0</ele><time>2026-04-19T09:24:58.806Z</time></trkpt><trkpt lat="43.0003486" lon="12.2467837"><ele>322.0</ele><time>2026-04-19T09:24:59.802Z</time></trkpt><trkpt lat="43.0004291" lon="12.2467878"><ele>322.0</ele><time>2026-04-19T09:25:00.803Z</time></trkpt><trkpt lat="43.0005008" lon="12.2467796"><ele>322.0</ele><time>2026-04-19T09:25:01.797Z</time></trkpt><trkpt lat="43.0005775" lon="12.2467677"><ele>322.0</ele><time>2026-04-19T09:25:02.801Z</time></trkpt><trkpt lat="43.0006447" lon="12.2467569"><ele>322.0</ele><time>2026-04-19T09:25:03.813Z</time></trkpt><trkpt lat="43.0007185" lon="12.2467335"><ele>322.0</ele><time>2026-04-19T09:25:04.804Z</time></trkpt><trkpt lat="43.000786" lon="12.2467185"><ele>322.0</ele><time>2026-04-19T09:25:05.8Z</time></trkpt><trkpt lat="43.0008887" lon="12.2467022"><ele>322.0</ele><time>2026-04-19T09:25:07.799Z</time></trkpt><trkpt lat="43.001005" lon="12.2466714"><ele>322.0</ele><time>2026-04-19T09:25:09.898Z</time></trkpt><trkpt lat="43.0011002" lon="12.246654"><ele>322.0</ele><time>2026-04-19T09:25:11.796Z</time></trkpt><trkpt lat="43.0011861" lon="12.2466322"><ele>322.0</ele><time>2026-04-19T09:25:13.799Z</time></trkpt><trkpt lat="43.001271" lon="12.2466159"><ele>322.0</ele><time>2026-04-19T09:25:15.804Z</time></trkpt><trkpt lat="43.0013594" lon="12.2465818"><ele>322.0</ele><time>2026-04-19T09:25:17.807Z</time></trkpt><trkpt lat="43.0014434" lon="12.2465512"><ele>322.0</ele><time>2026-04-19T09:25:19.788Z</time></trkpt><trkpt lat="43.0015381" lon="12.2465236"><ele>322.0</ele><time>2026-04-19T09:25:21.802Z</time></trkpt><trkpt lat="43.0016443" lon="12.2464767"><ele>322.0</ele><time>2026-04-19T09:25:23.811Z</time></trkpt><trkpt lat="43.0017445" lon="12.24644"><ele>322.0</ele><time>2026-04-19T09:25:25.803Z</time></trkpt><trkpt lat="43.0018355" lon="12.2463887"><ele>322.8</ele><time>2026-04-19T09:25:27.811Z</time></trkpt><trkpt lat="43.0019185" lon="12.2463221"><ele>323.6</ele><time>2026-04-19T09:25:29.805Z</time></trkpt><trkpt lat="43.002015" lon="12.2462186"><ele>324.40000000000003</ele><time>2026-04-19T09:25:31.805Z</time></trkpt><trkpt lat="43.0021064" lon="12.2461187"><ele>325.20000000000005</ele><time>2026-04-19T09:25:33.801Z</time></trkpt><trkpt lat="43.0021958" lon="12.2460539"><ele>326.0</ele><time>2026-04-19T09:25:35.797Z</time></trkpt><trkpt lat="43.0023044" lon="12.2460147"><ele>326.0</ele><time>2026-04-19T09:25:37.809Z</time></trkpt><trkpt lat="43.0023682" lon="12.2459965"><ele>326.0</ele><time>2026-04-19T09:25:38.803Z</time></trkpt><trkpt lat="43.0024894" lon="12.2459714"><ele>326.0</ele><time>2026-04-19T09:25:40.803Z</time></trkpt><trkpt lat="43.002553" lon="12.2459799"><ele>326.0</ele><time>2026-04-19T09:25:41.82Z</time></trkpt><trkpt lat="43.0026703" lon="12.2459905"><ele>326.0</ele><time>2026-04-19T09:25:43.798Z</time></trkpt><trkpt lat="43.0027778" lon="12.2460332"><ele>324.6</ele><time>2026-04-19T09:25:45.796Z</time></trkpt><trkpt lat="43.0028864" lon="12.2460853"><ele>323.20000000000005</ele><time>2026-04-19T09:25:47.808Z</time></trkpt><trkpt lat="43.0029738" lon="12.2461308"><ele>321.79999999999995</ele><time>2026-04-19T09:25:49.81Z</time></trkpt><trkpt lat="43.0030674" lon="12.2461598"><ele>320.4</ele><time>2026-04-19T09:25:51.798Z</time></trkpt><trkpt lat="43.0031645" lon="12.2461865"><ele>319.0</ele><time>2026-04-19T09:25:53.801Z</time></trkpt><trkpt lat="43.0032809" lon="12.246231"><ele>318.8333333333333</ele><time>2026-04-19T09:25:55.797Z</time></trkpt><trkpt lat="43.0033542" lon="12.2462493"><ele>318.66666666666663</ele><time>2026-04-19T09:25:56.801Z</time></trkpt><trkpt lat="43.0034291" lon="12.2462568"><ele>318.5</ele><time>2026-04-19T09:25:57.802Z</time></trkpt><trkpt lat="43.0035093" lon="12.2462553"><ele>318.3333333333333</ele><time>2026-04-19T09:25:58.803Z</time></trkpt><trkpt lat="43.0035916" lon="12.2462339"><ele>318.1666666666667</ele><time>2026-04-19T09:25:59.798Z</time></trkpt><trkpt lat="43.0036693" lon="12.2462154"><ele>318.0</ele><time>2026-04-19T09:26:00.813Z</time></trkpt><trkpt lat="43.0037609" lon="12.2461964"><ele>318.0</ele><time>2026-04-19T09:26:01.8Z</time></trkpt><trkpt lat="43.0038476" lon="12.2461841"><ele>318.0</ele><time>2026-04-19T09:26:02.8Z</time></trkpt><trkpt lat="43.0039342" lon="12.2461778"><ele>318.0</ele><time>2026-04-19T09:26:03.796Z</time></trkpt><trkpt lat="43.0040169" lon="12.2461692"><ele>318.0</ele><time>2026-04-19T09:26:04.798Z</time></trkpt><trkpt lat="43.0041031" lon="12.2461545"><ele>318.0</ele><time>2026-04-19T09:26:05.8Z</time></trkpt><trkpt lat="43.0041775" lon="12.2461365"><ele>318.0</ele><time>2026-04-19T09:26:06.802Z</time></trkpt><trkpt lat="43.0042461" lon="12.2461092"><ele>316.4</ele><time>2026-04-19T09:26:07.8Z</time></trkpt><trkpt lat="43.0043214" lon="12.2460817"><ele>314.8</ele><time>2026-04-19T09:26:08.799Z</time></trkpt><trkpt lat="43.0044386" lon="12.2460465"><ele>313.2</ele><time>2026-04-19T09:26:10.801Z</time></trkpt><trkpt lat="43.0045539" lon="12.2459918"><ele>311.6</ele><time>2026-04-19T09:26:12.8Z</time></trkpt><trkpt lat="43.0046658" lon="12.2459514"><ele>310.0</ele><time>2026-04-19T09:26:14.804Z</time></trkpt><trkpt lat="43.0047728" lon="12.2459108"><ele>310.0</ele><time>2026-04-19T09:26:16.802Z</time></trkpt><trkpt lat="43.0048824" lon="12.2458698"><ele>310.0</ele><time>2026-04-19T09:26:18.803Z</time></trkpt><trkpt lat="43.0049498" lon="12.245855"><ele>310.0</ele><time>2026-04-19T09:26:19.8Z</time></trkpt><trkpt lat="43.005053" lon="12.245825"><ele>310.0</ele><time>2026-04-19T09:26:21.798Z</time></trkpt><trkpt lat="43.0051494" lon="12.2457984"><ele>310.0</ele><time>2026-04-19T09:26:23.799Z</time></trkpt><trkpt lat="43.0052402" lon="12.2457637"><ele>310.8</ele><time>2026-04-19T09:26:25.804Z</time></trkpt><trkpt lat="43.0053408" lon="12.2457265"><ele>311.6</ele><time>2026-04-19T09:26:27.803Z</time></trkpt><trkpt lat="43.0054491" lon="12.245684"><ele>312.4</ele><time>2026-04-19T09:26:29.805Z</time></trkpt><trkpt lat="43.0055492" lon="12.2456642"><ele>313.2</ele><time>2026-04-19T09:26:31.797Z</time></trkpt><trkpt lat="43.0056452" lon="12.2456337"><ele>314.0</ele><time>2026-04-19T09:26:33.803Z</time></trkpt><trkpt lat="43.0057462" lon="12.2456181"><ele>314.4</ele><time>2026-04-19T09:26:35.8Z</time></trkpt><trkpt lat="43.0058427" lon="12.2456011"><ele>314.79999999999995</ele><time>2026-04-19T09:26:37.801Z</time></trkpt><trkpt lat="43.0059212" lon="12.2455909"><ele>315.20000000000005</ele><time>2026-04-19T09:26:39.796Z</time></trkpt><trkpt lat="43.0060028" lon="12.2455589"><ele>315.6</ele><time>2026-04-19T09:26:41.798Z</time></trkpt><trkpt lat="43.0061152" lon="12.2455093"><ele>316.0</ele><time>2026-04-19T09:26:43.805Z</time></trkpt><trkpt lat="43.0062272" lon="12.245443"><ele>316.0</ele><time>2026-04-19T09:26:45.797Z</time></trkpt><trkpt lat="43.0062926" lon="12.2454001"><ele>316.0</ele><time>2026-04-19T09:26:46.796Z</time></trkpt><trkpt lat="43.0063569" lon="12.2453397"><ele>316.0</ele><time>2026-04-19T09:26:47.798Z</time></trkpt><trkpt lat="43.00642" lon="12.245331"><ele>316.0</ele><time>2026-04-19T09:26:48.801Z</time></trkpt><trkpt lat="43.0064891" lon="12.2453121"><ele>316.0</ele><time>2026-04-19T09:26:49.8Z</time></trkpt><trkpt lat="43.0066091" lon="12.245321"><ele>316.0</ele><time>2026-04-19T09:26:51.797Z</time></trkpt><trkpt lat="43.0067203" lon="12.2453191"><ele>315.2</ele><time>2026-04-19T09:26:53.8Z</time></trkpt><trkpt lat="43.0068325" lon="12.2453119"><ele>314.40000000000003</ele><time>2026-04-19T09:26:55.797Z</time></trkpt><trkpt lat="43.0069351" lon="12.2452961"><ele>313.6</ele><time>2026-04-19T09:26:57.801Z</time></trkpt><trkpt lat="43.0070458" lon="12.2452655"><ele>312.8</ele><time>2026-04-19T09:26:59.803Z</time></trkpt><trkpt lat="43.0071437" lon="12.2452602"><ele>312.0</ele><time>2026-04-19T09:27:01.8Z</time></trkpt><trkpt lat="43.0072502" lon="12.2452468"><ele>312.0</ele><time>2026-04-19T09:27:03.799Z</time></trkpt><trkpt lat="43.0073596" lon="12.2452602"><ele>312.0</ele><time>2026-04-19T09:27:05.799Z</time></trkpt><trkpt lat="43.0074603" lon="12.2452772"><ele>312.0</ele><time>2026-04-19T09:27:07.799Z</time></trkpt><trkpt lat="43.0075617" lon="12.2452906"><ele>312.0</ele><time>2026-04-19T09:27:09.804Z</time></trkpt><trkpt lat="43.0076609" lon="12.2452893"><ele>312.0</ele><time>2026-04-19T09:27:11.799Z</time></trkpt><trkpt lat="43.0077667" lon="12.2452804"><ele>312.4</ele><time>2026-04-19T09:27:13.815Z</time></trkpt><trkpt lat="43.0078859" lon="12.245266"><ele>312.79999999999995</ele><time>2026-04-19T09:27:15.808Z</time></trkpt><trkpt lat="43.0079469" lon="12.2452421"><ele>313.2</ele><time>2026-04-19T09:27:16.799Z</time></trkpt><trkpt lat="43.0080599" lon="12.2451922"><ele>313.59999999999997</ele><time>2026-04-19T09:27:18.803Z</time></trkpt><trkpt lat="43.0081202" lon="12.245167"><ele>314.0</ele><time>2026-04-19T09:27:19.796Z</time></trkpt><trkpt lat="43.0082328" lon="12.2451237"><ele>314.0</ele><time>2026-04-19T09:27:21.803Z</time></trkpt><trkpt lat="43.0083033" lon="12.245113"><ele>314.0</ele><time>2026-04-19T09:27:22.799Z</time></trkpt><trkpt lat="43.0083699" lon="12.2451166"><ele>314.0</ele><time>2026-04-19T09:27:23.797Z</time></trkpt><trkpt lat="43.0084843" lon="12.245133"><ele>314.0</ele><time>2026-04-19T09:27:25.805Z</time></trkpt><trkpt lat="43.0085796" lon="12.2452444"><ele>314.0</ele><time>2026-04-19T09:27:27.803Z</time></trkpt><trkpt lat="43.008617" lon="12.245315"><ele>314.0</ele><time>2026-04-19T09:27:28.801Z</time></trkpt><trkpt lat="43.0086892" lon="12.2454622"><ele>313.4285714285714</ele><time>2026-04-19T09:27:30.806Z</time></trkpt><trkpt lat="43.008723" lon="12.245555"><ele>312.85714285714283</ele><time>2026-04-19T09:27:31.797Z</time></trkpt><trkpt lat="43.0087556" lon="12.2456422"><ele>312.2857142857143</ele><time>2026-04-19T09:27:32.8Z</time></trkpt><trkpt lat="43.0088023" lon="12.2457196"><ele>311.71428571428567</ele><time>2026-04-19T09:27:33.804Z</time></trkpt><trkpt lat="43.0088437" lon="12.2457873"><ele>311.1428571428571</ele><time>2026-04-19T09:27:34.804Z</time></trkpt><trkpt lat="43.0089072" lon="12.2458416"><ele>310.57142857142856</ele><time>2026-04-19T09:27:35.799Z</time></trkpt><trkpt lat="43.0089698" lon="12.2458799"><ele>310.0</ele><time>2026-04-19T09:27:36.801Z</time></trkpt><trkpt lat="43.0090402" lon="12.2459272"><ele>309.0</ele><time>2026-04-19T09:27:37.903Z</time></trkpt><trkpt lat="43.0090851" lon="12.2460038"><ele>308.0</ele><time>2026-04-19T09:27:38.812Z</time></trkpt><trkpt lat="43.0091266" lon="12.2460839"><ele>307.0</ele><time>2026-04-19T09:27:39.803Z</time></trkpt><trkpt lat="43.0091571" lon="12.2461746"><ele>306.0</ele><time>2026-04-19T09:27:40.8Z</time></trkpt><trkpt lat="43.0092015" lon="12.2462413"><ele>305.0</ele><time>2026-04-19T09:27:41.798Z</time></trkpt><trkpt lat="43.0092539" lon="12.2462905"><ele>304.0</ele><time>2026-04-19T09:27:42.79Z</time></trkpt><trkpt lat="43.0093225" lon="12.2463246"><ele>303.0</ele><time>2026-04-19T09:27:43.798Z</time></trkpt><trkpt lat="43.0094024" lon="12.246337"><ele>301.6</ele><time>2026-04-19T09:27:44.803Z</time></trkpt><trkpt lat="43.0094899" lon="12.2463418"><ele>300.20000000000005</ele><time>2026-04-19T09:27:45.804Z</time></trkpt><trkpt lat="43.009581" lon="12.2463308"><ele>298.8</ele><time>2026-04-19T09:27:46.797Z</time></trkpt><trkpt lat="43.0096734" lon="12.2463064"><ele>297.40000000000003</ele><time>2026-04-19T09:27:47.8Z</time></trkpt><trkpt lat="43.0097682" lon="12.2462787"><ele>296.0</ele><time>2026-04-19T09:27:48.798Z</time></trkpt><trkpt lat="43.0098626" lon="12.2462475"><ele>296.0</ele><time>2026-04-19T09:27:49.812Z</time></trkpt><trkpt lat="43.0099645" lon="12.2462064"><ele>296.0</ele><time>2026-04-19T09:27:50.8Z</time></trkpt><trkpt lat="43.0100623" lon="12.2461729"><ele>296.0</ele><time>2026-04-19T09:27:51.801Z</time></trkpt><trkpt lat="43.0101516" lon="12.2461402"><ele>296.0</ele><time>2026-04-19T09:27:52.8Z</time></trkpt><trkpt lat="43.0102416" lon="12.2461231"><ele>296.0</ele><time>2026-04-19T09:27:53.797Z</time></trkpt><trkpt lat="43.0103127" lon="12.2461044"><ele>293.83333333333337</ele><time>2026-04-19T09:27:54.79Z</time></trkpt><trkpt lat="43.0103806" lon="12.2460703"><ele>291.6666666666667</ele><time>2026-04-19T09:27:55.805Z</time></trkpt><trkpt lat="43.0104525" lon="12.2460074"><ele>289.5</ele><time>2026-04-19T09:27:56.794Z</time></trkpt><trkpt lat="43.0105287" lon="12.2459504"><ele>287.3333333333333</ele><time>2026-04-19T09:27:57.802Z</time></trkpt><trkpt lat="43.0106151" lon="12.2458912"><ele>285.16666666666663</ele><time>2026-04-19T09:27:58.799Z</time></trkpt><trkpt lat="43.0107077" lon="12.2458484"><ele>283.0</ele><time>2026-04-19T09:27:59.798Z</time></trkpt><trkpt lat="43.0107929" lon="12.2457977"><ele>281.66666666666663</ele><time>2026-04-19T09:28:00.802Z</time></trkpt><trkpt lat="43.010866" lon="12.2457341"><ele>280.3333333333333</ele><time>2026-04-19T09:28:01.792Z</time></trkpt><trkpt lat="43.0109385" lon="12.2456938"><ele>279.0</ele><time>2026-04-19T09:28:02.817Z</time></trkpt><trkpt lat="43.0110199" lon="12.2456908"><ele>277.6666666666667</ele><time>2026-04-19T09:28:03.798Z</time></trkpt><trkpt lat="43.0110986" lon="12.2457203"><ele>276.33333333333337</ele><time>2026-04-19T09:28:04.807Z</time></trkpt><trkpt lat="43.0111727" lon="12.2457575"><ele>275.0</ele><time>2026-04-19T09:28:05.8Z</time></trkpt><trkpt lat="43.0112435" lon="12.245802"><ele>275.0</ele><time>2026-04-19T09:28:06.787Z</time></trkpt><trkpt lat="43.0113169" lon="12.2458568"><ele>275.0</ele><time>2026-04-19T09:28:07.786Z</time></trkpt><trkpt lat="43.0113907" lon="12.2459337"><ele>275.0</ele><time>2026-04-19T09:28:08.786Z</time></trkpt><trkpt lat="43.0114603" lon="12.2460249"><ele>275.0</ele><time>2026-04-19T09:28:09.815Z</time></trkpt><trkpt lat="43.0115364" lon="12.2461107"><ele>275.0</ele><time>2026-04-19T09:28:10.789Z</time></trkpt><trkpt lat="43.0116024" lon="12.246193"><ele>272.33333333333337</ele><time>2026-04-19T09:28:11.786Z</time></trkpt><trkpt lat="43.0116639" lon="12.2462718"><ele>269.6666666666667</ele><time>2026-04-19T09:28:12.784Z</time></trkpt><trkpt lat="43.0117262" lon="12.2463435"><ele>267.0</ele><time>2026-04-19T09:28:13.789Z</time></trkpt><trkpt lat="43.0117957" lon="12.2464226"><ele>264.3333333333333</ele><time>2026-04-19T09:28:14.787Z</time></trkpt><trkpt lat="43.0118626" lon="12.246499"><ele>261.66666666666663</ele><time>2026-04-19T09:28:15.789Z</time></trkpt><trkpt lat="43.0119287" lon="12.2465836"><ele>259.0</ele><time>2026-04-19T09:28:16.788Z</time></trkpt><trkpt lat="43.0119968" lon="12.2466745"><ele>259.0</ele><time>2026-04-19T09:28:17.871Z</time></trkpt><trkpt lat="43.0120608" lon="12.2467717"><ele>259.0</ele><time>2026-04-19T09:28:18.785Z</time></trkpt><trkpt lat="43.0121309" lon="12.2468476"><ele>259.0</ele><time>2026-04-19T09:28:19.786Z</time></trkpt><trkpt lat="43.0122155" lon="12.2469016"><ele>259.0</ele><time>2026-04-19T09:28:20.788Z</time></trkpt><trkpt lat="43.0122926" lon="12.2469386"><ele>259.0</ele><time>2026-04-19T09:28:21.787Z</time></trkpt><trkpt lat="43.0123689" lon="12.2469953"><ele>259.0</ele><time>2026-04-19T09:28:22.786Z</time></trkpt><trkpt lat="43.012443" lon="12.2470614"><ele>256.59999999999997</ele><time>2026-04-19T09:28:23.878Z</time></trkpt><trkpt lat="43.0125119" lon="12.2471473"><ele>254.2</ele><time>2026-04-19T09:28:24.794Z</time></trkpt><trkpt lat="43.0125871" lon="12.2472195"><ele>251.79999999999998</ele><time>2026-04-19T09:28:25.795Z</time></trkpt><trkpt lat="43.0126545" lon="12.2473019"><ele>249.39999999999998</ele><time>2026-04-19T09:28:26.797Z</time></trkpt><trkpt lat="43.0127355" lon="12.2473728"><ele>247.0</ele><time>2026-04-19T09:28:27.807Z</time></trkpt><trkpt lat="43.0128141" lon="12.2474349"><ele>246.66666666666666</ele><time>2026-04-19T09:28:28.799Z</time></trkpt><trkpt lat="43.012901" lon="12.2474654"><ele>246.33333333333331</ele><time>2026-04-19T09:28:29.801Z</time></trkpt><trkpt lat="43.012986" lon="12.2474823"><ele>246.0</ele><time>2026-04-19T09:28:30.812Z</time></trkpt><trkpt lat="43.0130692" lon="12.2474737"><ele>245.66666666666669</ele><time>2026-04-19T09:28:31.799Z</time></trkpt><trkpt lat="43.0131471" lon="12.2474376"><ele>245.33333333333334</ele><time>2026-04-19T09:28:32.8Z</time></trkpt><trkpt lat="43.0132282" lon="12.2473951"><ele>245.0</ele><time>2026-04-19T09:28:33.803Z</time></trkpt><trkpt lat="43.013321" lon="12.2473391"><ele>243.0</ele><time>2026-04-19T09:28:34.802Z</time></trkpt><trkpt lat="43.0133967" lon="12.2472914"><ele>241.0</ele><time>2026-04-19T09:28:35.801Z</time></trkpt><trkpt lat="43.0134658" lon="12.2472665"><ele>239.0</ele><time>2026-04-19T09:28:36.806Z</time></trkpt><trkpt lat="43.013578" lon="12.2472846"><ele>237.0</ele><time>2026-04-19T09:28:38.803Z</time></trkpt><trkpt lat="43.0136768" lon="12.2473964"><ele>235.0</ele><time>2026-04-19T09:28:40.807Z</time></trkpt><trkpt lat="43.0137131" lon="12.2474736"><ele>235.0</ele><time>2026-04-19T09:28:41.799Z</time></trkpt><trkpt lat="43.0137605" lon="12.2476067"><ele>235.0</ele><time>2026-04-19T09:28:43.801Z</time></trkpt><trkpt lat="43.0138099" lon="12.2477172"><ele>235.0</ele><time>2026-04-19T09:28:45.801Z</time></trkpt><trkpt lat="43.0139161" lon="12.2477437"><ele>235.0</ele><time>2026-04-19T09:28:47.796Z</time></trkpt><trkpt lat="43.0140222" lon="12.247735"><ele>235.0</ele><time>2026-04-19T09:28:49.798Z</time></trkpt><trkpt lat="43.0141089" lon="12.247726"><ele>231.83333333333331</ele><time>2026-04-19T09:28:51.802Z</time></trkpt><trkpt lat="43.01421" lon="12.2476801"><ele>228.66666666666666</ele><time>2026-04-19T09:28:53.798Z</time></trkpt><trkpt lat="43.0143329" lon="12.2476618"><ele>225.5</ele><time>2026-04-19T09:28:55.797Z</time></trkpt><trkpt lat="43.0144019" lon="12.2476432"><ele>222.33333333333331</ele><time>2026-04-19T09:28:56.805Z</time></trkpt><trkpt lat="43.0144676" lon="12.2476148"><ele>219.16666666666666</ele><time>2026-04-19T09:28:57.803Z</time></trkpt><trkpt lat="43.0145271" lon="12.2475559"><ele>216.0</ele><time>2026-04-19T09:28:58.804Z</time></trkpt><trkpt lat="43.0145773" lon="12.2474686"><ele>215.0</ele><time>2026-04-19T09:28:59.904Z</time></trkpt><trkpt lat="43.0146628" lon="12.2472918"><ele>214.00000000000003</ele><time>2026-04-19T09:29:01.798Z</time></trkpt><trkpt lat="43.0147257" lon="12.2472236"><ele>213.0</ele><time>2026-04-19T09:29:02.798Z</time></trkpt><trkpt lat="43.0147973" lon="12.2471597"><ele>212.0</ele><time>2026-04-19T09:29:03.799Z</time></trkpt><trkpt lat="43.0148662" lon="12.2471041"><ele>211.0</ele><time>2026-04-19T09:29:04.802Z</time></trkpt><trkpt lat="43.0149388" lon="12.2470765"><ele>210.66666666666666</ele><time>2026-04-19T09:29:05.793Z</time></trkpt><trkpt lat="43.0150092" lon="12.2470798"><ele>210.33333333333331</ele><time>2026-04-19T09:29:06.802Z</time></trkpt><trkpt lat="43.0150695" lon="12.2471108"><ele>210.0</ele><time>2026-04-19T09:29:07.79Z</time></trkpt><trkpt lat="43.0151231" lon="12.2471566"><ele>209.66666666666669</ele><time>2026-04-19T09:29:08.805Z</time></trkpt><trkpt lat="43.0152173" lon="12.2472603"><ele>209.33333333333334</ele><time>2026-04-19T09:29:10.81Z</time></trkpt><trkpt lat="43.0153139" lon="12.2473412"><ele>209.0</ele><time>2026-04-19T09:29:12.811Z</time></trkpt><trkpt lat="43.0153882" lon="12.247447"><ele>209.0</ele><time>2026-04-19T09:29:14.8Z</time></trkpt><trkpt lat="43.0154765" lon="12.2475412"><ele>209.0</ele><time>2026-04-19T09:29:16.804Z</time></trkpt><trkpt lat="43.0155525" lon="12.2476408"><ele>209.0</ele><time>2026-04-19T09:29:18.808Z</time></trkpt><trkpt lat="43.0156214" lon="12.2477518"><ele>209.0</ele><time>2026-04-19T09:29:20.798Z</time></trkpt><trkpt lat="43.0156795" lon="12.2478534"><ele>209.0</ele><time>2026-04-19T09:29:22.796Z</time></trkpt><trkpt lat="43.0157304" lon="12.2479467"><ele>209.0</ele><time>2026-04-19T09:29:24.801Z</time></trkpt><trkpt lat="43.0157915" lon="12.2480542"><ele>209.0</ele><time>2026-04-19T09:29:26.811Z</time></trkpt><trkpt lat="43.0158454" lon="12.2481502"><ele>209.0</ele><time>2026-04-19T09:29:28.811Z</time></trkpt><trkpt lat="43.0158917" lon="12.2482661"><ele>209.0</ele><time>2026-04-19T09:29:30.802Z</time></trkpt><trkpt lat="43.0159322" lon="12.2483914"><ele>209.0</ele><time>2026-04-19T09:29:32.798Z</time></trkpt><trkpt lat="43.0159859" lon="12.2485023"><ele>209.0</ele><time>2026-04-19T09:29:34.809Z</time></trkpt><trkpt lat="43.0160187" lon="12.2486091"><ele>209.0</ele><time>2026-04-19T09:29:36.807Z</time></trkpt><trkpt lat="43.016038" lon="12.248727"><ele>209.0</ele><time>2026-04-19T09:29:38.801Z</time></trkpt><trkpt lat="43.0160395" lon="12.2488493"><ele>209.0</ele><time>2026-04-19T09:29:40.801Z</time></trkpt><trkpt lat="43.0160603" lon="12.2490704"><ele>209.0</ele><time>2026-04-19T09:29:43.799Z</time></trkpt><trkpt lat="43.0160635" lon="12.2492154"><ele>209.0</ele><time>2026-04-19T09:29:45.808Z</time></trkpt><trkpt lat="43.0160823" lon="12.2493643"><ele>209.0</ele><time>2026-04-19T09:29:47.904Z</time></trkpt><trkpt lat="43.016088" lon="12.2495025"><ele>209.0</ele><time>2026-04-19T09:29:49.799Z</time></trkpt><trkpt lat="43.0160913" lon="12.2496475"><ele>209.0</ele><time>2026-04-19T09:29:51.81Z</time></trkpt><trkpt lat="43.0161002" lon="12.249769"><ele>209.0</ele><time>2026-04-19T09:29:53.8Z</time></trkpt><trkpt lat="43.016129" lon="12.2498833"><ele>208.79999999999998</ele><time>2026-04-19T09:29:55.805Z</time></trkpt><trkpt lat="43.016177" lon="12.2499924"><ele>208.6</ele><time>2026-04-19T09:29:57.799Z</time></trkpt><trkpt lat="43.0162764" lon="12.2500466"><ele>208.4</ele><time>2026-04-19T09:29:59.892Z</time></trkpt><trkpt lat="43.0163535" lon="12.2500431"><ele>208.2</ele><time>2026-04-19T09:30:00.808Z</time></trkpt><trkpt lat="43.016453" lon="12.249975"><ele>208.0</ele><time>2026-04-19T09:30:02.808Z</time></trkpt><trkpt lat="43.0165293" lon="12.249916"><ele>207.99999999999997</ele><time>2026-04-19T09:30:04.803Z</time></trkpt><trkpt lat="43.0166031" lon="12.2498683"><ele>208.0</ele><time>2026-04-19T09:30:07.795Z</time></trkpt><trkpt lat="43.0166772" lon="12.2498609"><ele>208.0</ele><time>2026-04-19T09:30:09.8Z</time></trkpt><trkpt lat="43.0167567" lon="12.249858"><ele>208.0</ele><time>2026-04-19T09:30:11.796Z</time></trkpt><trkpt lat="43.016841" lon="12.2498513"><ele>207.99999999999997</ele><time>2026-04-19T09:30:13.8Z</time></trkpt><trkpt lat="43.0169255" lon="12.2498495"><ele>208.0</ele><time>2026-04-19T09:30:15.803Z</time></trkpt><trkpt lat="43.0170093" lon="12.2498539"><ele>208.16666666666666</ele><time>2026-04-19T09:30:17.793Z</time></trkpt><trkpt lat="43.017085" lon="12.2498575"><ele>208.33333333333331</ele><time>2026-04-19T09:30:19.796Z</time></trkpt><trkpt lat="43.0171711" lon="12.2498574"><ele>208.5</ele><time>2026-04-19T09:30:22.802Z</time></trkpt><trkpt lat="43.0172423" lon="12.2498443"><ele>208.66666666666669</ele><time>2026-04-19T09:30:26.799Z</time></trkpt><trkpt lat="43.017234" lon="12.2499379"><ele>208.83333333333334</ele><time>2026-04-19T09:30:34.804Z</time></trkpt><trkpt lat="43.0172351" lon="12.2500554"><ele>209.0</ele><time>2026-04-19T09:30:36.807Z</time></trkpt><trkpt lat="43.0172317" lon="12.2501725"><ele>209.0</ele><time>2026-04-19T09:30:38.805Z</time></trkpt><trkpt lat="43.0172242" lon="12.2503033"><ele>209.0</ele><time>2026-04-19T09:30:40.802Z</time></trkpt><trkpt lat="43.0172143" lon="12.2504401"><ele>209.0</ele><time>2026-04-19T09:30:42.803Z</time></trkpt><trkpt lat="43.0172084" lon="12.250568"><ele>209.0</ele><time>2026-04-19T09:30:44.811Z</time></trkpt><trkpt lat="43.0172075" lon="12.2506923"><ele>209.0</ele><time>2026-04-19T09:30:46.811Z</time></trkpt><trkpt lat="43.0172046" lon="12.2508141"><ele>209.0</ele><time>2026-04-19T09:30:48.81Z</time></trkpt><trkpt lat="43.0172021" lon="12.2509412"><ele>209.0</ele><time>2026-04-19T09:30:50.799Z</time></trkpt><trkpt lat="43.0172017" lon="12.2510735"><ele>209.0</ele><time>2026-04-19T09:30:52.9Z</time></trkpt><trkpt lat="43.0171897" lon="12.2511998"><ele>209.0</ele><time>2026-04-19T09:30:54.801Z</time></trkpt><trkpt lat="43.0171919" lon="12.2513307"><ele>209.0</ele><time>2026-04-19T09:30:56.802Z</time></trkpt><trkpt lat="43.0171861" lon="12.2514569"><ele>209.0</ele><time>2026-04-19T09:30:58.788Z</time></trkpt><trkpt lat="43.0171805" lon="12.2515848"><ele>209.0</ele><time>2026-04-19T09:31:00.783Z</time></trkpt><trkpt lat="43.0171751" lon="12.2517189"><ele>209.0</ele><time>2026-04-19T09:31:02.785Z</time></trkpt><trkpt lat="43.0171654" lon="12.2518441"><ele>209.0</ele><time>2026-04-19T09:31:04.789Z</time></trkpt><trkpt lat="43.0171588" lon="12.2519807"><ele>209.0</ele><time>2026-04-19T09:31:06.803Z</time></trkpt><trkpt lat="43.0171565" lon="12.2521185"><ele>209.0</ele><time>2026-04-19T09:31:08.805Z</time></trkpt><trkpt lat="43.0171507" lon="12.2522537"><ele>209.0</ele><time>2026-04-19T09:31:10.804Z</time></trkpt><trkpt lat="43.01715" lon="12.2523999"><ele>209.0</ele><time>2026-04-19T09:31:12.811Z</time></trkpt><trkpt lat="43.0171441" lon="12.2525422"><ele>209.0</ele><time>2026-04-19T09:31:14.806Z</time></trkpt><trkpt lat="43.0171428" lon="12.2526787"><ele>209.0</ele><time>2026-04-19T09:31:16.812Z</time></trkpt><trkpt lat="43.0171405" lon="12.2528214"><ele>209.0</ele><time>2026-04-19T09:31:18.803Z</time></trkpt><trkpt lat="43.0171324" lon="12.2529715"><ele>209.0</ele><time>2026-04-19T09:31:20.793Z</time></trkpt><trkpt lat="43.0171316" lon="12.2531232"><ele>209.0</ele><time>2026-04-19T09:31:22.8Z</time></trkpt><trkpt lat="43.0171201" lon="12.2532544"><ele>209.0</ele><time>2026-04-19T09:31:24.803Z</time></trkpt><trkpt lat="43.0171186" lon="12.2533743"><ele>209.0</ele><time>2026-04-19T09:31:26.903Z</time></trkpt><trkpt lat="43.0171219" lon="12.2535126"><ele>209.0</ele><time>2026-04-19T09:31:28.806Z</time></trkpt><trkpt lat="43.0171176" lon="12.2536498"><ele>209.0</ele><time>2026-04-19T09:31:30.801Z</time></trkpt><trkpt lat="43.0171071" lon="12.2538004"><ele>209.0</ele><time>2026-04-19T09:31:32.897Z</time></trkpt><trkpt lat="43.0171061" lon="12.2539425"><ele>209.0</ele><time>2026-04-19T09:31:34.803Z</time></trkpt><trkpt lat="43.0171015" lon="12.254074"><ele>209.0</ele><time>2026-04-19T09:31:36.799Z</time></trkpt><trkpt lat="43.0171041" lon="12.2541974"><ele>208.79999999999998</ele><time>2026-04-19T09:31:38.799Z</time></trkpt><trkpt lat="43.0171022" lon="12.254339"><ele>208.6</ele><time>2026-04-19T09:31:40.803Z</time></trkpt><trkpt lat="43.0171" lon="12.2544744"><ele>208.4</ele><time>2026-04-19T09:31:42.798Z</time></trkpt><trkpt lat="43.0171047" lon="12.2546176"><ele>208.2</ele><time>2026-04-19T09:31:44.796Z</time></trkpt><trkpt lat="43.0171087" lon="12.2547588"><ele>208.0</ele><time>2026-04-19T09:31:46.796Z</time></trkpt><trkpt lat="43.0171141" lon="12.2548987"><ele>208.0</ele><time>2026-04-19T09:31:48.801Z</time></trkpt><trkpt lat="43.0171289" lon="12.2550437"><ele>208.0</ele><time>2026-04-19T09:31:50.796Z</time></trkpt><trkpt lat="43.0171436" lon="12.255181"><ele>208.0</ele><time>2026-04-19T09:31:52.803Z</time></trkpt><trkpt lat="43.0171539" lon="12.2553269"><ele>208.0</ele><time>2026-04-19T09:31:54.8Z</time></trkpt><trkpt lat="43.017165" lon="12.2554677"><ele>208.0</ele><time>2026-04-19T09:31:56.9Z</time></trkpt><trkpt lat="43.0171784" lon="12.2556228"><ele>208.0</ele><time>2026-04-19T09:31:58.803Z</time></trkpt><trkpt lat="43.017186" lon="12.2557656"><ele>208.0</ele><time>2026-04-19T09:32:00.796Z</time></trkpt><trkpt lat="43.0172056" lon="12.2559092"><ele>208.0</ele><time>2026-04-19T09:32:02.795Z</time></trkpt><trkpt lat="43.0172191" lon="12.2560509"><ele>208.0</ele><time>2026-04-19T09:32:04.8Z</time></trkpt><trkpt lat="43.0172277" lon="12.2561835"><ele>208.0</ele><time>2026-04-19T09:32:06.801Z</time></trkpt><trkpt lat="43.0172399" lon="12.2563257"><ele>207.99999999999997</ele><time>2026-04-19T09:32:08.799Z</time></trkpt><trkpt lat="43.0172534" lon="12.2564513"><ele>208.0</ele><time>2026-04-19T09:32:10.812Z</time></trkpt><trkpt lat="43.0172738" lon="12.2565736"><ele>208.0</ele><time>2026-04-19T09:32:12.786Z</time></trkpt><trkpt lat="43.0172955" lon="12.2566942"><ele>208.0</ele><time>2026-04-19T09:32:14.9Z</time></trkpt><trkpt lat="43.0173363" lon="12.2567972"><ele>207.99999999999997</ele><time>2026-04-19T09:32:16.801Z</time></trkpt><trkpt lat="43.0173884" lon="12.2568913"><ele>208.0</ele><time>2026-04-19T09:32:18.811Z</time></trkpt><trkpt lat="43.0174558" lon="12.2569599"><ele>207.83333333333331</ele><time>2026-04-19T09:32:20.811Z</time></trkpt><trkpt lat="43.0175181" lon="12.2570254"><ele>207.66666666666666</ele><time>2026-04-19T09:32:22.798Z</time></trkpt><trkpt lat="43.0175619" lon="12.2570933"><ele>207.5</ele><time>2026-04-19T09:32:24.803Z</time></trkpt><trkpt lat="43.0176015" lon="12.2571768"><ele>207.33333333333331</ele><time>2026-04-19T09:32:26.786Z</time></trkpt><trkpt lat="43.0176425" lon="12.2572745"><ele>207.16666666666666</ele><time>2026-04-19T09:32:28.805Z</time></trkpt><trkpt lat="43.0176982" lon="12.2573774"><ele>207.0</ele><time>2026-04-19T09:32:30.796Z</time></trkpt><trkpt lat="43.0177498" lon="12.2574839"><ele>207.0</ele><time>2026-04-19T09:32:32.804Z</time></trkpt><trkpt lat="43.0177914" lon="12.257593"><ele>207.0</ele><time>2026-04-19T09:32:34.8Z</time></trkpt><trkpt lat="43.017833" lon="12.2576971"><ele>207.0</ele><time>2026-04-19T09:32:36.802Z</time></trkpt><trkpt lat="43.0178639" lon="12.2577922"><ele>207.0</ele><time>2026-04-19T09:32:38.794Z</time></trkpt><trkpt lat="43.0179001" lon="12.2578817"><ele>207.0</ele><time>2026-04-19T09:32:40.786Z</time></trkpt><trkpt lat="43.0179447" lon="12.2579813"><ele>207.0</ele><time>2026-04-19T09:32:42.797Z</time></trkpt><trkpt lat="43.0179888" lon="12.2580731"><ele>207.00000000000003</ele><time>2026-04-19T09:32:44.803Z</time></trkpt><trkpt lat="43.0180309" lon="12.2581468"><ele>207.0</ele><time>2026-04-19T09:32:46.786Z</time></trkpt><trkpt lat="43.0180674" lon="12.2582215"><ele>207.0</ele><time>2026-04-19T09:32:48.787Z</time></trkpt><trkpt lat="43.0181179" lon="12.2582748"><ele>207.0</ele><time>2026-04-19T09:32:50.787Z</time></trkpt><trkpt lat="43.0181846" lon="12.258243"><ele>207.0</ele><time>2026-04-19T09:32:52.787Z</time></trkpt><trkpt lat="43.0182518" lon="12.2581843"><ele>207.00000000000003</ele><time>2026-04-19T09:32:54.788Z</time></trkpt><trkpt lat="43.0183184" lon="12.2581164"><ele>207.0</ele><time>2026-04-19T09:32:56.785Z</time></trkpt><trkpt lat="43.0183819" lon="12.2580556"><ele>207.00000000000003</ele><time>2026-04-19T09:32:58.789Z</time></trkpt><trkpt lat="43.0184398" lon="12.257997"><ele>207.0</ele><time>2026-04-19T09:33:00.787Z</time></trkpt><trkpt lat="43.0184965" lon="12.2579343"><ele>207.0</ele><time>2026-04-19T09:33:02.794Z</time></trkpt><trkpt lat="43.0185514" lon="12.2578759"><ele>207.0</ele><time>2026-04-19T09:33:04.797Z</time></trkpt><trkpt lat="43.0186084" lon="12.2578076"><ele>207.0</ele><time>2026-04-19T09:33:06.794Z</time></trkpt><trkpt lat="43.0186682" lon="12.2577435"><ele>207.00000000000003</ele><time>2026-04-19T09:33:08.813Z</time></trkpt><trkpt lat="43.0187285" lon="12.2576813"><ele>207.0</ele><time>2026-04-19T09:33:10.799Z</time></trkpt><trkpt lat="43.0187883" lon="12.2576242"><ele>207.0</ele><time>2026-04-19T09:33:12.804Z</time></trkpt><trkpt lat="43.0188507" lon="12.2575658"><ele>207.0</ele><time>2026-04-19T09:33:14.796Z</time></trkpt><trkpt lat="43.018915" lon="12.2575103"><ele>207.0</ele><time>2026-04-19T09:33:16.803Z</time></trkpt><trkpt lat="43.0189819" lon="12.2574672"><ele>207.0</ele><time>2026-04-19T09:33:18.811Z</time></trkpt><trkpt lat="43.0190558" lon="12.2574191"><ele>207.0</ele><time>2026-04-19T09:33:20.802Z</time></trkpt><trkpt lat="43.019131" lon="12.2573573"><ele>207.0</ele><time>2026-04-19T09:33:22.804Z</time></trkpt><trkpt lat="43.019205" lon="12.2573069"><ele>206.83333333333334</ele><time>2026-04-19T09:33:24.803Z</time></trkpt><trkpt lat="43.0192739" lon="12.257295"><ele>206.66666666666669</ele><time>2026-04-19T09:33:26.802Z</time></trkpt><trkpt lat="43.0193609" lon="12.2573191"><ele>206.5</ele><time>2026-04-19T09:33:29.807Z</time></trkpt><trkpt lat="43.0194254" lon="12.2573554"><ele>206.33333333333334</ele><time>2026-04-19T09:33:31.799Z</time></trkpt><trkpt lat="43.0195084" lon="12.2573971"><ele>206.16666666666669</ele><time>2026-04-19T09:33:33.802Z</time></trkpt><trkpt lat="43.0195946" lon="12.2574494"><ele>206.0</ele><time>2026-04-19T09:33:35.795Z</time></trkpt><trkpt lat="43.0196759" lon="12.2575004"><ele>206.00000000000003</ele><time>2026-04-19T09:33:37.796Z</time></trkpt><trkpt lat="43.0197642" lon="12.2575328"><ele>206.0</ele><time>2026-04-19T09:33:39.802Z</time></trkpt><trkpt lat="43.0198511" lon="12.2575643"><ele>206.0</ele><time>2026-04-19T09:33:41.803Z</time></trkpt><trkpt lat="43.0199341" lon="12.2575969"><ele>206.0</ele><time>2026-04-19T09:33:43.795Z</time></trkpt><trkpt lat="43.0200134" lon="12.2576373"><ele>206.00000000000003</ele><time>2026-04-19T09:33:45.801Z</time></trkpt><trkpt lat="43.020094" lon="12.2576668"><ele>206.0</ele><time>2026-04-19T09:33:47.801Z</time></trkpt><trkpt lat="43.0201859" lon="12.2577101"><ele>206.00000000000003</ele><time>2026-04-19T09:33:50.804Z</time></trkpt><trkpt lat="43.0202614" lon="12.2577552"><ele>206.0</ele><time>2026-04-19T09:33:52.8Z</time></trkpt><trkpt lat="43.0203418" lon="12.2578092"><ele>206.0</ele><time>2026-04-19T09:33:54.81Z</time></trkpt><trkpt lat="43.0204237" lon="12.2578506"><ele>206.0</ele><time>2026-04-19T09:33:56.799Z</time></trkpt><trkpt lat="43.0204984" lon="12.2579093"><ele>206.00000000000003</ele><time>2026-04-19T09:33:58.796Z</time></trkpt><trkpt lat="43.0205257" lon="12.258003"><ele>206.0</ele><time>2026-04-19T09:34:00.79Z</time></trkpt><trkpt lat="43.0205348" lon="12.2581155"><ele>205.8</ele><time>2026-04-19T09:34:02.815Z</time></trkpt><trkpt lat="43.0205385" lon="12.2582508"><ele>205.60000000000002</ele><time>2026-04-19T09:34:04.804Z</time></trkpt><trkpt lat="43.0205427" lon="12.2583992"><ele>205.4</ele><time>2026-04-19T09:34:06.801Z</time></trkpt><trkpt lat="43.0205468" lon="12.2585339"><ele>205.2</ele><time>2026-04-19T09:34:08.801Z</time></trkpt><trkpt lat="43.0205465" lon="12.2586527"><ele>205.0</ele><time>2026-04-19T09:34:10.798Z</time></trkpt><trkpt lat="43.0205439" lon="12.2587737"><ele>205.0</ele><time>2026-04-19T09:34:12.8Z</time></trkpt><trkpt lat="43.0205469" lon="12.2588974"><ele>205.0</ele><time>2026-04-19T09:34:14.808Z</time></trkpt><trkpt lat="43.0205575" lon="12.2590261"><ele>205.0</ele><time>2026-04-19T09:34:16.801Z</time></trkpt><trkpt lat="43.0205721" lon="12.2591567"><ele>205.0</ele><time>2026-04-19T09:34:18.807Z</time></trkpt><trkpt lat="43.0205753" lon="12.2592793"><ele>205.0</ele><time>2026-04-19T09:34:20.798Z</time></trkpt><trkpt lat="43.0205787" lon="12.2594006"><ele>204.99999999999997</ele><time>2026-04-19T09:34:22.803Z</time></trkpt><trkpt lat="43.0205877" lon="12.2595178"><ele>205.0</ele><time>2026-04-19T09:34:24.796Z</time></trkpt><trkpt lat="43.0205977" lon="12.2596373"><ele>205.0</ele><time>2026-04-19T09:34:26.796Z</time></trkpt><trkpt lat="43.0206005" lon="12.259751"><ele>205.0</ele><time>2026-04-19T09:34:28.799Z</time></trkpt><trkpt lat="43.0206079" lon="12.2598739"><ele>204.99999999999997</ele><time>2026-04-19T09:34:30.801Z</time></trkpt><trkpt lat="43.0206131" lon="12.2599915"><ele>205.0</ele><time>2026-04-19T09:34:32.8Z</time></trkpt><trkpt lat="43.0206178" lon="12.2601135"><ele>205.0</ele><time>2026-04-19T09:34:34.801Z</time></trkpt><trkpt lat="43.0206284" lon="12.2602329"><ele>205.0</ele><time>2026-04-19T09:34:36.805Z</time></trkpt><trkpt lat="43.0206402" lon="12.2603555"><ele>205.0</ele><time>2026-04-19T09:34:38.815Z</time></trkpt><trkpt lat="43.0206409" lon="12.2604662"><ele>205.0</ele><time>2026-04-19T09:34:40.794Z</time></trkpt><trkpt lat="43.0206441" lon="12.2605774"><ele>205.0</ele><time>2026-04-19T09:34:42.799Z</time></trkpt><trkpt lat="43.0206621" lon="12.2607322"><ele>205.16666666666666</ele><time>2026-04-19T09:34:45.804Z</time></trkpt><trkpt lat="43.020706" lon="12.2608081"><ele>205.33333333333331</ele><time>2026-04-19T09:34:47.801Z</time></trkpt><trkpt lat="43.0207732" lon="12.2608303"><ele>205.5</ele><time>2026-04-19T09:34:49.898Z</time></trkpt><trkpt lat="43.020847" lon="12.2608421"><ele>205.66666666666669</ele><time>2026-04-19T09:34:51.799Z</time></trkpt><trkpt lat="43.0209276" lon="12.2608363"><ele>205.83333333333334</ele><time>2026-04-19T09:34:53.807Z</time></trkpt><trkpt lat="43.0210074" lon="12.2608342"><ele>206.0</ele><time>2026-04-19T09:34:55.795Z</time></trkpt><trkpt lat="43.0210882" lon="12.2608251"><ele>206.00000000000003</ele><time>2026-04-19T09:34:57.795Z</time></trkpt><trkpt lat="43.0211708" lon="12.2608187"><ele>206.0</ele><time>2026-04-19T09:34:59.799Z</time></trkpt><trkpt lat="43.0212585" lon="12.2608103"><ele>206.0</ele><time>2026-04-19T09:35:01.901Z</time></trkpt><trkpt lat="43.0213431" lon="12.2608051"><ele>206.0</ele><time>2026-04-19T09:35:03.784Z</time></trkpt><trkpt lat="43.021432" lon="12.2608048"><ele>206.00000000000003</ele><time>2026-04-19T09:35:05.808Z</time></trkpt><trkpt lat="43.0215331" lon="12.2607786"><ele>206.0</ele><time>2026-04-19T09:35:07.801Z</time></trkpt><trkpt lat="43.021623" lon="12.260768"><ele>206.16666666666669</ele><time>2026-04-19T09:35:09.801Z</time></trkpt><trkpt lat="43.0217217" lon="12.2607622"><ele>206.33333333333334</ele><time>2026-04-19T09:35:11.784Z</time></trkpt><trkpt lat="43.0218138" lon="12.2607547"><ele>206.5</ele><time>2026-04-19T09:35:13.788Z</time></trkpt><trkpt lat="43.0218974" lon="12.2607541"><ele>206.66666666666669</ele><time>2026-04-19T09:35:15.801Z</time></trkpt><trkpt lat="43.0219818" lon="12.2607516"><ele>206.83333333333334</ele><time>2026-04-19T09:35:17.796Z</time></trkpt><trkpt lat="43.0220614" lon="12.2607373"><ele>207.0</ele><time>2026-04-19T09:35:19.796Z</time></trkpt><trkpt lat="43.0221466" lon="12.2607298"><ele>207.0</ele><time>2026-04-19T09:35:21.801Z</time></trkpt><trkpt lat="43.0222302" lon="12.2607246"><ele>207.0</ele><time>2026-04-19T09:35:23.786Z</time></trkpt><trkpt lat="43.0223127" lon="12.2607268"><ele>207.0</ele><time>2026-04-19T09:35:25.811Z</time></trkpt><trkpt lat="43.0223983" lon="12.2607233"><ele>207.0</ele><time>2026-04-19T09:35:27.797Z</time></trkpt><trkpt lat="43.0224912" lon="12.260721"><ele>207.0</ele><time>2026-04-19T09:35:29.798Z</time></trkpt><trkpt lat="43.0225766" lon="12.2607099"><ele>207.0</ele><time>2026-04-19T09:35:31.803Z</time></trkpt><trkpt lat="43.0226579" lon="12.2607114"><ele>207.0</ele><time>2026-04-19T09:35:33.799Z</time></trkpt><trkpt lat="43.022736" lon="12.2607149"><ele>207.0</ele><time>2026-04-19T09:35:35.793Z</time></trkpt><trkpt lat="43.0228243" lon="12.2607099"><ele>207.0</ele><time>2026-04-19T09:35:37.811Z</time></trkpt><trkpt lat="43.0229196" lon="12.2607052"><ele>207.0</ele><time>2026-04-19T09:35:39.8Z</time></trkpt><trkpt lat="43.0230611" lon="12.2607065"><ele>207.0</ele><time>2026-04-19T09:35:42.801Z</time></trkpt><trkpt lat="43.0231573" lon="12.2607004"><ele>207.0</ele><time>2026-04-19T09:35:44.799Z</time></trkpt><trkpt lat="43.0232589" lon="12.2606822"><ele>207.0</ele><time>2026-04-19T09:35:46.883Z</time></trkpt><trkpt lat="43.0233518" lon="12.2606828"><ele>207.0</ele><time>2026-04-19T09:35:48.801Z</time></trkpt><trkpt lat="43.0234379" lon="12.2606771"><ele>207.0</ele><time>2026-04-19T09:35:50.8Z</time></trkpt><trkpt lat="43.0235234" lon="12.2606702"><ele>207.0</ele><time>2026-04-19T09:35:52.799Z</time></trkpt><trkpt lat="43.0236148" lon="12.2606668"><ele>206.6</ele><time>2026-04-19T09:35:54.805Z</time></trkpt><trkpt lat="43.023705" lon="12.2606714"><ele>206.2</ele><time>2026-04-19T09:35:56.811Z</time></trkpt><trkpt lat="43.0237983" lon="12.2606723"><ele>205.8</ele><time>2026-04-19T09:35:58.897Z</time></trkpt><trkpt lat="43.0238836" lon="12.2606641"><ele>205.4</ele><time>2026-04-19T09:36:00.798Z</time></trkpt><trkpt lat="43.0239779" lon="12.2606591"><ele>205.0</ele><time>2026-04-19T09:36:02.803Z</time></trkpt><trkpt lat="43.0240662" lon="12.2606433"><ele>205.6</ele><time>2026-04-19T09:36:04.797Z</time></trkpt><trkpt lat="43.0241576" lon="12.2606376"><ele>206.2</ele><time>2026-04-19T09:36:06.799Z</time></trkpt><trkpt lat="43.0242516" lon="12.2606318"><ele>206.8</ele><time>2026-04-19T09:36:08.799Z</time></trkpt><trkpt lat="43.0243459" lon="12.2606252"><ele>207.4</ele><time>2026-04-19T09:36:10.799Z</time></trkpt><trkpt lat="43.0244354" lon="12.2606411"><ele>208.0</ele><time>2026-04-19T09:36:12.802Z</time></trkpt><trkpt lat="43.0245302" lon="12.2606677"><ele>207.99999999999997</ele><time>2026-04-19T09:36:14.81Z</time></trkpt><trkpt lat="43.0246149" lon="12.2606942"><ele>208.0</ele><time>2026-04-19T09:36:16.785Z</time></trkpt><trkpt lat="43.0247031" lon="12.2607184"><ele>208.0</ele><time>2026-04-19T09:36:18.79Z</time></trkpt><trkpt lat="43.0247892" lon="12.2607482"><ele>208.0</ele><time>2026-04-19T09:36:20.799Z</time></trkpt><trkpt lat="43.0248779" lon="12.2607697"><ele>207.99999999999997</ele><time>2026-04-19T09:36:22.798Z</time></trkpt><trkpt lat="43.0249666" lon="12.2607975"><ele>208.0</ele><time>2026-04-19T09:36:24.797Z</time></trkpt><trkpt lat="43.0250568" lon="12.2608374"><ele>207.8</ele><time>2026-04-19T09:36:26.803Z</time></trkpt><trkpt lat="43.0251463" lon="12.2608744"><ele>207.60000000000002</ele><time>2026-04-19T09:36:28.801Z</time></trkpt><trkpt lat="43.0252296" lon="12.2608925"><ele>207.39999999999998</ele><time>2026-04-19T09:36:30.799Z</time></trkpt><trkpt lat="43.0253148" lon="12.2609191"><ele>207.2</ele><time>2026-04-19T09:36:32.803Z</time></trkpt><trkpt lat="43.025411" lon="12.260948"><ele>207.0</ele><time>2026-04-19T09:36:34.805Z</time></trkpt><trkpt lat="43.0255043" lon="12.2609585"><ele>207.0</ele><time>2026-04-19T09:36:36.807Z</time></trkpt><trkpt lat="43.0255959" lon="12.2609824"><ele>207.0</ele><time>2026-04-19T09:36:38.797Z</time></trkpt><trkpt lat="43.02569" lon="12.261021"><ele>207.0</ele><time>2026-04-19T09:36:40.802Z</time></trkpt><trkpt lat="43.0257761" lon="12.2610418"><ele>207.0</ele><time>2026-04-19T09:36:42.796Z</time></trkpt><trkpt lat="43.0258616" lon="12.2610729"><ele>207.0</ele><time>2026-04-19T09:36:44.8Z</time></trkpt><trkpt lat="43.0259482" lon="12.2610886"><ele>206.5</ele><time>2026-04-19T09:36:46.784Z</time></trkpt><trkpt lat="43.0260391" lon="12.2611137"><ele>206.0</ele><time>2026-04-19T09:36:48.8Z</time></trkpt><trkpt lat="43.0261191" lon="12.2611366"><ele>205.5</ele><time>2026-04-19T09:36:50.797Z</time></trkpt><trkpt lat="43.0262079" lon="12.2611714"><ele>205.0</ele><time>2026-04-19T09:36:52.897Z</time></trkpt><trkpt lat="43.0262947" lon="12.2611932"><ele>204.5</ele><time>2026-04-19T09:36:54.8Z</time></trkpt><trkpt lat="43.0263833" lon="12.2612234"><ele>204.0</ele><time>2026-04-19T09:36:56.795Z</time></trkpt><trkpt lat="43.0264728" lon="12.2612501"><ele>204.0</ele><time>2026-04-19T09:36:58.798Z</time></trkpt><trkpt lat="43.0265575" lon="12.2612729"><ele>204.0</ele><time>2026-04-19T09:37:00.802Z</time></trkpt><trkpt lat="43.0266457" lon="12.2613051"><ele>204.0</ele><time>2026-04-19T09:37:02.796Z</time></trkpt><trkpt lat="43.0267319" lon="12.2613335"><ele>204.0</ele><time>2026-04-19T09:37:04.798Z</time></trkpt><trkpt lat="43.0268247" lon="12.2613592"><ele>204.0</ele><time>2026-04-19T09:37:06.793Z</time></trkpt><trkpt lat="43.0269063" lon="12.2613793"><ele>204.0</ele><time>2026-04-19T09:37:08.796Z</time></trkpt><trkpt lat="43.0269875" lon="12.2614076"><ele>204.16666666666666</ele><time>2026-04-19T09:37:10.896Z</time></trkpt><trkpt lat="43.0270742" lon="12.2614401"><ele>204.33333333333331</ele><time>2026-04-19T09:37:12.801Z</time></trkpt><trkpt lat="43.0271628" lon="12.2614527"><ele>204.5</ele><time>2026-04-19T09:37:14.803Z</time></trkpt><trkpt lat="43.0272459" lon="12.261484"><ele>204.66666666666666</ele><time>2026-04-19T09:37:16.792Z</time></trkpt><trkpt lat="43.027328" lon="12.2615153"><ele>204.83333333333331</ele><time>2026-04-19T09:37:18.786Z</time></trkpt><trkpt lat="43.0274084" lon="12.2615469"><ele>205.0</ele><time>2026-04-19T09:37:20.795Z</time></trkpt><trkpt lat="43.0274897" lon="12.2615832"><ele>205.16666666666666</ele><time>2026-04-19T09:37:22.785Z</time></trkpt><trkpt lat="43.0275752" lon="12.2615895"><ele>205.33333333333331</ele><time>2026-04-19T09:37:24.787Z</time></trkpt><trkpt lat="43.0276431" lon="12.2615165"><ele>205.5</ele><time>2026-04-19T09:37:26.789Z</time></trkpt><trkpt lat="43.0276922" lon="12.2614038"><ele>205.66666666666669</ele><time>2026-04-19T09:37:28.788Z</time></trkpt><trkpt lat="43.0277358" lon="12.2613001"><ele>205.83333333333334</ele><time>2026-04-19T09:37:30.785Z</time></trkpt><trkpt lat="43.0277785" lon="12.2611983"><ele>206.0</ele><time>2026-04-19T09:37:32.791Z</time></trkpt><trkpt lat="43.027816" lon="12.2610865"><ele>206.0</ele><time>2026-04-19T09:37:34.789Z</time></trkpt><trkpt lat="43.0278558" lon="12.2609771"><ele>206.0</ele><time>2026-04-19T09:37:36.808Z</time></trkpt><trkpt lat="43.0278943" lon="12.2608685"><ele>206.0</ele><time>2026-04-19T09:37:38.814Z</time></trkpt><trkpt lat="43.0279407" lon="12.2607665"><ele>206.0</ele><time>2026-04-19T09:37:40.796Z</time></trkpt><trkpt lat="43.0279848" lon="12.2606473"><ele>206.0</ele><time>2026-04-19T09:37:42.797Z</time></trkpt><trkpt lat="43.0280283" lon="12.2605438"><ele>206.0</ele><time>2026-04-19T09:37:44.793Z</time></trkpt><trkpt lat="43.0280906" lon="12.260383"><ele>206.0</ele><time>2026-04-19T09:37:47.799Z</time></trkpt><trkpt lat="43.0281331" lon="12.2602684"><ele>206.0</ele><time>2026-04-19T09:37:49.797Z</time></trkpt><trkpt lat="43.0281696" lon="12.2601567"><ele>206.0</ele><time>2026-04-19T09:37:51.782Z</time></trkpt><trkpt lat="43.0282222" lon="12.2600578"><ele>206.0</ele><time>2026-04-19T09:37:53.805Z</time></trkpt><trkpt lat="43.0282874" lon="12.2599742"><ele>206.50000000000003</ele><time>2026-04-19T09:37:55.796Z</time></trkpt><trkpt lat="43.0283563" lon="12.2599205"><ele>207.0</ele><time>2026-04-19T09:37:57.798Z</time></trkpt><trkpt lat="43.0284264" lon="12.2598837"><ele>207.5</ele><time>2026-04-19T09:37:59.797Z</time></trkpt><trkpt lat="43.0284972" lon="12.2598602"><ele>208.0</ele><time>2026-04-19T09:38:01.795Z</time></trkpt><trkpt lat="43.0285705" lon="12.259832"><ele>208.50000000000003</ele><time>2026-04-19T09:38:03.88Z</time></trkpt><trkpt lat="43.0286479" lon="12.2597743"><ele>209.0</ele><time>2026-04-19T09:38:05.798Z</time></trkpt><trkpt lat="43.0287119" lon="12.2596943"><ele>209.00000000000003</ele><time>2026-04-19T09:38:07.796Z</time></trkpt><trkpt lat="43.0287611" lon="12.2596046"><ele>209.0</ele><time>2026-04-19T09:38:09.797Z</time></trkpt><trkpt lat="43.0288054" lon="12.2595068"><ele>209.0</ele><time>2026-04-19T09:38:11.799Z</time></trkpt><trkpt lat="43.0288511" lon="12.259418"><ele>209.0</ele><time>2026-04-19T09:38:13.797Z</time></trkpt><trkpt lat="43.0288937" lon="12.2593331"><ele>209.00000000000003</ele><time>2026-04-19T09:38:15.795Z</time></trkpt><trkpt lat="43.028941" lon="12.2592707"><ele>209.0</ele><time>2026-04-19T09:38:17.801Z</time></trkpt><trkpt lat="43.0290387" lon="12.2592945"><ele>209.00000000000003</ele><time>2026-04-19T09:38:20.801Z</time></trkpt><trkpt lat="43.0291031" lon="12.25934"><ele>209.0</ele><time>2026-04-19T09:38:22.81Z</time></trkpt><trkpt lat="43.0291588" lon="12.2593975"><ele>209.0</ele><time>2026-04-19T09:38:24.807Z</time></trkpt><trkpt lat="43.0292269" lon="12.2594697"><ele>209.0</ele><time>2026-04-19T09:38:26.808Z</time></trkpt><trkpt lat="43.0292883" lon="12.259545"><ele>209.00000000000003</ele><time>2026-04-19T09:38:28.79Z</time></trkpt><trkpt lat="43.0293504" lon="12.2596239"><ele>209.0</ele><time>2026-04-19T09:38:30.811Z</time></trkpt><trkpt lat="43.0294111" lon="12.2596961"><ele>209.16666666666669</ele><time>2026-04-19T09:38:32.8Z</time></trkpt><trkpt lat="43.0294715" lon="12.2597731"><ele>209.33333333333334</ele><time>2026-04-19T09:38:34.797Z</time></trkpt><trkpt lat="43.029532" lon="12.2598505"><ele>209.5</ele><time>2026-04-19T09:38:36.813Z</time></trkpt><trkpt lat="43.0295985" lon="12.2599279"><ele>209.66666666666669</ele><time>2026-04-19T09:38:38.798Z</time></trkpt><trkpt lat="43.0296691" lon="12.2600003"><ele>209.83333333333334</ele><time>2026-04-19T09:38:40.809Z</time></trkpt><trkpt lat="43.0297394" lon="12.2600738"><ele>210.0</ele><time>2026-04-19T09:38:42.806Z</time></trkpt><trkpt lat="43.029805" lon="12.2601505"><ele>210.0</ele><time>2026-04-19T09:38:44.801Z</time></trkpt><trkpt lat="43.0298702" lon="12.2602233"><ele>210.0</ele><time>2026-04-19T09:38:46.79Z</time></trkpt><trkpt lat="43.0299358" lon="12.2603006"><ele>210.0</ele><time>2026-04-19T09:38:48.805Z</time></trkpt><trkpt lat="43.0300149" lon="12.2603854"><ele>210.0</ele><time>2026-04-19T09:38:50.8Z</time></trkpt><trkpt lat="43.03009" lon="12.2604593"><ele>210.0</ele><time>2026-04-19T09:38:52.796Z</time></trkpt><trkpt lat="43.0301623" lon="12.2605388"><ele>209.4</ele><time>2026-04-19T09:38:54.801Z</time></trkpt><trkpt lat="43.0302392" lon="12.2606201"><ele>208.8</ele><time>2026-04-19T09:38:56.812Z</time></trkpt><trkpt lat="43.0303121" lon="12.260703"><ele>208.2</ele><time>2026-04-19T09:38:58.801Z</time></trkpt><trkpt lat="43.0303878" lon="12.2607783"><ele>207.6</ele><time>2026-04-19T09:39:00.8Z</time></trkpt><trkpt lat="43.030469" lon="12.2608539"><ele>207.0</ele><time>2026-04-19T09:39:02.898Z</time></trkpt><trkpt lat="43.0305463" lon="12.260932"><ele>207.0</ele><time>2026-04-19T09:39:04.797Z</time></trkpt><trkpt lat="43.0306185" lon="12.2610129"><ele>207.0</ele><time>2026-04-19T09:39:06.801Z</time></trkpt><trkpt lat="43.0306868" lon="12.2610918"><ele>207.0</ele><time>2026-04-19T09:39:08.796Z</time></trkpt><trkpt lat="43.0307622" lon="12.2611672"><ele>207.0</ele><time>2026-04-19T09:39:10.795Z</time></trkpt><trkpt lat="43.0308377" lon="12.261247"><ele>207.0</ele><time>2026-04-19T09:39:12.798Z</time></trkpt><trkpt lat="43.0309028" lon="12.2613347"><ele>207.0</ele><time>2026-04-19T09:39:14.795Z</time></trkpt><trkpt lat="43.0309678" lon="12.261421"><ele>207.0</ele><time>2026-04-19T09:39:16.806Z</time></trkpt><trkpt lat="43.0310403" lon="12.2614997"><ele>207.0</ele><time>2026-04-19T09:39:18.798Z</time></trkpt><trkpt lat="43.0311106" lon="12.2615809"><ele>207.0</ele><time>2026-04-19T09:39:20.899Z</time></trkpt><trkpt lat="43.0311877" lon="12.2616566"><ele>207.0</ele><time>2026-04-19T09:39:22.805Z</time></trkpt><trkpt lat="43.031272" lon="12.2617314"><ele>207.0</ele><time>2026-04-19T09:39:24.8Z</time></trkpt><trkpt lat="43.0313443" lon="12.2618118"><ele>207.0</ele><time>2026-04-19T09:39:26.797Z</time></trkpt><trkpt lat="43.0314189" lon="12.2618818"><ele>207.0</ele><time>2026-04-19T09:39:28.798Z</time></trkpt><trkpt lat="43.0315017" lon="12.2619581"><ele>207.0</ele><time>2026-04-19T09:39:30.795Z</time></trkpt><trkpt lat="43.03157" lon="12.2620266"><ele>207.0</ele><time>2026-04-19T09:39:32.797Z</time></trkpt><trkpt lat="43.0316383" lon="12.2621039"><ele>207.0</ele><time>2026-04-19T09:39:34.8Z</time></trkpt><trkpt lat="43.0317296" lon="12.2621867"><ele>207.0</ele><time>2026-04-19T09:39:36.801Z</time></trkpt><trkpt lat="43.0318162" lon="12.2622449"><ele>207.0</ele><time>2026-04-19T09:39:38.796Z</time></trkpt><trkpt lat="43.0318944" lon="12.2622997"><ele>207.0</ele><time>2026-04-19T09:39:40.807Z</time></trkpt><trkpt lat="43.0319673" lon="12.2623698"><ele>207.0</ele><time>2026-04-19T09:39:42.799Z</time></trkpt><trkpt lat="43.0320442" lon="12.2624303"><ele>207.0</ele><time>2026-04-19T09:39:44.792Z</time></trkpt><trkpt lat="43.0321228" lon="12.26249"><ele>207.0</ele><time>2026-04-19T09:39:46.802Z</time></trkpt><trkpt lat="43.0322083" lon="12.2625403"><ele>207.0</ele><time>2026-04-19T09:39:48.799Z</time></trkpt><trkpt lat="43.0322826" lon="12.2626044"><ele>207.0</ele><time>2026-04-19T09:39:50.799Z</time></trkpt><trkpt lat="43.0323588" lon="12.262659"><ele>207.0</ele><time>2026-04-19T09:39:52.797Z</time></trkpt><trkpt lat="43.0324493" lon="12.2627262"><ele>207.33333333333334</ele><time>2026-04-19T09:39:54.802Z</time></trkpt><trkpt lat="43.0325341" lon="12.2627779"><ele>207.66666666666669</ele><time>2026-04-19T09:39:56.909Z</time></trkpt><trkpt lat="43.0326161" lon="12.2628193"><ele>208.0</ele><time>2026-04-19T09:39:58.796Z</time></trkpt><trkpt lat="43.0327105" lon="12.2628571"><ele>208.33333333333334</ele><time>2026-04-19T09:40:00.802Z</time></trkpt><trkpt lat="43.0327879" lon="12.2629036"><ele>208.66666666666669</ele><time>2026-04-19T09:40:02.794Z</time></trkpt><trkpt lat="43.0328617" lon="12.2629422"><ele>209.0</ele><time>2026-04-19T09:40:04.794Z</time></trkpt><trkpt lat="43.0329542" lon="12.2629969"><ele>209.0</ele><time>2026-04-19T09:40:06.8Z</time></trkpt><trkpt lat="43.03304" lon="12.2630316"><ele>209.0</ele><time>2026-04-19T09:40:08.799Z</time></trkpt><trkpt lat="43.0331044" lon="12.2630614"><ele>209.0</ele><time>2026-04-19T09:40:10.799Z</time></trkpt><trkpt lat="43.0331849" lon="12.2630897"><ele>209.0</ele><time>2026-04-19T09:40:12.804Z</time></trkpt><trkpt lat="43.033252" lon="12.2631102"><ele>209.0</ele><time>2026-04-19T09:40:14.793Z</time></trkpt><trkpt lat="43.0333163" lon="12.2631406"><ele>209.0</ele><time>2026-04-19T09:40:16.801Z</time></trkpt><trkpt lat="43.0333768" lon="12.2631725"><ele>209.0</ele><time>2026-04-19T09:40:18.786Z</time></trkpt><trkpt lat="43.0334501" lon="12.2632068"><ele>208.83333333333334</ele><time>2026-04-19T09:40:20.894Z</time></trkpt><trkpt lat="43.0335243" lon="12.2632312"><ele>208.66666666666669</ele><time>2026-04-19T09:40:22.796Z</time></trkpt><trkpt lat="43.0335995" lon="12.263252"><ele>208.5</ele><time>2026-04-19T09:40:24.801Z</time></trkpt><trkpt lat="43.0336787" lon="12.2632669"><ele>208.33333333333331</ele><time>2026-04-19T09:40:26.8Z</time></trkpt><trkpt lat="43.033763" lon="12.2632887"><ele>208.16666666666666</ele><time>2026-04-19T09:40:28.798Z</time></trkpt><trkpt lat="43.0338411" lon="12.2633153"><ele>208.0</ele><time>2026-04-19T09:40:30.798Z</time></trkpt><trkpt lat="43.0339449" lon="12.2633327"><ele>208.0</ele><time>2026-04-19T09:40:32.802Z</time></trkpt><trkpt lat="43.0340371" lon="12.2633448"><ele>208.0</ele><time>2026-04-19T09:40:34.805Z</time></trkpt><trkpt lat="43.0341351" lon="12.2633565"><ele>208.0</ele><time>2026-04-19T09:40:36.804Z</time></trkpt><trkpt lat="43.0342168" lon="12.2633746"><ele>208.0</ele><time>2026-04-19T09:40:38.799Z</time></trkpt><trkpt lat="43.0343116" lon="12.2633893"><ele>208.0</ele><time>2026-04-19T09:40:40.8Z</time></trkpt><trkpt lat="43.0344057" lon="12.2634118"><ele>207.8</ele><time>2026-04-19T09:40:42.798Z</time></trkpt><trkpt lat="43.0344944" lon="12.263432"><ele>207.60000000000002</ele><time>2026-04-19T09:40:44.802Z</time></trkpt><trkpt lat="43.0345888" lon="12.2634523"><ele>207.39999999999998</ele><time>2026-04-19T09:40:46.806Z</time></trkpt><trkpt lat="43.0346803" lon="12.2634628"><ele>207.2</ele><time>2026-04-19T09:40:48.804Z</time></trkpt><trkpt lat="43.0347773" lon="12.2634904"><ele>207.0</ele><time>2026-04-19T09:40:50.894Z</time></trkpt><trkpt lat="43.0348689" lon="12.2634939"><ele>207.0</ele><time>2026-04-19T09:40:52.783Z</time></trkpt><trkpt lat="43.0349675" lon="12.2635081"><ele>207.0</ele><time>2026-04-19T09:40:54.809Z</time></trkpt><trkpt lat="43.035063" lon="12.2635315"><ele>207.0</ele><time>2026-04-19T09:40:56.795Z</time></trkpt><trkpt lat="43.0351439" lon="12.2635521"><ele>207.0</ele><time>2026-04-19T09:40:58.796Z</time></trkpt><trkpt lat="43.0352308" lon="12.2635807"><ele>207.0</ele><time>2026-04-19T09:41:00.804Z</time></trkpt><trkpt lat="43.0353102" lon="12.2636033"><ele>207.0</ele><time>2026-04-19T09:41:02.797Z</time></trkpt><trkpt lat="43.0354015" lon="12.2636117"><ele>207.0</ele><time>2026-04-19T09:41:04.802Z</time></trkpt><trkpt lat="43.0354881" lon="12.2636214"><ele>207.0</ele><time>2026-04-19T09:41:06.798Z</time></trkpt><trkpt lat="43.0355807" lon="12.2636392"><ele>207.0</ele><time>2026-04-19T09:41:08.8Z</time></trkpt><trkpt lat="43.0356787" lon="12.2636643"><ele>207.0</ele><time>2026-04-19T09:41:10.796Z</time></trkpt><trkpt lat="43.0357689" lon="12.2636846"><ele>207.0</ele><time>2026-04-19T09:41:12.794Z</time></trkpt><trkpt lat="43.0358587" lon="12.2636883"><ele>207.39999999999998</ele><time>2026-04-19T09:41:14.808Z</time></trkpt><trkpt lat="43.035946" lon="12.2637026"><ele>207.79999999999998</ele><time>2026-04-19T09:41:16.799Z</time></trkpt><trkpt lat="43.0360396" lon="12.263716"><ele>208.2</ele><time>2026-04-19T09:41:18.802Z</time></trkpt><trkpt lat="43.0361387" lon="12.2637362"><ele>208.6</ele><time>2026-04-19T09:41:20.801Z</time></trkpt><trkpt lat="43.0362387" lon="12.263758"><ele>209.0</ele><time>2026-04-19T09:41:22.8Z</time></trkpt><trkpt lat="43.0363315" lon="12.2637867"><ele>209.0</ele><time>2026-04-19T09:41:24.807Z</time></trkpt><trkpt lat="43.0364216" lon="12.2638039"><ele>209.0</ele><time>2026-04-19T09:41:26.795Z</time></trkpt><trkpt lat="43.036511" lon="12.2638137"><ele>209.0</ele><time>2026-04-19T09:41:28.793Z</time></trkpt><trkpt lat="43.0366058" lon="12.2638339"><ele>209.0</ele><time>2026-04-19T09:41:30.8Z</time></trkpt><trkpt lat="43.0367068" lon="12.2638306"><ele>209.0</ele><time>2026-04-19T09:41:32.788Z</time></trkpt><trkpt lat="43.0367974" lon="12.2638438"><ele>209.2</ele><time>2026-04-19T09:41:34.798Z</time></trkpt><trkpt lat="43.0368822" lon="12.2638652"><ele>209.39999999999998</ele><time>2026-04-19T09:41:36.801Z</time></trkpt><trkpt lat="43.0369755" lon="12.2638901"><ele>209.6</ele><time>2026-04-19T09:41:38.793Z</time></trkpt><trkpt lat="43.0370762" lon="12.263918"><ele>209.8</ele><time>2026-04-19T09:41:40.798Z</time></trkpt><trkpt lat="43.0371688" lon="12.2639357"><ele>210.0</ele><time>2026-04-19T09:41:42.787Z</time></trkpt><trkpt lat="43.0372572" lon="12.2639425"><ele>210.0</ele><time>2026-04-19T09:41:44.799Z</time></trkpt><trkpt lat="43.0373483" lon="12.2639458"><ele>210.0</ele><time>2026-04-19T09:41:46.789Z</time></trkpt><trkpt lat="43.0374375" lon="12.2639632"><ele>210.0</ele><time>2026-04-19T09:41:48.795Z</time></trkpt><trkpt lat="43.0375344" lon="12.2639786"><ele>210.0</ele><time>2026-04-19T09:41:50.805Z</time></trkpt><trkpt lat="43.0376199" lon="12.2640019"><ele>210.0</ele><time>2026-04-19T09:41:52.798Z</time></trkpt><trkpt lat="43.0377198" lon="12.2640183"><ele>209.4</ele><time>2026-04-19T09:41:54.794Z</time></trkpt><trkpt lat="43.0378058" lon="12.2640324"><ele>208.8</ele><time>2026-04-19T09:41:56.788Z</time></trkpt><trkpt lat="43.0378933" lon="12.2640437"><ele>208.2</ele><time>2026-04-19T09:41:58.788Z</time></trkpt><trkpt lat="43.0379892" lon="12.264067"><ele>207.6</ele><time>2026-04-19T09:42:00.792Z</time></trkpt><trkpt lat="43.0380846" lon="12.2640706"><ele>207.0</ele><time>2026-04-19T09:42:02.787Z</time></trkpt><trkpt lat="43.0381714" lon="12.2640824"><ele>207.0</ele><time>2026-04-19T09:42:04.782Z</time></trkpt><trkpt lat="43.0382594" lon="12.2641022"><ele>207.0</ele><time>2026-04-19T09:42:06.783Z</time></trkpt><trkpt lat="43.0383592" lon="12.2641073"><ele>207.0</ele><time>2026-04-19T09:42:08.793Z</time></trkpt><trkpt lat="43.0384537" lon="12.2641075"><ele>207.0</ele><time>2026-04-19T09:42:10.783Z</time></trkpt><trkpt lat="43.0385441" lon="12.2640974"><ele>207.0</ele><time>2026-04-19T09:42:12.793Z</time></trkpt><trkpt lat="43.0386416" lon="12.26409"><ele>207.39999999999998</ele><time>2026-04-19T09:42:14.794Z</time></trkpt><trkpt lat="43.0387386" lon="12.2640805"><ele>207.79999999999998</ele><time>2026-04-19T09:42:16.798Z</time></trkpt><trkpt lat="43.0388284" lon="12.2640802"><ele>208.2</ele><time>2026-04-19T09:42:18.798Z</time></trkpt><trkpt lat="43.0389104" lon="12.2640835"><ele>208.6</ele><time>2026-04-19T09:42:20.794Z</time></trkpt><trkpt lat="43.0390007" lon="12.2640741"><ele>209.0</ele><time>2026-04-19T09:42:22.8Z</time></trkpt><trkpt lat="43.0390992" lon="12.2640567"><ele>208.79999999999998</ele><time>2026-04-19T09:42:24.8Z</time></trkpt><trkpt lat="43.0391955" lon="12.2640396"><ele>208.6</ele><time>2026-04-19T09:42:26.803Z</time></trkpt><trkpt lat="43.0392826" lon="12.2640159"><ele>208.4</ele><time>2026-04-19T09:42:28.8Z</time></trkpt><trkpt lat="43.0393716" lon="12.2639956"><ele>208.2</ele><time>2026-04-19T09:42:30.796Z</time></trkpt><trkpt lat="43.0394674" lon="12.2639747"><ele>208.0</ele><time>2026-04-19T09:42:32.797Z</time></trkpt><trkpt lat="43.0395635" lon="12.2639477"><ele>208.2</ele><time>2026-04-19T09:42:34.8Z</time></trkpt><trkpt lat="43.039657" lon="12.2639195"><ele>208.4</ele><time>2026-04-19T09:42:36.799Z</time></trkpt><trkpt lat="43.0397495" lon="12.2638951"><ele>208.6</ele><time>2026-04-19T09:42:38.798Z</time></trkpt><trkpt lat="43.0398479" lon="12.2638706"><ele>208.79999999999998</ele><time>2026-04-19T09:42:40.803Z</time></trkpt><trkpt lat="43.0399314" lon="12.2638313"><ele>209.0</ele><time>2026-04-19T09:42:42.796Z</time></trkpt><trkpt lat="43.0400188" lon="12.2637918"><ele>209.0</ele><time>2026-04-19T09:42:44.785Z</time></trkpt><trkpt lat="43.0401038" lon="12.263771"><ele>209.0</ele><time>2026-04-19T09:42:46.8Z</time></trkpt><trkpt lat="43.040184" lon="12.2637288"><ele>209.0</ele><time>2026-04-19T09:42:48.791Z</time></trkpt><trkpt lat="43.0402702" lon="12.2636889"><ele>209.0</ele><time>2026-04-19T09:42:50.798Z</time></trkpt><trkpt lat="43.0403565" lon="12.2636494"><ele>209.0</ele><time>2026-04-19T09:42:52.784Z</time></trkpt><trkpt lat="43.0404948" lon="12.2635806"><ele>209.0</ele><time>2026-04-19T09:42:55.801Z</time></trkpt><trkpt lat="43.0405791" lon="12.2635311"><ele>209.0</ele><time>2026-04-19T09:42:57.796Z</time></trkpt><trkpt lat="43.0406665" lon="12.2634769"><ele>209.0</ele><time>2026-04-19T09:42:59.897Z</time></trkpt><trkpt lat="43.0407537" lon="12.2634205"><ele>209.0</ele><time>2026-04-19T09:43:01.798Z</time></trkpt><trkpt lat="43.0408392" lon="12.2633581"><ele>209.0</ele><time>2026-04-19T09:43:03.793Z</time></trkpt><trkpt lat="43.04093" lon="12.263297"><ele>209.2</ele><time>2026-04-19T09:43:05.893Z</time></trkpt><trkpt lat="43.0410105" lon="12.2632385"><ele>209.39999999999998</ele><time>2026-04-19T09:43:07.795Z</time></trkpt><trkpt lat="43.0410926" lon="12.2631794"><ele>209.6</ele><time>2026-04-19T09:43:09.795Z</time></trkpt><trkpt lat="43.0411642" lon="12.2630949"><ele>209.8</ele><time>2026-04-19T09:43:11.895Z</time></trkpt><trkpt lat="43.0412447" lon="12.2630407"><ele>210.0</ele><time>2026-04-19T09:43:13.795Z</time></trkpt><trkpt lat="43.04133" lon="12.2629888"><ele>210.16666666666666</ele><time>2026-04-19T09:43:15.801Z</time></trkpt><trkpt lat="43.0414021" lon="12.2629299"><ele>210.33333333333331</ele><time>2026-04-19T09:43:17.803Z</time></trkpt><trkpt lat="43.0414862" lon="12.2628736"><ele>210.5</ele><time>2026-04-19T09:43:19.805Z</time></trkpt><trkpt lat="43.0415637" lon="12.2628145"><ele>210.66666666666666</ele><time>2026-04-19T09:43:21.809Z</time></trkpt><trkpt lat="43.0416352" lon="12.2627443"><ele>210.83333333333331</ele><time>2026-04-19T09:43:23.803Z</time></trkpt><trkpt lat="43.0417118" lon="12.2626882"><ele>211.0</ele><time>2026-04-19T09:43:25.803Z</time></trkpt><trkpt lat="43.0417952" lon="12.2626389"><ele>211.0</ele><time>2026-04-19T09:43:27.802Z</time></trkpt><trkpt lat="43.041878" lon="12.2625836"><ele>211.0</ele><time>2026-04-19T09:43:29.804Z</time></trkpt><trkpt lat="43.0419617" lon="12.262524"><ele>211.0</ele><time>2026-04-19T09:43:31.807Z</time></trkpt><trkpt lat="43.0420474" lon="12.2624622"><ele>211.0</ele><time>2026-04-19T09:43:33.802Z</time></trkpt><trkpt lat="43.0421333" lon="12.2623976"><ele>211.0</ele><time>2026-04-19T09:43:35.804Z</time></trkpt><trkpt lat="43.042219" lon="12.2623369"><ele>211.16666666666666</ele><time>2026-04-19T09:43:37.808Z</time></trkpt><trkpt lat="43.0422993" lon="12.2622757"><ele>211.33333333333331</ele><time>2026-04-19T09:43:39.803Z</time></trkpt><trkpt lat="43.0423806" lon="12.2622201"><ele>211.5</ele><time>2026-04-19T09:43:41.787Z</time></trkpt><trkpt lat="43.0424602" lon="12.262161"><ele>211.66666666666669</ele><time>2026-04-19T09:43:43.802Z</time></trkpt><trkpt lat="43.042537" lon="12.2621044"><ele>211.83333333333334</ele><time>2026-04-19T09:43:45.807Z</time></trkpt><trkpt lat="43.0426153" lon="12.2620477"><ele>212.0</ele><time>2026-04-19T09:43:47.806Z</time></trkpt><trkpt lat="43.0426905" lon="12.2619968"><ele>212.0</ele><time>2026-04-19T09:43:49.812Z</time></trkpt><trkpt lat="43.0427541" lon="12.2619613"><ele>212.0</ele><time>2026-04-19T09:43:51.811Z</time></trkpt><trkpt lat="43.0428168" lon="12.2619107"><ele>212.0</ele><time>2026-04-19T09:43:53.808Z</time></trkpt><trkpt lat="43.0428796" lon="12.2618718"><ele>212.0</ele><time>2026-04-19T09:43:55.805Z</time></trkpt><trkpt lat="43.0429661" lon="12.2618916"><ele>212.0</ele><time>2026-04-19T09:43:58.794Z</time></trkpt><trkpt lat="43.043034" lon="12.2619355"><ele>212.0</ele><time>2026-04-19T09:44:00.808Z</time></trkpt><trkpt lat="43.0430928" lon="12.2619899"><ele>212.0</ele><time>2026-04-19T09:44:02.802Z</time></trkpt><trkpt lat="43.0431485" lon="12.262057"><ele>212.0</ele><time>2026-04-19T09:44:04.88Z</time></trkpt><trkpt lat="43.043213" lon="12.2621291"><ele>212.0</ele><time>2026-04-19T09:44:06.805Z</time></trkpt><trkpt lat="43.0432829" lon="12.2622127"><ele>212.0</ele><time>2026-04-19T09:44:08.805Z</time></trkpt><trkpt lat="43.043352" lon="12.2622916"><ele>212.0</ele><time>2026-04-19T09:44:10.8Z</time></trkpt><trkpt lat="43.0434362" lon="12.2623571"><ele>212.0</ele><time>2026-04-19T09:44:12.797Z</time></trkpt><trkpt lat="43.0435182" lon="12.2624055"><ele>211.83333333333334</ele><time>2026-04-19T09:44:14.8Z</time></trkpt><trkpt lat="43.0436135" lon="12.2624653"><ele>211.66666666666669</ele><time>2026-04-19T09:44:16.893Z</time></trkpt><trkpt lat="43.04371" lon="12.2625004"><ele>211.5</ele><time>2026-04-19T09:44:18.8Z</time></trkpt><trkpt lat="43.0437868" lon="12.2625379"><ele>211.33333333333331</ele><time>2026-04-19T09:44:20.796Z</time></trkpt><trkpt lat="43.0438539" lon="12.2625798"><ele>211.16666666666666</ele><time>2026-04-19T09:44:22.794Z</time></trkpt><trkpt lat="43.0439238" lon="12.2626283"><ele>211.0</ele><time>2026-04-19T09:44:24.798Z</time></trkpt><trkpt lat="43.0439913" lon="12.2626982"><ele>210.99999999999997</ele><time>2026-04-19T09:44:26.795Z</time></trkpt><trkpt lat="43.0440506" lon="12.2627738"><ele>211.0</ele><time>2026-04-19T09:44:28.801Z</time></trkpt><trkpt lat="43.0441108" lon="12.2628489"><ele>211.0</ele><time>2026-04-19T09:44:30.799Z</time></trkpt><trkpt lat="43.044158" lon="12.2629267"><ele>211.0</ele><time>2026-04-19T09:44:32.801Z</time></trkpt><trkpt lat="43.0442048" lon="12.263007"><ele>210.99999999999997</ele><time>2026-04-19T09:44:34.798Z</time></trkpt><trkpt lat="43.0442467" lon="12.2630902"><ele>211.0</ele><time>2026-04-19T09:44:36.794Z</time></trkpt><trkpt lat="43.044296" lon="12.2631759"><ele>211.0</ele><time>2026-04-19T09:44:38.794Z</time></trkpt><trkpt lat="43.0443526" lon="12.2632436"><ele>211.0</ele><time>2026-04-19T09:44:40.899Z</time></trkpt><trkpt lat="43.044408" lon="12.2633081"><ele>211.0</ele><time>2026-04-19T09:44:42.805Z</time></trkpt><trkpt lat="43.0444573" lon="12.2633632"><ele>211.0</ele><time>2026-04-19T09:44:44.801Z</time></trkpt><trkpt lat="43.0444997" lon="12.2634304"><ele>211.0</ele><time>2026-04-19T09:44:46.787Z</time></trkpt><trkpt lat="43.0445353" lon="12.2635164"><ele>211.0</ele><time>2026-04-19T09:44:48.798Z</time></trkpt><trkpt lat="43.0445683" lon="12.2636088"><ele>211.0</ele><time>2026-04-19T09:44:50.785Z</time></trkpt><trkpt lat="43.0445727" lon="12.2637159"><ele>210.99999999999997</ele><time>2026-04-19T09:44:52.795Z</time></trkpt><trkpt lat="43.0445535" lon="12.2638017"><ele>211.0</ele><time>2026-04-19T09:44:54.797Z</time></trkpt><trkpt lat="43.0445316" lon="12.2638854"><ele>211.0</ele><time>2026-04-19T09:44:56.798Z</time></trkpt><trkpt lat="43.0445094" lon="12.2639778"><ele>211.0</ele><time>2026-04-19T09:44:58.794Z</time></trkpt><trkpt lat="43.0444861" lon="12.2640957"><ele>210.99999999999997</ele><time>2026-04-19T09:45:00.796Z</time></trkpt><trkpt lat="43.044531" lon="12.2642069"><ele>211.0</ele><time>2026-04-19T09:45:02.797Z</time></trkpt><trkpt lat="43.0446072" lon="12.2642145"><ele>210.8</ele><time>2026-04-19T09:45:04.796Z</time></trkpt><trkpt lat="43.0446825" lon="12.2642378"><ele>210.60000000000002</ele><time>2026-04-19T09:45:06.792Z</time></trkpt><trkpt lat="43.0447404" lon="12.2643462"><ele>210.4</ele><time>2026-04-19T09:45:08.796Z</time></trkpt><trkpt lat="43.0447692" lon="12.2644646"><ele>210.2</ele><time>2026-04-19T09:45:10.797Z</time></trkpt><trkpt lat="43.0448174" lon="12.2645675"><ele>210.0</ele><time>2026-04-19T09:45:12.795Z</time></trkpt><trkpt lat="43.044872" lon="12.2646754"><ele>210.0</ele><time>2026-04-19T09:45:14.795Z</time></trkpt><trkpt lat="43.044925" lon="12.2647767"><ele>210.0</ele><time>2026-04-19T09:45:16.793Z</time></trkpt><trkpt lat="43.0449682" lon="12.2648837"><ele>210.0</ele><time>2026-04-19T09:45:18.793Z</time></trkpt><trkpt lat="43.0450114" lon="12.2649866"><ele>210.0</ele><time>2026-04-19T09:45:20.796Z</time></trkpt><trkpt lat="43.0450651" lon="12.2650969"><ele>210.0</ele><time>2026-04-19T09:45:22.796Z</time></trkpt><trkpt lat="43.0451104" lon="12.2652004"><ele>210.0</ele><time>2026-04-19T09:45:24.793Z</time></trkpt><trkpt lat="43.0451658" lon="12.2653033"><ele>210.0</ele><time>2026-04-19T09:45:26.797Z</time></trkpt><trkpt lat="43.0452056" lon="12.2654059"><ele>210.0</ele><time>2026-04-19T09:45:28.794Z</time></trkpt><trkpt lat="43.0452581" lon="12.265486"><ele>210.0</ele><time>2026-04-19T09:45:30.801Z</time></trkpt><trkpt lat="43.0453305" lon="12.2654892"><ele>210.0</ele><time>2026-04-19T09:45:32.794Z</time></trkpt><trkpt lat="43.0454008" lon="12.2654274"><ele>210.0</ele><time>2026-04-19T09:45:34.794Z</time></trkpt><trkpt lat="43.0454756" lon="12.2653862"><ele>210.0</ele><time>2026-04-19T09:45:36.796Z</time></trkpt><trkpt lat="43.0455494" lon="12.26533"><ele>210.0</ele><time>2026-04-19T09:45:38.805Z</time></trkpt><trkpt lat="43.045644" lon="12.2652811"><ele>210.0</ele><time>2026-04-19T09:45:40.802Z</time></trkpt><trkpt lat="43.0457232" lon="12.2652367"><ele>210.0</ele><time>2026-04-19T09:45:42.792Z</time></trkpt><trkpt lat="43.0458132" lon="12.2651986"><ele>210.0</ele><time>2026-04-19T09:45:44.795Z</time></trkpt><trkpt lat="43.0458914" lon="12.265179"><ele>210.0</ele><time>2026-04-19T09:45:46.813Z</time></trkpt><trkpt lat="43.0459766" lon="12.2651525"><ele>210.0</ele><time>2026-04-19T09:45:48.816Z</time></trkpt><trkpt lat="43.0460662" lon="12.265129"><ele>210.0</ele><time>2026-04-19T09:45:50.802Z</time></trkpt><trkpt lat="43.0461548" lon="12.265111"><ele>210.0</ele><time>2026-04-19T09:45:52.805Z</time></trkpt><trkpt lat="43.0462524" lon="12.2650931"><ele>210.0</ele><time>2026-04-19T09:45:54.804Z</time></trkpt><trkpt lat="43.0463394" lon="12.2650987"><ele>210.0</ele><time>2026-04-19T09:45:56.793Z</time></trkpt><trkpt lat="43.0464353" lon="12.2651065"><ele>210.0</ele><time>2026-04-19T09:45:58.797Z</time></trkpt><trkpt lat="43.0465234" lon="12.2651268"><ele>210.0</ele><time>2026-04-19T09:46:00.797Z</time></trkpt><trkpt lat="43.0466128" lon="12.2651581"><ele>210.0</ele><time>2026-04-19T09:46:02.798Z</time></trkpt><trkpt lat="43.0467048" lon="12.2651863"><ele>210.0</ele><time>2026-04-19T09:46:04.814Z</time></trkpt><trkpt lat="43.0467987" lon="12.2652103"><ele>210.0</ele><time>2026-04-19T09:46:06.802Z</time></trkpt><trkpt lat="43.0468912" lon="12.2652248"><ele>209.66666666666666</ele><time>2026-04-19T09:46:08.796Z</time></trkpt><trkpt lat="43.0469941" lon="12.2652375"><ele>209.33333333333331</ele><time>2026-04-19T09:46:10.799Z</time></trkpt><trkpt lat="43.0470893" lon="12.2652376"><ele>209.0</ele><time>2026-04-19T09:46:12.805Z</time></trkpt><trkpt lat="43.047172" lon="12.2652447"><ele>208.66666666666666</ele><time>2026-04-19T09:46:14.799Z</time></trkpt><trkpt lat="43.0472554" lon="12.26525"><ele>208.33333333333331</ele><time>2026-04-19T09:46:16.797Z</time></trkpt><trkpt lat="43.0473306" lon="12.2652522"><ele>208.0</ele><time>2026-04-19T09:46:18.795Z</time></trkpt><trkpt lat="43.0474054" lon="12.2652491"><ele>207.99999999999997</ele><time>2026-04-19T09:46:20.796Z</time></trkpt><trkpt lat="43.0474944" lon="12.26524"><ele>208.0</ele><time>2026-04-19T09:46:22.802Z</time></trkpt><trkpt lat="43.0475875" lon="12.2652324"><ele>208.0</ele><time>2026-04-19T09:46:24.795Z</time></trkpt><trkpt lat="43.0476711" lon="12.265212"><ele>208.0</ele><time>2026-04-19T09:46:26.794Z</time></trkpt><trkpt lat="43.0477503" lon="12.2651905"><ele>207.99999999999997</ele><time>2026-04-19T09:46:28.792Z</time></trkpt><trkpt lat="43.0478409" lon="12.2651515"><ele>208.0</ele><time>2026-04-19T09:46:30.793Z</time></trkpt><trkpt lat="43.0479274" lon="12.2650966"><ele>208.0</ele><time>2026-04-19T09:46:32.793Z</time></trkpt><trkpt lat="43.0480086" lon="12.2650311"><ele>208.0</ele><time>2026-04-19T09:46:34.796Z</time></trkpt><trkpt lat="43.0480849" lon="12.2649629"><ele>208.0</ele><time>2026-04-19T09:46:36.782Z</time></trkpt><trkpt lat="43.0481653" lon="12.264906"><ele>208.0</ele><time>2026-04-19T09:46:38.799Z</time></trkpt><trkpt lat="43.0482927" lon="12.264846"><ele>208.0</ele><time>2026-04-19T09:46:41.807Z</time></trkpt><trkpt lat="43.0483928" lon="12.2648063"><ele>208.4</ele><time>2026-04-19T09:46:43.785Z</time></trkpt><trkpt lat="43.0484748" lon="12.2647905"><ele>208.8</ele><time>2026-04-19T09:46:45.788Z</time></trkpt><trkpt lat="43.0485693" lon="12.2647673"><ele>209.2</ele><time>2026-04-19T09:46:47.782Z</time></trkpt><trkpt lat="43.04866" lon="12.264768"><ele>209.6</ele><time>2026-04-19T09:46:49.784Z</time></trkpt><trkpt lat="43.0487617" lon="12.2647639"><ele>210.0</ele><time>2026-04-19T09:46:51.784Z</time></trkpt><trkpt lat="43.0488528" lon="12.2647542"><ele>210.0</ele><time>2026-04-19T09:46:53.785Z</time></trkpt><trkpt lat="43.0489518" lon="12.2647406"><ele>210.0</ele><time>2026-04-19T09:46:55.787Z</time></trkpt><trkpt lat="43.0490453" lon="12.2647071"><ele>210.0</ele><time>2026-04-19T09:46:57.791Z</time></trkpt><trkpt lat="43.0491311" lon="12.264669"><ele>210.0</ele><time>2026-04-19T09:46:59.796Z</time></trkpt><trkpt lat="43.0492148" lon="12.26461"><ele>210.0</ele><time>2026-04-19T09:47:01.88Z</time></trkpt><trkpt lat="43.0492955" lon="12.2645654"><ele>210.2</ele><time>2026-04-19T09:47:03.803Z</time></trkpt><trkpt lat="43.0493892" lon="12.2645175"><ele>210.4</ele><time>2026-04-19T09:47:05.796Z</time></trkpt><trkpt lat="43.0494783" lon="12.264492"><ele>210.60000000000002</ele><time>2026-04-19T09:47:07.796Z</time></trkpt><trkpt lat="43.0495722" lon="12.2644665"><ele>210.8</ele><time>2026-04-19T09:47:09.797Z</time></trkpt><trkpt lat="43.0496747" lon="12.2644599"><ele>211.0</ele><time>2026-04-19T09:47:11.793Z</time></trkpt><trkpt lat="43.0497732" lon="12.2644556"><ele>211.0</ele><time>2026-04-19T09:47:13.798Z</time></trkpt><trkpt lat="43.0498585" lon="12.2644561"><ele>211.0</ele><time>2026-04-19T09:47:15.795Z</time></trkpt><trkpt lat="43.0499516" lon="12.2644702"><ele>211.0</ele><time>2026-04-19T09:47:17.798Z</time></trkpt><trkpt lat="43.0500501" lon="12.2644823"><ele>211.0</ele><time>2026-04-19T09:47:19.801Z</time></trkpt><trkpt lat="43.0501398" lon="12.2644874"><ele>211.0</ele><time>2026-04-19T09:47:21.797Z</time></trkpt><trkpt lat="43.0502276" lon="12.2644893"><ele>210.8</ele><time>2026-04-19T09:47:23.799Z</time></trkpt><trkpt lat="43.0503216" lon="12.2644831"><ele>210.60000000000002</ele><time>2026-04-19T09:47:25.795Z</time></trkpt><trkpt lat="43.0504218" lon="12.2644866"><ele>210.4</ele><time>2026-04-19T09:47:27.799Z</time></trkpt><trkpt lat="43.0505138" lon="12.2645053"><ele>210.2</ele><time>2026-04-19T09:47:29.793Z</time></trkpt><trkpt lat="43.0505998" lon="12.2645253"><ele>210.0</ele><time>2026-04-19T09:47:31.799Z</time></trkpt><trkpt lat="43.0506798" lon="12.2645643"><ele>210.0</ele><time>2026-04-19T09:47:33.798Z</time></trkpt><trkpt lat="43.0507622" lon="12.2646287"><ele>210.0</ele><time>2026-04-19T09:47:35.797Z</time></trkpt><trkpt lat="43.0508385" lon="12.2647022"><ele>210.0</ele><time>2026-04-19T09:47:37.803Z</time></trkpt><trkpt lat="43.0509084" lon="12.2647836"><ele>210.0</ele><time>2026-04-19T09:47:39.797Z</time></trkpt><trkpt lat="43.0509984" lon="12.2648617"><ele>210.0</ele><time>2026-04-19T09:47:41.796Z</time></trkpt><trkpt lat="43.0510864" lon="12.2649483"><ele>210.4</ele><time>2026-04-19T09:47:43.797Z</time></trkpt><trkpt lat="43.0511763" lon="12.2650268"><ele>210.8</ele><time>2026-04-19T09:47:45.797Z</time></trkpt><trkpt lat="43.051253" lon="12.265097"><ele>211.2</ele><time>2026-04-19T09:47:47.803Z</time></trkpt><trkpt lat="43.0513276" lon="12.2651692"><ele>211.6</ele><time>2026-04-19T09:47:49.798Z</time></trkpt><trkpt lat="43.0513997" lon="12.2652521"><ele>212.0</ele><time>2026-04-19T09:47:51.794Z</time></trkpt><trkpt lat="43.0514698" lon="12.265343"><ele>212.0</ele><time>2026-04-19T09:47:53.795Z</time></trkpt><trkpt lat="43.051523" lon="12.2654436"><ele>212.0</ele><time>2026-04-19T09:47:55.807Z</time></trkpt><trkpt lat="43.0515616" lon="12.2655676"><ele>212.0</ele><time>2026-04-19T09:47:57.797Z</time></trkpt><trkpt lat="43.0515876" lon="12.2656897"><ele>212.0</ele><time>2026-04-19T09:47:59.794Z</time></trkpt><trkpt lat="43.0516258" lon="12.2658094"><ele>212.0</ele><time>2026-04-19T09:48:01.796Z</time></trkpt><trkpt lat="43.0516548" lon="12.2659378"><ele>211.8</ele><time>2026-04-19T09:48:03.793Z</time></trkpt><trkpt lat="43.0516891" lon="12.2660676"><ele>211.6</ele><time>2026-04-19T09:48:05.797Z</time></trkpt><trkpt lat="43.0517167" lon="12.2661923"><ele>211.4</ele><time>2026-04-19T09:48:07.794Z</time></trkpt><trkpt lat="43.0517404" lon="12.2663275"><ele>211.20000000000002</ele><time>2026-04-19T09:48:09.797Z</time></trkpt><trkpt lat="43.051767" lon="12.2664492"><ele>211.0</ele><time>2026-04-19T09:48:11.795Z</time></trkpt><trkpt lat="43.0517934" lon="12.2665799"><ele>210.8</ele><time>2026-04-19T09:48:13.793Z</time></trkpt><trkpt lat="43.0518225" lon="12.2666997"><ele>210.60000000000002</ele><time>2026-04-19T09:48:15.796Z</time></trkpt><trkpt lat="43.0518466" lon="12.2668259"><ele>210.4</ele><time>2026-04-19T09:48:17.803Z</time></trkpt><trkpt lat="43.0518709" lon="12.2669541"><ele>210.2</ele><time>2026-04-19T09:48:19.799Z</time></trkpt><trkpt lat="43.051898" lon="12.2670794"><ele>210.0</ele><time>2026-04-19T09:48:21.797Z</time></trkpt><trkpt lat="43.0519259" lon="12.2672011"><ele>209.6</ele><time>2026-04-19T09:48:23.795Z</time></trkpt><trkpt lat="43.051959" lon="12.2673223"><ele>209.2</ele><time>2026-04-19T09:48:25.805Z</time></trkpt><trkpt lat="43.0519911" lon="12.2674424"><ele>208.8</ele><time>2026-04-19T09:48:27.794Z</time></trkpt><trkpt lat="43.0520374" lon="12.2675449"><ele>208.4</ele><time>2026-04-19T09:48:29.8Z</time></trkpt><trkpt lat="43.0521205" lon="12.2676357"><ele>208.0</ele><time>2026-04-19T09:48:31.799Z</time></trkpt><trkpt lat="43.0522032" lon="12.2676638"><ele>208.0</ele><time>2026-04-19T09:48:33.795Z</time></trkpt><trkpt lat="43.0522846" lon="12.2676365"><ele>208.0</ele><time>2026-04-19T09:48:35.789Z</time></trkpt><trkpt lat="43.0523708" lon="12.26758"><ele>208.0</ele><time>2026-04-19T09:48:37.803Z</time></trkpt><trkpt lat="43.0524693" lon="12.2675421"><ele>208.0</ele><time>2026-04-19T09:48:39.792Z</time></trkpt><trkpt lat="43.0525666" lon="12.2674966"><ele>208.0</ele><time>2026-04-19T09:48:41.794Z</time></trkpt><trkpt lat="43.0526554" lon="12.2674574"><ele>208.2</ele><time>2026-04-19T09:48:43.799Z</time></trkpt><trkpt lat="43.0527485" lon="12.2674081"><ele>208.4</ele><time>2026-04-19T09:48:45.801Z</time></trkpt><trkpt lat="43.0528414" lon="12.2673546"><ele>208.6</ele><time>2026-04-19T09:48:47.795Z</time></trkpt><trkpt lat="43.0529362" lon="12.2673151"><ele>208.79999999999998</ele><time>2026-04-19T09:48:49.795Z</time></trkpt><trkpt lat="43.0530209" lon="12.2672822"><ele>209.0</ele><time>2026-04-19T09:48:51.801Z</time></trkpt><trkpt lat="43.0531098" lon="12.2672375"><ele>209.2</ele><time>2026-04-19T09:48:53.797Z</time></trkpt><trkpt lat="43.053198" lon="12.267187"><ele>209.39999999999998</ele><time>2026-04-19T09:48:55.795Z</time></trkpt><trkpt lat="43.0532765" lon="12.2671269"><ele>209.6</ele><time>2026-04-19T09:48:57.8Z</time></trkpt><trkpt lat="43.0533657" lon="12.2670581"><ele>209.8</ele><time>2026-04-19T09:48:59.796Z</time></trkpt><trkpt lat="43.0534487" lon="12.2669841"><ele>210.0</ele><time>2026-04-19T09:49:01.797Z</time></trkpt><trkpt lat="43.0535222" lon="12.2669266"><ele>210.0</ele><time>2026-04-19T09:49:03.795Z</time></trkpt><trkpt lat="43.0536206" lon="12.2669268"><ele>210.0</ele><time>2026-04-19T09:49:05.799Z</time></trkpt><trkpt lat="43.0537586" lon="12.2669799"><ele>210.0</ele><time>2026-04-19T09:49:08.783Z</time></trkpt><trkpt lat="43.0538584" lon="12.2670174"><ele>210.0</ele><time>2026-04-19T09:49:10.789Z</time></trkpt><trkpt lat="43.0539394" lon="12.2670632"><ele>210.0</ele><time>2026-04-19T09:49:12.794Z</time></trkpt><trkpt lat="43.0540268" lon="12.2671103"><ele>210.0</ele><time>2026-04-19T09:49:14.803Z</time></trkpt><trkpt lat="43.0541024" lon="12.2671475"><ele>210.0</ele><time>2026-04-19T09:49:16.815Z</time></trkpt><trkpt lat="43.054186" lon="12.2671858"><ele>210.0</ele><time>2026-04-19T09:49:18.798Z</time></trkpt><trkpt lat="43.0542471" lon="12.2672201"><ele>210.0</ele><time>2026-04-19T09:49:20.797Z</time></trkpt><trkpt lat="43.0542558" lon="12.2673308"><ele>210.0</ele><time>2026-04-19T09:49:25.801Z</time></trkpt><trkpt lat="43.0542224" lon="12.267414"><ele>210.0</ele><time>2026-04-19T09:49:27.797Z</time></trkpt><trkpt lat="43.0541836" lon="12.2674972"><ele>209.83333333333334</ele><time>2026-04-19T09:49:29.799Z</time></trkpt><trkpt lat="43.054132" lon="12.2675777"><ele>209.66666666666669</ele><time>2026-04-19T09:49:31.804Z</time></trkpt><trkpt lat="43.0540814" lon="12.2676556"><ele>209.5</ele><time>2026-04-19T09:49:33.796Z</time></trkpt><trkpt lat="43.0540318" lon="12.2677434"><ele>209.33333333333334</ele><time>2026-04-19T09:49:35.792Z</time></trkpt><trkpt lat="43.0539823" lon="12.2678389"><ele>209.16666666666669</ele><time>2026-04-19T09:49:37.796Z</time></trkpt><trkpt lat="43.0539263" lon="12.2679276"><ele>209.0</ele><time>2026-04-19T09:49:39.815Z</time></trkpt><trkpt lat="43.0538661" lon="12.2680257"><ele>209.0</ele><time>2026-04-19T09:49:41.797Z</time></trkpt><trkpt lat="43.053822" lon="12.268142"><ele>209.0</ele><time>2026-04-19T09:49:43.801Z</time></trkpt><trkpt lat="43.0537703" lon="12.2682534"><ele>209.0</ele><time>2026-04-19T09:49:45.795Z</time></trkpt><trkpt lat="43.053715" lon="12.2683546"><ele>209.0</ele><time>2026-04-19T09:49:47.799Z</time></trkpt><trkpt lat="43.0536536" lon="12.2684642"><ele>209.0</ele><time>2026-04-19T09:49:49.798Z</time></trkpt><trkpt lat="43.0535942" lon="12.2685756"><ele>209.0</ele><time>2026-04-19T09:49:51.796Z</time></trkpt><trkpt lat="43.0535362" lon="12.2686858"><ele>209.0</ele><time>2026-04-19T09:49:53.794Z</time></trkpt><trkpt lat="43.053473" lon="12.2688006"><ele>209.0</ele><time>2026-04-19T09:49:55.796Z</time></trkpt><trkpt lat="43.0534133" lon="12.2689156"><ele>209.0</ele><time>2026-04-19T09:49:57.795Z</time></trkpt><trkpt lat="43.0533497" lon="12.2690362"><ele>209.0</ele><time>2026-04-19T09:49:59.795Z</time></trkpt><trkpt lat="43.0532678" lon="12.2692094"><ele>209.2</ele><time>2026-04-19T09:50:02.795Z</time></trkpt><trkpt lat="43.0532083" lon="12.2693197"><ele>209.39999999999998</ele><time>2026-04-19T09:50:04.797Z</time></trkpt><trkpt lat="43.0531529" lon="12.2694371"><ele>209.6</ele><time>2026-04-19T09:50:06.793Z</time></trkpt><trkpt lat="43.0530925" lon="12.2695519"><ele>209.8</ele><time>2026-04-19T09:50:08.794Z</time></trkpt><trkpt lat="43.0530381" lon="12.269661"><ele>210.0</ele><time>2026-04-19T09:50:10.8Z</time></trkpt><trkpt lat="43.0529752" lon="12.2697745"><ele>210.0</ele><time>2026-04-19T09:50:12.789Z</time></trkpt><trkpt lat="43.0529162" lon="12.269896"><ele>210.0</ele><time>2026-04-19T09:50:14.797Z</time></trkpt><trkpt lat="43.0528639" lon="12.2700077"><ele>210.0</ele><time>2026-04-19T09:50:16.791Z</time></trkpt><trkpt lat="43.052807" lon="12.270111"><ele>210.0</ele><time>2026-04-19T09:50:18.782Z</time></trkpt><trkpt lat="43.0527546" lon="12.2702308"><ele>210.0</ele><time>2026-04-19T09:50:20.791Z</time></trkpt><trkpt lat="43.0526851" lon="12.2703282"><ele>210.0</ele><time>2026-04-19T09:50:22.795Z</time></trkpt><trkpt lat="43.0526201" lon="12.2704379"><ele>210.0</ele><time>2026-04-19T09:50:24.794Z</time></trkpt><trkpt lat="43.0525687" lon="12.2705537"><ele>210.0</ele><time>2026-04-19T09:50:26.791Z</time></trkpt><trkpt lat="43.0525074" lon="12.270667"><ele>210.0</ele><time>2026-04-19T09:50:28.794Z</time></trkpt><trkpt lat="43.0524463" lon="12.2707697"><ele>210.0</ele><time>2026-04-19T09:50:30.793Z</time></trkpt><trkpt lat="43.0523882" lon="12.2708819"><ele>209.6</ele><time>2026-04-19T09:50:32.794Z</time></trkpt><trkpt lat="43.0523225" lon="12.2709897"><ele>209.2</ele><time>2026-04-19T09:50:34.801Z</time></trkpt><trkpt lat="43.0522604" lon="12.2711217"><ele>208.8</ele><time>2026-04-19T09:50:36.791Z</time></trkpt><trkpt lat="43.0521989" lon="12.2712281"><ele>208.4</ele><time>2026-04-19T09:50:38.801Z</time></trkpt><trkpt lat="43.0521494" lon="12.2713301"><ele>208.0</ele><time>2026-04-19T09:50:40.808Z</time></trkpt><trkpt lat="43.0520904" lon="12.2714363"><ele>208.0</ele><time>2026-04-19T09:50:42.795Z</time></trkpt><trkpt lat="43.0520298" lon="12.2715461"><ele>208.0</ele><time>2026-04-19T09:50:44.793Z</time></trkpt><trkpt lat="43.0519714" lon="12.2716519"><ele>208.0</ele><time>2026-04-19T09:50:46.782Z</time></trkpt><trkpt lat="43.0519135" lon="12.2717649"><ele>208.0</ele><time>2026-04-19T09:50:48.791Z</time></trkpt><trkpt lat="43.0518518" lon="12.2718703"><ele>208.0</ele><time>2026-04-19T09:50:50.799Z</time></trkpt><trkpt lat="43.0517905" lon="12.2719899"><ele>208.0</ele><time>2026-04-19T09:50:52.795Z</time></trkpt><trkpt lat="43.0517388" lon="12.2720982"><ele>208.0</ele><time>2026-04-19T09:50:54.796Z</time></trkpt><trkpt lat="43.0516796" lon="12.2722156"><ele>208.0</ele><time>2026-04-19T09:50:56.792Z</time></trkpt><trkpt lat="43.0516252" lon="12.2723187"><ele>208.0</ele><time>2026-04-19T09:50:58.801Z</time></trkpt><trkpt lat="43.0515657" lon="12.272433"><ele>208.0</ele><time>2026-04-19T09:51:00.794Z</time></trkpt><trkpt lat="43.0515111" lon="12.2725441"><ele>208.0</ele><time>2026-04-19T09:51:02.795Z</time></trkpt><trkpt lat="43.0514485" lon="12.2726566"><ele>208.0</ele><time>2026-04-19T09:51:04.796Z</time></trkpt><trkpt lat="43.0513897" lon="12.2727729"><ele>208.0</ele><time>2026-04-19T09:51:06.796Z</time></trkpt><trkpt lat="43.0513347" lon="12.2728943"><ele>208.0</ele><time>2026-04-19T09:51:08.793Z</time></trkpt><trkpt lat="43.0512734" lon="12.2730123"><ele>208.0</ele><time>2026-04-19T09:51:10.794Z</time></trkpt><trkpt lat="43.0512056" lon="12.2731289"><ele>208.2</ele><time>2026-04-19T09:51:12.797Z</time></trkpt><trkpt lat="43.0511448" lon="12.2732463"><ele>208.4</ele><time>2026-04-19T09:51:14.779Z</time></trkpt><trkpt lat="43.0510821" lon="12.273357"><ele>208.6</ele><time>2026-04-19T09:51:16.782Z</time></trkpt><trkpt lat="43.0510133" lon="12.2734723"><ele>208.79999999999998</ele><time>2026-04-19T09:51:18.781Z</time></trkpt><trkpt lat="43.0509596" lon="12.2735904"><ele>209.0</ele><time>2026-04-19T09:51:20.782Z</time></trkpt><trkpt lat="43.0508992" lon="12.2737096"><ele>209.0</ele><time>2026-04-19T09:51:22.785Z</time></trkpt><trkpt lat="43.0508381" lon="12.273828"><ele>209.0</ele><time>2026-04-19T09:51:24.78Z</time></trkpt><trkpt lat="43.0507858" lon="12.2739569"><ele>209.0</ele><time>2026-04-19T09:51:26.787Z</time></trkpt><trkpt lat="43.0507189" lon="12.2740762"><ele>209.0</ele><time>2026-04-19T09:51:28.785Z</time></trkpt><trkpt lat="43.0506523" lon="12.2741926"><ele>209.0</ele><time>2026-04-19T09:51:30.791Z</time></trkpt><trkpt lat="43.0505902" lon="12.2743192"><ele>209.0</ele><time>2026-04-19T09:51:32.785Z</time></trkpt><trkpt lat="43.0505307" lon="12.2744383"><ele>209.0</ele><time>2026-04-19T09:51:34.799Z</time></trkpt><trkpt lat="43.0504647" lon="12.2745552"><ele>209.0</ele><time>2026-04-19T09:51:36.8Z</time></trkpt><trkpt lat="43.0503979" lon="12.274674"><ele>209.0</ele><time>2026-04-19T09:51:38.798Z</time></trkpt><trkpt lat="43.0503392" lon="12.2747871"><ele>209.0</ele><time>2026-04-19T09:51:40.812Z</time></trkpt><trkpt lat="43.0502832" lon="12.2748978"><ele>209.0</ele><time>2026-04-19T09:51:42.8Z</time></trkpt><trkpt lat="43.0502178" lon="12.2750181"><ele>209.0</ele><time>2026-04-19T09:51:44.799Z</time></trkpt><trkpt lat="43.050156" lon="12.2751289"><ele>209.0</ele><time>2026-04-19T09:51:46.794Z</time></trkpt><trkpt lat="43.0500892" lon="12.2752395"><ele>209.0</ele><time>2026-04-19T09:51:48.789Z</time></trkpt><trkpt lat="43.0500276" lon="12.2753469"><ele>209.0</ele><time>2026-04-19T09:51:50.802Z</time></trkpt><trkpt lat="43.0499635" lon="12.2754638"><ele>209.2</ele><time>2026-04-19T09:51:52.798Z</time></trkpt><trkpt lat="43.0499062" lon="12.2755776"><ele>209.39999999999998</ele><time>2026-04-19T09:51:54.793Z</time></trkpt><trkpt lat="43.0498517" lon="12.2757049"><ele>209.6</ele><time>2026-04-19T09:51:56.799Z</time></trkpt><trkpt lat="43.0497918" lon="12.2758243"><ele>209.8</ele><time>2026-04-19T09:51:58.807Z</time></trkpt><trkpt lat="43.0497303" lon="12.275938"><ele>210.0</ele><time>2026-04-19T09:52:00.793Z</time></trkpt><trkpt lat="43.049663" lon="12.2760518"><ele>210.0</ele><time>2026-04-19T09:52:02.796Z</time></trkpt><trkpt lat="43.0495988" lon="12.2761584"><ele>210.0</ele><time>2026-04-19T09:52:04.79Z</time></trkpt><trkpt lat="43.0495509" lon="12.2762682"><ele>210.0</ele><time>2026-04-19T09:52:06.802Z</time></trkpt><trkpt lat="43.0495763" lon="12.2763933"><ele>210.0</ele><time>2026-04-19T09:52:08.799Z</time></trkpt><trkpt lat="43.0496584" lon="12.2764909"><ele>210.0</ele><time>2026-04-19T09:52:10.799Z</time></trkpt><trkpt lat="43.0497479" lon="12.2765577"><ele>210.2</ele><time>2026-04-19T09:52:12.791Z</time></trkpt><trkpt lat="43.0498333" lon="12.2766251"><ele>210.4</ele><time>2026-04-19T09:52:14.797Z</time></trkpt><trkpt lat="43.0499144" lon="12.2766939"><ele>210.60000000000002</ele><time>2026-04-19T09:52:16.799Z</time></trkpt><trkpt lat="43.0499871" lon="12.2767799"><ele>210.8</ele><time>2026-04-19T09:52:18.795Z</time></trkpt><trkpt lat="43.0500786" lon="12.2768725"><ele>211.0</ele><time>2026-04-19T09:52:20.795Z</time></trkpt><trkpt lat="43.0501686" lon="12.2769606"><ele>210.4</ele><time>2026-04-19T09:52:22.797Z</time></trkpt><trkpt lat="43.0502579" lon="12.2770331"><ele>209.8</ele><time>2026-04-19T09:52:24.798Z</time></trkpt><trkpt lat="43.0503541" lon="12.2771186"><ele>209.20000000000002</ele><time>2026-04-19T09:52:26.793Z</time></trkpt><trkpt lat="43.050429" lon="12.2772086"><ele>208.60000000000002</ele><time>2026-04-19T09:52:28.792Z</time></trkpt><trkpt lat="43.050516" lon="12.2772792"><ele>208.0</ele><time>2026-04-19T09:52:30.808Z</time></trkpt><trkpt lat="43.0506063" lon="12.2773655"><ele>208.0</ele><time>2026-04-19T09:52:32.797Z</time></trkpt><trkpt lat="43.0506941" lon="12.2774445"><ele>208.0</ele><time>2026-04-19T09:52:34.802Z</time></trkpt><trkpt lat="43.0507787" lon="12.2775292"><ele>208.0</ele><time>2026-04-19T09:52:36.792Z</time></trkpt><trkpt lat="43.0508711" lon="12.277618"><ele>208.0</ele><time>2026-04-19T09:52:38.795Z</time></trkpt><trkpt lat="43.0509554" lon="12.277706"><ele>208.0</ele><time>2026-04-19T09:52:40.801Z</time></trkpt><trkpt lat="43.0510414" lon="12.277774"><ele>208.4</ele><time>2026-04-19T09:52:42.799Z</time></trkpt><trkpt lat="43.0511292" lon="12.2778595"><ele>208.8</ele><time>2026-04-19T09:52:44.791Z</time></trkpt><trkpt lat="43.0512245" lon="12.2779318"><ele>209.2</ele><time>2026-04-19T09:52:46.8Z</time></trkpt><trkpt lat="43.0512738" lon="12.2779914"><ele>209.6</ele><time>2026-04-19T09:52:47.795Z</time></trkpt><trkpt lat="43.0513628" lon="12.2780754"><ele>210.0</ele><time>2026-04-19T09:52:49.798Z</time></trkpt><trkpt lat="43.0514566" lon="12.27815"><ele>210.0</ele><time>2026-04-19T09:52:51.793Z</time></trkpt><trkpt lat="43.0515436" lon="12.2782316"><ele>210.0</ele><time>2026-04-19T09:52:53.793Z</time></trkpt><trkpt lat="43.0516206" lon="12.2782956"><ele>210.0</ele><time>2026-04-19T09:52:55.795Z</time></trkpt><trkpt lat="43.0517175" lon="12.2784071"><ele>210.0</ele><time>2026-04-19T09:52:57.791Z</time></trkpt><trkpt lat="43.0517772" lon="12.2785039"><ele>210.0</ele><time>2026-04-19T09:52:59.797Z</time></trkpt><trkpt lat="43.0517909" lon="12.2786273"><ele>209.8</ele><time>2026-04-19T09:53:01.797Z</time></trkpt><trkpt lat="43.0518399" lon="12.2787257"><ele>209.6</ele><time>2026-04-19T09:53:03.894Z</time></trkpt><trkpt lat="43.0519352" lon="12.2787648"><ele>209.39999999999998</ele><time>2026-04-19T09:53:05.795Z</time></trkpt><trkpt lat="43.0520449" lon="12.2788053"><ele>209.2</ele><time>2026-04-19T09:53:07.8Z</time></trkpt><trkpt lat="43.0521545" lon="12.27883"><ele>209.0</ele><time>2026-04-19T09:53:09.795Z</time></trkpt><trkpt lat="43.0522585" lon="12.2788593"><ele>209.0</ele><time>2026-04-19T09:53:11.796Z</time></trkpt><trkpt lat="43.0523582" lon="12.2788991"><ele>209.0</ele><time>2026-04-19T09:53:13.795Z</time></trkpt><trkpt lat="43.052464" lon="12.2789016"><ele>209.0</ele><time>2026-04-19T09:53:15.795Z</time></trkpt><trkpt lat="43.0525637" lon="12.2789311"><ele>209.0</ele><time>2026-04-19T09:53:17.794Z</time></trkpt><trkpt lat="43.0526638" lon="12.2789634"><ele>209.0</ele><time>2026-04-19T09:53:19.793Z</time></trkpt><trkpt lat="43.0527666" lon="12.2789926"><ele>209.39999999999998</ele><time>2026-04-19T09:53:21.904Z</time></trkpt><trkpt lat="43.0528655" lon="12.2790194"><ele>209.8</ele><time>2026-04-19T09:53:23.795Z</time></trkpt><trkpt lat="43.0529674" lon="12.279043"><ele>210.2</ele><time>2026-04-19T09:53:25.798Z</time></trkpt><trkpt lat="43.0530659" lon="12.2790687"><ele>210.60000000000002</ele><time>2026-04-19T09:53:27.905Z</time></trkpt><trkpt lat="43.0531647" lon="12.2790902"><ele>211.0</ele><time>2026-04-19T09:53:29.797Z</time></trkpt><trkpt lat="43.0532616" lon="12.2791162"><ele>211.20000000000002</ele><time>2026-04-19T09:53:31.791Z</time></trkpt><trkpt lat="43.0533595" lon="12.2791397"><ele>211.4</ele><time>2026-04-19T09:53:33.794Z</time></trkpt><trkpt lat="43.0534581" lon="12.2791675"><ele>211.6</ele><time>2026-04-19T09:53:35.791Z</time></trkpt><trkpt lat="43.0535533" lon="12.279214"><ele>211.8</ele><time>2026-04-19T09:53:37.798Z</time></trkpt><trkpt lat="43.0536303" lon="12.2792694"><ele>212.0</ele><time>2026-04-19T09:53:39.892Z</time></trkpt><trkpt lat="43.0536323" lon="12.2793767"><ele>212.00000000000003</ele><time>2026-04-19T09:53:41.799Z</time></trkpt><trkpt lat="43.0535977" lon="12.2794783"><ele>212.0</ele><time>2026-04-19T09:53:43.796Z</time></trkpt><trkpt lat="43.0535758" lon="12.2795813"><ele>212.0</ele><time>2026-04-19T09:53:45.79Z</time></trkpt><trkpt lat="43.0535483" lon="12.2796975"><ele>212.0</ele><time>2026-04-19T09:53:47.789Z</time></trkpt><trkpt lat="43.0535613" lon="12.279812"><ele>212.00000000000003</ele><time>2026-04-19T09:53:49.793Z</time></trkpt><trkpt lat="43.0536266" lon="12.2798783"><ele>212.0</ele><time>2026-04-19T09:53:51.797Z</time></trkpt><trkpt lat="43.0537184" lon="12.2798967"><ele>212.0</ele><time>2026-04-19T09:53:53.793Z</time></trkpt><trkpt lat="43.0538172" lon="12.2798837"><ele>212.0</ele><time>2026-04-19T09:53:55.798Z</time></trkpt><trkpt lat="43.0539134" lon="12.2798671"><ele>212.0</ele><time>2026-04-19T09:53:57.797Z</time></trkpt><trkpt lat="43.0540116" lon="12.2798507"><ele>212.0</ele><time>2026-04-19T09:53:59.802Z</time></trkpt><trkpt lat="43.0541103" lon="12.2798455"><ele>212.0</ele><time>2026-04-19T09:54:01.802Z</time></trkpt><trkpt lat="43.0542042" lon="12.279832"><ele>211.8</ele><time>2026-04-19T09:54:03.797Z</time></trkpt><trkpt lat="43.0542958" lon="12.2798007"><ele>211.6</ele><time>2026-04-19T09:54:05.799Z</time></trkpt><trkpt lat="43.0543738" lon="12.2797213"><ele>211.4</ele><time>2026-04-19T09:54:07.799Z</time></trkpt><trkpt lat="43.0544425" lon="12.2796272"><ele>211.20000000000002</ele><time>2026-04-19T09:54:09.781Z</time></trkpt><trkpt lat="43.054519" lon="12.2795696"><ele>211.0</ele><time>2026-04-19T09:54:11.798Z</time></trkpt><trkpt lat="43.0546034" lon="12.2795788"><ele>211.0</ele><time>2026-04-19T09:54:13.8Z</time></trkpt><trkpt lat="43.0546925" lon="12.2796147"><ele>211.0</ele><time>2026-04-19T09:54:15.801Z</time></trkpt><trkpt lat="43.0547875" lon="12.2796501"><ele>211.0</ele><time>2026-04-19T09:54:17.799Z</time></trkpt><trkpt lat="43.0548843" lon="12.2796918"><ele>211.0</ele><time>2026-04-19T09:54:19.81Z</time></trkpt><trkpt lat="43.0549792" lon="12.2797294"><ele>211.0</ele><time>2026-04-19T09:54:21.801Z</time></trkpt><trkpt lat="43.0550717" lon="12.2797623"><ele>211.20000000000002</ele><time>2026-04-19T09:54:23.804Z</time></trkpt><trkpt lat="43.0551732" lon="12.2797928"><ele>211.4</ele><time>2026-04-19T09:54:25.798Z</time></trkpt><trkpt lat="43.0552719" lon="12.2798232"><ele>211.6</ele><time>2026-04-19T09:54:27.809Z</time></trkpt><trkpt lat="43.0553707" lon="12.279856"><ele>211.8</ele><time>2026-04-19T09:54:29.809Z</time></trkpt><trkpt lat="43.0554756" lon="12.2798914"><ele>212.0</ele><time>2026-04-19T09:54:31.797Z</time></trkpt><trkpt lat="43.0555785" lon="12.2799317"><ele>212.0</ele><time>2026-04-19T09:54:33.814Z</time></trkpt><trkpt lat="43.0556745" lon="12.2799764"><ele>212.0</ele><time>2026-04-19T09:54:35.8Z</time></trkpt><trkpt lat="43.0557767" lon="12.2800099"><ele>212.0</ele><time>2026-04-19T09:54:37.806Z</time></trkpt><trkpt lat="43.0558815" lon="12.2800455"><ele>212.0</ele><time>2026-04-19T09:54:39.782Z</time></trkpt><trkpt lat="43.0559794" lon="12.2800801"><ele>212.0</ele><time>2026-04-19T09:54:41.789Z</time></trkpt><trkpt lat="43.0560807" lon="12.2801222"><ele>211.6</ele><time>2026-04-19T09:54:43.782Z</time></trkpt><trkpt lat="43.0561787" lon="12.2801627"><ele>211.2</ele><time>2026-04-19T09:54:45.787Z</time></trkpt><trkpt lat="43.0562796" lon="12.2801982"><ele>210.8</ele><time>2026-04-19T09:54:47.785Z</time></trkpt><trkpt lat="43.0563789" lon="12.280238"><ele>210.4</ele><time>2026-04-19T09:54:49.787Z</time></trkpt><trkpt lat="43.0564759" lon="12.2802743"><ele>210.0</ele><time>2026-04-19T09:54:51.783Z</time></trkpt><trkpt lat="43.056577" lon="12.2803095"><ele>210.4</ele><time>2026-04-19T09:54:53.791Z</time></trkpt><trkpt lat="43.0566807" lon="12.2803454"><ele>210.8</ele><time>2026-04-19T09:54:55.78Z</time></trkpt><trkpt lat="43.0567808" lon="12.2803844"><ele>211.2</ele><time>2026-04-19T09:54:57.783Z</time></trkpt><trkpt lat="43.0568812" lon="12.280418"><ele>211.6</ele><time>2026-04-19T09:54:59.797Z</time></trkpt><trkpt lat="43.0569825" lon="12.2804536"><ele>212.0</ele><time>2026-04-19T09:55:01.799Z</time></trkpt><trkpt lat="43.0570844" lon="12.2804893"><ele>212.0</ele><time>2026-04-19T09:55:03.879Z</time></trkpt><trkpt lat="43.0571917" lon="12.2805274"><ele>212.0</ele><time>2026-04-19T09:55:05.8Z</time></trkpt><trkpt lat="43.0572925" lon="12.280565"><ele>212.0</ele><time>2026-04-19T09:55:07.797Z</time></trkpt><trkpt lat="43.0573885" lon="12.2805998"><ele>212.0</ele><time>2026-04-19T09:55:09.796Z</time></trkpt><trkpt lat="43.0574865" lon="12.2806375"><ele>212.0</ele><time>2026-04-19T09:55:11.794Z</time></trkpt><trkpt lat="43.0575861" lon="12.280673"><ele>212.2</ele><time>2026-04-19T09:55:13.787Z</time></trkpt><trkpt lat="43.0576847" lon="12.2807116"><ele>212.39999999999998</ele><time>2026-04-19T09:55:15.904Z</time></trkpt><trkpt lat="43.0577842" lon="12.2807454"><ele>212.60000000000002</ele><time>2026-04-19T09:55:17.808Z</time></trkpt><trkpt lat="43.0578877" lon="12.2807799"><ele>212.8</ele><time>2026-04-19T09:55:19.803Z</time></trkpt><trkpt lat="43.0579878" lon="12.2808255"><ele>213.0</ele><time>2026-04-19T09:55:21.783Z</time></trkpt><trkpt lat="43.0580859" lon="12.2808672"><ele>213.0</ele><time>2026-04-19T09:55:23.814Z</time></trkpt><trkpt lat="43.0581794" lon="12.2808954"><ele>213.0</ele><time>2026-04-19T09:55:25.8Z</time></trkpt><trkpt lat="43.058273" lon="12.2809297"><ele>213.0</ele><time>2026-04-19T09:55:27.793Z</time></trkpt><trkpt lat="43.058371" lon="12.2809598"><ele>213.0</ele><time>2026-04-19T09:55:29.799Z</time></trkpt><trkpt lat="43.0584666" lon="12.280995"><ele>213.0</ele><time>2026-04-19T09:55:31.787Z</time></trkpt><trkpt lat="43.0585552" lon="12.2810296"><ele>212.8</ele><time>2026-04-19T09:55:33.796Z</time></trkpt><trkpt lat="43.0586491" lon="12.2810649"><ele>212.60000000000002</ele><time>2026-04-19T09:55:35.802Z</time></trkpt><trkpt lat="43.0587434" lon="12.2811004"><ele>212.39999999999998</ele><time>2026-04-19T09:55:37.802Z</time></trkpt><trkpt lat="43.0588381" lon="12.2811349"><ele>212.2</ele><time>2026-04-19T09:55:39.795Z</time></trkpt><trkpt lat="43.0589337" lon="12.2811682"><ele>212.0</ele><time>2026-04-19T09:55:41.793Z</time></trkpt><trkpt lat="43.0590222" lon="12.2812055"><ele>212.00000000000003</ele><time>2026-04-19T09:55:43.795Z</time></trkpt><trkpt lat="43.0591027" lon="12.2812402"><ele>212.0</ele><time>2026-04-19T09:55:45.89Z</time></trkpt><trkpt lat="43.0591756" lon="12.2812761"><ele>212.0</ele><time>2026-04-19T09:55:47.784Z</time></trkpt><trkpt lat="43.0592335" lon="12.2813179"><ele>212.0</ele><time>2026-04-19T09:55:49.795Z</time></trkpt><trkpt lat="43.0592493" lon="12.2814071"><ele>212.00000000000003</ele><time>2026-04-19T09:55:51.897Z</time></trkpt><trkpt lat="43.0592248" lon="12.2815185"><ele>212.0</ele><time>2026-04-19T09:55:53.782Z</time></trkpt><trkpt lat="43.0591978" lon="12.2816302"><ele>212.0</ele><time>2026-04-19T09:55:55.786Z</time></trkpt><trkpt lat="43.0591787" lon="12.2817485"><ele>212.0</ele><time>2026-04-19T09:55:57.787Z</time></trkpt><trkpt lat="43.0591475" lon="12.2818617"><ele>212.0</ele><time>2026-04-19T09:55:59.787Z</time></trkpt><trkpt lat="43.0591158" lon="12.2819814"><ele>212.0</ele><time>2026-04-19T09:56:01.786Z</time></trkpt><trkpt lat="43.0590786" lon="12.2820959"><ele>212.0</ele><time>2026-04-19T09:56:03.781Z</time></trkpt><trkpt lat="43.0590535" lon="12.2822257"><ele>212.2</ele><time>2026-04-19T09:56:05.782Z</time></trkpt><trkpt lat="43.0590262" lon="12.2823548"><ele>212.39999999999998</ele><time>2026-04-19T09:56:07.783Z</time></trkpt><trkpt lat="43.0590025" lon="12.2824846"><ele>212.60000000000002</ele><time>2026-04-19T09:56:09.873Z</time></trkpt><trkpt lat="43.0589762" lon="12.2826138"><ele>212.8</ele><time>2026-04-19T09:56:11.783Z</time></trkpt><trkpt lat="43.0589454" lon="12.2827481"><ele>213.0</ele><time>2026-04-19T09:56:13.799Z</time></trkpt><trkpt lat="43.0589089" lon="12.2828734"><ele>213.0</ele><time>2026-04-19T09:56:15.798Z</time></trkpt><trkpt lat="43.0588778" lon="12.2830048"><ele>213.0</ele><time>2026-04-19T09:56:17.802Z</time></trkpt><trkpt lat="43.0588425" lon="12.2831262"><ele>213.0</ele><time>2026-04-19T09:56:19.801Z</time></trkpt><trkpt lat="43.0588143" lon="12.2832545"><ele>213.0</ele><time>2026-04-19T09:56:21.81Z</time></trkpt><trkpt lat="43.058784" lon="12.2833783"><ele>213.0</ele><time>2026-04-19T09:56:23.795Z</time></trkpt><trkpt lat="43.058762" lon="12.2835166"><ele>213.0</ele><time>2026-04-19T09:56:25.799Z</time></trkpt><trkpt lat="43.0587107" lon="12.2836425"><ele>213.0</ele><time>2026-04-19T09:56:27.796Z</time></trkpt><trkpt lat="43.058677" lon="12.2837723"><ele>213.0</ele><time>2026-04-19T09:56:29.8Z</time></trkpt><trkpt lat="43.0586337" lon="12.2839115"><ele>213.0</ele><time>2026-04-19T09:56:31.791Z</time></trkpt><trkpt lat="43.0585939" lon="12.2840451"><ele>213.0</ele><time>2026-04-19T09:56:33.797Z</time></trkpt><trkpt lat="43.0585621" lon="12.2841748"><ele>213.0</ele><time>2026-04-19T09:56:35.79Z</time></trkpt><trkpt lat="43.0585499" lon="12.2843021"><ele>213.0</ele><time>2026-04-19T09:56:37.792Z</time></trkpt><trkpt lat="43.0585378" lon="12.2844224"><ele>213.0</ele><time>2026-04-19T09:56:39.792Z</time></trkpt><trkpt lat="43.0585337" lon="12.2845589"><ele>213.0</ele><time>2026-04-19T09:56:41.791Z</time></trkpt><trkpt lat="43.0585137" lon="12.2846812"><ele>213.0</ele><time>2026-04-19T09:56:43.797Z</time></trkpt><trkpt lat="43.0584951" lon="12.2848208"><ele>213.2</ele><time>2026-04-19T09:56:45.797Z</time></trkpt><trkpt lat="43.0584623" lon="12.2849456"><ele>213.4</ele><time>2026-04-19T09:56:47.796Z</time></trkpt><trkpt lat="43.0584242" lon="12.2850587"><ele>213.59999999999997</ele><time>2026-04-19T09:56:49.802Z</time></trkpt><trkpt lat="43.0583813" lon="12.2851876"><ele>213.79999999999998</ele><time>2026-04-19T09:56:51.793Z</time></trkpt><trkpt lat="43.058344" lon="12.2853274"><ele>214.0</ele><time>2026-04-19T09:56:53.798Z</time></trkpt><trkpt lat="43.0583154" lon="12.2854669"><ele>214.0</ele><time>2026-04-19T09:56:55.797Z</time></trkpt><trkpt lat="43.0582903" lon="12.2856094"><ele>213.99999999999997</ele><time>2026-04-19T09:56:57.794Z</time></trkpt><trkpt lat="43.0582574" lon="12.2857581"><ele>213.99999999999997</ele><time>2026-04-19T09:56:59.8Z</time></trkpt><trkpt lat="43.0582237" lon="12.2859043"><ele>214.0</ele><time>2026-04-19T09:57:01.793Z</time></trkpt><trkpt lat="43.0581829" lon="12.2860477"><ele>214.0</ele><time>2026-04-19T09:57:03.796Z</time></trkpt><trkpt lat="43.0581524" lon="12.2861882"><ele>214.0</ele><time>2026-04-19T09:57:05.795Z</time></trkpt><trkpt lat="43.0581225" lon="12.2863159"><ele>213.99999999999997</ele><time>2026-04-19T09:57:07.793Z</time></trkpt><trkpt lat="43.058093" lon="12.286444"><ele>213.99999999999997</ele><time>2026-04-19T09:57:09.795Z</time></trkpt><trkpt lat="43.0580679" lon="12.2865755"><ele>214.0</ele><time>2026-04-19T09:57:11.794Z</time></trkpt><trkpt lat="43.0580229" lon="12.2866915"><ele>214.0</ele><time>2026-04-19T09:57:13.798Z</time></trkpt><trkpt lat="43.0579926" lon="12.2868073"><ele>214.2</ele><time>2026-04-19T09:57:15.792Z</time></trkpt><trkpt lat="43.0579293" lon="12.2869519"><ele>214.39999999999998</ele><time>2026-04-19T09:57:18.789Z</time></trkpt><trkpt lat="43.0578804" lon="12.2870418"><ele>214.6</ele><time>2026-04-19T09:57:20.791Z</time></trkpt><trkpt lat="43.0578461" lon="12.2871615"><ele>214.8</ele><time>2026-04-19T09:57:22.797Z</time></trkpt><trkpt lat="43.0578148" lon="12.2872833"><ele>215.0</ele><time>2026-04-19T09:57:24.794Z</time></trkpt><trkpt lat="43.0578003" lon="12.2874088"><ele>215.0</ele><time>2026-04-19T09:57:26.792Z</time></trkpt><trkpt lat="43.0577829" lon="12.2875257"><ele>215.0</ele><time>2026-04-19T09:57:28.792Z</time></trkpt><trkpt lat="43.0577679" lon="12.2876602"><ele>215.0</ele><time>2026-04-19T09:57:30.781Z</time></trkpt><trkpt lat="43.0577583" lon="12.2877897"><ele>215.0</ele><time>2026-04-19T09:57:32.794Z</time></trkpt><trkpt lat="43.057759" lon="12.2880024"><ele>215.0</ele><time>2026-04-19T09:57:35.793Z</time></trkpt><trkpt lat="43.0577535" lon="12.2881298"><ele>215.0</ele><time>2026-04-19T09:57:37.796Z</time></trkpt><trkpt lat="43.0577628" lon="12.2882656"><ele>215.0</ele><time>2026-04-19T09:57:39.789Z</time></trkpt><trkpt lat="43.0577739" lon="12.2884056"><ele>215.0</ele><time>2026-04-19T09:57:41.796Z</time></trkpt><trkpt lat="43.0577911" lon="12.2885461"><ele>215.0</ele><time>2026-04-19T09:57:43.815Z</time></trkpt><trkpt lat="43.0578048" lon="12.2886882"><ele>215.0</ele><time>2026-04-19T09:57:45.896Z</time></trkpt><trkpt lat="43.0578395" lon="12.288836"><ele>215.00000000000003</ele><time>2026-04-19T09:57:47.799Z</time></trkpt><trkpt lat="43.0578616" lon="12.2889599"><ele>215.0</ele><time>2026-04-19T09:57:49.793Z</time></trkpt><trkpt lat="43.0578752" lon="12.2890729"><ele>215.0</ele><time>2026-04-19T09:57:51.891Z</time></trkpt><trkpt lat="43.0578862" lon="12.2891692"><ele>215.0</ele><time>2026-04-19T09:57:53.802Z</time></trkpt><trkpt lat="43.0578997" lon="12.2892585"><ele>215.00000000000003</ele><time>2026-04-19T09:57:55.786Z</time></trkpt><trkpt lat="43.0579156" lon="12.2893672"><ele>215.0</ele><time>2026-04-19T09:57:58.79Z</time></trkpt><trkpt lat="43.0579151" lon="12.2894679"><ele>215.00000000000003</ele><time>2026-04-19T09:58:01.793Z</time></trkpt><trkpt lat="43.0579307" lon="12.2895848"><ele>215.0</ele><time>2026-04-19T09:58:04.791Z</time></trkpt><trkpt lat="43.0579585" lon="12.289677"><ele>215.0</ele><time>2026-04-19T09:58:06.793Z</time></trkpt><trkpt lat="43.0580002" lon="12.2897708"><ele>215.0</ele><time>2026-04-19T09:58:08.798Z</time></trkpt><trkpt lat="43.0580328" lon="12.2898814"><ele>215.00000000000003</ele><time>2026-04-19T09:58:10.794Z</time></trkpt><trkpt lat="43.0580651" lon="12.2899981"><ele>215.0</ele><time>2026-04-19T09:58:12.779Z</time></trkpt><trkpt lat="43.0580973" lon="12.2901153"><ele>215.0</ele><time>2026-04-19T09:58:14.792Z</time></trkpt><trkpt lat="43.0581311" lon="12.2902347"><ele>215.0</ele><time>2026-04-19T09:58:16.796Z</time></trkpt><trkpt lat="43.0581613" lon="12.2903523"><ele>215.0</ele><time>2026-04-19T09:58:18.795Z</time></trkpt><trkpt lat="43.0581932" lon="12.2904685"><ele>215.0</ele><time>2026-04-19T09:58:20.788Z</time></trkpt><trkpt lat="43.0582237" lon="12.2905898"><ele>215.0</ele><time>2026-04-19T09:58:22.793Z</time></trkpt><trkpt lat="43.0582493" lon="12.2907067"><ele>215.0</ele><time>2026-04-19T09:58:24.791Z</time></trkpt><trkpt lat="43.0582765" lon="12.2908237"><ele>215.0</ele><time>2026-04-19T09:58:26.798Z</time></trkpt><trkpt lat="43.0583061" lon="12.2909396"><ele>215.0</ele><time>2026-04-19T09:58:28.789Z</time></trkpt><trkpt lat="43.0583431" lon="12.2910584"><ele>215.0</ele><time>2026-04-19T09:58:30.794Z</time></trkpt><trkpt lat="43.0583694" lon="12.2911806"><ele>215.0</ele><time>2026-04-19T09:58:32.803Z</time></trkpt><trkpt lat="43.0583942" lon="12.2913111"><ele>215.6</ele><time>2026-04-19T09:58:34.793Z</time></trkpt><trkpt lat="43.058424" lon="12.2914323"><ele>216.2</ele><time>2026-04-19T09:58:36.799Z</time></trkpt><trkpt lat="43.0584538" lon="12.2915647"><ele>216.8</ele><time>2026-04-19T09:58:38.799Z</time></trkpt><trkpt lat="43.0584951" lon="12.2916916"><ele>217.4</ele><time>2026-04-19T09:58:40.795Z</time></trkpt><trkpt lat="43.0585351" lon="12.2918161"><ele>218.0</ele><time>2026-04-19T09:58:42.802Z</time></trkpt><trkpt lat="43.0585621" lon="12.2919428"><ele>218.0</ele><time>2026-04-19T09:58:44.793Z</time></trkpt><trkpt lat="43.0585794" lon="12.2920723"><ele>218.0</ele><time>2026-04-19T09:58:46.796Z</time></trkpt><trkpt lat="43.058603" lon="12.2922036"><ele>218.0</ele><time>2026-04-19T09:58:48.792Z</time></trkpt><trkpt lat="43.0586352" lon="12.2923374"><ele>218.0</ele><time>2026-04-19T09:58:50.795Z</time></trkpt><trkpt lat="43.0586633" lon="12.2924626"><ele>218.0</ele><time>2026-04-19T09:58:52.793Z</time></trkpt><trkpt lat="43.0587035" lon="12.2925977"><ele>217.5</ele><time>2026-04-19T09:58:54.794Z</time></trkpt><trkpt lat="43.0587253" lon="12.2927241"><ele>217.0</ele><time>2026-04-19T09:58:56.794Z</time></trkpt><trkpt lat="43.0587712" lon="12.2929288"><ele>216.5</ele><time>2026-04-19T09:58:59.796Z</time></trkpt><trkpt lat="43.0588062" lon="12.293056"><ele>216.0</ele><time>2026-04-19T09:59:01.791Z</time></trkpt><trkpt lat="43.0588402" lon="12.2931912"><ele>216.0</ele><time>2026-04-19T09:59:03.818Z</time></trkpt><trkpt lat="43.0588688" lon="12.2933141"><ele>216.00000000000003</ele><time>2026-04-19T09:59:05.79Z</time></trkpt><trkpt lat="43.0588918" lon="12.2934313"><ele>216.00000000000003</ele><time>2026-04-19T09:59:07.783Z</time></trkpt><trkpt lat="43.0589175" lon="12.2935536"><ele>216.0</ele><time>2026-04-19T09:59:09.782Z</time></trkpt><trkpt lat="43.0589508" lon="12.2936889"><ele>216.0</ele><time>2026-04-19T09:59:11.792Z</time></trkpt><trkpt lat="43.0589798" lon="12.2938214"><ele>215.8</ele><time>2026-04-19T09:59:13.81Z</time></trkpt><trkpt lat="43.0590125" lon="12.2939415"><ele>215.60000000000002</ele><time>2026-04-19T09:59:15.794Z</time></trkpt><trkpt lat="43.0590405" lon="12.2940644"><ele>215.4</ele><time>2026-04-19T09:59:17.813Z</time></trkpt><trkpt lat="43.0590785" lon="12.2941849"><ele>215.2</ele><time>2026-04-19T09:59:19.801Z</time></trkpt><trkpt lat="43.0591042" lon="12.2943138"><ele>215.0</ele><time>2026-04-19T09:59:21.786Z</time></trkpt><trkpt lat="43.0591302" lon="12.2944388"><ele>215.8</ele><time>2026-04-19T09:59:23.797Z</time></trkpt><trkpt lat="43.0591597" lon="12.2945622"><ele>216.6</ele><time>2026-04-19T09:59:25.794Z</time></trkpt><trkpt lat="43.0591866" lon="12.2946845"><ele>217.39999999999998</ele><time>2026-04-19T09:59:27.874Z</time></trkpt><trkpt lat="43.0592131" lon="12.29481"><ele>218.2</ele><time>2026-04-19T09:59:29.812Z</time></trkpt><trkpt lat="43.059242" lon="12.2949304"><ele>219.0</ele><time>2026-04-19T09:59:31.806Z</time></trkpt><trkpt lat="43.0592664" lon="12.2950525"><ele>219.33333333333334</ele><time>2026-04-19T09:59:33.796Z</time></trkpt><trkpt lat="43.0592926" lon="12.2951691"><ele>219.66666666666669</ele><time>2026-04-19T09:59:35.796Z</time></trkpt><trkpt lat="43.0593178" lon="12.2952953"><ele>220.0</ele><time>2026-04-19T09:59:37.796Z</time></trkpt><trkpt lat="43.0593423" lon="12.2954046"><ele>220.33333333333334</ele><time>2026-04-19T09:59:39.802Z</time></trkpt><trkpt lat="43.0593724" lon="12.2955191"><ele>220.66666666666669</ele><time>2026-04-19T09:59:41.794Z</time></trkpt><trkpt lat="43.0593957" lon="12.2956324"><ele>221.0</ele><time>2026-04-19T09:59:43.796Z</time></trkpt><trkpt lat="43.0594271" lon="12.2957448"><ele>221.0</ele><time>2026-04-19T09:59:45.797Z</time></trkpt><trkpt lat="43.0594549" lon="12.2958691"><ele>221.00000000000003</ele><time>2026-04-19T09:59:47.794Z</time></trkpt><trkpt lat="43.0594864" lon="12.2959975"><ele>221.00000000000003</ele><time>2026-04-19T09:59:49.803Z</time></trkpt><trkpt lat="43.0595186" lon="12.2961269"><ele>221.0</ele><time>2026-04-19T09:59:51.8Z</time></trkpt><trkpt lat="43.0595513" lon="12.2962532"><ele>221.0</ele><time>2026-04-19T09:59:53.795Z</time></trkpt><trkpt lat="43.0595779" lon="12.2963865"><ele>221.20000000000002</ele><time>2026-04-19T09:59:55.787Z</time></trkpt><trkpt lat="43.0596033" lon="12.2965182"><ele>221.40000000000003</ele><time>2026-04-19T09:59:57.791Z</time></trkpt><trkpt lat="43.0596359" lon="12.2966441"><ele>221.6</ele><time>2026-04-19T09:59:59.791Z</time></trkpt><trkpt lat="43.0596602" lon="12.2967641"><ele>221.8</ele><time>2026-04-19T10:00:01.791Z</time></trkpt><trkpt lat="43.0596852" lon="12.2968885"><ele>222.0</ele><time>2026-04-19T10:00:03.899Z</time></trkpt><trkpt lat="43.0597149" lon="12.2970171"><ele>222.0</ele><time>2026-04-19T10:00:05.794Z</time></trkpt><trkpt lat="43.0597512" lon="12.2971431"><ele>222.0</ele><time>2026-04-19T10:00:07.783Z</time></trkpt><trkpt lat="43.059773" lon="12.297265"><ele>222.0</ele><time>2026-04-19T10:00:09.875Z</time></trkpt><trkpt lat="43.0598032" lon="12.297388"><ele>222.0</ele><time>2026-04-19T10:00:11.779Z</time></trkpt><trkpt lat="43.0598317" lon="12.2975149"><ele>222.0</ele><time>2026-04-19T10:00:13.779Z</time></trkpt><trkpt lat="43.0598647" lon="12.2976365"><ele>222.39999999999998</ele><time>2026-04-19T10:00:15.781Z</time></trkpt><trkpt lat="43.0598922" lon="12.2977532"><ele>222.79999999999998</ele><time>2026-04-19T10:00:17.78Z</time></trkpt><trkpt lat="43.0599228" lon="12.2978809"><ele>223.2</ele><time>2026-04-19T10:00:19.786Z</time></trkpt><trkpt lat="43.0599584" lon="12.2980166"><ele>223.6</ele><time>2026-04-19T10:00:21.781Z</time></trkpt><trkpt lat="43.0599844" lon="12.2981553"><ele>224.0</ele><time>2026-04-19T10:00:23.792Z</time></trkpt><trkpt lat="43.0600188" lon="12.2982741"><ele>224.2</ele><time>2026-04-19T10:00:25.803Z</time></trkpt><trkpt lat="43.0600559" lon="12.2983954"><ele>224.39999999999998</ele><time>2026-04-19T10:00:27.793Z</time></trkpt><trkpt lat="43.0600954" lon="12.2985173"><ele>224.6</ele><time>2026-04-19T10:00:29.792Z</time></trkpt><trkpt lat="43.0601105" lon="12.2986224"><ele>224.8</ele><time>2026-04-19T10:00:31.792Z</time></trkpt><trkpt lat="43.0601382" lon="12.2987545"><ele>225.0</ele><time>2026-04-19T10:00:33.79Z</time></trkpt><trkpt lat="43.0601657" lon="12.2988765"><ele>225.2</ele><time>2026-04-19T10:00:35.792Z</time></trkpt><trkpt lat="43.0601992" lon="12.2989979"><ele>225.4</ele><time>2026-04-19T10:00:37.793Z</time></trkpt><trkpt lat="43.0602285" lon="12.2991195"><ele>225.60000000000002</ele><time>2026-04-19T10:00:39.792Z</time></trkpt><trkpt lat="43.0602626" lon="12.2992447"><ele>225.8</ele><time>2026-04-19T10:00:41.796Z</time></trkpt><trkpt lat="43.0602866" lon="12.2993642"><ele>226.0</ele><time>2026-04-19T10:00:43.797Z</time></trkpt><trkpt lat="43.060314" lon="12.2994947"><ele>226.0</ele><time>2026-04-19T10:00:45.811Z</time></trkpt><trkpt lat="43.0603479" lon="12.2996128"><ele>226.00000000000003</ele><time>2026-04-19T10:00:47.794Z</time></trkpt><trkpt lat="43.0603781" lon="12.2997379"><ele>226.00000000000003</ele><time>2026-04-19T10:00:49.794Z</time></trkpt><trkpt lat="43.0604046" lon="12.2998629"><ele>226.0</ele><time>2026-04-19T10:00:51.791Z</time></trkpt><trkpt lat="43.0604235" lon="12.2999926"><ele>226.0</ele><time>2026-04-19T10:00:53.796Z</time></trkpt><trkpt lat="43.0604504" lon="12.3001135"><ele>226.20000000000002</ele><time>2026-04-19T10:00:55.789Z</time></trkpt><trkpt lat="43.0604793" lon="12.3002419"><ele>226.40000000000003</ele><time>2026-04-19T10:00:57.797Z</time></trkpt><trkpt lat="43.060516" lon="12.3003743"><ele>226.6</ele><time>2026-04-19T10:00:59.793Z</time></trkpt><trkpt lat="43.0605352" lon="12.3004994"><ele>226.8</ele><time>2026-04-19T10:01:01.796Z</time></trkpt><trkpt lat="43.0605565" lon="12.3006214"><ele>227.0</ele><time>2026-04-19T10:01:03.811Z</time></trkpt><trkpt lat="43.0605849" lon="12.3007577"><ele>228.2</ele><time>2026-04-19T10:01:05.792Z</time></trkpt><trkpt lat="43.0606188" lon="12.3008767"><ele>229.39999999999998</ele><time>2026-04-19T10:01:07.792Z</time></trkpt><trkpt lat="43.0606496" lon="12.3009868"><ele>230.60000000000002</ele><time>2026-04-19T10:01:09.798Z</time></trkpt><trkpt lat="43.0606711" lon="12.3011169"><ele>231.8</ele><time>2026-04-19T10:01:11.791Z</time></trkpt><trkpt lat="43.0606984" lon="12.3012393"><ele>233.0</ele><time>2026-04-19T10:01:13.795Z</time></trkpt><trkpt lat="43.0607283" lon="12.3013656"><ele>232.60000000000002</ele><time>2026-04-19T10:01:15.793Z</time></trkpt><trkpt lat="43.0607655" lon="12.3014836"><ele>232.20000000000002</ele><time>2026-04-19T10:01:17.797Z</time></trkpt><trkpt lat="43.0607968" lon="12.3016022"><ele>231.8</ele><time>2026-04-19T10:01:19.794Z</time></trkpt><trkpt lat="43.0608292" lon="12.3017284"><ele>231.4</ele><time>2026-04-19T10:01:21.792Z</time></trkpt><trkpt lat="43.0608517" lon="12.3018459"><ele>231.0</ele><time>2026-04-19T10:01:23.796Z</time></trkpt><trkpt lat="43.0608822" lon="12.3019661"><ele>231.0</ele><time>2026-04-19T10:01:25.915Z</time></trkpt><trkpt lat="43.0609028" lon="12.3020823"><ele>231.0</ele><time>2026-04-19T10:01:27.797Z</time></trkpt><trkpt lat="43.060921" lon="12.3021939"><ele>231.0</ele><time>2026-04-19T10:01:29.792Z</time></trkpt><trkpt lat="43.0609332" lon="12.3023075"><ele>231.0</ele><time>2026-04-19T10:01:31.788Z</time></trkpt><trkpt lat="43.0609558" lon="12.3024107"><ele>231.0</ele><time>2026-04-19T10:01:33.791Z</time></trkpt><trkpt lat="43.0609818" lon="12.3025158"><ele>231.0</ele><time>2026-04-19T10:01:35.811Z</time></trkpt><trkpt lat="43.0610121" lon="12.3026164"><ele>231.83333333333334</ele><time>2026-04-19T10:01:37.795Z</time></trkpt><trkpt lat="43.0610357" lon="12.3027168"><ele>232.66666666666669</ele><time>2026-04-19T10:01:39.792Z</time></trkpt><trkpt lat="43.0610592" lon="12.3028162"><ele>233.5</ele><time>2026-04-19T10:01:41.792Z</time></trkpt><trkpt lat="43.0610826" lon="12.3029291"><ele>234.33333333333334</ele><time>2026-04-19T10:01:43.792Z</time></trkpt><trkpt lat="43.0611061" lon="12.3030555"><ele>235.16666666666669</ele><time>2026-04-19T10:01:45.797Z</time></trkpt><trkpt lat="43.0611318" lon="12.3031938"><ele>236.0</ele><time>2026-04-19T10:01:47.791Z</time></trkpt><trkpt lat="43.0611646" lon="12.3033136"><ele>236.16666666666669</ele><time>2026-04-19T10:01:49.897Z</time></trkpt><trkpt lat="43.0612016" lon="12.3034258"><ele>236.33333333333334</ele><time>2026-04-19T10:01:51.785Z</time></trkpt><trkpt lat="43.0612304" lon="12.3035432"><ele>236.5</ele><time>2026-04-19T10:01:53.796Z</time></trkpt><trkpt lat="43.0612829" lon="12.3036472"><ele>236.66666666666669</ele><time>2026-04-19T10:01:55.791Z</time></trkpt><trkpt lat="43.0613362" lon="12.3037253"><ele>236.83333333333334</ele><time>2026-04-19T10:01:57.795Z</time></trkpt><trkpt lat="43.0613846" lon="12.3038027"><ele>237.0</ele><time>2026-04-19T10:01:59.794Z</time></trkpt><trkpt lat="43.0614222" lon="12.303896"><ele>237.0</ele><time>2026-04-19T10:02:01.801Z</time></trkpt><trkpt lat="43.0614644" lon="12.3039892"><ele>237.0</ele><time>2026-04-19T10:02:03.78Z</time></trkpt><trkpt lat="43.0615003" lon="12.3040896"><ele>237.0</ele><time>2026-04-19T10:02:05.805Z</time></trkpt><trkpt lat="43.0615604" lon="12.3042639"><ele>237.0</ele><time>2026-04-19T10:02:08.792Z</time></trkpt><trkpt lat="43.0615966" lon="12.3043736"><ele>237.0</ele><time>2026-04-19T10:02:10.791Z</time></trkpt><trkpt lat="43.0616563" lon="12.3044894"><ele>237.0</ele><time>2026-04-19T10:02:12.793Z</time></trkpt><trkpt lat="43.0617057" lon="12.3046079"><ele>237.0</ele><time>2026-04-19T10:02:14.796Z</time></trkpt><trkpt lat="43.0617501" lon="12.3047309"><ele>237.0</ele><time>2026-04-19T10:02:16.791Z</time></trkpt><trkpt lat="43.0617958" lon="12.3048381"><ele>237.0</ele><time>2026-04-19T10:02:18.797Z</time></trkpt><trkpt lat="43.0618437" lon="12.3049392"><ele>237.0</ele><time>2026-04-19T10:02:20.791Z</time></trkpt><trkpt lat="43.0618917" lon="12.3050496"><ele>237.6</ele><time>2026-04-19T10:02:22.798Z</time></trkpt><trkpt lat="43.0619518" lon="12.3051522"><ele>238.2</ele><time>2026-04-19T10:02:24.909Z</time></trkpt><trkpt lat="43.0620104" lon="12.3052455"><ele>238.8</ele><time>2026-04-19T10:02:26.811Z</time></trkpt><trkpt lat="43.0620666" lon="12.3053577"><ele>239.4</ele><time>2026-04-19T10:02:28.795Z</time></trkpt><trkpt lat="43.0621187" lon="12.3054675"><ele>240.0</ele><time>2026-04-19T10:02:30.789Z</time></trkpt><trkpt lat="43.0621662" lon="12.3055951"><ele>240.5</ele><time>2026-04-19T10:02:32.791Z</time></trkpt><trkpt lat="43.0622194" lon="12.3057039"><ele>241.0</ele><time>2026-04-19T10:02:34.799Z</time></trkpt><trkpt lat="43.0622619" lon="12.3057942"><ele>241.5</ele><time>2026-04-19T10:02:36.792Z</time></trkpt><trkpt lat="43.0623172" lon="12.3058748"><ele>242.0</ele><time>2026-04-19T10:02:38.793Z</time></trkpt><trkpt lat="43.0623635" lon="12.3059504"><ele>242.5</ele><time>2026-04-19T10:02:40.8Z</time></trkpt><trkpt lat="43.0624033" lon="12.3060294"><ele>243.0</ele><time>2026-04-19T10:02:42.788Z</time></trkpt><trkpt lat="43.0624364" lon="12.3061044"><ele>242.33333333333334</ele><time>2026-04-19T10:02:45.791Z</time></trkpt><trkpt lat="43.0624621" lon="12.3062137"><ele>241.66666666666669</ele><time>2026-04-19T10:02:52.792Z</time></trkpt><trkpt lat="43.0625019" lon="12.3063069"><ele>241.0</ele><time>2026-04-19T10:02:55.802Z</time></trkpt><trkpt lat="43.0625498" lon="12.3063816"><ele>240.33333333333334</ele><time>2026-04-19T10:02:57.803Z</time></trkpt><trkpt lat="43.0625961" lon="12.3064549"><ele>239.66666666666669</ele><time>2026-04-19T10:02:59.793Z</time></trkpt><trkpt lat="43.0626506" lon="12.3065312"><ele>239.0</ele><time>2026-04-19T10:03:01.793Z</time></trkpt><trkpt lat="43.0627004" lon="12.3066072"><ele>239.00000000000003</ele><time>2026-04-19T10:03:03.796Z</time></trkpt><trkpt lat="43.0627476" lon="12.3066982"><ele>239.0</ele><time>2026-04-19T10:03:05.793Z</time></trkpt><trkpt lat="43.0627988" lon="12.3067921"><ele>239.0</ele><time>2026-04-19T10:03:07.791Z</time></trkpt><trkpt lat="43.0628507" lon="12.3068824"><ele>239.0</ele><time>2026-04-19T10:03:09.792Z</time></trkpt><trkpt lat="43.0629043" lon="12.3069693"><ele>239.00000000000003</ele><time>2026-04-19T10:03:11.797Z</time></trkpt><trkpt lat="43.0629655" lon="12.3070524"><ele>239.0</ele><time>2026-04-19T10:03:13.792Z</time></trkpt><trkpt lat="43.0630186" lon="12.3071381"><ele>239.0</ele><time>2026-04-19T10:03:15.791Z</time></trkpt><trkpt lat="43.0630835" lon="12.30723"><ele>238.99999999999997</ele><time>2026-04-19T10:03:17.799Z</time></trkpt><trkpt lat="43.06315" lon="12.3073239"><ele>238.99999999999997</ele><time>2026-04-19T10:03:19.804Z</time></trkpt><trkpt lat="43.0632081" lon="12.3074172"><ele>239.0</ele><time>2026-04-19T10:03:21.803Z</time></trkpt><trkpt lat="43.0632649" lon="12.3075075"><ele>239.0</ele><time>2026-04-19T10:03:23.8Z</time></trkpt><trkpt lat="43.0633304" lon="12.3075844"><ele>239.00000000000003</ele><time>2026-04-19T10:03:25.797Z</time></trkpt><trkpt lat="43.0633843" lon="12.3076503"><ele>239.0</ele><time>2026-04-19T10:03:27.793Z</time></trkpt><trkpt lat="43.0634342" lon="12.3077171"><ele>239.00000000000003</ele><time>2026-04-19T10:03:29.781Z</time></trkpt><trkpt lat="43.0634815" lon="12.3077845"><ele>239.00000000000003</ele><time>2026-04-19T10:03:31.797Z</time></trkpt><trkpt lat="43.0635366" lon="12.3078397"><ele>239.0</ele><time>2026-04-19T10:03:33.793Z</time></trkpt><trkpt lat="43.0635989" lon="12.3078762"><ele>239.00000000000003</ele><time>2026-04-19T10:03:35.889Z</time></trkpt><trkpt lat="43.0636601" lon="12.3079407"><ele>239.00000000000003</ele><time>2026-04-19T10:03:37.797Z</time></trkpt><trkpt lat="43.06371" lon="12.3080134"><ele>239.00000000000003</ele><time>2026-04-19T10:03:39.795Z</time></trkpt><trkpt lat="43.0637603" lon="12.3081004"><ele>239.0</ele><time>2026-04-19T10:03:41.793Z</time></trkpt><trkpt lat="43.063807" lon="12.3082085"><ele>239.0</ele><time>2026-04-19T10:03:43.797Z</time></trkpt><trkpt lat="43.0638586" lon="12.3083248"><ele>239.0</ele><time>2026-04-19T10:03:45.783Z</time></trkpt><trkpt lat="43.0639086" lon="12.3084105"><ele>239.00000000000003</ele><time>2026-04-19T10:03:47.788Z</time></trkpt><trkpt lat="43.0639658" lon="12.3084928"><ele>239.0</ele><time>2026-04-19T10:03:49.791Z</time></trkpt><trkpt lat="43.0640379" lon="12.3085495"><ele>239.66666666666669</ele><time>2026-04-19T10:03:51.791Z</time></trkpt><trkpt lat="43.0641188" lon="12.3085561"><ele>240.33333333333334</ele><time>2026-04-19T10:03:53.834Z</time></trkpt><trkpt lat="43.0641875" lon="12.3086083"><ele>241.0</ele><time>2026-04-19T10:03:55.795Z</time></trkpt><trkpt lat="43.0642444" lon="12.3086864"><ele>241.66666666666669</ele><time>2026-04-19T10:03:57.793Z</time></trkpt><trkpt lat="43.0643004" lon="12.3087659"><ele>242.33333333333334</ele><time>2026-04-19T10:03:59.793Z</time></trkpt><trkpt lat="43.064354" lon="12.3088528"><ele>243.0</ele><time>2026-04-19T10:04:01.794Z</time></trkpt><trkpt lat="43.0644044" lon="12.308945"><ele>243.0</ele><time>2026-04-19T10:04:03.795Z</time></trkpt><trkpt lat="43.0644537" lon="12.3090444"><ele>243.0</ele><time>2026-04-19T10:04:05.793Z</time></trkpt><trkpt lat="43.0644999" lon="12.3091436"><ele>243.0</ele><time>2026-04-19T10:04:07.795Z</time></trkpt><trkpt lat="43.0645522" lon="12.3092407"><ele>243.0</ele><time>2026-04-19T10:04:09.809Z</time></trkpt><trkpt lat="43.0645973" lon="12.3093489"><ele>243.0</ele><time>2026-04-19T10:04:11.882Z</time></trkpt><trkpt lat="43.0646473" lon="12.3094451"><ele>243.0</ele><time>2026-04-19T10:04:13.795Z</time></trkpt><trkpt lat="43.0647072" lon="12.3095543"><ele>243.0</ele><time>2026-04-19T10:04:15.792Z</time></trkpt><trkpt lat="43.0647689" lon="12.3096538"><ele>243.0</ele><time>2026-04-19T10:04:17.896Z</time></trkpt><trkpt lat="43.0648254" lon="12.3097573"><ele>243.0</ele><time>2026-04-19T10:04:19.799Z</time></trkpt><trkpt lat="43.0648855" lon="12.3098576"><ele>243.0</ele><time>2026-04-19T10:04:21.79Z</time></trkpt><trkpt lat="43.0649551" lon="12.3099588"><ele>243.0</ele><time>2026-04-19T10:04:23.796Z</time></trkpt><trkpt lat="43.0650163" lon="12.3100491"><ele>242.8</ele><time>2026-04-19T10:04:25.791Z</time></trkpt><trkpt lat="43.0650962" lon="12.3101482"><ele>242.60000000000002</ele><time>2026-04-19T10:04:27.781Z</time></trkpt><trkpt lat="43.0651532" lon="12.310231"><ele>242.39999999999998</ele><time>2026-04-19T10:04:29.893Z</time></trkpt><trkpt lat="43.0652139" lon="12.3103205"><ele>242.2</ele><time>2026-04-19T10:04:31.779Z</time></trkpt><trkpt lat="43.065279" lon="12.3104208"><ele>242.0</ele><time>2026-04-19T10:04:33.793Z</time></trkpt><trkpt lat="43.0653358" lon="12.3105113"><ele>242.0</ele><time>2026-04-19T10:04:35.791Z</time></trkpt><trkpt lat="43.0654012" lon="12.3105995"><ele>242.0</ele><time>2026-04-19T10:04:37.783Z</time></trkpt><trkpt lat="43.0654608" lon="12.3106882"><ele>242.0</ele><time>2026-04-19T10:04:39.796Z</time></trkpt><trkpt lat="43.0655219" lon="12.3107882"><ele>242.0</ele><time>2026-04-19T10:04:41.777Z</time></trkpt><trkpt lat="43.0655793" lon="12.3108875"><ele>242.0</ele><time>2026-04-19T10:04:43.795Z</time></trkpt><trkpt lat="43.0656336" lon="12.3109932"><ele>242.0</ele><time>2026-04-19T10:04:45.782Z</time></trkpt><trkpt lat="43.0656898" lon="12.3110842"><ele>242.0</ele><time>2026-04-19T10:04:47.778Z</time></trkpt><trkpt lat="43.0657511" lon="12.3111843"><ele>242.0</ele><time>2026-04-19T10:04:49.777Z</time></trkpt><trkpt lat="43.065813" lon="12.3112914"><ele>242.0</ele><time>2026-04-19T10:04:51.78Z</time></trkpt><trkpt lat="43.0658731" lon="12.3114008"><ele>242.0</ele><time>2026-04-19T10:04:53.875Z</time></trkpt><trkpt lat="43.065936" lon="12.3114982"><ele>242.2</ele><time>2026-04-19T10:04:55.791Z</time></trkpt><trkpt lat="43.0659913" lon="12.3115735"><ele>242.39999999999998</ele><time>2026-04-19T10:04:57.791Z</time></trkpt><trkpt lat="43.0660515" lon="12.3116845"><ele>242.60000000000002</ele><time>2026-04-19T10:04:59.791Z</time></trkpt><trkpt lat="43.0661242" lon="12.3117835"><ele>242.8</ele><time>2026-04-19T10:05:01.792Z</time></trkpt><trkpt lat="43.066195" lon="12.3118764"><ele>243.0</ele><time>2026-04-19T10:05:03.809Z</time></trkpt><trkpt lat="43.066245" lon="12.3119683"><ele>243.0</ele><time>2026-04-19T10:05:05.793Z</time></trkpt><trkpt lat="43.0663003" lon="12.3120635"><ele>243.0</ele><time>2026-04-19T10:05:07.793Z</time></trkpt><trkpt lat="43.0663261" lon="12.3121855"><ele>243.0</ele><time>2026-04-19T10:05:10.793Z</time></trkpt><trkpt lat="43.0663257" lon="12.3122727"><ele>243.0</ele><time>2026-04-19T10:05:13.79Z</time></trkpt><trkpt lat="43.0663493" lon="12.3123667"><ele>243.0</ele><time>2026-04-19T10:05:22.789Z</time></trkpt><trkpt lat="43.0663953" lon="12.312437"><ele>243.0</ele><time>2026-04-19T10:05:25.789Z</time></trkpt><trkpt lat="43.066447" lon="12.3125165"><ele>242.60000000000002</ele><time>2026-04-19T10:05:27.793Z</time></trkpt><trkpt lat="43.0665165" lon="12.312618"><ele>242.20000000000002</ele><time>2026-04-19T10:05:29.796Z</time></trkpt><trkpt lat="43.0665821" lon="12.3127195"><ele>241.8</ele><time>2026-04-19T10:05:31.792Z</time></trkpt><trkpt lat="43.0666479" lon="12.312828"><ele>241.4</ele><time>2026-04-19T10:05:33.791Z</time></trkpt><trkpt lat="43.0667071" lon="12.3129312"><ele>241.0</ele><time>2026-04-19T10:05:35.795Z</time></trkpt><trkpt lat="43.0667821" lon="12.3130571"><ele>240.4</ele><time>2026-04-19T10:05:37.793Z</time></trkpt><trkpt lat="43.0668468" lon="12.3131657"><ele>239.8</ele><time>2026-04-19T10:05:39.791Z</time></trkpt><trkpt lat="43.066907" lon="12.3132767"><ele>239.20000000000002</ele><time>2026-04-19T10:05:41.791Z</time></trkpt><trkpt lat="43.0669419" lon="12.313413"><ele>238.60000000000002</ele><time>2026-04-19T10:05:43.79Z</time></trkpt><trkpt lat="43.0669898" lon="12.3135217"><ele>238.0</ele><time>2026-04-19T10:05:45.792Z</time></trkpt><trkpt lat="43.0670401" lon="12.3136315"><ele>238.0</ele><time>2026-04-19T10:05:47.798Z</time></trkpt><trkpt lat="43.0671043" lon="12.3137395"><ele>238.0</ele><time>2026-04-19T10:05:49.794Z</time></trkpt><trkpt lat="43.0671831" lon="12.3138506"><ele>238.0</ele><time>2026-04-19T10:05:51.798Z</time></trkpt><trkpt lat="43.0672543" lon="12.3139526"><ele>238.0</ele><time>2026-04-19T10:05:53.801Z</time></trkpt><trkpt lat="43.0673178" lon="12.3140428"><ele>238.0</ele><time>2026-04-19T10:05:55.796Z</time></trkpt><trkpt lat="43.0673788" lon="12.3141431"><ele>237.83333333333331</ele><time>2026-04-19T10:05:57.798Z</time></trkpt><trkpt lat="43.0674385" lon="12.3142318"><ele>237.66666666666666</ele><time>2026-04-19T10:05:59.798Z</time></trkpt><trkpt lat="43.0674899" lon="12.3143003"><ele>237.5</ele><time>2026-04-19T10:06:01.803Z</time></trkpt><trkpt lat="43.0675407" lon="12.3143653"><ele>237.33333333333331</ele><time>2026-04-19T10:06:03.792Z</time></trkpt><trkpt lat="43.0676007" lon="12.3144529"><ele>237.16666666666666</ele><time>2026-04-19T10:06:05.8Z</time></trkpt><trkpt lat="43.0676515" lon="12.3145561"><ele>237.0</ele><time>2026-04-19T10:06:07.791Z</time></trkpt><trkpt lat="43.0677197" lon="12.3146706"><ele>236.8</ele><time>2026-04-19T10:06:09.793Z</time></trkpt><trkpt lat="43.0677867" lon="12.314787"><ele>236.6</ele><time>2026-04-19T10:06:11.791Z</time></trkpt><trkpt lat="43.0678572" lon="12.3148957"><ele>236.40000000000003</ele><time>2026-04-19T10:06:13.793Z</time></trkpt><trkpt lat="43.0679304" lon="12.3150064"><ele>236.20000000000002</ele><time>2026-04-19T10:06:15.789Z</time></trkpt><trkpt lat="43.0679957" lon="12.3151093"><ele>236.0</ele><time>2026-04-19T10:06:17.793Z</time></trkpt><trkpt lat="43.0680558" lon="12.3151976"><ele>236.0</ele><time>2026-04-19T10:06:19.793Z</time></trkpt><trkpt lat="43.068117" lon="12.3152969"><ele>236.00000000000003</ele><time>2026-04-19T10:06:21.902Z</time></trkpt><trkpt lat="43.0681872" lon="12.3153751"><ele>236.00000000000003</ele><time>2026-04-19T10:06:23.803Z</time></trkpt><trkpt lat="43.0682646" lon="12.3154315"><ele>236.0</ele><time>2026-04-19T10:06:25.792Z</time></trkpt><trkpt lat="43.0683418" lon="12.3154936"><ele>236.0</ele><time>2026-04-19T10:06:27.791Z</time></trkpt><trkpt lat="43.0684362" lon="12.3155722"><ele>236.00000000000003</ele><time>2026-04-19T10:06:29.793Z</time></trkpt><trkpt lat="43.0685069" lon="12.3156396"><ele>236.0</ele><time>2026-04-19T10:06:31.792Z</time></trkpt><trkpt lat="43.0685737" lon="12.3157121"><ele>236.0</ele><time>2026-04-19T10:06:33.793Z</time></trkpt><trkpt lat="43.0686334" lon="12.3157908"><ele>236.0</ele><time>2026-04-19T10:06:35.799Z</time></trkpt><trkpt lat="43.0686961" lon="12.3158676"><ele>236.00000000000003</ele><time>2026-04-19T10:06:37.79Z</time></trkpt><trkpt lat="43.0687597" lon="12.3159343"><ele>236.0</ele><time>2026-04-19T10:06:39.787Z</time></trkpt><trkpt lat="43.0688219" lon="12.3159983"><ele>236.0</ele><time>2026-04-19T10:06:41.79Z</time></trkpt><trkpt lat="43.0688836" lon="12.3160593"><ele>236.0</ele><time>2026-04-19T10:06:43.79Z</time></trkpt><trkpt lat="43.0689398" lon="12.3161254"><ele>236.0</ele><time>2026-04-19T10:06:45.893Z</time></trkpt><trkpt lat="43.0689925" lon="12.3161995"><ele>236.0</ele><time>2026-04-19T10:06:47.792Z</time></trkpt><trkpt lat="43.0690452" lon="12.316287"><ele>236.0</ele><time>2026-04-19T10:06:49.772Z</time></trkpt><trkpt lat="43.0691106" lon="12.3163601"><ele>240.0</ele><time>2026-04-19T10:06:51.793Z</time></trkpt></trkseg></trk></gpx>